<?xml version="1.0" encoding="UTF-8" standalone="no" ?>
<gpx xmlns="http://www.topografix.com/GPX/1/1" xmlns:xsi="http://www.w3.org/2001/XMLSchema-instance" xsi:schemaLocation="http://www.topografix.com/GPX/1/1 http://www.topografix.com/GPX/1/1/gpx.xsd" version="1.1" creator="VisuGPX - https://www.visugpx.com">
  <metadata>
    <name>Marcoux Cyclisme</name>
    <desc><![CDATA[terres noires digne ]]></desc>
  </metadata>
  <trk>
    <name><![CDATA[Marcoux Cyclisme]]></name>
    <trkseg>
      <trkpt lat="44.13186" lon="6.28521">
        <ele>691.90938927604</ele>
        <time>2021-10-12T19:01:42.000Z</time>
      </trkpt>
      <trkpt lat="44.13186" lon="6.28521">
        <ele>691.9279427976</ele>
        <time>2021-10-12T19:01:42.000Z</time>
      </trkpt>
      <trkpt lat="44.13182" lon="6.2852">
        <ele>691.94792090198</ele>
        <time>2021-10-12T19:01:42.001Z</time>
      </trkpt>
      <trkpt lat="44.13178" lon="6.28518">
        <ele>691.98229812281</ele>
        <time>2021-10-12T19:01:42.004Z</time>
      </trkpt>
      <trkpt lat="44.13177" lon="6.28516">
        <ele>692.03360793289</ele>
        <time>2021-10-12T19:01:42.007Z</time>
      </trkpt>
      <trkpt lat="44.13169" lon="6.28506">
        <ele>692.10640191875</ele>
        <time>2021-10-12T19:01:42.014Z</time>
      </trkpt>
      <trkpt lat="44.13147" lon="6.28493">
        <ele>692.12566162521</ele>
        <time>2021-10-12T19:01:42.029Z</time>
      </trkpt>
      <trkpt lat="44.13136" lon="6.2849">
        <ele>692.12314834228</ele>
        <time>2021-10-12T19:01:42.047Z</time>
      </trkpt>
      <trkpt lat="44.13134" lon="6.28494">
        <ele>692.16595054577</ele>
        <time>2021-10-12T19:01:42.067Z</time>
      </trkpt>
      <trkpt lat="44.13133" lon="6.28498">
        <ele>692.22530846541</ele>
        <time>2021-10-12T19:01:42.088Z</time>
      </trkpt>
      <trkpt lat="44.13133" lon="6.28522">
        <ele>692.3254099957</ele>
        <time>2021-10-12T19:01:42.114Z</time>
      </trkpt>
      <trkpt lat="44.13136" lon="6.28558">
        <ele>692.56130397839</ele>
        <time>2021-10-12T19:01:42.149Z</time>
      </trkpt>
      <trkpt lat="44.13138" lon="6.28586">
        <ele>692.8691911019</ele>
        <time>2021-10-12T19:01:42.191Z</time>
      </trkpt>
      <trkpt lat="44.13137" lon="6.28615">
        <ele>693.33241478376</ele>
        <time>2021-10-12T19:01:42.240Z</time>
      </trkpt>
      <trkpt lat="44.13137" lon="6.28645">
        <ele>693.80632256247</ele>
        <time>2021-10-12T19:01:42.296Z</time>
      </trkpt>
      <trkpt lat="44.13136" lon="6.28664">
        <ele>694.27710368037</ele>
        <time>2021-10-12T19:01:42.356Z</time>
      </trkpt>
      <trkpt lat="44.13135" lon="6.28714">
        <ele>694.64548572422</ele>
        <time>2021-10-12T19:01:42.428Z</time>
      </trkpt>
      <trkpt lat="44.13133" lon="6.28766">
        <ele>694.97727845677</ele>
        <time>2021-10-12T19:01:42.513Z</time>
      </trkpt>
      <trkpt lat="44.13129" lon="6.28816">
        <ele>695.23955773852</ele>
        <time>2021-10-12T19:01:42.610Z</time>
      </trkpt>
      <trkpt lat="44.13123" lon="6.28845">
        <ele>695.49296725052</ele>
        <time>2021-10-12T19:01:42.714Z</time>
      </trkpt>
      <trkpt lat="44.1312" lon="6.28879">
        <ele>695.77746213351</ele>
        <time>2021-10-12T19:01:42.826Z</time>
      </trkpt>
      <trkpt lat="44.13117" lon="6.28938">
        <ele>696.27762963001</ele>
        <time>2021-10-12T19:01:42.953Z</time>
      </trkpt>
      <trkpt lat="44.13112" lon="6.28977">
        <ele>696.69294489876</ele>
        <time>2021-10-12T19:01:43.089Z</time>
      </trkpt>
      <trkpt lat="44.13111" lon="6.28986">
        <ele>697.08470846919</ele>
        <time>2021-10-12T19:01:43.227Z</time>
      </trkpt>
      <trkpt lat="44.1311" lon="6.28991">
        <ele>697.47076021029</ele>
        <time>2021-10-12T19:01:43.367Z</time>
      </trkpt>
      <trkpt lat="44.131" lon="6.29052">
        <ele>697.86109966454</ele>
        <time>2021-10-12T19:01:43.522Z</time>
      </trkpt>
      <trkpt lat="44.13099" lon="6.29089">
        <ele>698.30874832229</ele>
        <time>2021-10-12T19:01:43.686Z</time>
      </trkpt>
      <trkpt lat="44.13101" lon="6.29093">
        <ele>698.70682668195</ele>
        <time>2021-10-12T19:01:43.851Z</time>
      </trkpt>
      <trkpt lat="44.13112" lon="6.29129">
        <ele>699.00711308607</ele>
        <time>2021-10-12T19:01:44.025Z</time>
      </trkpt>
      <trkpt lat="44.13113" lon="6.29134">
        <ele>699.34430902661</ele>
        <time>2021-10-12T19:01:44.200Z</time>
      </trkpt>
      <trkpt lat="44.13118" lon="6.29158">
        <ele>699.67437878931</ele>
        <time>2021-10-12T19:01:44.381Z</time>
      </trkpt>
      <trkpt lat="44.13119" lon="6.29162">
        <ele>700.01325502113</ele>
        <time>2021-10-12T19:01:44.563Z</time>
      </trkpt>
      <trkpt lat="44.13127" lon="6.29202">
        <ele>700.46274826523</ele>
        <time>2021-10-12T19:01:44.755Z</time>
      </trkpt>
      <trkpt lat="44.13134" lon="6.29242">
        <ele>701.04262518676</ele>
        <time>2021-10-12T19:01:44.957Z</time>
      </trkpt>
      <trkpt lat="44.13136" lon="6.29251">
        <ele>701.53170850428</ele>
        <time>2021-10-12T19:01:45.161Z</time>
      </trkpt>
      <trkpt lat="44.13144" lon="6.29291">
        <ele>702.12647848656</ele>
        <time>2021-10-12T19:01:45.375Z</time>
      </trkpt>
      <trkpt lat="44.13145" lon="6.29295">
        <ele>702.61649152516</ele>
        <time>2021-10-12T19:01:45.590Z</time>
      </trkpt>
      <trkpt lat="44.13159" lon="6.2936">
        <ele>703.07971360254</ele>
        <time>2021-10-12T19:01:45.822Z</time>
      </trkpt>
      <trkpt lat="44.13161" lon="6.29369">
        <ele>703.52271009656</ele>
        <time>2021-10-12T19:01:46.056Z</time>
      </trkpt>
      <trkpt lat="44.13162" lon="6.29374">
        <ele>703.93058889134</ele>
        <time>2021-10-12T19:01:46.291Z</time>
      </trkpt>
      <trkpt lat="44.13166" lon="6.29387">
        <ele>704.30644303226</ele>
        <time>2021-10-12T19:01:46.530Z</time>
      </trkpt>
      <trkpt lat="44.13175" lon="6.29414">
        <ele>704.61407349459</ele>
        <time>2021-10-12T19:01:46.776Z</time>
      </trkpt>
      <trkpt lat="44.13181" lon="6.29441">
        <ele>704.94463339493</ele>
        <time>2021-10-12T19:01:47.029Z</time>
      </trkpt>
      <trkpt lat="44.13191" lon="6.2949">
        <ele>705.29318446143</ele>
        <time>2021-10-12T19:01:47.294Z</time>
      </trkpt>
      <trkpt lat="44.13206" lon="6.29544">
        <ele>705.55508250541</ele>
        <time>2021-10-12T19:01:47.573Z</time>
      </trkpt>
      <trkpt lat="44.13223" lon="6.29565">
        <ele>705.77846561358</ele>
        <time>2021-10-12T19:01:47.859Z</time>
      </trkpt>
      <trkpt lat="44.13254" lon="6.29588">
        <ele>706.01628610503</ele>
        <time>2021-10-12T19:01:48.157Z</time>
      </trkpt>
      <trkpt lat="44.13262" lon="6.29591">
        <ele>706.22202632754</ele>
        <time>2021-10-12T19:01:48.458Z</time>
      </trkpt>
      <trkpt lat="44.13288" lon="6.29606">
        <ele>706.44820014875</ele>
        <time>2021-10-12T19:01:48.768Z</time>
      </trkpt>
      <trkpt lat="44.13291" lon="6.29608">
        <ele>706.62262575381</ele>
        <time>2021-10-12T19:01:49.079Z</time>
      </trkpt>
      <trkpt lat="44.13327" lon="6.29643">
        <ele>706.77800515734</ele>
        <time>2021-10-12T19:01:49.405Z</time>
      </trkpt>
      <trkpt lat="44.13334" lon="6.29656">
        <ele>706.91205008453</ele>
        <time>2021-10-12T19:01:49.735Z</time>
      </trkpt>
      <trkpt lat="44.13343" lon="6.29677">
        <ele>707.04190004306</ele>
        <time>2021-10-12T19:01:50.071Z</time>
      </trkpt>
      <trkpt lat="44.13353" lon="6.29707">
        <ele>707.14088399864</ele>
        <time>2021-10-12T19:01:50.415Z</time>
      </trkpt>
      <trkpt lat="44.13354" lon="6.29714">
        <ele>707.21441378918</ele>
        <time>2021-10-12T19:01:50.760Z</time>
      </trkpt>
      <trkpt lat="44.13356" lon="6.29727">
        <ele>707.24851919951</ele>
        <time>2021-10-12T19:01:51.108Z</time>
      </trkpt>
      <trkpt lat="44.13357" lon="6.29753">
        <ele>707.24709489954</ele>
        <time>2021-10-12T19:01:51.463Z</time>
      </trkpt>
      <trkpt lat="44.13361" lon="6.29764">
        <ele>707.26128343466</ele>
        <time>2021-10-12T19:01:51.821Z</time>
      </trkpt>
      <trkpt lat="44.13367" lon="6.29772">
        <ele>707.26732131448</ele>
        <time>2021-10-12T19:01:52.181Z</time>
      </trkpt>
      <trkpt lat="44.13379" lon="6.29777">
        <ele>707.26690246347</ele>
        <time>2021-10-12T19:01:52.546Z</time>
      </trkpt>
      <trkpt lat="44.13387" lon="6.29782">
        <ele>707.24675736497</ele>
        <time>2021-10-12T19:01:52.914Z</time>
      </trkpt>
      <trkpt lat="44.13389" lon="6.29782">
        <ele>707.23673819476</ele>
        <time>2021-10-12T19:01:53.282Z</time>
      </trkpt>
      <trkpt lat="44.13394" lon="6.29782">
        <ele>707.23101381978</ele>
        <time>2021-10-12T19:01:53.652Z</time>
      </trkpt>
      <trkpt lat="44.13404" lon="6.2978">
        <ele>707.23219292711</ele>
        <time>2021-10-12T19:01:54.025Z</time>
      </trkpt>
      <trkpt lat="44.13407" lon="6.29782">
        <ele>707.23373536056</ele>
        <time>2021-10-12T19:01:54.399Z</time>
      </trkpt>
      <trkpt lat="44.13419" lon="6.29797">
        <ele>707.21396796768</ele>
        <time>2021-10-12T19:01:54.778Z</time>
      </trkpt>
      <trkpt lat="44.13419" lon="6.29802">
        <ele>707.22456061589</ele>
        <time>2021-10-12T19:01:55.159Z</time>
      </trkpt>
      <trkpt lat="44.13419" lon="6.29806">
        <ele>707.25702005957</ele>
        <time>2021-10-12T19:01:55.541Z</time>
      </trkpt>
      <trkpt lat="44.13422" lon="6.29827">
        <ele>707.33621321605</ele>
        <time>2021-10-12T19:01:55.928Z</time>
      </trkpt>
      <trkpt lat="44.13424" lon="6.29839">
        <ele>707.42037996328</ele>
        <time>2021-10-12T19:01:56.318Z</time>
      </trkpt>
      <trkpt lat="44.13427" lon="6.29844">
        <ele>707.50757952738</ele>
        <time>2021-10-12T19:01:56.709Z</time>
      </trkpt>
      <trkpt lat="44.13429" lon="6.29857">
        <ele>707.62384351096</ele>
        <time>2021-10-12T19:01:57.104Z</time>
      </trkpt>
      <trkpt lat="44.13432" lon="6.29864">
        <ele>707.74400696417</ele>
        <time>2021-10-12T19:01:57.500Z</time>
      </trkpt>
      <trkpt lat="44.13437" lon="6.29867">
        <ele>707.86892831447</ele>
        <time>2021-10-12T19:01:57.898Z</time>
      </trkpt>
      <trkpt lat="44.13453" lon="6.29864">
        <ele>707.99517372182</ele>
        <time>2021-10-12T19:01:58.302Z</time>
      </trkpt>
      <trkpt lat="44.13463" lon="6.2987">
        <ele>708.14670115168</ele>
        <time>2021-10-12T19:01:58.709Z</time>
      </trkpt>
      <trkpt lat="44.13468" lon="6.29894">
        <ele>708.3342722124</ele>
        <time>2021-10-12T19:01:59.122Z</time>
      </trkpt>
      <trkpt lat="44.13476" lon="6.29909">
        <ele>708.51742934629</ele>
        <time>2021-10-12T19:01:59.540Z</time>
      </trkpt>
      <trkpt lat="44.1348" lon="6.29911">
        <ele>708.70116387015</ele>
        <time>2021-10-12T19:01:59.959Z</time>
      </trkpt>
      <trkpt lat="44.13483" lon="6.29913">
        <ele>708.89364050855</ele>
        <time>2021-10-12T19:02:00.379Z</time>
      </trkpt>
      <trkpt lat="44.13487" lon="6.2992">
        <ele>709.09389520552</ele>
        <time>2021-10-12T19:02:00.801Z</time>
      </trkpt>
      <trkpt lat="44.13491" lon="6.29928">
        <ele>709.30126571693</ele>
        <time>2021-10-12T19:02:01.226Z</time>
      </trkpt>
      <trkpt lat="44.13492" lon="6.29929">
        <ele>709.51122358316</ele>
        <time>2021-10-12T19:02:01.651Z</time>
      </trkpt>
      <trkpt lat="44.13497" lon="6.29936">
        <ele>709.73195451984</ele>
        <time>2021-10-12T19:02:02.078Z</time>
      </trkpt>
      <trkpt lat="44.13496" lon="6.2994">
        <ele>709.9495521244</ele>
        <time>2021-10-12T19:02:02.506Z</time>
      </trkpt>
      <trkpt lat="44.13496" lon="6.2994">
        <ele>710.17287877919</ele>
        <time>2021-10-12T19:02:02.934Z</time>
      </trkpt>
      <trkpt lat="44.13498" lon="6.29931">
        <ele>710.40440453094</ele>
        <time>2021-10-12T19:02:03.365Z</time>
      </trkpt>
      <trkpt lat="44.13502" lon="6.29916">
        <ele>710.6446406193</ele>
        <time>2021-10-12T19:02:03.800Z</time>
      </trkpt>
      <trkpt lat="44.13505" lon="6.29914">
        <ele>710.88700203212</ele>
        <time>2021-10-12T19:02:04.235Z</time>
      </trkpt>
      <trkpt lat="44.13509" lon="6.29913">
        <ele>711.1387658458</ele>
        <time>2021-10-12T19:02:04.672Z</time>
      </trkpt>
      <trkpt lat="44.13514" lon="6.29911">
        <ele>711.39595638766</ele>
        <time>2021-10-12T19:02:05.111Z</time>
      </trkpt>
      <trkpt lat="44.13528" lon="6.29896">
        <ele>711.62777520441</ele>
        <time>2021-10-12T19:02:05.556Z</time>
      </trkpt>
      <trkpt lat="44.13531" lon="6.29896">
        <ele>711.87853325612</ele>
        <time>2021-10-12T19:02:06.001Z</time>
      </trkpt>
      <trkpt lat="44.13533" lon="6.29897">
        <ele>712.13261191535</ele>
        <time>2021-10-12T19:02:06.447Z</time>
      </trkpt>
      <trkpt lat="44.13536" lon="6.29901">
        <ele>712.3972084525</ele>
        <time>2021-10-12T19:02:06.895Z</time>
      </trkpt>
      <trkpt lat="44.13542" lon="6.29908">
        <ele>712.67158327775</ele>
        <time>2021-10-12T19:02:07.345Z</time>
      </trkpt>
      <trkpt lat="44.13553" lon="6.29918">
        <ele>712.96565592059</ele>
        <time>2021-10-12T19:02:07.800Z</time>
      </trkpt>
      <trkpt lat="44.13561" lon="6.29924">
        <ele>713.25571566937</ele>
        <time>2021-10-12T19:02:08.257Z</time>
      </trkpt>
      <trkpt lat="44.13565" lon="6.29926">
        <ele>713.53422750407</ele>
        <time>2021-10-12T19:02:08.716Z</time>
      </trkpt>
      <trkpt lat="44.13579" lon="6.2993">
        <ele>713.83648744369</ele>
        <time>2021-10-12T19:02:09.180Z</time>
      </trkpt>
      <trkpt lat="44.13595" lon="6.29929">
        <ele>714.15649157954</ele>
        <time>2021-10-12T19:02:09.649Z</time>
      </trkpt>
      <trkpt lat="44.13604" lon="6.29927">
        <ele>714.45311670529</ele>
        <time>2021-10-12T19:02:10.121Z</time>
      </trkpt>
      <trkpt lat="44.13611" lon="6.29926">
        <ele>714.7524334871</ele>
        <time>2021-10-12T19:02:10.596Z</time>
      </trkpt>
      <trkpt lat="44.13624" lon="6.29924">
        <ele>715.04981221336</ele>
        <time>2021-10-12T19:02:11.075Z</time>
      </trkpt>
      <trkpt lat="44.13632" lon="6.29923">
        <ele>715.31292679168</ele>
        <time>2021-10-12T19:02:11.557Z</time>
      </trkpt>
      <trkpt lat="44.13648" lon="6.29921">
        <ele>715.55642488454</ele>
        <time>2021-10-12T19:02:12.044Z</time>
      </trkpt>
      <trkpt lat="44.13656" lon="6.29921">
        <ele>715.78933985964</ele>
        <time>2021-10-12T19:02:12.533Z</time>
      </trkpt>
      <trkpt lat="44.13663" lon="6.29918">
        <ele>715.99892750307</ele>
        <time>2021-10-12T19:02:13.025Z</time>
      </trkpt>
      <trkpt lat="44.13678" lon="6.29912">
        <ele>716.1563571653</ele>
        <time>2021-10-12T19:02:13.522Z</time>
      </trkpt>
      <trkpt lat="44.13688" lon="6.29906">
        <ele>716.31533186447</ele>
        <time>2021-10-12T19:02:14.023Z</time>
      </trkpt>
      <trkpt lat="44.13707" lon="6.29896">
        <ele>716.49622601103</ele>
        <time>2021-10-12T19:02:14.531Z</time>
      </trkpt>
      <trkpt lat="44.13723" lon="6.29888">
        <ele>716.66406495106</ele>
        <time>2021-10-12T19:02:15.044Z</time>
      </trkpt>
      <trkpt lat="44.13732" lon="6.29883">
        <ele>716.79394033814</ele>
        <time>2021-10-12T19:02:15.560Z</time>
      </trkpt>
      <trkpt lat="44.13759" lon="6.2987">
        <ele>716.83938866242</ele>
        <time>2021-10-12T19:02:16.086Z</time>
      </trkpt>
      <trkpt lat="44.13775" lon="6.29862">
        <ele>716.91824830213</ele>
        <time>2021-10-12T19:02:16.618Z</time>
      </trkpt>
      <trkpt lat="44.1378" lon="6.29859">
        <ele>716.98479559375</ele>
        <time>2021-10-12T19:02:17.151Z</time>
      </trkpt>
      <trkpt lat="44.13785" lon="6.29856">
        <ele>717.03621718325</ele>
        <time>2021-10-12T19:02:17.686Z</time>
      </trkpt>
      <trkpt lat="44.13796" lon="6.29849">
        <ele>717.09661059532</ele>
        <time>2021-10-12T19:02:18.226Z</time>
      </trkpt>
      <trkpt lat="44.13802" lon="6.29844">
        <ele>717.14038204519</ele>
        <time>2021-10-12T19:02:18.768Z</time>
      </trkpt>
      <trkpt lat="44.1382" lon="6.29834">
        <ele>717.19784489439</ele>
        <time>2021-10-12T19:02:19.316Z</time>
      </trkpt>
      <trkpt lat="44.13827" lon="6.29832">
        <ele>717.20961755145</ele>
        <time>2021-10-12T19:02:19.866Z</time>
      </trkpt>
      <trkpt lat="44.13844" lon="6.29831">
        <ele>717.22700762959</ele>
        <time>2021-10-12T19:02:20.422Z</time>
      </trkpt>
      <trkpt lat="44.13857" lon="6.29837">
        <ele>717.22107668977</ele>
        <time>2021-10-12T19:02:20.983Z</time>
      </trkpt>
      <trkpt lat="44.13859" lon="6.29839">
        <ele>717.19399946774</ele>
        <time>2021-10-12T19:02:21.545Z</time>
      </trkpt>
      <trkpt lat="44.1387" lon="6.29855">
        <ele>717.17412377206</ele>
        <time>2021-10-12T19:02:22.112Z</time>
      </trkpt>
      <trkpt lat="44.13877" lon="6.29862">
        <ele>717.14320493769</ele>
        <time>2021-10-12T19:02:22.682Z</time>
      </trkpt>
      <trkpt lat="44.13883" lon="6.29866">
        <ele>717.09664032236</ele>
        <time>2021-10-12T19:02:23.254Z</time>
      </trkpt>
      <trkpt lat="44.13904" lon="6.29879">
        <ele>717.03494150007</ele>
        <time>2021-10-12T19:02:23.834Z</time>
      </trkpt>
      <trkpt lat="44.13928" lon="6.29883">
        <ele>716.9924053821</ele>
        <time>2021-10-12T19:02:24.422Z</time>
      </trkpt>
      <trkpt lat="44.13936" lon="6.29883">
        <ele>716.9325408118</ele>
        <time>2021-10-12T19:02:25.012Z</time>
      </trkpt>
      <trkpt lat="44.13952" lon="6.29883">
        <ele>716.8526087739</ele>
        <time>2021-10-12T19:02:25.608Z</time>
      </trkpt>
      <trkpt lat="44.13963" lon="6.29884">
        <ele>716.794309798</ele>
        <time>2021-10-12T19:02:26.208Z</time>
      </trkpt>
      <trkpt lat="44.13988" lon="6.29887">
        <ele>716.73702753119</ele>
        <time>2021-10-12T19:02:26.816Z</time>
      </trkpt>
      <trkpt lat="44.13992" lon="6.29888">
        <ele>716.70107373614</ele>
        <time>2021-10-12T19:02:27.425Z</time>
      </trkpt>
      <trkpt lat="44.14016" lon="6.29892">
        <ele>716.60474637952</ele>
        <time>2021-10-12T19:02:28.042Z</time>
      </trkpt>
      <trkpt lat="44.14029" lon="6.29892">
        <ele>716.58430381051</ele>
        <time>2021-10-12T19:02:28.664Z</time>
      </trkpt>
      <trkpt lat="44.14047" lon="6.29893">
        <ele>716.60804999645</ele>
        <time>2021-10-12T19:02:29.292Z</time>
      </trkpt>
      <trkpt lat="44.14065" lon="6.29895">
        <ele>716.6716294183</ele>
        <time>2021-10-12T19:02:29.926Z</time>
      </trkpt>
      <trkpt lat="44.14075" lon="6.29898">
        <ele>716.75944052436</ele>
        <time>2021-10-12T19:02:30.563Z</time>
      </trkpt>
      <trkpt lat="44.14093" lon="6.29907">
        <ele>716.79982259924</ele>
        <time>2021-10-12T19:02:31.206Z</time>
      </trkpt>
      <trkpt lat="44.14098" lon="6.2991">
        <ele>716.92839251184</ele>
        <time>2021-10-12T19:02:31.851Z</time>
      </trkpt>
      <trkpt lat="44.14112" lon="6.29922">
        <ele>717.09267839816</ele>
        <time>2021-10-12T19:02:32.502Z</time>
      </trkpt>
      <trkpt lat="44.14127" lon="6.29939">
        <ele>717.31034600786</ele>
        <time>2021-10-12T19:02:33.159Z</time>
      </trkpt>
      <trkpt lat="44.14148" lon="6.29969">
        <ele>717.63832327735</ele>
        <time>2021-10-12T19:02:33.826Z</time>
      </trkpt>
      <trkpt lat="44.14155" lon="6.29984">
        <ele>717.98295379145</ele>
        <time>2021-10-12T19:02:34.498Z</time>
      </trkpt>
      <trkpt lat="44.14164" lon="6.29997">
        <ele>718.32887936647</ele>
        <time>2021-10-12T19:02:35.174Z</time>
      </trkpt>
      <trkpt lat="44.14174" lon="6.30009">
        <ele>718.69480289806</ele>
        <time>2021-10-12T19:02:35.854Z</time>
      </trkpt>
      <trkpt lat="44.14184" lon="6.30021">
        <ele>719.09971228993</ele>
        <time>2021-10-12T19:02:36.539Z</time>
      </trkpt>
      <trkpt lat="44.14202" lon="6.30044">
        <ele>719.60368557424</ele>
        <time>2021-10-12T19:02:37.232Z</time>
      </trkpt>
      <trkpt lat="44.14208" lon="6.3006">
        <ele>720.14294630251</ele>
        <time>2021-10-12T19:02:37.929Z</time>
      </trkpt>
      <trkpt lat="44.14214" lon="6.30075">
        <ele>720.71482503852</ele>
        <time>2021-10-12T19:02:38.630Z</time>
      </trkpt>
      <trkpt lat="44.14232" lon="6.30103">
        <ele>721.33266975509</ele>
        <time>2021-10-12T19:02:39.340Z</time>
      </trkpt>
      <trkpt lat="44.14249" lon="6.30126">
        <ele>721.88228006764</ele>
        <time>2021-10-12T19:02:40.058Z</time>
      </trkpt>
      <trkpt lat="44.1425" lon="6.30133">
        <ele>722.50793544588</ele>
        <time>2021-10-12T19:02:40.778Z</time>
      </trkpt>
      <trkpt lat="44.14249" lon="6.30141">
        <ele>723.18215038768</ele>
        <time>2021-10-12T19:02:41.500Z</time>
      </trkpt>
      <trkpt lat="44.14248" lon="6.30148">
        <ele>723.88368406738</ele>
        <time>2021-10-12T19:02:42.223Z</time>
      </trkpt>
      <trkpt lat="44.14244" lon="6.30161">
        <ele>724.66084894153</ele>
        <time>2021-10-12T19:02:42.950Z</time>
      </trkpt>
      <trkpt lat="44.14242" lon="6.30168">
        <ele>725.41460754379</ele>
        <time>2021-10-12T19:02:43.679Z</time>
      </trkpt>
      <trkpt lat="44.1424" lon="6.30175">
        <ele>726.17587075334</ele>
        <time>2021-10-12T19:02:44.409Z</time>
      </trkpt>
      <trkpt lat="44.14238" lon="6.30189">
        <ele>726.98470203241</ele>
        <time>2021-10-12T19:02:45.143Z</time>
      </trkpt>
      <trkpt lat="44.14239" lon="6.30196">
        <ele>727.78304359393</ele>
        <time>2021-10-12T19:02:45.879Z</time>
      </trkpt>
      <trkpt lat="44.14246" lon="6.30209">
        <ele>728.60302110613</ele>
        <time>2021-10-12T19:02:46.618Z</time>
      </trkpt>
      <trkpt lat="44.14254" lon="6.30215">
        <ele>729.35345556698</ele>
        <time>2021-10-12T19:02:47.360Z</time>
      </trkpt>
      <trkpt lat="44.14262" lon="6.30219">
        <ele>730.07230019329</ele>
        <time>2021-10-12T19:02:48.105Z</time>
      </trkpt>
      <trkpt lat="44.14288" lon="6.30221">
        <ele>730.62319592905</ele>
        <time>2021-10-12T19:02:48.859Z</time>
      </trkpt>
      <trkpt lat="44.143" lon="6.30219">
        <ele>731.24381440707</ele>
        <time>2021-10-12T19:02:49.617Z</time>
      </trkpt>
      <trkpt lat="44.14312" lon="6.30228">
        <ele>731.94347849725</ele>
        <time>2021-10-12T19:02:50.379Z</time>
      </trkpt>
      <trkpt lat="44.14338" lon="6.30251">
        <ele>732.72377921335</ele>
        <time>2021-10-12T19:02:51.152Z</time>
      </trkpt>
      <trkpt lat="44.14343" lon="6.30256">
        <ele>733.45629544667</ele>
        <time>2021-10-12T19:02:51.927Z</time>
      </trkpt>
      <trkpt lat="44.14346" lon="6.30262">
        <ele>734.19028973206</ele>
        <time>2021-10-12T19:02:52.704Z</time>
      </trkpt>
      <trkpt lat="44.14353" lon="6.30295">
        <ele>735.05276792914</ele>
        <time>2021-10-12T19:02:53.489Z</time>
      </trkpt>
      <trkpt lat="44.14355" lon="6.30298">
        <ele>735.75923016874</ele>
        <time>2021-10-12T19:02:54.275Z</time>
      </trkpt>
      <trkpt lat="44.14366" lon="6.30317">
        <ele>736.5838314442</ele>
        <time>2021-10-12T19:02:55.067Z</time>
      </trkpt>
      <trkpt lat="44.14369" lon="6.30319">
        <ele>737.26305814796</ele>
        <time>2021-10-12T19:02:55.860Z</time>
      </trkpt>
      <trkpt lat="44.14384" lon="6.30331">
        <ele>738.01024617798</ele>
        <time>2021-10-12T19:02:56.658Z</time>
      </trkpt>
      <trkpt lat="44.14389" lon="6.30336">
        <ele>738.6516117616</ele>
        <time>2021-10-12T19:02:57.458Z</time>
      </trkpt>
      <trkpt lat="44.14399" lon="6.30344">
        <ele>739.29386030683</ele>
        <time>2021-10-12T19:02:58.262Z</time>
      </trkpt>
      <trkpt lat="44.14413" lon="6.30357">
        <ele>739.91540750901</ele>
        <time>2021-10-12T19:02:59.072Z</time>
      </trkpt>
      <trkpt lat="44.14437" lon="6.3038">
        <ele>740.44992574667</ele>
        <time>2021-10-12T19:02:59.892Z</time>
      </trkpt>
      <trkpt lat="44.14456" lon="6.30401">
        <ele>740.9827871944</ele>
        <time>2021-10-12T19:03:00.720Z</time>
      </trkpt>
      <trkpt lat="44.14478" lon="6.3043">
        <ele>741.41629325871</ele>
        <time>2021-10-12T19:03:01.558Z</time>
      </trkpt>
      <trkpt lat="44.14489" lon="6.30438">
        <ele>741.81836566276</ele>
        <time>2021-10-12T19:03:02.400Z</time>
      </trkpt>
      <trkpt lat="44.145" lon="6.30443">
        <ele>742.2042094665</ele>
        <time>2021-10-12T19:03:03.246Z</time>
      </trkpt>
      <trkpt lat="44.14525" lon="6.30457">
        <ele>742.5500973752</ele>
        <time>2021-10-12T19:03:04.101Z</time>
      </trkpt>
      <trkpt lat="44.14547" lon="6.30479">
        <ele>742.93725421592</ele>
        <time>2021-10-12T19:03:04.965Z</time>
      </trkpt>
      <trkpt lat="44.1455" lon="6.30483">
        <ele>743.27400365263</ele>
        <time>2021-10-12T19:03:05.830Z</time>
      </trkpt>
      <trkpt lat="44.14557" lon="6.30491">
        <ele>743.60208012855</ele>
        <time>2021-10-12T19:03:06.698Z</time>
      </trkpt>
      <trkpt lat="44.14572" lon="6.3051">
        <ele>743.89366771339</ele>
        <time>2021-10-12T19:03:07.573Z</time>
      </trkpt>
      <trkpt lat="44.1459" lon="6.30532">
        <ele>744.16027862505</ele>
        <time>2021-10-12T19:03:08.456Z</time>
      </trkpt>
      <trkpt lat="44.14599" lon="6.30542">
        <ele>744.42425042531</ele>
        <time>2021-10-12T19:03:09.343Z</time>
      </trkpt>
      <trkpt lat="44.1461" lon="6.30552">
        <ele>744.66122117963</ele>
        <time>2021-10-12T19:03:10.234Z</time>
      </trkpt>
      <trkpt lat="44.14627" lon="6.30562">
        <ele>744.87875191104</ele>
        <time>2021-10-12T19:03:11.131Z</time>
      </trkpt>
      <trkpt lat="44.14638" lon="6.30561">
        <ele>745.06073387725</ele>
        <time>2021-10-12T19:03:12.032Z</time>
      </trkpt>
      <trkpt lat="44.14644" lon="6.30561">
        <ele>745.24922247656</ele>
        <time>2021-10-12T19:03:12.935Z</time>
      </trkpt>
      <trkpt lat="44.14649" lon="6.30561">
        <ele>745.4360042495</ele>
        <time>2021-10-12T19:03:13.840Z</time>
      </trkpt>
      <trkpt lat="44.1466" lon="6.30565">
        <ele>745.62652369377</ele>
        <time>2021-10-12T19:03:14.749Z</time>
      </trkpt>
      <trkpt lat="44.14663" lon="6.30569">
        <ele>745.84052530112</ele>
        <time>2021-10-12T19:03:15.659Z</time>
      </trkpt>
      <trkpt lat="44.14665" lon="6.30575">
        <ele>746.07298388084</ele>
        <time>2021-10-12T19:03:16.571Z</time>
      </trkpt>
      <trkpt lat="44.14667" lon="6.30588">
        <ele>746.32718358757</ele>
        <time>2021-10-12T19:03:17.486Z</time>
      </trkpt>
      <trkpt lat="44.14671" lon="6.30609">
        <ele>746.60509275112</ele>
        <time>2021-10-12T19:03:18.406Z</time>
      </trkpt>
      <trkpt lat="44.14672" lon="6.30612">
        <ele>746.8462506767</ele>
        <time>2021-10-12T19:03:19.327Z</time>
      </trkpt>
      <trkpt lat="44.14675" lon="6.30625">
        <ele>747.13211442818</ele>
        <time>2021-10-12T19:03:20.251Z</time>
      </trkpt>
      <trkpt lat="44.14677" lon="6.30633">
        <ele>747.41613818895</ele>
        <time>2021-10-12T19:03:21.177Z</time>
      </trkpt>
      <trkpt lat="44.14678" lon="6.30636">
        <ele>747.68925983006</ele>
        <time>2021-10-12T19:03:22.104Z</time>
      </trkpt>
      <trkpt lat="44.14681" lon="6.30646">
        <ele>747.99953021302</ele>
        <time>2021-10-12T19:03:23.033Z</time>
      </trkpt>
      <trkpt lat="44.14683" lon="6.30656">
        <ele>748.32730294827</ele>
        <time>2021-10-12T19:03:23.965Z</time>
      </trkpt>
      <trkpt lat="44.14686" lon="6.30667">
        <ele>748.67404472495</ele>
        <time>2021-10-12T19:03:24.900Z</time>
      </trkpt>
      <trkpt lat="44.14691" lon="6.3068">
        <ele>749.04548565288</ele>
        <time>2021-10-12T19:03:25.838Z</time>
      </trkpt>
      <trkpt lat="44.147" lon="6.30687">
        <ele>749.40270233369</ele>
        <time>2021-10-12T19:03:26.780Z</time>
      </trkpt>
      <trkpt lat="44.14706" lon="6.30688">
        <ele>749.75140334456</ele>
        <time>2021-10-12T19:03:27.724Z</time>
      </trkpt>
      <trkpt lat="44.14717" lon="6.30682">
        <ele>750.08294494276</ele>
        <time>2021-10-12T19:03:28.672Z</time>
      </trkpt>
      <trkpt lat="44.14719" lon="6.3068">
        <ele>750.46423877072</ele>
        <time>2021-10-12T19:03:29.621Z</time>
      </trkpt>
      <trkpt lat="44.14726" lon="6.30672">
        <ele>750.84089812927</ele>
        <time>2021-10-12T19:03:30.572Z</time>
      </trkpt>
      <trkpt lat="44.14735" lon="6.30663">
        <ele>751.23885217313</ele>
        <time>2021-10-12T19:03:31.527Z</time>
      </trkpt>
      <trkpt lat="44.1474" lon="6.30664">
        <ele>751.70441944355</ele>
        <time>2021-10-12T19:03:32.484Z</time>
      </trkpt>
      <trkpt lat="44.14742" lon="6.30669">
        <ele>752.21203412449</ele>
        <time>2021-10-12T19:03:33.442Z</time>
      </trkpt>
      <trkpt lat="44.14743" lon="6.30672">
        <ele>752.74276974386</ele>
        <time>2021-10-12T19:03:34.401Z</time>
      </trkpt>
      <trkpt lat="44.14741" lon="6.30685">
        <ele>753.35537139747</ele>
        <time>2021-10-12T19:03:35.363Z</time>
      </trkpt>
      <trkpt lat="44.14739" lon="6.30694">
        <ele>753.97304290023</ele>
        <time>2021-10-12T19:03:36.327Z</time>
      </trkpt>
      <trkpt lat="44.14734" lon="6.30709">
        <ele>754.63036928359</ele>
        <time>2021-10-12T19:03:37.295Z</time>
      </trkpt>
      <trkpt lat="44.14732" lon="6.3072">
        <ele>755.3156223038</ele>
        <time>2021-10-12T19:03:38.266Z</time>
      </trkpt>
      <trkpt lat="44.1473" lon="6.30727">
        <ele>756.0068348081</ele>
        <time>2021-10-12T19:03:39.239Z</time>
      </trkpt>
      <trkpt lat="44.14729" lon="6.30734">
        <ele>756.72648387633</ele>
        <time>2021-10-12T19:03:40.214Z</time>
      </trkpt>
      <trkpt lat="44.14727" lon="6.30748">
        <ele>757.51852156737</ele>
        <time>2021-10-12T19:03:41.192Z</time>
      </trkpt>
      <trkpt lat="44.14726" lon="6.30752">
        <ele>758.28085724667</ele>
        <time>2021-10-12T19:03:42.171Z</time>
      </trkpt>
      <trkpt lat="44.14726" lon="6.30762">
        <ele>759.09791871672</ele>
        <time>2021-10-12T19:03:43.152Z</time>
      </trkpt>
      <trkpt lat="44.14726" lon="6.30774">
        <ele>759.94897711748</ele>
        <time>2021-10-12T19:03:44.136Z</time>
      </trkpt>
      <trkpt lat="44.14726" lon="6.30791">
        <ele>760.84508442871</ele>
        <time>2021-10-12T19:03:45.124Z</time>
      </trkpt>
      <trkpt lat="44.14725" lon="6.30794">
        <ele>761.69601911233</ele>
        <time>2021-10-12T19:03:46.113Z</time>
      </trkpt>
      <trkpt lat="44.14724" lon="6.308">
        <ele>762.5860169479</ele>
        <time>2021-10-12T19:03:47.104Z</time>
      </trkpt>
      <trkpt lat="44.14719" lon="6.30818">
        <ele>763.58010515428</ele>
        <time>2021-10-12T19:03:48.099Z</time>
      </trkpt>
      <trkpt lat="44.14718" lon="6.3082">
        <ele>764.47666462978</ele>
        <time>2021-10-12T19:03:49.095Z</time>
      </trkpt>
      <trkpt lat="44.1471" lon="6.30825">
        <ele>765.42716966154</ele>
        <time>2021-10-12T19:03:50.094Z</time>
      </trkpt>
      <trkpt lat="44.14703" lon="6.30816">
        <ele>766.28575116556</ele>
        <time>2021-10-12T19:03:51.096Z</time>
      </trkpt>
      <trkpt lat="44.14701" lon="6.30813">
        <ele>767.17601087235</ele>
        <time>2021-10-12T19:03:52.099Z</time>
      </trkpt>
      <trkpt lat="44.14698" lon="6.30808">
        <ele>768.06633192896</ele>
        <time>2021-10-12T19:03:53.104Z</time>
      </trkpt>
      <trkpt lat="44.14693" lon="6.30805">
        <ele>768.97729062246</ele>
        <time>2021-10-12T19:03:54.110Z</time>
      </trkpt>
      <trkpt lat="44.14691" lon="6.30805">
        <ele>769.90758717282</ele>
        <time>2021-10-12T19:03:55.117Z</time>
      </trkpt>
      <trkpt lat="44.14686" lon="6.30807">
        <ele>770.87361746391</ele>
        <time>2021-10-12T19:03:56.126Z</time>
      </trkpt>
      <trkpt lat="44.14683" lon="6.30812">
        <ele>771.86600717052</ele>
        <time>2021-10-12T19:03:57.136Z</time>
      </trkpt>
      <trkpt lat="44.14678" lon="6.30819">
        <ele>772.8950581386</ele>
        <time>2021-10-12T19:03:58.149Z</time>
      </trkpt>
      <trkpt lat="44.14674" lon="6.30823">
        <ele>773.90530308074</ele>
        <time>2021-10-12T19:03:59.163Z</time>
      </trkpt>
      <trkpt lat="44.14671" lon="6.30827">
        <ele>774.91834578492</ele>
        <time>2021-10-12T19:04:00.179Z</time>
      </trkpt>
      <trkpt lat="44.14662" lon="6.30832">
        <ele>775.98817311436</ele>
        <time>2021-10-12T19:04:01.198Z</time>
      </trkpt>
      <trkpt lat="44.1465" lon="6.30834">
        <ele>777.00639355401</ele>
        <time>2021-10-12T19:04:02.221Z</time>
      </trkpt>
      <trkpt lat="44.14643" lon="6.30833">
        <ele>777.96135831642</ele>
        <time>2021-10-12T19:04:03.246Z</time>
      </trkpt>
      <trkpt lat="44.14639" lon="6.30833">
        <ele>778.91512244033</ele>
        <time>2021-10-12T19:04:04.272Z</time>
      </trkpt>
      <trkpt lat="44.14631" lon="6.30832">
        <ele>779.85492035133</ele>
        <time>2021-10-12T19:04:05.301Z</time>
      </trkpt>
      <trkpt lat="44.14627" lon="6.30832">
        <ele>780.78512344368</ele>
        <time>2021-10-12T19:04:06.332Z</time>
      </trkpt>
      <trkpt lat="44.14622" lon="6.30832">
        <ele>781.71042062028</ele>
        <time>2021-10-12T19:04:07.364Z</time>
      </trkpt>
      <trkpt lat="44.1461" lon="6.30833">
        <ele>782.64937334001</ele>
        <time>2021-10-12T19:04:08.400Z</time>
      </trkpt>
      <trkpt lat="44.14603" lon="6.30836">
        <ele>783.61123803101</ele>
        <time>2021-10-12T19:04:09.439Z</time>
      </trkpt>
      <trkpt lat="44.14601" lon="6.30838">
        <ele>784.533700347</ele>
        <time>2021-10-12T19:04:10.478Z</time>
      </trkpt>
      <trkpt lat="44.14593" lon="6.30844">
        <ele>785.56097021255</ele>
        <time>2021-10-12T19:04:11.521Z</time>
      </trkpt>
      <trkpt lat="44.14589" lon="6.30846">
        <ele>786.50233419977</ele>
        <time>2021-10-12T19:04:12.565Z</time>
      </trkpt>
      <trkpt lat="44.14579" lon="6.30848">
        <ele>787.46736930181</ele>
        <time>2021-10-12T19:04:13.612Z</time>
      </trkpt>
      <trkpt lat="44.14572" lon="6.30846">
        <ele>788.35924376091</ele>
        <time>2021-10-12T19:04:14.662Z</time>
      </trkpt>
      <trkpt lat="44.14568" lon="6.30844">
        <ele>789.23440275229</ele>
        <time>2021-10-12T19:04:15.713Z</time>
      </trkpt>
      <trkpt lat="44.14559" lon="6.30841">
        <ele>790.1335902455</ele>
        <time>2021-10-12T19:04:16.767Z</time>
      </trkpt>
      <trkpt lat="44.14552" lon="6.30838">
        <ele>791.0158533419</ele>
        <time>2021-10-12T19:04:17.824Z</time>
      </trkpt>
      <trkpt lat="44.14541" lon="6.30833">
        <ele>791.87288112646</ele>
        <time>2021-10-12T19:04:18.884Z</time>
      </trkpt>
      <trkpt lat="44.14534" lon="6.30825">
        <ele>792.62525018476</ele>
        <time>2021-10-12T19:04:19.948Z</time>
      </trkpt>
      <trkpt lat="44.14527" lon="6.30817">
        <ele>793.3456549472</ele>
        <time>2021-10-12T19:04:21.015Z</time>
      </trkpt>
      <trkpt lat="44.14522" lon="6.30815">
        <ele>794.15418189187</ele>
        <time>2021-10-12T19:04:22.083Z</time>
      </trkpt>
      <trkpt lat="44.14517" lon="6.30815">
        <ele>794.99392396448</ele>
        <time>2021-10-12T19:04:23.153Z</time>
      </trkpt>
      <trkpt lat="44.14507" lon="6.30818">
        <ele>795.89130056192</ele>
        <time>2021-10-12T19:04:24.226Z</time>
      </trkpt>
      <trkpt lat="44.14505" lon="6.30818">
        <ele>796.70176093217</ele>
        <time>2021-10-12T19:04:25.300Z</time>
      </trkpt>
      <trkpt lat="44.14495" lon="6.30817">
        <ele>797.51968080727</ele>
        <time>2021-10-12T19:04:26.377Z</time>
      </trkpt>
      <trkpt lat="44.14492" lon="6.30817">
        <ele>798.33517003777</ele>
        <time>2021-10-12T19:04:27.455Z</time>
      </trkpt>
      <trkpt lat="44.14488" lon="6.30816">
        <ele>799.18317142703</ele>
        <time>2021-10-12T19:04:28.535Z</time>
      </trkpt>
      <trkpt lat="44.14478" lon="6.30814">
        <ele>800.11869025571</ele>
        <time>2021-10-12T19:04:29.618Z</time>
      </trkpt>
      <trkpt lat="44.1447" lon="6.3081">
        <ele>801.02362983131</ele>
        <time>2021-10-12T19:04:30.704Z</time>
      </trkpt>
      <trkpt lat="44.14461" lon="6.30805">
        <ele>801.91789087842</ele>
        <time>2021-10-12T19:04:31.793Z</time>
      </trkpt>
      <trkpt lat="44.14454" lon="6.30803">
        <ele>802.90081970912</ele>
        <time>2021-10-12T19:04:32.884Z</time>
      </trkpt>
      <trkpt lat="44.14452" lon="6.30803">
        <ele>803.81171152613</ele>
        <time>2021-10-12T19:04:33.976Z</time>
      </trkpt>
      <trkpt lat="44.14442" lon="6.30798">
        <ele>804.82549221902</ele>
        <time>2021-10-12T19:04:35.072Z</time>
      </trkpt>
      <trkpt lat="44.1444" lon="6.30796">
        <ele>805.70964344598</ele>
        <time>2021-10-12T19:04:36.169Z</time>
      </trkpt>
      <trkpt lat="44.14434" lon="6.30789">
        <ele>806.57528372942</ele>
        <time>2021-10-12T19:04:37.268Z</time>
      </trkpt>
      <trkpt lat="44.14428" lon="6.30784">
        <ele>807.43866933879</ele>
        <time>2021-10-12T19:04:38.369Z</time>
      </trkpt>
      <trkpt lat="44.14426" lon="6.30783">
        <ele>808.32706359176</ele>
        <time>2021-10-12T19:04:39.471Z</time>
      </trkpt>
      <trkpt lat="44.1442" lon="6.30779">
        <ele>809.22034543282</ele>
        <time>2021-10-12T19:04:40.575Z</time>
      </trkpt>
      <trkpt lat="44.14411" lon="6.30775">
        <ele>810.13706802378</ele>
        <time>2021-10-12T19:04:41.682Z</time>
      </trkpt>
      <trkpt lat="44.14405" lon="6.30772">
        <ele>811.09994677667</ele>
        <time>2021-10-12T19:04:42.792Z</time>
      </trkpt>
      <trkpt lat="44.14398" lon="6.30771">
        <ele>812.1185754385</ele>
        <time>2021-10-12T19:04:43.904Z</time>
      </trkpt>
      <trkpt lat="44.14391" lon="6.3077">
        <ele>813.15875958311</ele>
        <time>2021-10-12T19:04:45.018Z</time>
      </trkpt>
      <trkpt lat="44.14387" lon="6.30769">
        <ele>814.16106831706</ele>
        <time>2021-10-12T19:04:46.134Z</time>
      </trkpt>
      <trkpt lat="44.14378" lon="6.30766">
        <ele>815.20878414207</ele>
        <time>2021-10-12T19:04:47.253Z</time>
      </trkpt>
      <trkpt lat="44.1437" lon="6.30762">
        <ele>816.21056558523</ele>
        <time>2021-10-12T19:04:48.375Z</time>
      </trkpt>
      <trkpt lat="44.14362" lon="6.30758">
        <ele>817.22867905704</ele>
        <time>2021-10-12T19:04:49.500Z</time>
      </trkpt>
      <trkpt lat="44.14353" lon="6.30759">
        <ele>818.3466255088</ele>
        <time>2021-10-12T19:04:50.628Z</time>
      </trkpt>
      <trkpt lat="44.14347" lon="6.30763">
        <ele>819.45120827456</ele>
        <time>2021-10-12T19:04:51.758Z</time>
      </trkpt>
      <trkpt lat="44.1434" lon="6.30764">
        <ele>820.50592712097</ele>
        <time>2021-10-12T19:04:52.890Z</time>
      </trkpt>
      <trkpt lat="44.14334" lon="6.30764">
        <ele>821.53166261323</ele>
        <time>2021-10-12T19:04:54.024Z</time>
      </trkpt>
      <trkpt lat="44.14325" lon="6.30762">
        <ele>822.52304662842</ele>
        <time>2021-10-12T19:04:55.161Z</time>
      </trkpt>
      <trkpt lat="44.14313" lon="6.3076">
        <ele>823.51703875078</ele>
        <time>2021-10-12T19:04:56.302Z</time>
      </trkpt>
      <trkpt lat="44.14311" lon="6.30759">
        <ele>824.45482165872</ele>
        <time>2021-10-12T19:04:57.444Z</time>
      </trkpt>
      <trkpt lat="44.14302" lon="6.30757">
        <ele>825.38488931941</ele>
        <time>2021-10-12T19:04:58.589Z</time>
      </trkpt>
      <trkpt lat="44.14295" lon="6.30755">
        <ele>826.29946706362</ele>
        <time>2021-10-12T19:04:59.736Z</time>
      </trkpt>
      <trkpt lat="44.1429" lon="6.30755">
        <ele>827.21168942798</ele>
        <time>2021-10-12T19:05:00.885Z</time>
      </trkpt>
      <trkpt lat="44.14276" lon="6.30753">
        <ele>828.14422073363</ele>
        <time>2021-10-12T19:05:02.039Z</time>
      </trkpt>
      <trkpt lat="44.14273" lon="6.30754">
        <ele>829.04618058949</ele>
        <time>2021-10-12T19:05:03.193Z</time>
      </trkpt>
      <trkpt lat="44.14269" lon="6.30753">
        <ele>829.95009226926</ele>
        <time>2021-10-12T19:05:04.349Z</time>
      </trkpt>
      <trkpt lat="44.1426" lon="6.30749">
        <ele>830.76655225033</ele>
        <time>2021-10-12T19:05:05.508Z</time>
      </trkpt>
      <trkpt lat="44.14258" lon="6.30748">
        <ele>831.57723654749</ele>
        <time>2021-10-12T19:05:06.668Z</time>
      </trkpt>
      <trkpt lat="44.1425" lon="6.30741">
        <ele>832.33766032406</ele>
        <time>2021-10-12T19:05:07.831Z</time>
      </trkpt>
      <trkpt lat="44.14244" lon="6.30735">
        <ele>833.11255947129</ele>
        <time>2021-10-12T19:05:08.996Z</time>
      </trkpt>
      <trkpt lat="44.14238" lon="6.30726">
        <ele>833.86386969367</ele>
        <time>2021-10-12T19:05:10.164Z</time>
      </trkpt>
      <trkpt lat="44.14231" lon="6.30718">
        <ele>834.62627724307</ele>
        <time>2021-10-12T19:05:11.336Z</time>
      </trkpt>
      <trkpt lat="44.14229" lon="6.30716">
        <ele>835.40070365995</ele>
        <time>2021-10-12T19:05:12.508Z</time>
      </trkpt>
      <trkpt lat="44.14222" lon="6.30711">
        <ele>836.20955276272</ele>
        <time>2021-10-12T19:05:13.683Z</time>
      </trkpt>
      <trkpt lat="44.14213" lon="6.30708">
        <ele>837.04120518461</ele>
        <time>2021-10-12T19:05:14.861Z</time>
      </trkpt>
      <trkpt lat="44.14208" lon="6.30707">
        <ele>837.85196000016</ele>
        <time>2021-10-12T19:05:16.040Z</time>
      </trkpt>
      <trkpt lat="44.14199" lon="6.30708">
        <ele>838.81611192486</ele>
        <time>2021-10-12T19:05:17.223Z</time>
      </trkpt>
      <trkpt lat="44.14189" lon="6.30706">
        <ele>839.8012150224</ele>
        <time>2021-10-12T19:05:18.409Z</time>
      </trkpt>
      <trkpt lat="44.14183" lon="6.30697">
        <ele>840.49351202943</ele>
        <time>2021-10-12T19:05:19.598Z</time>
      </trkpt>
      <trkpt lat="44.1418" lon="6.30692">
        <ele>841.1339065272</ele>
        <time>2021-10-12T19:05:20.789Z</time>
      </trkpt>
      <trkpt lat="44.14176" lon="6.30687">
        <ele>841.74906323183</ele>
        <time>2021-10-12T19:05:21.981Z</time>
      </trkpt>
      <trkpt lat="44.1417" lon="6.30681">
        <ele>842.35775033808</ele>
        <time>2021-10-12T19:05:23.176Z</time>
      </trkpt>
      <trkpt lat="44.14168" lon="6.30679">
        <ele>842.94199860932</ele>
        <time>2021-10-12T19:05:24.372Z</time>
      </trkpt>
      <trkpt lat="44.1416" lon="6.30673">
        <ele>843.53234708362</ele>
        <time>2021-10-12T19:05:25.571Z</time>
      </trkpt>
      <trkpt lat="44.14155" lon="6.30666">
        <ele>844.0290617607</ele>
        <time>2021-10-12T19:05:26.772Z</time>
      </trkpt>
      <trkpt lat="44.1415" lon="6.30659">
        <ele>844.48413786358</ele>
        <time>2021-10-12T19:05:27.975Z</time>
      </trkpt>
      <trkpt lat="44.14144" lon="6.30649">
        <ele>844.8717863652</ele>
        <time>2021-10-12T19:05:29.181Z</time>
      </trkpt>
      <trkpt lat="44.14142" lon="6.30647">
        <ele>845.28521462776</ele>
        <time>2021-10-12T19:05:30.388Z</time>
      </trkpt>
      <trkpt lat="44.14136" lon="6.30638">
        <ele>845.6925285441</ele>
        <time>2021-10-12T19:05:31.598Z</time>
      </trkpt>
      <trkpt lat="44.14134" lon="6.30636">
        <ele>846.09417066623</ele>
        <time>2021-10-12T19:05:32.809Z</time>
      </trkpt>
      <trkpt lat="44.1413" lon="6.30632">
        <ele>846.5028233987</ele>
        <time>2021-10-12T19:05:34.022Z</time>
      </trkpt>
      <trkpt lat="44.14122" lon="6.30624">
        <ele>846.94341869725</ele>
        <time>2021-10-12T19:05:35.238Z</time>
      </trkpt>
      <trkpt lat="44.14117" lon="6.30616">
        <ele>847.30465433534</ele>
        <time>2021-10-12T19:05:36.456Z</time>
      </trkpt>
      <trkpt lat="44.14114" lon="6.30607">
        <ele>847.59072237169</ele>
        <time>2021-10-12T19:05:37.677Z</time>
      </trkpt>
      <trkpt lat="44.14113" lon="6.30604">
        <ele>847.92988435592</ele>
        <time>2021-10-12T19:05:38.899Z</time>
      </trkpt>
      <trkpt lat="44.1411" lon="6.30598">
        <ele>848.29583226042</ele>
        <time>2021-10-12T19:05:40.122Z</time>
      </trkpt>
      <trkpt lat="44.14106" lon="6.30586">
        <ele>848.63448672475</ele>
        <time>2021-10-12T19:05:41.349Z</time>
      </trkpt>
      <trkpt lat="44.14101" lon="6.30575">
        <ele>849.05640929108</ele>
        <time>2021-10-12T19:05:42.579Z</time>
      </trkpt>
      <trkpt lat="44.141" lon="6.30572">
        <ele>849.45838133084</ele>
        <time>2021-10-12T19:05:43.810Z</time>
      </trkpt>
      <trkpt lat="44.14097" lon="6.30563">
        <ele>849.8683977082</ele>
        <time>2021-10-12T19:05:45.043Z</time>
      </trkpt>
      <trkpt lat="44.14092" lon="6.30555">
        <ele>850.33291975564</ele>
        <time>2021-10-12T19:05:46.278Z</time>
      </trkpt>
      <trkpt lat="44.14091" lon="6.30552">
        <ele>850.801186463</ele>
        <time>2021-10-12T19:05:47.514Z</time>
      </trkpt>
      <trkpt lat="44.14087" lon="6.30541">
        <ele>851.29013783245</ele>
        <time>2021-10-12T19:05:48.753Z</time>
      </trkpt>
      <trkpt lat="44.14086" lon="6.30538">
        <ele>851.80825238946</ele>
        <time>2021-10-12T19:05:49.993Z</time>
      </trkpt>
      <trkpt lat="44.14085" lon="6.30532">
        <ele>852.34493155914</ele>
        <time>2021-10-12T19:05:51.234Z</time>
      </trkpt>
      <trkpt lat="44.1408" lon="6.30523">
        <ele>852.95886264874</ele>
        <time>2021-10-12T19:05:52.478Z</time>
      </trkpt>
      <trkpt lat="44.14077" lon="6.30519">
        <ele>853.61307634058</ele>
        <time>2021-10-12T19:05:53.724Z</time>
      </trkpt>
      <trkpt lat="44.14072" lon="6.30509">
        <ele>854.31616223781</ele>
        <time>2021-10-12T19:05:54.972Z</time>
      </trkpt>
      <trkpt lat="44.1407" lon="6.30507">
        <ele>854.98425648236</ele>
        <time>2021-10-12T19:05:56.221Z</time>
      </trkpt>
      <trkpt lat="44.14065" lon="6.305">
        <ele>855.72754086239</ele>
        <time>2021-10-12T19:05:57.473Z</time>
      </trkpt>
      <trkpt lat="44.14061" lon="6.30498">
        <ele>856.49302816894</ele>
        <time>2021-10-12T19:05:58.726Z</time>
      </trkpt>
      <trkpt lat="44.14049" lon="6.30504">
        <ele>857.45603353393</ele>
        <time>2021-10-12T19:05:59.983Z</time>
      </trkpt>
      <trkpt lat="44.14046" lon="6.30516">
        <ele>858.35233001544</ele>
        <time>2021-10-12T19:06:01.243Z</time>
      </trkpt>
      <trkpt lat="44.14043" lon="6.30525">
        <ele>859.18710194276</ele>
        <time>2021-10-12T19:06:02.505Z</time>
      </trkpt>
      <trkpt lat="44.14039" lon="6.30536">
        <ele>860.03836462304</ele>
        <time>2021-10-12T19:06:03.770Z</time>
      </trkpt>
      <trkpt lat="44.14035" lon="6.3054">
        <ele>860.87216911925</ele>
        <time>2021-10-12T19:06:05.037Z</time>
      </trkpt>
      <trkpt lat="44.14032" lon="6.30544">
        <ele>861.7254039372</ele>
        <time>2021-10-12T19:06:06.306Z</time>
      </trkpt>
      <trkpt lat="44.14023" lon="6.30553">
        <ele>862.62096566441</ele>
        <time>2021-10-12T19:06:07.578Z</time>
      </trkpt>
      <trkpt lat="44.14021" lon="6.30554">
        <ele>863.4891552129</ele>
        <time>2021-10-12T19:06:08.851Z</time>
      </trkpt>
      <trkpt lat="44.14015" lon="6.30562">
        <ele>864.40105820491</ele>
        <time>2021-10-12T19:06:10.127Z</time>
      </trkpt>
      <trkpt lat="44.14011" lon="6.30566">
        <ele>865.28892449787</ele>
        <time>2021-10-12T19:06:11.404Z</time>
      </trkpt>
      <trkpt lat="44.14005" lon="6.30574">
        <ele>866.18735091249</ele>
        <time>2021-10-12T19:06:12.684Z</time>
      </trkpt>
      <trkpt lat="44.13998" lon="6.30581">
        <ele>867.08717726334</ele>
        <time>2021-10-12T19:06:13.967Z</time>
      </trkpt>
      <trkpt lat="44.13996" lon="6.30582">
        <ele>867.98695826883</ele>
        <time>2021-10-12T19:06:15.251Z</time>
      </trkpt>
      <trkpt lat="44.13991" lon="6.30587">
        <ele>868.90410020648</ele>
        <time>2021-10-12T19:06:16.537Z</time>
      </trkpt>
      <trkpt lat="44.13984" lon="6.30594">
        <ele>869.83941315333</ele>
        <time>2021-10-12T19:06:17.825Z</time>
      </trkpt>
      <trkpt lat="44.13982" lon="6.30595">
        <ele>870.75526234381</ele>
        <time>2021-10-12T19:06:19.114Z</time>
      </trkpt>
      <trkpt lat="44.13976" lon="6.30604">
        <ele>871.68261756968</ele>
        <time>2021-10-12T19:06:20.406Z</time>
      </trkpt>
      <trkpt lat="44.13975" lon="6.30607">
        <ele>872.59982873847</ele>
        <time>2021-10-12T19:06:21.699Z</time>
      </trkpt>
      <trkpt lat="44.13969" lon="6.30621">
        <ele>873.61976917232</ele>
        <time>2021-10-12T19:06:22.996Z</time>
      </trkpt>
      <trkpt lat="44.13963" lon="6.30642">
        <ele>874.62421066975</ele>
        <time>2021-10-12T19:06:24.298Z</time>
      </trkpt>
      <trkpt lat="44.1396" lon="6.30653">
        <ele>875.57215766116</ele>
        <time>2021-10-12T19:06:25.603Z</time>
      </trkpt>
      <trkpt lat="44.13959" lon="6.30656">
        <ele>876.48779335462</ele>
        <time>2021-10-12T19:06:26.909Z</time>
      </trkpt>
      <trkpt lat="44.13957" lon="6.30668">
        <ele>877.47631691301</ele>
        <time>2021-10-12T19:06:28.218Z</time>
      </trkpt>
      <trkpt lat="44.13953" lon="6.30676">
        <ele>878.43356894945</ele>
        <time>2021-10-12T19:06:29.529Z</time>
      </trkpt>
      <trkpt lat="44.1395" lon="6.30683">
        <ele>879.35003064371</ele>
        <time>2021-10-12T19:06:30.842Z</time>
      </trkpt>
      <trkpt lat="44.13943" lon="6.30696">
        <ele>880.26475831928</ele>
        <time>2021-10-12T19:06:32.159Z</time>
      </trkpt>
      <trkpt lat="44.13938" lon="6.30706">
        <ele>881.1684926861</ele>
        <time>2021-10-12T19:06:33.479Z</time>
      </trkpt>
      <trkpt lat="44.13934" lon="6.30713">
        <ele>882.06785683267</ele>
        <time>2021-10-12T19:06:34.801Z</time>
      </trkpt>
      <trkpt lat="44.1393" lon="6.3072">
        <ele>882.9707612808</ele>
        <time>2021-10-12T19:06:36.125Z</time>
      </trkpt>
      <trkpt lat="44.13924" lon="6.30732">
        <ele>883.88785286576</ele>
        <time>2021-10-12T19:06:37.453Z</time>
      </trkpt>
      <trkpt lat="44.13923" lon="6.30734">
        <ele>884.78190350015</ele>
        <time>2021-10-12T19:06:38.781Z</time>
      </trkpt>
      <trkpt lat="44.13917" lon="6.30749">
        <ele>885.77117416949</ele>
        <time>2021-10-12T19:06:40.113Z</time>
      </trkpt>
      <trkpt lat="44.13911" lon="6.30762">
        <ele>886.6840730694</ele>
        <time>2021-10-12T19:06:41.449Z</time>
      </trkpt>
      <trkpt lat="44.1391" lon="6.30764">
        <ele>887.58192836297</ele>
        <time>2021-10-12T19:06:42.786Z</time>
      </trkpt>
      <trkpt lat="44.13906" lon="6.30779">
        <ele>888.44163284056</ele>
        <time>2021-10-12T19:06:44.126Z</time>
      </trkpt>
      <trkpt lat="44.13906" lon="6.30787">
        <ele>889.31517550601</ele>
        <time>2021-10-12T19:06:45.468Z</time>
      </trkpt>
      <trkpt lat="44.13908" lon="6.30796">
        <ele>890.24361093399</ele>
        <time>2021-10-12T19:06:46.813Z</time>
      </trkpt>
      <trkpt lat="44.13913" lon="6.30805">
        <ele>891.23580041409</ele>
        <time>2021-10-12T19:06:48.160Z</time>
      </trkpt>
      <trkpt lat="44.13921" lon="6.30815">
        <ele>892.2435699317</ele>
        <time>2021-10-12T19:06:49.511Z</time>
      </trkpt>
      <trkpt lat="44.13922" lon="6.30817">
        <ele>893.19032887629</ele>
        <time>2021-10-12T19:06:50.863Z</time>
      </trkpt>
      <trkpt lat="44.13928" lon="6.30825">
        <ele>894.18466091876</ele>
        <time>2021-10-12T19:06:52.217Z</time>
      </trkpt>
      <trkpt lat="44.13932" lon="6.3083">
        <ele>895.16089458056</ele>
        <time>2021-10-12T19:06:53.573Z</time>
      </trkpt>
      <trkpt lat="44.13937" lon="6.30835">
        <ele>896.15134530007</ele>
        <time>2021-10-12T19:06:54.931Z</time>
      </trkpt>
      <trkpt lat="44.13945" lon="6.30841">
        <ele>898.09524702445</ele>
        <time>2021-10-12T19:06:56.292Z</time>
      </trkpt>
      <trkpt lat="44.13952" lon="6.30848">
        <ele>899.10459117454</ele>
        <time>2021-10-12T19:06:57.656Z</time>
      </trkpt>
      <trkpt lat="44.13954" lon="6.30849">
        <ele>900.02986330174</ele>
        <time>2021-10-12T19:06:59.021Z</time>
      </trkpt>
      <trkpt lat="44.1396" lon="6.30853">
        <ele>901.02093167236</ele>
        <time>2021-10-12T19:07:00.388Z</time>
      </trkpt>
      <trkpt lat="44.13962" lon="6.30855">
        <ele>901.93251951529</ele>
        <time>2021-10-12T19:07:01.756Z</time>
      </trkpt>
      <trkpt lat="44.13974" lon="6.30861">
        <ele>902.89637050437</ele>
        <time>2021-10-12T19:07:03.128Z</time>
      </trkpt>
      <trkpt lat="44.13982" lon="6.30865">
        <ele>903.79401567945</ele>
        <time>2021-10-12T19:07:04.503Z</time>
      </trkpt>
      <trkpt lat="44.13987" lon="6.30868">
        <ele>904.64455970939</ele>
        <time>2021-10-12T19:07:05.880Z</time>
      </trkpt>
      <trkpt lat="44.13991" lon="6.30871">
        <ele>905.46052375194</ele>
        <time>2021-10-12T19:07:07.258Z</time>
      </trkpt>
      <trkpt lat="44.14002" lon="6.30878">
        <ele>906.25206068601</ele>
        <time>2021-10-12T19:07:08.640Z</time>
      </trkpt>
      <trkpt lat="44.14004" lon="6.3088">
        <ele>906.99979247985</ele>
        <time>2021-10-12T19:07:10.023Z</time>
      </trkpt>
      <trkpt lat="44.14011" lon="6.30884">
        <ele>907.73996617213</ele>
        <time>2021-10-12T19:07:11.408Z</time>
      </trkpt>
      <trkpt lat="44.14021" lon="6.30889">
        <ele>908.4576493372</ele>
        <time>2021-10-12T19:07:12.797Z</time>
      </trkpt>
      <trkpt lat="44.14029" lon="6.30895">
        <ele>909.15211838303</ele>
        <time>2021-10-12T19:07:14.189Z</time>
      </trkpt>
      <trkpt lat="44.14038" lon="6.30902">
        <ele>909.7999808236</ele>
        <time>2021-10-12T19:07:15.584Z</time>
      </trkpt>
      <trkpt lat="44.1404" lon="6.30904">
        <ele>910.42031066838</ele>
        <time>2021-10-12T19:07:16.980Z</time>
      </trkpt>
      <trkpt lat="44.14047" lon="6.30909">
        <ele>911.0149068679</ele>
        <time>2021-10-12T19:07:18.379Z</time>
      </trkpt>
      <trkpt lat="44.14055" lon="6.30917">
        <ele>911.58790570003</ele>
        <time>2021-10-12T19:07:19.781Z</time>
      </trkpt>
      <trkpt lat="44.14059" lon="6.30922">
        <ele>912.15336575384</ele>
        <time>2021-10-12T19:07:21.185Z</time>
      </trkpt>
      <trkpt lat="44.14068" lon="6.30929">
        <ele>912.73974424064</ele>
        <time>2021-10-12T19:07:22.592Z</time>
      </trkpt>
      <trkpt lat="44.14075" lon="6.30934">
        <ele>913.29105612043</ele>
        <time>2021-10-12T19:07:24.002Z</time>
      </trkpt>
      <trkpt lat="44.14077" lon="6.30936">
        <ele>913.79125725029</ele>
        <time>2021-10-12T19:07:25.413Z</time>
      </trkpt>
      <trkpt lat="44.14087" lon="6.30945">
        <ele>914.25855631516</ele>
        <time>2021-10-12T19:07:26.828Z</time>
      </trkpt>
      <trkpt lat="44.14091" lon="6.30948">
        <ele>914.75431615231</ele>
        <time>2021-10-12T19:07:28.245Z</time>
      </trkpt>
      <trkpt lat="44.14093" lon="6.3095">
        <ele>915.24341573979</ele>
        <time>2021-10-12T19:07:29.662Z</time>
      </trkpt>
      <trkpt lat="44.14106" lon="6.30959">
        <ele>915.74459343764</ele>
        <time>2021-10-12T19:07:31.084Z</time>
      </trkpt>
      <trkpt lat="44.14115" lon="6.30965">
        <ele>916.25664448369</ele>
        <time>2021-10-12T19:07:32.509Z</time>
      </trkpt>
      <trkpt lat="44.14123" lon="6.30971">
        <ele>916.77896773668</ele>
        <time>2021-10-12T19:07:33.938Z</time>
      </trkpt>
      <trkpt lat="44.14133" lon="6.30979">
        <ele>917.31202365724</ele>
        <time>2021-10-12T19:07:35.370Z</time>
      </trkpt>
      <trkpt lat="44.14137" lon="6.30982">
        <ele>917.83010110299</ele>
        <time>2021-10-12T19:07:36.804Z</time>
      </trkpt>
      <trkpt lat="44.14141" lon="6.30985">
        <ele>918.35231331502</ele>
        <time>2021-10-12T19:07:38.239Z</time>
      </trkpt>
      <trkpt lat="44.14151" lon="6.30994">
        <ele>918.90291678592</ele>
        <time>2021-10-12T19:07:39.678Z</time>
      </trkpt>
      <trkpt lat="44.14153" lon="6.30996">
        <ele>919.40708113063</ele>
        <time>2021-10-12T19:07:41.118Z</time>
      </trkpt>
      <trkpt lat="44.14161" lon="6.31004">
        <ele>919.94013977236</ele>
        <time>2021-10-12T19:07:42.561Z</time>
      </trkpt>
      <trkpt lat="44.14164" lon="6.31005">
        <ele>920.46591539236</ele>
        <time>2021-10-12T19:07:44.005Z</time>
      </trkpt>
      <trkpt lat="44.1417" lon="6.31009">
        <ele>921.01110265142</ele>
        <time>2021-10-12T19:07:45.452Z</time>
      </trkpt>
      <trkpt lat="44.14172" lon="6.3101">
        <ele>921.5431880529</ele>
        <time>2021-10-12T19:07:46.899Z</time>
      </trkpt>
      <trkpt lat="44.14179" lon="6.31015">
        <ele>922.1013724605</ele>
        <time>2021-10-12T19:07:48.349Z</time>
      </trkpt>
      <trkpt lat="44.14181" lon="6.31016">
        <ele>922.6479838304</ele>
        <time>2021-10-12T19:07:49.800Z</time>
      </trkpt>
      <trkpt lat="44.1419" lon="6.31022">
        <ele>923.20045382161</ele>
        <time>2021-10-12T19:07:51.254Z</time>
      </trkpt>
      <trkpt lat="44.14201" lon="6.3103">
        <ele>923.77129598121</ele>
        <time>2021-10-12T19:07:52.712Z</time>
      </trkpt>
      <trkpt lat="44.14211" lon="6.31038">
        <ele>924.34277739294</ele>
        <time>2021-10-12T19:07:54.174Z</time>
      </trkpt>
      <trkpt lat="44.14219" lon="6.31045">
        <ele>924.95043123148</ele>
        <time>2021-10-12T19:07:55.639Z</time>
      </trkpt>
      <trkpt lat="44.14223" lon="6.3105">
        <ele>925.5363627583</ele>
        <time>2021-10-12T19:07:57.106Z</time>
      </trkpt>
      <trkpt lat="44.14232" lon="6.31056">
        <ele>926.16958136999</ele>
        <time>2021-10-12T19:07:58.576Z</time>
      </trkpt>
      <trkpt lat="44.14234" lon="6.31058">
        <ele>926.75783572736</ele>
        <time>2021-10-12T19:08:00.047Z</time>
      </trkpt>
      <trkpt lat="44.14242" lon="6.31066">
        <ele>927.37620534126</ele>
        <time>2021-10-12T19:08:01.521Z</time>
      </trkpt>
      <trkpt lat="44.14249" lon="6.31073">
        <ele>927.99583032897</ele>
        <time>2021-10-12T19:08:02.998Z</time>
      </trkpt>
      <trkpt lat="44.14258" lon="6.31083">
        <ele>928.61691479664</ele>
        <time>2021-10-12T19:08:04.479Z</time>
      </trkpt>
      <trkpt lat="44.14263" lon="6.3109">
        <ele>929.21701208901</ele>
        <time>2021-10-12T19:08:05.962Z</time>
      </trkpt>
      <trkpt lat="44.14265" lon="6.31092">
        <ele>929.78353694205</ele>
        <time>2021-10-12T19:08:07.446Z</time>
      </trkpt>
      <trkpt lat="44.14272" lon="6.31101">
        <ele>930.37386310995</ele>
        <time>2021-10-12T19:08:08.933Z</time>
      </trkpt>
      <trkpt lat="44.14275" lon="6.31106">
        <ele>930.92179260997</ele>
        <time>2021-10-12T19:08:10.422Z</time>
      </trkpt>
      <trkpt lat="44.14281" lon="6.31117">
        <ele>931.48044070403</ele>
        <time>2021-10-12T19:08:11.914Z</time>
      </trkpt>
      <trkpt lat="44.14286" lon="6.31125">
        <ele>932.03820489527</ele>
        <time>2021-10-12T19:08:13.409Z</time>
      </trkpt>
      <trkpt lat="44.1429" lon="6.31126">
        <ele>932.5911172196</ele>
        <time>2021-10-12T19:08:14.905Z</time>
      </trkpt>
      <trkpt lat="44.14293" lon="6.31121">
        <ele>933.13385677525</ele>
        <time>2021-10-12T19:08:16.403Z</time>
      </trkpt>
      <trkpt lat="44.14292" lon="6.31114">
        <ele>933.62600750722</ele>
        <time>2021-10-12T19:08:17.902Z</time>
      </trkpt>
      <trkpt lat="44.1429" lon="6.31109">
        <ele>934.09403684721</ele>
        <time>2021-10-12T19:08:19.403Z</time>
      </trkpt>
      <trkpt lat="44.14289" lon="6.31106">
        <ele>934.55157775155</ele>
        <time>2021-10-12T19:08:20.905Z</time>
      </trkpt>
      <trkpt lat="44.14288" lon="6.31103">
        <ele>935.00276878928</ele>
        <time>2021-10-12T19:08:22.407Z</time>
      </trkpt>
      <trkpt lat="44.14281" lon="6.31089">
        <ele>935.4276587862</ele>
        <time>2021-10-12T19:08:23.914Z</time>
      </trkpt>
      <trkpt lat="44.14279" lon="6.31086">
        <ele>935.85489394126</ele>
        <time>2021-10-12T19:08:25.421Z</time>
      </trkpt>
      <trkpt lat="44.14274" lon="6.31074">
        <ele>936.28635108728</ele>
        <time>2021-10-12T19:08:26.932Z</time>
      </trkpt>
      <trkpt lat="44.1427" lon="6.31062">
        <ele>936.74987321558</ele>
        <time>2021-10-12T19:08:28.446Z</time>
      </trkpt>
      <trkpt lat="44.14269" lon="6.31059">
        <ele>937.16604271972</ele>
        <time>2021-10-12T19:08:29.961Z</time>
      </trkpt>
      <trkpt lat="44.14266" lon="6.31047">
        <ele>937.6102236961</ele>
        <time>2021-10-12T19:08:31.479Z</time>
      </trkpt>
      <trkpt lat="44.14264" lon="6.31041">
        <ele>938.01713297823</ele>
        <time>2021-10-12T19:08:32.999Z</time>
      </trkpt>
      <trkpt lat="44.14261" lon="6.31032">
        <ele>938.43057231394</ele>
        <time>2021-10-12T19:08:34.521Z</time>
      </trkpt>
      <trkpt lat="44.14258" lon="6.3102">
        <ele>938.84422819347</ele>
        <time>2021-10-12T19:08:36.046Z</time>
      </trkpt>
      <trkpt lat="44.14257" lon="6.31017">
        <ele>939.22313706298</ele>
        <time>2021-10-12T19:08:37.572Z</time>
      </trkpt>
      <trkpt lat="44.14253" lon="6.31006">
        <ele>939.61323959554</ele>
        <time>2021-10-12T19:08:39.101Z</time>
      </trkpt>
      <trkpt lat="44.14249" lon="6.30994">
        <ele>939.98383637234</ele>
        <time>2021-10-12T19:08:40.633Z</time>
      </trkpt>
      <trkpt lat="44.14247" lon="6.30982">
        <ele>940.36463894775</ele>
        <time>2021-10-12T19:08:42.168Z</time>
      </trkpt>
      <trkpt lat="44.14247" lon="6.30976">
        <ele>940.74549532666</ele>
        <time>2021-10-12T19:08:43.704Z</time>
      </trkpt>
      <trkpt lat="44.14255" lon="6.30964">
        <ele>941.07066447928</ele>
        <time>2021-10-12T19:08:45.244Z</time>
      </trkpt>
      <trkpt lat="44.14268" lon="6.30963">
        <ele>941.41287978914</ele>
        <time>2021-10-12T19:08:46.788Z</time>
      </trkpt>
      <trkpt lat="44.14278" lon="6.30969">
        <ele>941.80387339411</ele>
        <time>2021-10-12T19:08:48.336Z</time>
      </trkpt>
      <trkpt lat="44.14281" lon="6.30969">
        <ele>942.17598939596</ele>
        <time>2021-10-12T19:08:49.885Z</time>
      </trkpt>
      <trkpt lat="44.1429" lon="6.30974">
        <ele>942.57837301076</ele>
        <time>2021-10-12T19:08:51.437Z</time>
      </trkpt>
      <trkpt lat="44.14294" lon="6.30976">
        <ele>942.97716530164</ele>
        <time>2021-10-12T19:08:52.991Z</time>
      </trkpt>
      <trkpt lat="44.14296" lon="6.30977">
        <ele>943.38885733223</ele>
        <time>2021-10-12T19:08:54.546Z</time>
      </trkpt>
      <trkpt lat="44.14301" lon="6.3098">
        <ele>943.84191779682</ele>
        <time>2021-10-12T19:08:56.102Z</time>
      </trkpt>
      <trkpt lat="44.14309" lon="6.30985">
        <ele>944.35422636927</ele>
        <time>2021-10-12T19:08:57.661Z</time>
      </trkpt>
      <trkpt lat="44.14313" lon="6.30988">
        <ele>944.83189258299</ele>
        <time>2021-10-12T19:08:59.222Z</time>
      </trkpt>
      <trkpt lat="44.14319" lon="6.30992">
        <ele>945.34784939671</ele>
        <time>2021-10-12T19:09:00.785Z</time>
      </trkpt>
      <trkpt lat="44.1433" lon="6.30999">
        <ele>945.86962385769</ele>
        <time>2021-10-12T19:09:02.352Z</time>
      </trkpt>
      <trkpt lat="44.14332" lon="6.31">
        <ele>946.35316571576</ele>
        <time>2021-10-12T19:09:03.920Z</time>
      </trkpt>
      <trkpt lat="44.14346" lon="6.31004">
        <ele>946.8397625701</ele>
        <time>2021-10-12T19:09:05.492Z</time>
      </trkpt>
      <trkpt lat="44.14355" lon="6.31006">
        <ele>947.35223161684</ele>
        <time>2021-10-12T19:09:07.068Z</time>
      </trkpt>
      <trkpt lat="44.1436" lon="6.31007">
        <ele>947.89201971721</ele>
        <time>2021-10-12T19:09:08.645Z</time>
      </trkpt>
      <trkpt lat="44.14367" lon="6.31008">
        <ele>948.4524543695</ele>
        <time>2021-10-12T19:09:10.224Z</time>
      </trkpt>
      <trkpt lat="44.14376" lon="6.31011">
        <ele>949.0352070472</ele>
        <time>2021-10-12T19:09:11.807Z</time>
      </trkpt>
      <trkpt lat="44.14378" lon="6.31013">
        <ele>949.64188218986</ele>
        <time>2021-10-12T19:09:13.390Z</time>
      </trkpt>
      <trkpt lat="44.14391" lon="6.31021">
        <ele>950.27925828583</ele>
        <time>2021-10-12T19:09:14.978Z</time>
      </trkpt>
      <trkpt lat="44.14393" lon="6.31023">
        <ele>950.93242178412</ele>
        <time>2021-10-12T19:09:16.567Z</time>
      </trkpt>
      <trkpt lat="44.14401" lon="6.31031">
        <ele>951.62260343956</ele>
        <time>2021-10-12T19:09:18.159Z</time>
      </trkpt>
      <trkpt lat="44.14409" lon="6.3104">
        <ele>952.34122145681</ele>
        <time>2021-10-12T19:09:19.755Z</time>
      </trkpt>
      <trkpt lat="44.14413" lon="6.31045">
        <ele>953.07833392253</ele>
        <time>2021-10-12T19:09:21.352Z</time>
      </trkpt>
      <trkpt lat="44.14426" lon="6.31061">
        <ele>953.88495861173</ele>
        <time>2021-10-12T19:09:22.955Z</time>
      </trkpt>
      <trkpt lat="44.1443" lon="6.31065">
        <ele>954.67770754719</ele>
        <time>2021-10-12T19:09:24.560Z</time>
      </trkpt>
      <trkpt lat="44.14442" lon="6.31078">
        <ele>955.52209503551</ele>
        <time>2021-10-12T19:09:26.170Z</time>
      </trkpt>
      <trkpt lat="44.14444" lon="6.31081">
        <ele>956.35741332303</ele>
        <time>2021-10-12T19:09:27.781Z</time>
      </trkpt>
      <trkpt lat="44.14455" lon="6.31095">
        <ele>957.28329002353</ele>
        <time>2021-10-12T19:09:29.397Z</time>
      </trkpt>
      <trkpt lat="44.14457" lon="6.31098">
        <ele>958.15984493398</ele>
        <time>2021-10-12T19:09:31.014Z</time>
      </trkpt>
      <trkpt lat="44.14464" lon="6.31108">
        <ele>959.09896432176</ele>
        <time>2021-10-12T19:09:32.634Z</time>
      </trkpt>
      <trkpt lat="44.14471" lon="6.31119">
        <ele>960.02655509035</ele>
        <time>2021-10-12T19:09:34.258Z</time>
      </trkpt>
      <trkpt lat="44.14474" lon="6.31124">
        <ele>960.94956200244</ele>
        <time>2021-10-12T19:09:35.883Z</time>
      </trkpt>
      <trkpt lat="44.14481" lon="6.31138">
        <ele>961.91798294156</ele>
        <time>2021-10-12T19:09:37.512Z</time>
      </trkpt>
      <trkpt lat="44.1449" lon="6.31156">
        <ele>962.9374473176</ele>
        <time>2021-10-12T19:09:39.147Z</time>
      </trkpt>
      <trkpt lat="44.14494" lon="6.31166">
        <ele>963.92797038939</ele>
        <time>2021-10-12T19:09:40.784Z</time>
      </trkpt>
      <trkpt lat="44.145" lon="6.31178">
        <ele>964.92739928121</ele>
        <time>2021-10-12T19:09:42.425Z</time>
      </trkpt>
      <trkpt lat="44.14507" lon="6.31193">
        <ele>965.94653535058</ele>
        <time>2021-10-12T19:09:44.070Z</time>
      </trkpt>
      <trkpt lat="44.14511" lon="6.312">
        <ele>966.93770496514</ele>
        <time>2021-10-12T19:09:45.717Z</time>
      </trkpt>
      <trkpt lat="44.14515" lon="6.31208">
        <ele>967.922037043</ele>
        <time>2021-10-12T19:09:47.367Z</time>
      </trkpt>
      <trkpt lat="44.14517" lon="6.3121">
        <ele>968.84282555437</ele>
        <time>2021-10-12T19:09:49.018Z</time>
      </trkpt>
      <trkpt lat="44.14525" lon="6.3122">
        <ele>969.78603482304</ele>
        <time>2021-10-12T19:09:50.672Z</time>
      </trkpt>
      <trkpt lat="44.14532" lon="6.31229">
        <ele>970.67697624535</ele>
        <time>2021-10-12T19:09:52.329Z</time>
      </trkpt>
      <trkpt lat="44.14539" lon="6.31235">
        <ele>971.5436247888</ele>
        <time>2021-10-12T19:09:53.989Z</time>
      </trkpt>
      <trkpt lat="44.14547" lon="6.31243">
        <ele>972.39392510083</ele>
        <time>2021-10-12T19:09:55.652Z</time>
      </trkpt>
      <trkpt lat="44.14549" lon="6.31245">
        <ele>973.22094846033</ele>
        <time>2021-10-12T19:09:57.316Z</time>
      </trkpt>
      <trkpt lat="44.14559" lon="6.31255">
        <ele>974.05223939472</ele>
        <time>2021-10-12T19:09:58.984Z</time>
      </trkpt>
      <trkpt lat="44.14565" lon="6.31261">
        <ele>974.85758823319</ele>
        <time>2021-10-12T19:10:00.655Z</time>
      </trkpt>
      <trkpt lat="44.14567" lon="6.31264">
        <ele>975.63115885962</ele>
        <time>2021-10-12T19:10:02.327Z</time>
      </trkpt>
      <trkpt lat="44.14573" lon="6.31273">
        <ele>976.41968124243</ele>
        <time>2021-10-12T19:10:04.002Z</time>
      </trkpt>
      <trkpt lat="44.14577" lon="6.31278">
        <ele>977.19733367439</ele>
        <time>2021-10-12T19:10:05.678Z</time>
      </trkpt>
      <trkpt lat="44.14582" lon="6.31285">
        <ele>977.97358855158</ele>
        <time>2021-10-12T19:10:07.357Z</time>
      </trkpt>
      <trkpt lat="44.1459" lon="6.31291">
        <ele>978.73059534663</ele>
        <time>2021-10-12T19:10:09.039Z</time>
      </trkpt>
      <trkpt lat="44.14592" lon="6.31292">
        <ele>979.41895682338</ele>
        <time>2021-10-12T19:10:10.721Z</time>
      </trkpt>
      <trkpt lat="44.14602" lon="6.31294">
        <ele>980.10853990496</ele>
        <time>2021-10-12T19:10:12.407Z</time>
      </trkpt>
      <trkpt lat="44.14606" lon="6.31295">
        <ele>980.76856650126</ele>
        <time>2021-10-12T19:10:14.094Z</time>
      </trkpt>
      <trkpt lat="44.14611" lon="6.31298">
        <ele>981.42554346403</ele>
        <time>2021-10-12T19:10:15.783Z</time>
      </trkpt>
      <trkpt lat="44.14619" lon="6.31304">
        <ele>982.09463385563</ele>
        <time>2021-10-12T19:10:17.475Z</time>
      </trkpt>
      <trkpt lat="44.14626" lon="6.31311">
        <ele>982.76705870134</ele>
        <time>2021-10-12T19:10:19.170Z</time>
      </trkpt>
      <trkpt lat="44.14628" lon="6.31312">
        <ele>983.4002230049</ele>
        <time>2021-10-12T19:10:20.866Z</time>
      </trkpt>
      <trkpt lat="44.14633" lon="6.31318">
        <ele>984.04018079678</ele>
        <time>2021-10-12T19:10:22.564Z</time>
      </trkpt>
      <trkpt lat="44.14637" lon="6.31322">
        <ele>984.6695507914</ele>
        <time>2021-10-12T19:10:24.263Z</time>
      </trkpt>
      <trkpt lat="44.14641" lon="6.31325">
        <ele>985.29495721622</ele>
        <time>2021-10-12T19:10:25.964Z</time>
      </trkpt>
      <trkpt lat="44.14646" lon="6.3133">
        <ele>985.93740099218</ele>
        <time>2021-10-12T19:10:27.667Z</time>
      </trkpt>
      <trkpt lat="44.14648" lon="6.31332">
        <ele>986.58199567408</ele>
        <time>2021-10-12T19:10:29.371Z</time>
      </trkpt>
      <trkpt lat="44.14657" lon="6.3134">
        <ele>987.25038452904</ele>
        <time>2021-10-12T19:10:31.078Z</time>
      </trkpt>
      <trkpt lat="44.14661" lon="6.31343">
        <ele>987.90762559507</ele>
        <time>2021-10-12T19:10:32.787Z</time>
      </trkpt>
      <trkpt lat="44.14667" lon="6.31347">
        <ele>988.57729905924</ele>
        <time>2021-10-12T19:10:34.498Z</time>
      </trkpt>
      <trkpt lat="44.14677" lon="6.31354">
        <ele>989.27294414701</ele>
        <time>2021-10-12T19:10:36.213Z</time>
      </trkpt>
      <trkpt lat="44.14685" lon="6.31361">
        <ele>990.00349779129</ele>
        <time>2021-10-12T19:10:37.931Z</time>
      </trkpt>
      <trkpt lat="44.14689" lon="6.31365">
        <ele>990.76202924848</ele>
        <time>2021-10-12T19:10:39.651Z</time>
      </trkpt>
      <trkpt lat="44.14693" lon="6.31368">
        <ele>991.52846585957</ele>
        <time>2021-10-12T19:10:41.372Z</time>
      </trkpt>
      <trkpt lat="44.14701" lon="6.31376">
        <ele>992.35842006235</ele>
        <time>2021-10-12T19:10:43.096Z</time>
      </trkpt>
      <trkpt lat="44.14702" lon="6.31378">
        <ele>993.15246509757</ele>
        <time>2021-10-12T19:10:44.821Z</time>
      </trkpt>
      <trkpt lat="44.14707" lon="6.31384">
        <ele>994.00680325733</ele>
        <time>2021-10-12T19:10:46.548Z</time>
      </trkpt>
      <trkpt lat="44.1471" lon="6.31395">
        <ele>994.94255723674</ele>
        <time>2021-10-12T19:10:48.278Z</time>
      </trkpt>
      <trkpt lat="44.14708" lon="6.314">
        <ele>995.8358284489</ele>
        <time>2021-10-12T19:10:50.010Z</time>
      </trkpt>
      <trkpt lat="44.14705" lon="6.31404">
        <ele>996.72830881117</ele>
        <time>2021-10-12T19:10:51.743Z</time>
      </trkpt>
      <trkpt lat="44.14696" lon="6.31406">
        <ele>997.618505151</ele>
        <time>2021-10-12T19:10:53.479Z</time>
      </trkpt>
      <trkpt lat="44.14693" lon="6.31406">
        <ele>998.4831241247</ele>
        <time>2021-10-12T19:10:55.216Z</time>
      </trkpt>
      <trkpt lat="44.14686" lon="6.31405">
        <ele>999.35575379292</ele>
        <time>2021-10-12T19:10:56.955Z</time>
      </trkpt>
      <trkpt lat="44.1468" lon="6.31406">
        <ele>1000.2577595812</ele>
        <time>2021-10-12T19:10:58.696Z</time>
      </trkpt>
      <trkpt lat="44.14678" lon="6.31406">
        <ele>1001.1473452744</ele>
        <time>2021-10-12T19:11:00.438Z</time>
      </trkpt>
      <trkpt lat="44.14668" lon="6.31411">
        <ele>1002.1433025834</ele>
        <time>2021-10-12T19:11:02.183Z</time>
      </trkpt>
      <trkpt lat="44.14664" lon="6.31414">
        <ele>1003.0819840684</ele>
        <time>2021-10-12T19:11:03.930Z</time>
      </trkpt>
      <trkpt lat="44.14658" lon="6.31418">
        <ele>1004.0471861439</ele>
        <time>2021-10-12T19:11:05.679Z</time>
      </trkpt>
      <trkpt lat="44.14649" lon="6.31421">
        <ele>1005.0362340659</ele>
        <time>2021-10-12T19:11:07.431Z</time>
      </trkpt>
      <trkpt lat="44.14647" lon="6.31421">
        <ele>1005.9220560617</ele>
        <time>2021-10-12T19:11:09.184Z</time>
      </trkpt>
      <trkpt lat="44.14638" lon="6.3142">
        <ele>1006.8278437872</ele>
        <time>2021-10-12T19:11:10.940Z</time>
      </trkpt>
      <trkpt lat="44.14636" lon="6.31419">
        <ele>1007.6898120249</ele>
        <time>2021-10-12T19:11:12.697Z</time>
      </trkpt>
      <trkpt lat="44.14629" lon="6.31417">
        <ele>1008.5638014787</ele>
        <time>2021-10-12T19:11:14.456Z</time>
      </trkpt>
      <trkpt lat="44.14616" lon="6.31414">
        <ele>1009.4388561308</ele>
        <time>2021-10-12T19:11:16.220Z</time>
      </trkpt>
      <trkpt lat="44.14605" lon="6.31411">
        <ele>1010.2964235539</ele>
        <time>2021-10-12T19:11:17.987Z</time>
      </trkpt>
      <trkpt lat="44.14594" lon="6.31408">
        <ele>1011.1139083845</ele>
        <time>2021-10-12T19:11:19.758Z</time>
      </trkpt>
      <trkpt lat="44.14583" lon="6.31405">
        <ele>1011.8896286916</ele>
        <time>2021-10-12T19:11:21.533Z</time>
      </trkpt>
      <trkpt lat="44.14575" lon="6.31402">
        <ele>1012.6642110418</ele>
        <time>2021-10-12T19:11:23.310Z</time>
      </trkpt>
      <trkpt lat="44.14571" lon="6.314">
        <ele>1013.4927792799</ele>
        <time>2021-10-12T19:11:25.089Z</time>
      </trkpt>
      <trkpt lat="44.14564" lon="6.31397">
        <ele>1014.3520480335</ele>
        <time>2021-10-12T19:11:26.870Z</time>
      </trkpt>
      <trkpt lat="44.14552" lon="6.31391">
        <ele>1015.2450343471</ele>
        <time>2021-10-12T19:11:28.656Z</time>
      </trkpt>
      <trkpt lat="44.14541" lon="6.31387">
        <ele>1016.1658707418</ele>
        <time>2021-10-12T19:11:30.445Z</time>
      </trkpt>
      <trkpt lat="44.14537" lon="6.31386">
        <ele>1017.0277861636</ele>
        <time>2021-10-12T19:11:32.236Z</time>
      </trkpt>
      <trkpt lat="44.14532" lon="6.31383">
        <ele>1017.9040614112</ele>
        <time>2021-10-12T19:11:34.029Z</time>
      </trkpt>
      <trkpt lat="44.14524" lon="6.3138">
        <ele>1018.7875240445</ele>
        <time>2021-10-12T19:11:35.824Z</time>
      </trkpt>
      <trkpt lat="44.14522" lon="6.31379">
        <ele>1019.6226424142</ele>
        <time>2021-10-12T19:11:37.620Z</time>
      </trkpt>
      <trkpt lat="44.14512" lon="6.31376">
        <ele>1020.4947540817</ele>
        <time>2021-10-12T19:11:39.419Z</time>
      </trkpt>
      <trkpt lat="44.14508" lon="6.31375">
        <ele>1021.3294552251</ele>
        <time>2021-10-12T19:11:41.220Z</time>
      </trkpt>
      <trkpt lat="44.14501" lon="6.31375">
        <ele>1022.172167363</ele>
        <time>2021-10-12T19:11:43.023Z</time>
      </trkpt>
      <trkpt lat="44.14493" lon="6.31375">
        <ele>1023.0420202435</ele>
        <time>2021-10-12T19:11:44.829Z</time>
      </trkpt>
      <trkpt lat="44.14488" lon="6.31375">
        <ele>1023.8810694862</ele>
        <time>2021-10-12T19:11:46.636Z</time>
      </trkpt>
      <trkpt lat="44.14477" lon="6.31377">
        <ele>1024.744041863</ele>
        <time>2021-10-12T19:11:48.447Z</time>
      </trkpt>
      <trkpt lat="44.14471" lon="6.31379">
        <ele>1025.6127242042</ele>
        <time>2021-10-12T19:11:50.260Z</time>
      </trkpt>
      <trkpt lat="44.14466" lon="6.3138">
        <ele>1026.4709400224</ele>
        <time>2021-10-12T19:11:52.075Z</time>
      </trkpt>
      <trkpt lat="44.14454" lon="6.31384">
        <ele>1027.3520598109</ele>
        <time>2021-10-12T19:11:53.894Z</time>
      </trkpt>
      <trkpt lat="44.14443" lon="6.31388">
        <ele>1028.2100028358</ele>
        <time>2021-10-12T19:11:55.717Z</time>
      </trkpt>
      <trkpt lat="44.14437" lon="6.31392">
        <ele>1029.0772899188</ele>
        <time>2021-10-12T19:11:57.542Z</time>
      </trkpt>
      <trkpt lat="44.14435" lon="6.31393">
        <ele>1029.9420277563</ele>
        <time>2021-10-12T19:11:59.367Z</time>
      </trkpt>
      <trkpt lat="44.14426" lon="6.31401">
        <ele>1030.8806486235</ele>
        <time>2021-10-12T19:12:01.196Z</time>
      </trkpt>
      <trkpt lat="44.14423" lon="6.31406">
        <ele>1031.7777188547</ele>
        <time>2021-10-12T19:12:03.027Z</time>
      </trkpt>
      <trkpt lat="44.14422" lon="6.31415">
        <ele>1032.7055656793</ele>
        <time>2021-10-12T19:12:04.860Z</time>
      </trkpt>
      <trkpt lat="44.14423" lon="6.31422">
        <ele>1033.6255219838</ele>
        <time>2021-10-12T19:12:06.695Z</time>
      </trkpt>
      <trkpt lat="44.14433" lon="6.31446">
        <ele>1034.6446974536</ele>
        <time>2021-10-12T19:12:08.536Z</time>
      </trkpt>
      <trkpt lat="44.14435" lon="6.31448">
        <ele>1035.5415743917</ele>
        <time>2021-10-12T19:12:10.378Z</time>
      </trkpt>
      <trkpt lat="44.14444" lon="6.31461">
        <ele>1036.5193314698</ele>
        <time>2021-10-12T19:12:12.224Z</time>
      </trkpt>
      <trkpt lat="44.1445" lon="6.3147">
        <ele>1037.4678609164</ele>
        <time>2021-10-12T19:12:14.074Z</time>
      </trkpt>
      <trkpt lat="44.14452" lon="6.31473">
        <ele>1038.3536518617</ele>
        <time>2021-10-12T19:12:15.924Z</time>
      </trkpt>
      <trkpt lat="44.14458" lon="6.31486">
        <ele>1039.2770205899</ele>
        <time>2021-10-12T19:12:17.778Z</time>
      </trkpt>
      <trkpt lat="44.1446" lon="6.31492">
        <ele>1040.1590956832</ele>
        <time>2021-10-12T19:12:19.634Z</time>
      </trkpt>
      <trkpt lat="44.14464" lon="6.31503">
        <ele>1041.0404244975</ele>
        <time>2021-10-12T19:12:21.493Z</time>
      </trkpt>
      <trkpt lat="44.14469" lon="6.31518">
        <ele>1041.9162113788</ele>
        <time>2021-10-12T19:12:23.356Z</time>
      </trkpt>
      <trkpt lat="44.1447" lon="6.31521">
        <ele>1042.765441418</ele>
        <time>2021-10-12T19:12:25.219Z</time>
      </trkpt>
      <trkpt lat="44.14478" lon="6.31539">
        <ele>1043.6189941378</ele>
        <time>2021-10-12T19:12:27.087Z</time>
      </trkpt>
      <trkpt lat="44.14482" lon="6.31547">
        <ele>1044.4688494315</ele>
        <time>2021-10-12T19:12:28.958Z</time>
      </trkpt>
      <trkpt lat="44.14486" lon="6.31554">
        <ele>1045.3149783457</ele>
        <time>2021-10-12T19:12:30.831Z</time>
      </trkpt>
      <trkpt lat="44.14492" lon="6.3156">
        <ele>1046.1551059214</ele>
        <time>2021-10-12T19:12:32.706Z</time>
      </trkpt>
      <trkpt lat="44.14496" lon="6.31562">
        <ele>1046.9857435558</ele>
        <time>2021-10-12T19:12:34.583Z</time>
      </trkpt>
      <trkpt lat="44.14508" lon="6.31569">
        <ele>1047.8409606071</ele>
        <time>2021-10-12T19:12:36.464Z</time>
      </trkpt>
      <trkpt lat="44.1451" lon="6.31571">
        <ele>1048.6471955657</ele>
        <time>2021-10-12T19:12:38.346Z</time>
      </trkpt>
      <trkpt lat="44.14522" lon="6.31581">
        <ele>1049.4866495171</ele>
        <time>2021-10-12T19:12:40.233Z</time>
      </trkpt>
      <trkpt lat="44.14526" lon="6.31584">
        <ele>1050.2899364363</ele>
        <time>2021-10-12T19:12:42.121Z</time>
      </trkpt>
      <trkpt lat="44.14533" lon="6.31589">
        <ele>1051.094257916</ele>
        <time>2021-10-12T19:12:44.012Z</time>
      </trkpt>
      <trkpt lat="44.14545" lon="6.31599">
        <ele>1051.9198488758</ele>
        <time>2021-10-12T19:12:45.908Z</time>
      </trkpt>
      <trkpt lat="44.14558" lon="6.31608">
        <ele>1052.745337134</ele>
        <time>2021-10-12T19:12:47.808Z</time>
      </trkpt>
      <trkpt lat="44.14562" lon="6.31611">
        <ele>1053.4921048998</ele>
        <time>2021-10-12T19:12:49.710Z</time>
      </trkpt>
      <trkpt lat="44.14582" lon="6.31627">
        <ele>1054.2654475875</ele>
        <time>2021-10-12T19:12:51.620Z</time>
      </trkpt>
      <trkpt lat="44.14586" lon="6.31629">
        <ele>1054.9974263065</ele>
        <time>2021-10-12T19:12:53.531Z</time>
      </trkpt>
      <trkpt lat="44.14602" lon="6.31639">
        <ele>1055.7671435888</ele>
        <time>2021-10-12T19:12:55.448Z</time>
      </trkpt>
      <trkpt lat="44.14607" lon="6.31643">
        <ele>1056.494764094</ele>
        <time>2021-10-12T19:12:57.367Z</time>
      </trkpt>
      <trkpt lat="44.14617" lon="6.31651">
        <ele>1057.2263193409</ele>
        <time>2021-10-12T19:12:59.290Z</time>
      </trkpt>
      <trkpt lat="44.14622" lon="6.31654">
        <ele>1057.9058081788</ele>
        <time>2021-10-12T19:13:01.214Z</time>
      </trkpt>
      <trkpt lat="44.14634" lon="6.3167">
        <ele>1058.591679078</ele>
        <time>2021-10-12T19:13:03.144Z</time>
      </trkpt>
      <trkpt lat="44.14636" lon="6.31672">
        <ele>1059.2203324137</ele>
        <time>2021-10-12T19:13:05.075Z</time>
      </trkpt>
      <trkpt lat="44.14646" lon="6.31695">
        <ele>1059.8351529727</ele>
        <time>2021-10-12T19:13:07.012Z</time>
      </trkpt>
      <trkpt lat="44.14655" lon="6.31717">
        <ele>1060.452533714</ele>
        <time>2021-10-12T19:13:08.955Z</time>
      </trkpt>
      <trkpt lat="44.14656" lon="6.3172">
        <ele>1061.0220575723</ele>
        <time>2021-10-12T19:13:10.899Z</time>
      </trkpt>
      <trkpt lat="44.14667" lon="6.31744">
        <ele>1061.5603679462</ele>
        <time>2021-10-12T19:13:12.850Z</time>
      </trkpt>
      <trkpt lat="44.1468" lon="6.31767">
        <ele>1062.0887481408</ele>
        <time>2021-10-12T19:13:14.808Z</time>
      </trkpt>
      <trkpt lat="44.14695" lon="6.31784">
        <ele>1062.6271374159</ele>
        <time>2021-10-12T19:13:16.772Z</time>
      </trkpt>
      <trkpt lat="44.14713" lon="6.31796">
        <ele>1063.1956628288</ele>
        <time>2021-10-12T19:13:18.743Z</time>
      </trkpt>
      <trkpt lat="44.14729" lon="6.31804">
        <ele>1063.7175330515</ele>
        <time>2021-10-12T19:13:20.719Z</time>
      </trkpt>
      <trkpt lat="44.14736" lon="6.31806">
        <ele>1064.2022365763</ele>
        <time>2021-10-12T19:13:22.698Z</time>
      </trkpt>
      <trkpt lat="44.14748" lon="6.3181">
        <ele>1064.6929348649</ele>
        <time>2021-10-12T19:13:24.681Z</time>
      </trkpt>
      <trkpt lat="44.14762" lon="6.31814">
        <ele>1065.1458051636</ele>
        <time>2021-10-12T19:13:26.669Z</time>
      </trkpt>
      <trkpt lat="44.14768" lon="6.31816">
        <ele>1065.5528453974</ele>
        <time>2021-10-12T19:13:28.659Z</time>
      </trkpt>
      <trkpt lat="44.14772" lon="6.31817">
        <ele>1065.9282643863</ele>
        <time>2021-10-12T19:13:30.650Z</time>
      </trkpt>
      <trkpt lat="44.14783" lon="6.3182">
        <ele>1066.2909802414</ele>
        <time>2021-10-12T19:13:32.645Z</time>
      </trkpt>
      <trkpt lat="44.148" lon="6.31827">
        <ele>1066.6283385684</ele>
        <time>2021-10-12T19:13:34.646Z</time>
      </trkpt>
      <trkpt lat="44.14806" lon="6.31832">
        <ele>1066.9443537802</ele>
        <time>2021-10-12T19:13:36.649Z</time>
      </trkpt>
      <trkpt lat="44.14818" lon="6.31843">
        <ele>1067.2332052904</ele>
        <time>2021-10-12T19:13:38.657Z</time>
      </trkpt>
      <trkpt lat="44.14822" lon="6.31848">
        <ele>1067.4969546495</ele>
        <time>2021-10-12T19:13:40.667Z</time>
      </trkpt>
      <trkpt lat="44.14839" lon="6.31868">
        <ele>1067.7665882059</ele>
        <time>2021-10-12T19:13:42.684Z</time>
      </trkpt>
      <trkpt lat="44.14841" lon="6.3187">
        <ele>1067.9999128153</ele>
        <time>2021-10-12T19:13:44.702Z</time>
      </trkpt>
      <trkpt lat="44.14855" lon="6.31885">
        <ele>1068.2490510816</ele>
        <time>2021-10-12T19:13:46.726Z</time>
      </trkpt>
      <trkpt lat="44.14861" lon="6.31891">
        <ele>1068.4464021554</ele>
        <time>2021-10-12T19:13:48.752Z</time>
      </trkpt>
      <trkpt lat="44.14874" lon="6.319">
        <ele>1068.6519790166</ele>
        <time>2021-10-12T19:13:50.783Z</time>
      </trkpt>
      <trkpt lat="44.14881" lon="6.31904">
        <ele>1068.8338193771</ele>
        <time>2021-10-12T19:13:52.817Z</time>
      </trkpt>
      <trkpt lat="44.14888" lon="6.31908">
        <ele>1068.9946874236</ele>
        <time>2021-10-12T19:13:54.853Z</time>
      </trkpt>
      <trkpt lat="44.149" lon="6.31914">
        <ele>1069.1559555922</ele>
        <time>2021-10-12T19:13:56.893Z</time>
      </trkpt>
      <trkpt lat="44.14914" lon="6.31922">
        <ele>1069.2967711482</ele>
        <time>2021-10-12T19:13:58.939Z</time>
      </trkpt>
      <trkpt lat="44.14923" lon="6.3193">
        <ele>1069.3940441884</ele>
        <time>2021-10-12T19:14:00.988Z</time>
      </trkpt>
      <trkpt lat="44.14927" lon="6.31934">
        <ele>1069.4803995716</ele>
        <time>2021-10-12T19:14:03.039Z</time>
      </trkpt>
      <trkpt lat="44.14941" lon="6.31951">
        <ele>1069.5913741796</ele>
        <time>2021-10-12T19:14:05.096Z</time>
      </trkpt>
      <trkpt lat="44.14949" lon="6.31961">
        <ele>1069.7008727452</ele>
        <time>2021-10-12T19:14:07.157Z</time>
      </trkpt>
      <trkpt lat="44.14952" lon="6.31966">
        <ele>1069.7874047625</ele>
        <time>2021-10-12T19:14:09.219Z</time>
      </trkpt>
      <trkpt lat="44.14967" lon="6.31987">
        <ele>1069.9196938444</ele>
        <time>2021-10-12T19:14:11.288Z</time>
      </trkpt>
      <trkpt lat="44.14971" lon="6.31992">
        <ele>1069.9980720396</ele>
        <time>2021-10-12T19:14:13.359Z</time>
      </trkpt>
      <trkpt lat="44.14981" lon="6.32004">
        <ele>1070.0791597541</ele>
        <time>2021-10-12T19:14:15.434Z</time>
      </trkpt>
      <trkpt lat="44.14993" lon="6.32013">
        <ele>1070.1627557577</ele>
        <time>2021-10-12T19:14:17.514Z</time>
      </trkpt>
      <trkpt lat="44.14999" lon="6.32018">
        <ele>1070.2347223346</ele>
        <time>2021-10-12T19:14:19.596Z</time>
      </trkpt>
      <trkpt lat="44.15017" lon="6.32031">
        <ele>1070.2900220349</ele>
        <time>2021-10-12T19:14:21.685Z</time>
      </trkpt>
      <trkpt lat="44.1504" lon="6.32047">
        <ele>1070.3903696041</ele>
        <time>2021-10-12T19:14:23.783Z</time>
      </trkpt>
      <trkpt lat="44.15043" lon="6.32049">
        <ele>1070.493096661</ele>
        <time>2021-10-12T19:14:25.882Z</time>
      </trkpt>
      <trkpt lat="44.15063" lon="6.32064">
        <ele>1070.5515648918</ele>
        <time>2021-10-12T19:14:27.988Z</time>
      </trkpt>
      <trkpt lat="44.15065" lon="6.32066">
        <ele>1070.6870015955</ele>
        <time>2021-10-12T19:14:30.095Z</time>
      </trkpt>
      <trkpt lat="44.15076" lon="6.32075">
        <ele>1070.8122536434</ele>
        <time>2021-10-12T19:14:32.206Z</time>
      </trkpt>
      <trkpt lat="44.15085" lon="6.32082">
        <ele>1070.9854510081</ele>
        <time>2021-10-12T19:14:34.321Z</time>
      </trkpt>
      <trkpt lat="44.15089" lon="6.32085">
        <ele>1071.2121436052</ele>
        <time>2021-10-12T19:14:36.437Z</time>
      </trkpt>
      <trkpt lat="44.15106" lon="6.32095">
        <ele>1071.4182754325</ele>
        <time>2021-10-12T19:14:38.560Z</time>
      </trkpt>
      <trkpt lat="44.15126" lon="6.32111">
        <ele>1071.6513866254</ele>
        <time>2021-10-12T19:14:40.690Z</time>
      </trkpt>
      <trkpt lat="44.15137" lon="6.32124">
        <ele>1072.0536301169</ele>
        <time>2021-10-12T19:14:42.825Z</time>
      </trkpt>
      <trkpt lat="44.15139" lon="6.32126">
        <ele>1072.4830165776</ele>
        <time>2021-10-12T19:14:44.961Z</time>
      </trkpt>
      <trkpt lat="44.15153" lon="6.32145">
        <ele>1073.0140672557</ele>
        <time>2021-10-12T19:14:47.104Z</time>
      </trkpt>
      <trkpt lat="44.15155" lon="6.32148">
        <ele>1073.5528425917</ele>
        <time>2021-10-12T19:14:49.247Z</time>
      </trkpt>
      <trkpt lat="44.15164" lon="6.32162">
        <ele>1074.2130174328</ele>
        <time>2021-10-12T19:14:51.395Z</time>
      </trkpt>
      <trkpt lat="44.15169" lon="6.32169">
        <ele>1074.8875655964</ele>
        <time>2021-10-12T19:14:53.545Z</time>
      </trkpt>
      <trkpt lat="44.15173" lon="6.32174">
        <ele>1075.5937662322</ele>
        <time>2021-10-12T19:14:55.697Z</time>
      </trkpt>
      <trkpt lat="44.15182" lon="6.32185">
        <ele>1076.3841104</ele>
        <time>2021-10-12T19:14:57.853Z</time>
      </trkpt>
      <trkpt lat="44.15187" lon="6.32192">
        <ele>1077.1872300723</ele>
        <time>2021-10-12T19:15:00.011Z</time>
      </trkpt>
      <trkpt lat="44.15192" lon="6.32198">
        <ele>1078.0270491993</ele>
        <time>2021-10-12T19:15:02.172Z</time>
      </trkpt>
      <trkpt lat="44.152" lon="6.32209">
        <ele>1078.9287408625</ele>
        <time>2021-10-12T19:15:04.336Z</time>
      </trkpt>
      <trkpt lat="44.15203" lon="6.32214">
        <ele>1079.8392408319</ele>
        <time>2021-10-12T19:15:06.502Z</time>
      </trkpt>
      <trkpt lat="44.15206" lon="6.32219">
        <ele>1080.8010512402</ele>
        <time>2021-10-12T19:15:08.670Z</time>
      </trkpt>
      <trkpt lat="44.15211" lon="6.32234">
        <ele>1081.9479986594</ele>
        <time>2021-10-12T19:15:10.841Z</time>
      </trkpt>
      <trkpt lat="44.15211" lon="6.32237">
        <ele>1082.9620051481</ele>
        <time>2021-10-12T19:15:13.013Z</time>
      </trkpt>
      <trkpt lat="44.15211" lon="6.3225">
        <ele>1084.0579347217</ele>
        <time>2021-10-12T19:15:15.188Z</time>
      </trkpt>
      <trkpt lat="44.15212" lon="6.3226">
        <ele>1085.1088974554</ele>
        <time>2021-10-12T19:15:17.366Z</time>
      </trkpt>
      <trkpt lat="44.15214" lon="6.32266">
        <ele>1086.1482256521</ele>
        <time>2021-10-12T19:15:19.545Z</time>
      </trkpt>
      <trkpt lat="44.15219" lon="6.32284">
        <ele>1087.2393237361</ele>
        <time>2021-10-12T19:15:21.729Z</time>
      </trkpt>
      <trkpt lat="44.1522" lon="6.32286">
        <ele>1088.2745152707</ele>
        <time>2021-10-12T19:15:23.913Z</time>
      </trkpt>
      <trkpt lat="44.15222" lon="6.32294">
        <ele>1089.3212691868</ele>
        <time>2021-10-12T19:15:26.100Z</time>
      </trkpt>
      <trkpt lat="44.15228" lon="6.32307">
        <ele>1090.3799228803</ele>
        <time>2021-10-12T19:15:28.290Z</time>
      </trkpt>
      <trkpt lat="44.15231" lon="6.32315">
        <ele>1091.4237979764</ele>
        <time>2021-10-12T19:15:30.482Z</time>
      </trkpt>
      <trkpt lat="44.15234" lon="6.32322">
        <ele>1092.460223882</ele>
        <time>2021-10-12T19:15:32.676Z</time>
      </trkpt>
      <trkpt lat="44.15238" lon="6.32332">
        <ele>1093.4844218128</ele>
        <time>2021-10-12T19:15:34.873Z</time>
      </trkpt>
      <trkpt lat="44.15239" lon="6.32335">
        <ele>1094.4913018489</ele>
        <time>2021-10-12T19:15:37.071Z</time>
      </trkpt>
      <trkpt lat="44.15248" lon="6.32348">
        <ele>1095.5130667864</ele>
        <time>2021-10-12T19:15:39.273Z</time>
      </trkpt>
      <trkpt lat="44.15256" lon="6.32361">
        <ele>1096.5397543533</ele>
        <time>2021-10-12T19:15:41.479Z</time>
      </trkpt>
      <trkpt lat="44.15259" lon="6.32366">
        <ele>1097.5222534256</ele>
        <time>2021-10-12T19:15:43.687Z</time>
      </trkpt>
      <trkpt lat="44.15262" lon="6.3237">
        <ele>1098.4804891986</ele>
        <time>2021-10-12T19:15:45.896Z</time>
      </trkpt>
      <trkpt lat="44.15266" lon="6.32377">
        <ele>1099.4273084731</ele>
        <time>2021-10-12T19:15:48.107Z</time>
      </trkpt>
      <trkpt lat="44.15268" lon="6.32382">
        <ele>1100.3289503318</ele>
        <time>2021-10-12T19:15:50.320Z</time>
      </trkpt>
      <trkpt lat="44.15274" lon="6.32392">
        <ele>1101.212548839</ele>
        <time>2021-10-12T19:15:52.536Z</time>
      </trkpt>
      <trkpt lat="44.15276" lon="6.32394">
        <ele>1102.0353092637</ele>
        <time>2021-10-12T19:15:54.752Z</time>
      </trkpt>
      <trkpt lat="44.15281" lon="6.32404">
        <ele>1102.8505957384</ele>
        <time>2021-10-12T19:15:56.971Z</time>
      </trkpt>
      <trkpt lat="44.15287" lon="6.32413">
        <ele>1103.6315846328</ele>
        <time>2021-10-12T19:15:59.193Z</time>
      </trkpt>
      <trkpt lat="44.15288" lon="6.32415">
        <ele>1104.356523297</ele>
        <time>2021-10-12T19:16:01.416Z</time>
      </trkpt>
      <trkpt lat="44.15292" lon="6.32423">
        <ele>1105.0767745179</ele>
        <time>2021-10-12T19:16:03.641Z</time>
      </trkpt>
      <trkpt lat="44.15299" lon="6.32435">
        <ele>1105.7499767349</ele>
        <time>2021-10-12T19:16:05.870Z</time>
      </trkpt>
      <trkpt lat="44.15301" lon="6.32437">
        <ele>1106.3388482067</ele>
        <time>2021-10-12T19:16:08.100Z</time>
      </trkpt>
      <trkpt lat="44.15306" lon="6.32447">
        <ele>1106.9225661966</ele>
        <time>2021-10-12T19:16:10.333Z</time>
      </trkpt>
      <trkpt lat="44.15311" lon="6.32461">
        <ele>1107.4586309008</ele>
        <time>2021-10-12T19:16:12.570Z</time>
      </trkpt>
      <trkpt lat="44.15318" lon="6.32477">
        <ele>1107.9630714231</ele>
        <time>2021-10-12T19:16:14.811Z</time>
      </trkpt>
      <trkpt lat="44.15321" lon="6.32484">
        <ele>1108.4122933563</ele>
        <time>2021-10-12T19:16:17.054Z</time>
      </trkpt>
      <trkpt lat="44.15324" lon="6.32489">
        <ele>1108.8079908522</ele>
        <time>2021-10-12T19:16:19.299Z</time>
      </trkpt>
      <trkpt lat="44.15331" lon="6.32501">
        <ele>1109.1977832089</ele>
        <time>2021-10-12T19:16:21.547Z</time>
      </trkpt>
      <trkpt lat="44.15333" lon="6.32504">
        <ele>1109.4993135746</ele>
        <time>2021-10-12T19:16:23.796Z</time>
      </trkpt>
      <trkpt lat="44.15337" lon="6.32511">
        <ele>1109.773902403</ele>
        <time>2021-10-12T19:16:26.047Z</time>
      </trkpt>
      <trkpt lat="44.15345" lon="6.32522">
        <ele>1110.0276356911</ele>
        <time>2021-10-12T19:16:28.302Z</time>
      </trkpt>
      <trkpt lat="44.15351" lon="6.32531">
        <ele>1110.2288723172</ele>
        <time>2021-10-12T19:16:30.560Z</time>
      </trkpt>
      <trkpt lat="44.15358" lon="6.32539">
        <ele>1110.323725475</ele>
        <time>2021-10-12T19:16:32.821Z</time>
      </trkpt>
      <trkpt lat="44.15359" lon="6.32542">
        <ele>1110.3953727782</ele>
        <time>2021-10-12T19:16:35.083Z</time>
      </trkpt>
      <trkpt lat="44.15368" lon="6.32556">
        <ele>1110.4197055425</ele>
        <time>2021-10-12T19:16:37.349Z</time>
      </trkpt>
      <trkpt lat="44.15371" lon="6.32562">
        <ele>1110.4365216607</ele>
        <time>2021-10-12T19:16:39.617Z</time>
      </trkpt>
      <trkpt lat="44.15372" lon="6.32565">
        <ele>1110.4188227346</ele>
        <time>2021-10-12T19:16:41.886Z</time>
      </trkpt>
      <trkpt lat="44.15379" lon="6.32584">
        <ele>1110.3783084231</ele>
        <time>2021-10-12T19:16:44.160Z</time>
      </trkpt>
      <trkpt lat="44.15385" lon="6.32607">
        <ele>1110.2205672122</ele>
        <time>2021-10-12T19:16:46.440Z</time>
      </trkpt>
      <trkpt lat="44.15393" lon="6.32636">
        <ele>1110.0928293551</ele>
        <time>2021-10-12T19:16:48.727Z</time>
      </trkpt>
      <trkpt lat="44.154" lon="6.32672">
        <ele>1110.0557428465</ele>
        <time>2021-10-12T19:16:51.023Z</time>
      </trkpt>
      <trkpt lat="44.15399" lon="6.32698">
        <ele>1109.9817725469</ele>
        <time>2021-10-12T19:16:53.326Z</time>
      </trkpt>
      <trkpt lat="44.15395" lon="6.32725">
        <ele>1109.8385344226</ele>
        <time>2021-10-12T19:16:55.635Z</time>
      </trkpt>
      <trkpt lat="44.15393" lon="6.32731">
        <ele>1109.695141256</ele>
        <time>2021-10-12T19:16:57.946Z</time>
      </trkpt>
      <trkpt lat="44.15383" lon="6.32768">
        <ele>1109.5276296687</ele>
        <time>2021-10-12T19:17:00.266Z</time>
      </trkpt>
      <trkpt lat="44.1538" lon="6.3278">
        <ele>1109.3669149483</ele>
        <time>2021-10-12T19:17:02.589Z</time>
      </trkpt>
      <trkpt lat="44.15379" lon="6.32786">
        <ele>1109.2107033712</ele>
        <time>2021-10-12T19:17:04.914Z</time>
      </trkpt>
      <trkpt lat="44.15378" lon="6.32806">
        <ele>1109.0117155554</ele>
        <time>2021-10-12T19:17:07.243Z</time>
      </trkpt>
      <trkpt lat="44.15376" lon="6.3282">
        <ele>1108.9070848722</ele>
        <time>2021-10-12T19:17:09.576Z</time>
      </trkpt>
      <trkpt lat="44.15375" lon="6.32835">
        <ele>1108.82687815</ele>
        <time>2021-10-12T19:17:11.913Z</time>
      </trkpt>
      <trkpt lat="44.15372" lon="6.32849">
        <ele>1108.7828008153</ele>
        <time>2021-10-12T19:17:14.253Z</time>
      </trkpt>
      <trkpt lat="44.15368" lon="6.32861">
        <ele>1108.8140802674</ele>
        <time>2021-10-12T19:17:16.596Z</time>
      </trkpt>
      <trkpt lat="44.15365" lon="6.3288">
        <ele>1108.861922528</ele>
        <time>2021-10-12T19:17:18.944Z</time>
      </trkpt>
      <trkpt lat="44.15364" lon="6.32897">
        <ele>1108.9476456901</ele>
        <time>2021-10-12T19:17:21.296Z</time>
      </trkpt>
      <trkpt lat="44.15361" lon="6.32908">
        <ele>1109.1141321463</ele>
        <time>2021-10-12T19:17:23.651Z</time>
      </trkpt>
      <trkpt lat="44.15345" lon="6.32943">
        <ele>1109.3590143193</ele>
        <time>2021-10-12T19:17:26.016Z</time>
      </trkpt>
      <trkpt lat="44.15342" lon="6.32956">
        <ele>1109.5780346371</ele>
        <time>2021-10-12T19:17:28.384Z</time>
      </trkpt>
      <trkpt lat="44.15343" lon="6.3297">
        <ele>1109.8289002368</ele>
        <time>2021-10-12T19:17:30.755Z</time>
      </trkpt>
      <trkpt lat="44.15348" lon="6.32983">
        <ele>1110.1453030911</ele>
        <time>2021-10-12T19:17:33.130Z</time>
      </trkpt>
      <trkpt lat="44.15351" lon="6.3299">
        <ele>1110.496575931</ele>
        <time>2021-10-12T19:17:35.507Z</time>
      </trkpt>
      <trkpt lat="44.15359" lon="6.33018">
        <ele>1110.8065801882</ele>
        <time>2021-10-12T19:17:37.891Z</time>
      </trkpt>
      <trkpt lat="44.15373" lon="6.33069">
        <ele>1111.2430544629</ele>
        <time>2021-10-12T19:17:40.288Z</time>
      </trkpt>
      <trkpt lat="44.15386" lon="6.33104">
        <ele>1111.7401782691</ele>
        <time>2021-10-12T19:17:42.695Z</time>
      </trkpt>
      <trkpt lat="44.1539" lon="6.33117">
        <ele>1112.2739542695</ele>
        <time>2021-10-12T19:17:45.105Z</time>
      </trkpt>
      <trkpt lat="44.15393" lon="6.33131">
        <ele>1112.8388721672</ele>
        <time>2021-10-12T19:17:47.519Z</time>
      </trkpt>
      <trkpt lat="44.15393" lon="6.33135">
        <ele>1113.4374084854</ele>
        <time>2021-10-12T19:17:49.934Z</time>
      </trkpt>
      <trkpt lat="44.15394" lon="6.33152">
        <ele>1114.1238523249</ele>
        <time>2021-10-12T19:17:52.353Z</time>
      </trkpt>
      <trkpt lat="44.15393" lon="6.3316">
        <ele>1114.8325567142</ele>
        <time>2021-10-12T19:17:54.774Z</time>
      </trkpt>
      <trkpt lat="44.15391" lon="6.33171">
        <ele>1115.6123815903</ele>
        <time>2021-10-12T19:17:57.197Z</time>
      </trkpt>
      <trkpt lat="44.15388" lon="6.33185">
        <ele>1116.4553175412</ele>
        <time>2021-10-12T19:17:59.624Z</time>
      </trkpt>
      <trkpt lat="44.15388" lon="6.33189">
        <ele>1117.251271016</ele>
        <time>2021-10-12T19:18:02.052Z</time>
      </trkpt>
      <trkpt lat="44.15389" lon="6.33199">
        <ele>1118.0798101965</ele>
        <time>2021-10-12T19:18:04.482Z</time>
      </trkpt>
      <trkpt lat="44.15391" lon="6.33207">
        <ele>1118.9360386995</ele>
        <time>2021-10-12T19:18:06.914Z</time>
      </trkpt>
      <trkpt lat="44.15393" lon="6.33214">
        <ele>1119.8157962571</ele>
        <time>2021-10-12T19:18:09.348Z</time>
      </trkpt>
      <trkpt lat="44.15396" lon="6.33227">
        <ele>1120.7267510619</ele>
        <time>2021-10-12T19:18:11.785Z</time>
      </trkpt>
      <trkpt lat="44.15397" lon="6.3323">
        <ele>1121.6230009348</ele>
        <time>2021-10-12T19:18:14.223Z</time>
      </trkpt>
      <trkpt lat="44.15403" lon="6.33242">
        <ele>1122.5379889264</ele>
        <time>2021-10-12T19:18:16.665Z</time>
      </trkpt>
      <trkpt lat="44.15408" lon="6.33252">
        <ele>1123.475536235</ele>
        <time>2021-10-12T19:18:19.109Z</time>
      </trkpt>
      <trkpt lat="44.15409" lon="6.33255">
        <ele>1124.4178721068</ele>
        <time>2021-10-12T19:18:21.554Z</time>
      </trkpt>
      <trkpt lat="44.15416" lon="6.33271">
        <ele>1125.4245689251</ele>
        <time>2021-10-12T19:18:24.004Z</time>
      </trkpt>
      <trkpt lat="44.15422" lon="6.33288">
        <ele>1126.4204494303</ele>
        <time>2021-10-12T19:18:26.458Z</time>
      </trkpt>
      <trkpt lat="44.15424" lon="6.33303">
        <ele>1127.4651282131</ele>
        <time>2021-10-12T19:18:28.916Z</time>
      </trkpt>
      <trkpt lat="44.15424" lon="6.33317">
        <ele>1128.5151698931</ele>
        <time>2021-10-12T19:18:31.377Z</time>
      </trkpt>
      <trkpt lat="44.15427" lon="6.33327">
        <ele>1129.528718098</ele>
        <time>2021-10-12T19:18:33.841Z</time>
      </trkpt>
      <trkpt lat="44.15431" lon="6.33336">
        <ele>1130.5086499025</ele>
        <time>2021-10-12T19:18:36.307Z</time>
      </trkpt>
      <trkpt lat="44.15433" lon="6.33339">
        <ele>1131.4408560627</ele>
        <time>2021-10-12T19:18:38.774Z</time>
      </trkpt>
      <trkpt lat="44.15438" lon="6.33346">
        <ele>1132.3934941614</ele>
        <time>2021-10-12T19:18:41.244Z</time>
      </trkpt>
      <trkpt lat="44.15442" lon="6.33356">
        <ele>1133.3706088884</ele>
        <time>2021-10-12T19:18:43.717Z</time>
      </trkpt>
      <trkpt lat="44.15442" lon="6.3336">
        <ele>1134.286025804</ele>
        <time>2021-10-12T19:18:46.190Z</time>
      </trkpt>
      <trkpt lat="44.15443" lon="6.33367">
        <ele>1135.2132695528</ele>
        <time>2021-10-12T19:18:48.665Z</time>
      </trkpt>
      <trkpt lat="44.15445" lon="6.33381">
        <ele>1136.1697383619</ele>
        <time>2021-10-12T19:18:51.144Z</time>
      </trkpt>
      <trkpt lat="44.15446" lon="6.33384">
        <ele>1137.0407825737</ele>
        <time>2021-10-12T19:18:53.623Z</time>
      </trkpt>
      <trkpt lat="44.1545" lon="6.33397">
        <ele>1137.8933430506</ele>
        <time>2021-10-12T19:18:56.106Z</time>
      </trkpt>
      <trkpt lat="44.15457" lon="6.33407">
        <ele>1138.7030614305</ele>
        <time>2021-10-12T19:18:58.592Z</time>
      </trkpt>
      <trkpt lat="44.1547" lon="6.3341">
        <ele>1139.4440521933</ele>
        <time>2021-10-12T19:19:01.083Z</time>
      </trkpt>
      <trkpt lat="44.15478" lon="6.33415">
        <ele>1140.184420619</ele>
        <time>2021-10-12T19:19:03.577Z</time>
      </trkpt>
      <trkpt lat="44.15479" lon="6.33418">
        <ele>1140.9578911171</ele>
        <time>2021-10-12T19:19:06.071Z</time>
      </trkpt>
      <trkpt lat="44.15477" lon="6.33426">
        <ele>1141.724049778</ele>
        <time>2021-10-12T19:19:08.567Z</time>
      </trkpt>
      <trkpt lat="44.15469" lon="6.33427">
        <ele>1142.5707975085</ele>
        <time>2021-10-12T19:19:11.066Z</time>
      </trkpt>
      <trkpt lat="44.15463" lon="6.33429">
        <ele>1143.4041777075</ele>
        <time>2021-10-12T19:19:13.567Z</time>
      </trkpt>
      <trkpt lat="44.15459" lon="6.33432">
        <ele>1144.1975401659</ele>
        <time>2021-10-12T19:19:16.070Z</time>
      </trkpt>
      <trkpt lat="44.15457" lon="6.33433">
        <ele>1144.9781166538</ele>
        <time>2021-10-12T19:19:18.573Z</time>
      </trkpt>
      <trkpt lat="44.15451" lon="6.33434">
        <ele>1145.8186672781</ele>
        <time>2021-10-12T19:19:21.078Z</time>
      </trkpt>
      <trkpt lat="44.15449" lon="6.33434">
        <ele>1146.6093143338</ele>
        <time>2021-10-12T19:19:23.584Z</time>
      </trkpt>
      <trkpt lat="44.1544" lon="6.33435">
        <ele>1147.4784840596</ele>
        <time>2021-10-12T19:19:26.093Z</time>
      </trkpt>
      <trkpt lat="44.15436" lon="6.33434">
        <ele>1148.2886392734</ele>
        <time>2021-10-12T19:19:28.603Z</time>
      </trkpt>
      <trkpt lat="44.1543" lon="6.33431">
        <ele>1149.1150008078</ele>
        <time>2021-10-12T19:19:31.116Z</time>
      </trkpt>
      <trkpt lat="44.15425" lon="6.33427">
        <ele>1149.9250002284</ele>
        <time>2021-10-12T19:19:33.631Z</time>
      </trkpt>
      <trkpt lat="44.15417" lon="6.33421">
        <ele>1150.7621521932</ele>
        <time>2021-10-12T19:19:36.148Z</time>
      </trkpt>
      <trkpt lat="44.1541" lon="6.33418">
        <ele>1151.5829072337</ele>
        <time>2021-10-12T19:19:38.668Z</time>
      </trkpt>
      <trkpt lat="44.15409" lon="6.33417">
        <ele>1152.3368402749</ele>
        <time>2021-10-12T19:19:41.188Z</time>
      </trkpt>
      <trkpt lat="44.15407" lon="6.33415">
        <ele>1153.0739403519</ele>
        <time>2021-10-12T19:19:43.709Z</time>
      </trkpt>
      <trkpt lat="44.15405" lon="6.3341">
        <ele>1153.7920732954</ele>
        <time>2021-10-12T19:19:46.231Z</time>
      </trkpt>
      <trkpt lat="44.154" lon="6.33404">
        <ele>1154.5331796579</ele>
        <time>2021-10-12T19:19:48.756Z</time>
      </trkpt>
      <trkpt lat="44.15396" lon="6.33403">
        <ele>1155.2870503246</ele>
        <time>2021-10-12T19:19:51.282Z</time>
      </trkpt>
      <trkpt lat="44.15394" lon="6.33404">
        <ele>1156.0170048521</ele>
        <time>2021-10-12T19:19:53.809Z</time>
      </trkpt>
      <trkpt lat="44.15392" lon="6.33413">
        <ele>1156.774372009</ele>
        <time>2021-10-12T19:19:56.338Z</time>
      </trkpt>
      <trkpt lat="44.15393" lon="6.33416">
        <ele>1157.4830189873</ele>
        <time>2021-10-12T19:19:58.868Z</time>
      </trkpt>
      <trkpt lat="44.15396" lon="6.33424">
        <ele>1158.1885619737</ele>
        <time>2021-10-12T19:20:01.400Z</time>
      </trkpt>
      <trkpt lat="44.15397" lon="6.33427">
        <ele>1158.8918432351</ele>
        <time>2021-10-12T19:20:03.933Z</time>
      </trkpt>
      <trkpt lat="44.15397" lon="6.33429">
        <ele>1159.6011576539</ele>
        <time>2021-10-12T19:20:06.466Z</time>
      </trkpt>
      <trkpt lat="44.15398" lon="6.33432">
        <ele>1160.3243094099</ele>
        <time>2021-10-12T19:20:09.000Z</time>
      </trkpt>
      <trkpt lat="44.15398" lon="6.33443">
        <ele>1161.0939866716</ele>
        <time>2021-10-12T19:20:11.537Z</time>
      </trkpt>
      <trkpt lat="44.15399" lon="6.33446">
        <ele>1161.8150528556</ele>
        <time>2021-10-12T19:20:14.074Z</time>
      </trkpt>
      <trkpt lat="44.15399" lon="6.33454">
        <ele>1162.5597672975</ele>
        <time>2021-10-12T19:20:16.613Z</time>
      </trkpt>
      <trkpt lat="44.154" lon="6.33459">
        <ele>1163.3006504073</ele>
        <time>2021-10-12T19:20:19.153Z</time>
      </trkpt>
      <trkpt lat="44.154" lon="6.33462">
        <ele>1164.0626987059</ele>
        <time>2021-10-12T19:20:21.694Z</time>
      </trkpt>
      <trkpt lat="44.15399" lon="6.33469">
        <ele>1164.8902158436</ele>
        <time>2021-10-12T19:20:24.237Z</time>
      </trkpt>
      <trkpt lat="44.15399" lon="6.33478">
        <ele>1165.7173136665</ele>
        <time>2021-10-12T19:20:26.782Z</time>
      </trkpt>
      <trkpt lat="44.15398" lon="6.33481">
        <ele>1166.5202034037</ele>
        <time>2021-10-12T19:20:29.328Z</time>
      </trkpt>
      <trkpt lat="44.15397" lon="6.33488">
        <ele>1167.3776219801</ele>
        <time>2021-10-12T19:20:31.876Z</time>
      </trkpt>
      <trkpt lat="44.15397" lon="6.33497">
        <ele>1168.221159307</ele>
        <time>2021-10-12T19:20:34.426Z</time>
      </trkpt>
      <trkpt lat="44.15397" lon="6.335">
        <ele>1169.0398096444</ele>
        <time>2021-10-12T19:20:36.976Z</time>
      </trkpt>
      <trkpt lat="44.15396" lon="6.33508">
        <ele>1169.8854365828</ele>
        <time>2021-10-12T19:20:39.528Z</time>
      </trkpt>
      <trkpt lat="44.15396" lon="6.33519">
        <ele>1170.7485408908</ele>
        <time>2021-10-12T19:20:42.083Z</time>
      </trkpt>
      <trkpt lat="44.15397" lon="6.33534">
        <ele>1171.6615548262</ele>
        <time>2021-10-12T19:20:44.641Z</time>
      </trkpt>
      <trkpt lat="44.15398" lon="6.33542">
        <ele>1172.5740460151</ele>
        <time>2021-10-12T19:20:47.202Z</time>
      </trkpt>
      <trkpt lat="44.15398" lon="6.33548">
        <ele>1173.4342183764</ele>
        <time>2021-10-12T19:20:49.764Z</time>
      </trkpt>
      <trkpt lat="44.15398" lon="6.33557">
        <ele>1174.3350026681</ele>
        <time>2021-10-12T19:20:52.328Z</time>
      </trkpt>
      <trkpt lat="44.15398" lon="6.3356">
        <ele>1175.2373172337</ele>
        <time>2021-10-12T19:20:54.893Z</time>
      </trkpt>
      <trkpt lat="44.15399" lon="6.33566">
        <ele>1176.1582657048</ele>
        <time>2021-10-12T19:20:57.459Z</time>
      </trkpt>
      <trkpt lat="44.15401" lon="6.33577">
        <ele>1177.0548752521</ele>
        <time>2021-10-12T19:21:00.028Z</time>
      </trkpt>
      <trkpt lat="44.15402" lon="6.33583">
        <ele>1177.9740141474</ele>
        <time>2021-10-12T19:21:02.598Z</time>
      </trkpt>
      <trkpt lat="44.15403" lon="6.33586">
        <ele>1178.9042477917</ele>
        <time>2021-10-12T19:21:05.169Z</time>
      </trkpt>
      <trkpt lat="44.15404" lon="6.33598">
        <ele>1179.8672506498</ele>
        <time>2021-10-12T19:21:07.743Z</time>
      </trkpt>
      <trkpt lat="44.15404" lon="6.33604">
        <ele>1180.8135429298</ele>
        <time>2021-10-12T19:21:10.318Z</time>
      </trkpt>
      <trkpt lat="44.15404" lon="6.33607">
        <ele>1181.7440462278</ele>
        <time>2021-10-12T19:21:12.894Z</time>
      </trkpt>
      <trkpt lat="44.15404" lon="6.33615">
        <ele>1182.7388873295</ele>
        <time>2021-10-12T19:21:15.472Z</time>
      </trkpt>
      <trkpt lat="44.15405" lon="6.33623">
        <ele>1183.7210925622</ele>
        <time>2021-10-12T19:21:18.052Z</time>
      </trkpt>
      <trkpt lat="44.15405" lon="6.33629">
        <ele>1184.6740726235</ele>
        <time>2021-10-12T19:21:20.634Z</time>
      </trkpt>
      <trkpt lat="44.15407" lon="6.33636">
        <ele>1185.6266982285</ele>
        <time>2021-10-12T19:21:23.217Z</time>
      </trkpt>
      <trkpt lat="44.15407" lon="6.33639">
        <ele>1186.5428323242</ele>
        <time>2021-10-12T19:21:25.801Z</time>
      </trkpt>
      <trkpt lat="44.15406" lon="6.33642">
        <ele>1187.4213781382</ele>
        <time>2021-10-12T19:21:28.386Z</time>
      </trkpt>
      <trkpt lat="44.15405" lon="6.33644">
        <ele>1188.2589930003</ele>
        <time>2021-10-12T19:21:30.971Z</time>
      </trkpt>
      <trkpt lat="44.15405" lon="6.33648">
        <ele>1189.0941631268</ele>
        <time>2021-10-12T19:21:33.557Z</time>
      </trkpt>
      <trkpt lat="44.154" lon="6.33661">
        <ele>1189.9507885837</ele>
        <time>2021-10-12T19:21:36.147Z</time>
      </trkpt>
      <trkpt lat="44.15397" lon="6.33666">
        <ele>1190.6986503989</ele>
        <time>2021-10-12T19:21:38.738Z</time>
      </trkpt>
      <trkpt lat="44.15393" lon="6.33677">
        <ele>1191.4632494215</ele>
        <time>2021-10-12T19:21:41.332Z</time>
      </trkpt>
      <trkpt lat="44.15387" lon="6.33691">
        <ele>1192.1388243581</ele>
        <time>2021-10-12T19:21:43.930Z</time>
      </trkpt>
      <trkpt lat="44.15384" lon="6.33699">
        <ele>1192.722981661</ele>
        <time>2021-10-12T19:21:46.531Z</time>
      </trkpt>
      <trkpt lat="44.15381" lon="6.33709">
        <ele>1193.2497906893</ele>
        <time>2021-10-12T19:21:49.134Z</time>
      </trkpt>
      <trkpt lat="44.15377" lon="6.33719">
        <ele>1193.6784110155</ele>
        <time>2021-10-12T19:21:51.740Z</time>
      </trkpt>
      <trkpt lat="44.15374" lon="6.33729">
        <ele>1194.009155252</ele>
        <time>2021-10-12T19:21:54.348Z</time>
      </trkpt>
      <trkpt lat="44.15369" lon="6.33737">
        <ele>1194.2419563308</ele>
        <time>2021-10-12T19:21:56.959Z</time>
      </trkpt>
      <trkpt lat="44.15365" lon="6.33743">
        <ele>1194.4071379434</ele>
        <time>2021-10-12T19:21:59.572Z</time>
      </trkpt>
      <trkpt lat="44.15359" lon="6.33754">
        <ele>1194.4729119641</ele>
        <time>2021-10-12T19:22:02.188Z</time>
      </trkpt>
      <trkpt lat="44.15355" lon="6.3376">
        <ele>1194.47370236</ele>
        <time>2021-10-12T19:22:04.806Z</time>
      </trkpt>
      <trkpt lat="44.15349" lon="6.33772">
        <ele>1194.3918036276</ele>
        <time>2021-10-12T19:22:07.428Z</time>
      </trkpt>
      <trkpt lat="44.15347" lon="6.33778">
        <ele>1194.2405723873</ele>
        <time>2021-10-12T19:22:10.051Z</time>
      </trkpt>
      <trkpt lat="44.15342" lon="6.33788">
        <ele>1193.9961438662</ele>
        <time>2021-10-12T19:22:12.677Z</time>
      </trkpt>
      <trkpt lat="44.15341" lon="6.33793">
        <ele>1193.6827766112</ele>
        <time>2021-10-12T19:22:15.305Z</time>
      </trkpt>
      <trkpt lat="44.15338" lon="6.33805">
        <ele>1193.2730704922</ele>
        <time>2021-10-12T19:22:17.935Z</time>
      </trkpt>
      <trkpt lat="44.15335" lon="6.33812">
        <ele>1192.748606514</ele>
        <time>2021-10-12T19:22:20.568Z</time>
      </trkpt>
      <trkpt lat="44.15329" lon="6.33821">
        <ele>1192.1575124059</ele>
        <time>2021-10-12T19:22:23.203Z</time>
      </trkpt>
      <trkpt lat="44.15327" lon="6.33824">
        <ele>1191.5050292736</ele>
        <time>2021-10-12T19:22:25.839Z</time>
      </trkpt>
      <trkpt lat="44.15316" lon="6.33837">
        <ele>1190.7274962261</ele>
        <time>2021-10-12T19:22:28.480Z</time>
      </trkpt>
      <trkpt lat="44.15312" lon="6.33839">
        <ele>1189.8873126943</ele>
        <time>2021-10-12T19:22:31.123Z</time>
      </trkpt>
      <trkpt lat="44.15302" lon="6.33844">
        <ele>1188.9406578015</ele>
        <time>2021-10-12T19:22:33.769Z</time>
      </trkpt>
      <trkpt lat="44.15298" lon="6.33847">
        <ele>1187.9733300873</ele>
        <time>2021-10-12T19:22:36.417Z</time>
      </trkpt>
      <trkpt lat="44.15294" lon="6.3385">
        <ele>1186.9348751592</ele>
        <time>2021-10-12T19:22:39.066Z</time>
      </trkpt>
      <trkpt lat="44.15284" lon="6.33853">
        <ele>1185.8063949571</ele>
        <time>2021-10-12T19:22:41.719Z</time>
      </trkpt>
      <trkpt lat="44.15273" lon="6.33855">
        <ele>1184.6162001213</ele>
        <time>2021-10-12T19:22:44.375Z</time>
      </trkpt>
      <trkpt lat="44.15267" lon="6.33856">
        <ele>1183.4094355829</ele>
        <time>2021-10-12T19:22:47.033Z</time>
      </trkpt>
      <trkpt lat="44.15257" lon="6.33861">
        <ele>1182.107322775</ele>
        <time>2021-10-12T19:22:49.695Z</time>
      </trkpt>
      <trkpt lat="44.15249" lon="6.33863">
        <ele>1180.7676936604</ele>
        <time>2021-10-12T19:22:52.360Z</time>
      </trkpt>
      <trkpt lat="44.15242" lon="6.33868">
        <ele>1179.4148604305</ele>
        <time>2021-10-12T19:22:55.027Z</time>
      </trkpt>
      <trkpt lat="44.15236" lon="6.33874">
        <ele>1178.0278995216</ele>
        <time>2021-10-12T19:22:57.697Z</time>
      </trkpt>
      <trkpt lat="44.15228" lon="6.33879">
        <ele>1176.5915585361</ele>
        <time>2021-10-12T19:23:00.370Z</time>
      </trkpt>
      <trkpt lat="44.15225" lon="6.33879">
        <ele>1175.1606681518</ele>
        <time>2021-10-12T19:23:03.044Z</time>
      </trkpt>
      <trkpt lat="44.15221" lon="6.33876">
        <ele>1173.7116634346</ele>
        <time>2021-10-12T19:23:05.719Z</time>
      </trkpt>
      <trkpt lat="44.15218" lon="6.33873">
        <ele>1172.2429209542</ele>
        <time>2021-10-12T19:23:08.395Z</time>
      </trkpt>
      <trkpt lat="44.15214" lon="6.33871">
        <ele>1170.7567522934</ele>
        <time>2021-10-12T19:23:11.073Z</time>
      </trkpt>
      <trkpt lat="44.15206" lon="6.33868">
        <ele>1169.2107734929</ele>
        <time>2021-10-12T19:23:13.753Z</time>
      </trkpt>
      <trkpt lat="44.15202" lon="6.33866">
        <ele>1167.7047924027</ele>
        <time>2021-10-12T19:23:16.435Z</time>
      </trkpt>
      <trkpt lat="44.15198" lon="6.33864">
        <ele>1166.1899610595</ele>
        <time>2021-10-12T19:23:19.118Z</time>
      </trkpt>
      <trkpt lat="44.15194" lon="6.33863">
        <ele>1164.6803365496</ele>
        <time>2021-10-12T19:23:21.803Z</time>
      </trkpt>
      <trkpt lat="44.15191" lon="6.33863">
        <ele>1163.1836639636</ele>
        <time>2021-10-12T19:23:24.489Z</time>
      </trkpt>
      <trkpt lat="44.15187" lon="6.33863">
        <ele>1161.6857135877</ele>
        <time>2021-10-12T19:23:27.176Z</time>
      </trkpt>
      <trkpt lat="44.15184" lon="6.33864">
        <ele>1160.2026635393</ele>
        <time>2021-10-12T19:23:29.864Z</time>
      </trkpt>
      <trkpt lat="44.15178" lon="6.33867">
        <ele>1158.7049163635</ele>
        <time>2021-10-12T19:23:32.554Z</time>
      </trkpt>
      <trkpt lat="44.15174" lon="6.33867">
        <ele>1157.2586694821</ele>
        <time>2021-10-12T19:23:35.245Z</time>
      </trkpt>
      <trkpt lat="44.15167" lon="6.33867">
        <ele>1155.7936955284</ele>
        <time>2021-10-12T19:23:37.939Z</time>
      </trkpt>
      <trkpt lat="44.15162" lon="6.33862">
        <ele>1154.3710014192</ele>
        <time>2021-10-12T19:23:40.635Z</time>
      </trkpt>
      <trkpt lat="44.15158" lon="6.33859">
        <ele>1152.9899820799</ele>
        <time>2021-10-12T19:23:43.332Z</time>
      </trkpt>
      <trkpt lat="44.15149" lon="6.33855">
        <ele>1151.548397745</ele>
        <time>2021-10-12T19:23:46.032Z</time>
      </trkpt>
      <trkpt lat="44.15146" lon="6.33854">
        <ele>1150.200163618</ele>
        <time>2021-10-12T19:23:48.734Z</time>
      </trkpt>
      <trkpt lat="44.15143" lon="6.33853">
        <ele>1148.8799464575</ele>
        <time>2021-10-12T19:23:51.437Z</time>
      </trkpt>
      <trkpt lat="44.1514" lon="6.33853">
        <ele>1147.6035236562</ele>
        <time>2021-10-12T19:23:54.141Z</time>
      </trkpt>
      <trkpt lat="44.15138" lon="6.33854">
        <ele>1146.3768413827</ele>
        <time>2021-10-12T19:23:56.845Z</time>
      </trkpt>
      <trkpt lat="44.15135" lon="6.33855">
        <ele>1145.1810999055</ele>
        <time>2021-10-12T19:23:59.550Z</time>
      </trkpt>
      <trkpt lat="44.1513" lon="6.33856">
        <ele>1143.9745020044</ele>
        <time>2021-10-12T19:24:02.257Z</time>
      </trkpt>
      <trkpt lat="44.15126" lon="6.33854">
        <ele>1142.8018941082</ele>
        <time>2021-10-12T19:24:04.966Z</time>
      </trkpt>
      <trkpt lat="44.1512" lon="6.33849">
        <ele>1141.6447836233</ele>
        <time>2021-10-12T19:24:07.677Z</time>
      </trkpt>
      <trkpt lat="44.15117" lon="6.33849">
        <ele>1140.5587361773</ele>
        <time>2021-10-12T19:24:10.389Z</time>
      </trkpt>
      <trkpt lat="44.15113" lon="6.33848">
        <ele>1139.5024099278</ele>
        <time>2021-10-12T19:24:13.102Z</time>
      </trkpt>
      <trkpt lat="44.15106" lon="6.33843">
        <ele>1138.4183936587</ele>
        <time>2021-10-12T19:24:15.818Z</time>
      </trkpt>
      <trkpt lat="44.15103" lon="6.3384">
        <ele>1137.4134134597</ele>
        <time>2021-10-12T19:24:18.535Z</time>
      </trkpt>
      <trkpt lat="44.15099" lon="6.33838">
        <ele>1136.4501145165</ele>
        <time>2021-10-12T19:24:21.254Z</time>
      </trkpt>
      <trkpt lat="44.15091" lon="6.3384">
        <ele>1134.6328636307</ele>
        <time>2021-10-12T19:24:23.975Z</time>
      </trkpt>
      <trkpt lat="44.15088" lon="6.33842">
        <ele>1133.7647948821</ele>
        <time>2021-10-12T19:24:26.697Z</time>
      </trkpt>
      <trkpt lat="44.15085" lon="6.33844">
        <ele>1132.9337273658</ele>
        <time>2021-10-12T19:24:29.420Z</time>
      </trkpt>
      <trkpt lat="44.15082" lon="6.33852">
        <ele>1132.1389342967</ele>
        <time>2021-10-12T19:24:32.146Z</time>
      </trkpt>
      <trkpt lat="44.15078" lon="6.33862">
        <ele>1131.3490566099</ele>
        <time>2021-10-12T19:24:34.874Z</time>
      </trkpt>
      <trkpt lat="44.15076" lon="6.33869">
        <ele>1130.5243684889</ele>
        <time>2021-10-12T19:24:37.604Z</time>
      </trkpt>
      <trkpt lat="44.15074" lon="6.33872">
        <ele>1129.7236137938</ele>
        <time>2021-10-12T19:24:40.335Z</time>
      </trkpt>
      <trkpt lat="44.15073" lon="6.33876">
        <ele>1128.9274677739</ele>
        <time>2021-10-12T19:24:43.067Z</time>
      </trkpt>
      <trkpt lat="44.15071" lon="6.33885">
        <ele>1128.1156615363</ele>
        <time>2021-10-12T19:24:45.801Z</time>
      </trkpt>
      <trkpt lat="44.1507" lon="6.33892">
        <ele>1127.2978488995</ele>
        <time>2021-10-12T19:24:48.537Z</time>
      </trkpt>
      <trkpt lat="44.15071" lon="6.33898">
        <ele>1126.4922413361</ele>
        <time>2021-10-12T19:24:51.274Z</time>
      </trkpt>
      <trkpt lat="44.15071" lon="6.33903">
        <ele>1125.6835205259</ele>
        <time>2021-10-12T19:24:54.013Z</time>
      </trkpt>
      <trkpt lat="44.15072" lon="6.33909">
        <ele>1124.8600338259</ele>
        <time>2021-10-12T19:24:56.753Z</time>
      </trkpt>
      <trkpt lat="44.15073" lon="6.33914">
        <ele>1124.0216588373</ele>
        <time>2021-10-12T19:24:59.494Z</time>
      </trkpt>
      <trkpt lat="44.15075" lon="6.3392">
        <ele>1123.1504712312</ele>
        <time>2021-10-12T19:25:02.237Z</time>
      </trkpt>
      <trkpt lat="44.15078" lon="6.33929">
        <ele>1122.2389479914</ele>
        <time>2021-10-12T19:25:04.982Z</time>
      </trkpt>
      <trkpt lat="44.15082" lon="6.33934">
        <ele>1121.3564554369</ele>
        <time>2021-10-12T19:25:07.729Z</time>
      </trkpt>
      <trkpt lat="44.15086" lon="6.33942">
        <ele>1120.4317504357</ele>
        <time>2021-10-12T19:25:10.478Z</time>
      </trkpt>
      <trkpt lat="44.15088" lon="6.33946">
        <ele>1119.48377047</ele>
        <time>2021-10-12T19:25:13.229Z</time>
      </trkpt>
      <trkpt lat="44.15089" lon="6.3395">
        <ele>1118.5182287848</ele>
        <time>2021-10-12T19:25:15.981Z</time>
      </trkpt>
      <trkpt lat="44.15094" lon="6.33962">
        <ele>1117.4534549925</ele>
        <time>2021-10-12T19:25:18.736Z</time>
      </trkpt>
      <trkpt lat="44.15099" lon="6.33973">
        <ele>1116.3791970208</ele>
        <time>2021-10-12T19:25:21.494Z</time>
      </trkpt>
      <trkpt lat="44.15101" lon="6.33979">
        <ele>1115.3524651776</ele>
        <time>2021-10-12T19:25:24.254Z</time>
      </trkpt>
      <trkpt lat="44.15104" lon="6.33984">
        <ele>1114.3402741858</ele>
        <time>2021-10-12T19:25:27.015Z</time>
      </trkpt>
      <trkpt lat="44.1511" lon="6.33993">
        <ele>1113.2779444774</ele>
        <time>2021-10-12T19:25:29.779Z</time>
      </trkpt>
      <trkpt lat="44.15113" lon="6.34002">
        <ele>1112.2058755428</ele>
        <time>2021-10-12T19:25:32.545Z</time>
      </trkpt>
      <trkpt lat="44.15118" lon="6.34011">
        <ele>1111.1288613246</ele>
        <time>2021-10-12T19:25:35.314Z</time>
      </trkpt>
      <trkpt lat="44.15125" lon="6.3402">
        <ele>1110.0882471782</ele>
        <time>2021-10-12T19:25:38.086Z</time>
      </trkpt>
      <trkpt lat="44.15128" lon="6.34024">
        <ele>1109.0445267521</ele>
        <time>2021-10-12T19:25:40.860Z</time>
      </trkpt>
      <trkpt lat="44.15132" lon="6.34027">
        <ele>1108.0160982772</ele>
        <time>2021-10-12T19:25:43.635Z</time>
      </trkpt>
      <trkpt lat="44.15134" lon="6.34032">
        <ele>1106.9332032279</ele>
        <time>2021-10-12T19:25:46.412Z</time>
      </trkpt>
      <trkpt lat="44.15135" lon="6.34038">
        <ele>1105.805405226</ele>
        <time>2021-10-12T19:25:49.190Z</time>
      </trkpt>
      <trkpt lat="44.15139" lon="6.34054">
        <ele>1104.6349789596</ele>
        <time>2021-10-12T19:25:51.972Z</time>
      </trkpt>
      <trkpt lat="44.15135" lon="6.34061">
        <ele>1103.3936675696</ele>
        <time>2021-10-12T19:25:54.756Z</time>
      </trkpt>
      <trkpt lat="44.15134" lon="6.34062">
        <ele>1102.2316696357</ele>
        <time>2021-10-12T19:25:57.541Z</time>
      </trkpt>
      <trkpt lat="44.15132" lon="6.34064">
        <ele>1100.9978819531</ele>
        <time>2021-10-12T19:26:00.326Z</time>
      </trkpt>
      <trkpt lat="44.1513" lon="6.34066">
        <ele>1099.7628776879</ele>
        <time>2021-10-12T19:26:03.112Z</time>
      </trkpt>
      <trkpt lat="44.15122" lon="6.34077">
        <ele>1098.3673341972</ele>
        <time>2021-10-12T19:26:05.902Z</time>
      </trkpt>
      <trkpt lat="44.15119" lon="6.34081">
        <ele>1097.1257733479</ele>
        <time>2021-10-12T19:26:08.693Z</time>
      </trkpt>
      <trkpt lat="44.15114" lon="6.3409">
        <ele>1095.8947987665</ele>
        <time>2021-10-12T19:26:11.487Z</time>
      </trkpt>
      <trkpt lat="44.15109" lon="6.34096">
        <ele>1094.5491215237</ele>
        <time>2021-10-12T19:26:14.283Z</time>
      </trkpt>
      <trkpt lat="44.15102" lon="6.34102">
        <ele>1093.1672965272</ele>
        <time>2021-10-12T19:26:17.082Z</time>
      </trkpt>
      <trkpt lat="44.15099" lon="6.34105">
        <ele>1091.8713613204</ele>
        <time>2021-10-12T19:26:19.882Z</time>
      </trkpt>
      <trkpt lat="44.15096" lon="6.34109">
        <ele>1090.5829677212</ele>
        <time>2021-10-12T19:26:22.684Z</time>
      </trkpt>
      <trkpt lat="44.15093" lon="6.34113">
        <ele>1089.2970726421</ele>
        <time>2021-10-12T19:26:25.487Z</time>
      </trkpt>
      <trkpt lat="44.1509" lon="6.34117">
        <ele>1088.025031675</ele>
        <time>2021-10-12T19:26:28.291Z</time>
      </trkpt>
      <trkpt lat="44.15088" lon="6.34121">
        <ele>1086.7557584945</ele>
        <time>2021-10-12T19:26:31.096Z</time>
      </trkpt>
      <trkpt lat="44.15086" lon="6.34125">
        <ele>1085.4692847989</ele>
        <time>2021-10-12T19:26:33.903Z</time>
      </trkpt>
      <trkpt lat="44.15082" lon="6.34129">
        <ele>1084.1692026388</ele>
        <time>2021-10-12T19:26:36.711Z</time>
      </trkpt>
      <trkpt lat="44.15077" lon="6.34139">
        <ele>1082.8517202357</ele>
        <time>2021-10-12T19:26:39.522Z</time>
      </trkpt>
      <trkpt lat="44.15075" lon="6.3415">
        <ele>1081.6115383769</ele>
        <time>2021-10-12T19:26:42.336Z</time>
      </trkpt>
      <trkpt lat="44.15073" lon="6.34161">
        <ele>1080.3650416135</ele>
        <time>2021-10-12T19:26:45.153Z</time>
      </trkpt>
      <trkpt lat="44.15073" lon="6.34167">
        <ele>1079.0899356087</ele>
        <time>2021-10-12T19:26:47.971Z</time>
      </trkpt>
      <trkpt lat="44.15072" lon="6.34174">
        <ele>1077.8062213481</ele>
        <time>2021-10-12T19:26:50.791Z</time>
      </trkpt>
      <trkpt lat="44.15072" lon="6.34181">
        <ele>1076.5087051145</ele>
        <time>2021-10-12T19:26:53.613Z</time>
      </trkpt>
      <trkpt lat="44.15071" lon="6.34197">
        <ele>1075.1700438163</ele>
        <time>2021-10-12T19:26:56.438Z</time>
      </trkpt>
      <trkpt lat="44.15071" lon="6.3421">
        <ele>1073.7977638132</ele>
        <time>2021-10-12T19:26:59.266Z</time>
      </trkpt>
      <trkpt lat="44.15071" lon="6.34216">
        <ele>1072.4389919319</ele>
        <time>2021-10-12T19:27:02.096Z</time>
      </trkpt>
      <trkpt lat="44.15071" lon="6.34231">
        <ele>1071.0084178566</ele>
        <time>2021-10-12T19:27:04.929Z</time>
      </trkpt>
      <trkpt lat="44.15072" lon="6.34238">
        <ele>1069.6132682815</ele>
        <time>2021-10-12T19:27:07.764Z</time>
      </trkpt>
      <trkpt lat="44.15072" lon="6.34245">
        <ele>1068.2145522024</ele>
        <time>2021-10-12T19:27:10.601Z</time>
      </trkpt>
      <trkpt lat="44.15072" lon="6.3426">
        <ele>1066.7515288261</ele>
        <time>2021-10-12T19:27:13.442Z</time>
      </trkpt>
      <trkpt lat="44.15071" lon="6.34268">
        <ele>1065.3082348731</ele>
        <time>2021-10-12T19:27:16.284Z</time>
      </trkpt>
      <trkpt lat="44.15071" lon="6.34275">
        <ele>1063.8753200973</ele>
        <time>2021-10-12T19:27:19.128Z</time>
      </trkpt>
      <trkpt lat="44.15068" lon="6.34285">
        <ele>1062.3958175773</ele>
        <time>2021-10-12T19:27:21.975Z</time>
      </trkpt>
      <trkpt lat="44.15063" lon="6.34297">
        <ele>1060.8733801261</ele>
        <time>2021-10-12T19:27:24.825Z</time>
      </trkpt>
      <trkpt lat="44.1506" lon="6.34305">
        <ele>1059.3733201719</ele>
        <time>2021-10-12T19:27:27.677Z</time>
      </trkpt>
      <trkpt lat="44.15058" lon="6.34311">
        <ele>1057.8650033882</ele>
        <time>2021-10-12T19:27:30.531Z</time>
      </trkpt>
      <trkpt lat="44.15055" lon="6.34316">
        <ele>1056.3943756774</ele>
        <time>2021-10-12T19:27:33.386Z</time>
      </trkpt>
      <trkpt lat="44.15054" lon="6.34321">
        <ele>1054.9538767378</ele>
        <time>2021-10-12T19:27:36.243Z</time>
      </trkpt>
      <trkpt lat="44.15053" lon="6.34326">
        <ele>1053.5320404276</ele>
        <time>2021-10-12T19:27:39.101Z</time>
      </trkpt>
      <trkpt lat="44.15052" lon="6.34336">
        <ele>1052.0336794969</ele>
        <time>2021-10-12T19:27:41.961Z</time>
      </trkpt>
      <trkpt lat="44.1505" lon="6.3434">
        <ele>1050.6174686014</ele>
        <time>2021-10-12T19:27:44.823Z</time>
      </trkpt>
      <trkpt lat="44.15047" lon="6.34345">
        <ele>1049.215802501</ele>
        <time>2021-10-12T19:27:47.686Z</time>
      </trkpt>
      <trkpt lat="44.1504" lon="6.34352">
        <ele>1047.7422586914</ele>
        <time>2021-10-12T19:27:50.552Z</time>
      </trkpt>
      <trkpt lat="44.15037" lon="6.34354">
        <ele>1046.4352211436</ele>
        <time>2021-10-12T19:27:53.419Z</time>
      </trkpt>
      <trkpt lat="44.15033" lon="6.34355">
        <ele>1045.1657301398</ele>
        <time>2021-10-12T19:27:56.287Z</time>
      </trkpt>
      <trkpt lat="44.15026" lon="6.34361">
        <ele>1043.8421651522</ele>
        <time>2021-10-12T19:27:59.158Z</time>
      </trkpt>
      <trkpt lat="44.15018" lon="6.34368">
        <ele>1042.6012854011</ele>
        <time>2021-10-12T19:28:02.032Z</time>
      </trkpt>
      <trkpt lat="44.15011" lon="6.34377">
        <ele>1041.3528542133</ele>
        <time>2021-10-12T19:28:04.909Z</time>
      </trkpt>
      <trkpt lat="44.15007" lon="6.34381">
        <ele>1040.2623150176</ele>
        <time>2021-10-12T19:28:07.788Z</time>
      </trkpt>
      <trkpt lat="44.14999" lon="6.34392">
        <ele>1039.1094161489</ele>
        <time>2021-10-12T19:28:10.671Z</time>
      </trkpt>
      <trkpt lat="44.14994" lon="6.34404">
        <ele>1038.0657639149</ele>
        <time>2021-10-12T19:28:13.557Z</time>
      </trkpt>
      <trkpt lat="44.14995" lon="6.34408">
        <ele>1037.1374352423</ele>
        <time>2021-10-12T19:28:16.444Z</time>
      </trkpt>
      <trkpt lat="44.14996" lon="6.34411">
        <ele>1036.2731473308</ele>
        <time>2021-10-12T19:28:19.332Z</time>
      </trkpt>
      <trkpt lat="44.15" lon="6.34413">
        <ele>1035.4662300399</ele>
        <time>2021-10-12T19:28:22.221Z</time>
      </trkpt>
      <trkpt lat="44.15003" lon="6.34413">
        <ele>1034.7337396014</ele>
        <time>2021-10-12T19:28:25.111Z</time>
      </trkpt>
      <trkpt lat="44.15005" lon="6.34413">
        <ele>1034.0547410893</ele>
        <time>2021-10-12T19:28:28.002Z</time>
      </trkpt>
      <trkpt lat="44.15012" lon="6.34412">
        <ele>1033.4288737856</ele>
        <time>2021-10-12T19:28:30.895Z</time>
      </trkpt>
      <trkpt lat="44.15015" lon="6.34411">
        <ele>1032.8438964493</ele>
        <time>2021-10-12T19:28:33.789Z</time>
      </trkpt>
      <trkpt lat="44.15019" lon="6.34412">
        <ele>1032.2924147157</ele>
        <time>2021-10-12T19:28:36.685Z</time>
      </trkpt>
      <trkpt lat="44.15023" lon="6.34412">
        <ele>1031.7681427181</ele>
        <time>2021-10-12T19:28:39.582Z</time>
      </trkpt>
      <trkpt lat="44.15032" lon="6.3441">
        <ele>1031.3029313439</ele>
        <time>2021-10-12T19:28:42.482Z</time>
      </trkpt>
      <trkpt lat="44.15043" lon="6.34409">
        <ele>1030.8329826001</ele>
        <time>2021-10-12T19:28:45.386Z</time>
      </trkpt>
      <trkpt lat="44.15055" lon="6.34409">
        <ele>1030.4318995636</ele>
        <time>2021-10-12T19:28:48.294Z</time>
      </trkpt>
      <trkpt lat="44.15066" lon="6.34411">
        <ele>1030.0160577098</ele>
        <time>2021-10-12T19:28:51.205Z</time>
      </trkpt>
      <trkpt lat="44.15077" lon="6.34416">
        <ele>1029.6113201878</ele>
        <time>2021-10-12T19:28:54.120Z</time>
      </trkpt>
      <trkpt lat="44.15082" lon="6.34418">
        <ele>1029.2317548104</ele>
        <time>2021-10-12T19:28:57.037Z</time>
      </trkpt>
      <trkpt lat="44.15087" lon="6.34421">
        <ele>1028.8407019989</ele>
        <time>2021-10-12T19:28:59.956Z</time>
      </trkpt>
      <trkpt lat="44.15092" lon="6.34425">
        <ele>1028.4245856786</ele>
        <time>2021-10-12T19:29:02.876Z</time>
      </trkpt>
      <trkpt lat="44.15097" lon="6.34429">
        <ele>1027.9991154546</ele>
        <time>2021-10-12T19:29:05.798Z</time>
      </trkpt>
      <trkpt lat="44.15102" lon="6.34431">
        <ele>1027.5812125727</ele>
        <time>2021-10-12T19:29:08.722Z</time>
      </trkpt>
      <trkpt lat="44.15108" lon="6.34433">
        <ele>1027.1767416973</ele>
        <time>2021-10-12T19:29:11.648Z</time>
      </trkpt>
      <trkpt lat="44.15116" lon="6.34439">
        <ele>1026.7037144368</ele>
        <time>2021-10-12T19:29:14.577Z</time>
      </trkpt>
      <trkpt lat="44.15114" lon="6.34454">
        <ele>1026.034386214</ele>
        <time>2021-10-12T19:29:17.510Z</time>
      </trkpt>
      <trkpt lat="44.15113" lon="6.34466">
        <ele>1025.35614815</ele>
        <time>2021-10-12T19:29:20.446Z</time>
      </trkpt>
      <trkpt lat="44.15112" lon="6.34478">
        <ele>1024.6621504785</ele>
        <time>2021-10-12T19:29:23.385Z</time>
      </trkpt>
      <trkpt lat="44.1511" lon="6.34493">
        <ele>1023.8982541422</ele>
        <time>2021-10-12T19:29:26.327Z</time>
      </trkpt>
      <trkpt lat="44.15112" lon="6.34514">
        <ele>1023.1277850159</ele>
        <time>2021-10-12T19:29:29.274Z</time>
      </trkpt>
      <trkpt lat="44.15113" lon="6.3452">
        <ele>1022.342700508</ele>
        <time>2021-10-12T19:29:32.223Z</time>
      </trkpt>
      <trkpt lat="44.15115" lon="6.34537">
        <ele>1021.5374126201</ele>
        <time>2021-10-12T19:29:35.176Z</time>
      </trkpt>
      <trkpt lat="44.15117" lon="6.34546">
        <ele>1020.6722514711</ele>
        <time>2021-10-12T19:29:38.131Z</time>
      </trkpt>
      <trkpt lat="44.15118" lon="6.34554">
        <ele>1019.7491415572</ele>
        <time>2021-10-12T19:29:41.088Z</time>
      </trkpt>
      <trkpt lat="44.15121" lon="6.34569">
        <ele>1018.7767793825</ele>
        <time>2021-10-12T19:29:44.049Z</time>
      </trkpt>
      <trkpt lat="44.15121" lon="6.34577">
        <ele>1017.7527965883</ele>
        <time>2021-10-12T19:29:47.012Z</time>
      </trkpt>
      <trkpt lat="44.15115" lon="6.34592">
        <ele>1016.5410156743</ele>
        <time>2021-10-12T19:29:49.979Z</time>
      </trkpt>
      <trkpt lat="44.15111" lon="6.34599">
        <ele>1015.3705776989</ele>
        <time>2021-10-12T19:29:52.948Z</time>
      </trkpt>
      <trkpt lat="44.15109" lon="6.34605">
        <ele>1014.179112424</ele>
        <time>2021-10-12T19:29:55.919Z</time>
      </trkpt>
      <trkpt lat="44.15107" lon="6.34612">
        <ele>1012.9683551617</ele>
        <time>2021-10-12T19:29:58.892Z</time>
      </trkpt>
      <trkpt lat="44.15104" lon="6.34626">
        <ele>1011.7437584162</ele>
        <time>2021-10-12T19:30:01.868Z</time>
      </trkpt>
      <trkpt lat="44.15098" lon="6.34639">
        <ele>1010.406649543</ele>
        <time>2021-10-12T19:30:04.848Z</time>
      </trkpt>
      <trkpt lat="44.15095" lon="6.34646">
        <ele>1009.0988907105</ele>
        <time>2021-10-12T19:30:07.830Z</time>
      </trkpt>
      <trkpt lat="44.15091" lon="6.34659">
        <ele>1007.7391235832</ele>
        <time>2021-10-12T19:30:10.815Z</time>
      </trkpt>
      <trkpt lat="44.15089" lon="6.34662">
        <ele>1006.4129570566</ele>
        <time>2021-10-12T19:30:13.801Z</time>
      </trkpt>
      <trkpt lat="44.15082" lon="6.34666">
        <ele>1004.9769303674</ele>
        <time>2021-10-12T19:30:16.789Z</time>
      </trkpt>
      <trkpt lat="44.15079" lon="6.34668">
        <ele>1003.6091428161</ele>
        <time>2021-10-12T19:30:19.778Z</time>
      </trkpt>
      <trkpt lat="44.15077" lon="6.34671">
        <ele>1002.2700100605</ele>
        <time>2021-10-12T19:30:22.769Z</time>
      </trkpt>
      <trkpt lat="44.15074" lon="6.34677">
        <ele>1000.9358782351</ele>
        <time>2021-10-12T19:30:25.761Z</time>
      </trkpt>
      <trkpt lat="44.15071" lon="6.34682">
        <ele>999.58410345323</ele>
        <time>2021-10-12T19:30:28.755Z</time>
      </trkpt>
      <trkpt lat="44.15067" lon="6.34686">
        <ele>998.22691262892</ele>
        <time>2021-10-12T19:30:31.751Z</time>
      </trkpt>
      <trkpt lat="44.15063" lon="6.34691">
        <ele>996.88487164448</ele>
        <time>2021-10-12T19:30:34.748Z</time>
      </trkpt>
      <trkpt lat="44.15059" lon="6.34696">
        <ele>995.52533324505</ele>
        <time>2021-10-12T19:30:37.747Z</time>
      </trkpt>
      <trkpt lat="44.15054" lon="6.34701">
        <ele>994.19288219033</ele>
        <time>2021-10-12T19:30:40.748Z</time>
      </trkpt>
      <trkpt lat="44.1505" lon="6.34708">
        <ele>992.9144586027</ele>
        <time>2021-10-12T19:30:43.751Z</time>
      </trkpt>
      <trkpt lat="44.15046" lon="6.34714">
        <ele>991.65673223658</ele>
        <time>2021-10-12T19:30:46.756Z</time>
      </trkpt>
      <trkpt lat="44.15042" lon="6.34719">
        <ele>990.41446865913</ele>
        <time>2021-10-12T19:30:49.763Z</time>
      </trkpt>
      <trkpt lat="44.15039" lon="6.34724">
        <ele>989.19395174742</ele>
        <time>2021-10-12T19:30:52.772Z</time>
      </trkpt>
      <trkpt lat="44.15036" lon="6.3473">
        <ele>987.99881482348</ele>
        <time>2021-10-12T19:30:55.782Z</time>
      </trkpt>
      <trkpt lat="44.15034" lon="6.34735">
        <ele>986.8462195273</ele>
        <time>2021-10-12T19:30:58.794Z</time>
      </trkpt>
      <trkpt lat="44.15032" lon="6.34741">
        <ele>985.74326695564</ele>
        <time>2021-10-12T19:31:01.807Z</time>
      </trkpt>
      <trkpt lat="44.15029" lon="6.34753">
        <ele>984.62865899469</ele>
        <time>2021-10-12T19:31:04.823Z</time>
      </trkpt>
      <trkpt lat="44.15029" lon="6.34759">
        <ele>983.57911502436</ele>
        <time>2021-10-12T19:31:07.841Z</time>
      </trkpt>
      <trkpt lat="44.15029" lon="6.34765">
        <ele>982.55130591514</ele>
        <time>2021-10-12T19:31:10.860Z</time>
      </trkpt>
      <trkpt lat="44.15027" lon="6.3477">
        <ele>981.53687397243</ele>
        <time>2021-10-12T19:31:13.881Z</time>
      </trkpt>
      <trkpt lat="44.15026" lon="6.34775">
        <ele>980.54166348984</ele>
        <time>2021-10-12T19:31:16.903Z</time>
      </trkpt>
      <trkpt lat="44.15025" lon="6.34781">
        <ele>979.56154437227</ele>
        <time>2021-10-12T19:31:19.926Z</time>
      </trkpt>
      <trkpt lat="44.15024" lon="6.34787">
        <ele>978.6027121391</ele>
        <time>2021-10-12T19:31:22.951Z</time>
      </trkpt>
      <trkpt lat="44.15023" lon="6.34791">
        <ele>977.66302869951</ele>
        <time>2021-10-12T19:31:25.977Z</time>
      </trkpt>
      <trkpt lat="44.15023" lon="6.34795">
        <ele>976.74798748027</ele>
        <time>2021-10-12T19:31:29.004Z</time>
      </trkpt>
      <trkpt lat="44.15024" lon="6.34804">
        <ele>975.83026553211</ele>
        <time>2021-10-12T19:31:32.033Z</time>
      </trkpt>
      <trkpt lat="44.15025" lon="6.34808">
        <ele>974.92810092893</ele>
        <time>2021-10-12T19:31:35.063Z</time>
      </trkpt>
      <trkpt lat="44.15025" lon="6.34811">
        <ele>974.04628617624</ele>
        <time>2021-10-12T19:31:38.094Z</time>
      </trkpt>
      <trkpt lat="44.15024" lon="6.34814">
        <ele>973.16838215684</ele>
        <time>2021-10-12T19:31:41.126Z</time>
      </trkpt>
      <trkpt lat="44.15021" lon="6.34814">
        <ele>972.29406451687</ele>
        <time>2021-10-12T19:31:44.159Z</time>
      </trkpt>
      <trkpt lat="44.15019" lon="6.34811">
        <ele>971.44631380752</ele>
        <time>2021-10-12T19:31:47.193Z</time>
      </trkpt>
      <trkpt lat="44.15016" lon="6.34808">
        <ele>970.58489882624</ele>
        <time>2021-10-12T19:31:50.228Z</time>
      </trkpt>
      <trkpt lat="44.15011" lon="6.34808">
        <ele>969.67374201862</ele>
        <time>2021-10-12T19:31:53.265Z</time>
      </trkpt>
      <trkpt lat="44.15007" lon="6.34811">
        <ele>968.77223622318</ele>
        <time>2021-10-12T19:31:56.303Z</time>
      </trkpt>
      <trkpt lat="44.15007" lon="6.34815">
        <ele>967.91306419871</ele>
        <time>2021-10-12T19:31:59.342Z</time>
      </trkpt>
      <trkpt lat="44.15007" lon="6.34821">
        <ele>967.03700164938</ele>
        <time>2021-10-12T19:32:02.382Z</time>
      </trkpt>
      <trkpt lat="44.15008" lon="6.34828">
        <ele>966.15712635477</ele>
        <time>2021-10-12T19:32:05.424Z</time>
      </trkpt>
      <trkpt lat="44.1501" lon="6.34833">
        <ele>965.27141081256</ele>
        <time>2021-10-12T19:32:08.468Z</time>
      </trkpt>
      <trkpt lat="44.15014" lon="6.34842">
        <ele>964.35586302178</ele>
        <time>2021-10-12T19:32:11.514Z</time>
      </trkpt>
      <trkpt lat="44.15015" lon="6.34846">
        <ele>963.48253652889</ele>
        <time>2021-10-12T19:32:14.561Z</time>
      </trkpt>
      <trkpt lat="44.15016" lon="6.34846">
        <ele>962.66077008124</ele>
        <time>2021-10-12T19:32:17.608Z</time>
      </trkpt>
      <trkpt lat="44.15014" lon="6.34854">
        <ele>961.70554768896</ele>
        <time>2021-10-12T19:32:20.657Z</time>
      </trkpt>
      <trkpt lat="44.15013" lon="6.34859">
        <ele>960.83551511146</ele>
        <time>2021-10-12T19:32:23.707Z</time>
      </trkpt>
      <trkpt lat="44.15007" lon="6.34865">
        <ele>959.88109992189</ele>
        <time>2021-10-12T19:32:26.760Z</time>
      </trkpt>
      <trkpt lat="44.15002" lon="6.34866">
        <ele>959.06902928659</ele>
        <time>2021-10-12T19:32:29.815Z</time>
      </trkpt>
      <trkpt lat="44.14991" lon="6.34864">
        <ele>958.30178407939</ele>
        <time>2021-10-12T19:32:32.873Z</time>
      </trkpt>
      <trkpt lat="44.14986" lon="6.34862">
        <ele>957.53904187429</ele>
        <time>2021-10-12T19:32:35.933Z</time>
      </trkpt>
      <trkpt lat="44.14982" lon="6.3486">
        <ele>956.79117044478</ele>
        <time>2021-10-12T19:32:38.994Z</time>
      </trkpt>
      <trkpt lat="44.14978" lon="6.34857">
        <ele>956.08774386351</ele>
        <time>2021-10-12T19:32:42.057Z</time>
      </trkpt>
      <trkpt lat="44.14975" lon="6.34852">
        <ele>955.38983284182</ele>
        <time>2021-10-12T19:32:45.122Z</time>
      </trkpt>
      <trkpt lat="44.14971" lon="6.3484">
        <ele>954.73506186429</ele>
        <time>2021-10-12T19:32:48.190Z</time>
      </trkpt>
      <trkpt lat="44.14971" lon="6.34834">
        <ele>954.11110626031</ele>
        <time>2021-10-12T19:32:51.259Z</time>
      </trkpt>
      <trkpt lat="44.1497" lon="6.34828">
        <ele>953.50536298021</ele>
        <time>2021-10-12T19:32:54.329Z</time>
      </trkpt>
      <trkpt lat="44.14969" lon="6.34818">
        <ele>952.91192094593</ele>
        <time>2021-10-12T19:32:57.402Z</time>
      </trkpt>
      <trkpt lat="44.14967" lon="6.34813">
        <ele>952.27996142737</ele>
        <time>2021-10-12T19:33:00.476Z</time>
      </trkpt>
      <trkpt lat="44.14959" lon="6.34805">
        <ele>951.57687623133</ele>
        <time>2021-10-12T19:33:03.553Z</time>
      </trkpt>
      <trkpt lat="44.14955" lon="6.34803">
        <ele>950.90095858276</ele>
        <time>2021-10-12T19:33:06.632Z</time>
      </trkpt>
      <trkpt lat="44.14951" lon="6.34805">
        <ele>950.22216544594</ele>
        <time>2021-10-12T19:33:09.712Z</time>
      </trkpt>
      <trkpt lat="44.1495" lon="6.34809">
        <ele>949.55979737937</ele>
        <time>2021-10-12T19:33:12.793Z</time>
      </trkpt>
      <trkpt lat="44.14949" lon="6.34824">
        <ele>948.9095222813</ele>
        <time>2021-10-12T19:33:15.878Z</time>
      </trkpt>
      <trkpt lat="44.14946" lon="6.34839">
        <ele>948.2370789151</ele>
        <time>2021-10-12T19:33:18.967Z</time>
      </trkpt>
      <trkpt lat="44.14941" lon="6.34862">
        <ele>947.58211002278</ele>
        <time>2021-10-12T19:33:22.061Z</time>
      </trkpt>
      <trkpt lat="44.14945" lon="6.3488">
        <ele>946.95408166802</ele>
        <time>2021-10-12T19:33:25.160Z</time>
      </trkpt>
      <trkpt lat="44.14953" lon="6.34889">
        <ele>946.36562049724</ele>
        <time>2021-10-12T19:33:28.262Z</time>
      </trkpt>
      <trkpt lat="44.14958" lon="6.34894">
        <ele>945.78025983717</ele>
        <time>2021-10-12T19:33:31.366Z</time>
      </trkpt>
      <trkpt lat="44.14964" lon="6.34899">
        <ele>945.18969849936</ele>
        <time>2021-10-12T19:33:34.473Z</time>
      </trkpt>
      <trkpt lat="44.14976" lon="6.34909">
        <ele>944.55605505504</ele>
        <time>2021-10-12T19:33:37.584Z</time>
      </trkpt>
      <trkpt lat="44.14983" lon="6.34915">
        <ele>943.93822344049</ele>
        <time>2021-10-12T19:33:40.698Z</time>
      </trkpt>
      <trkpt lat="44.14989" lon="6.34918">
        <ele>943.31870967274</ele>
        <time>2021-10-12T19:33:43.814Z</time>
      </trkpt>
      <trkpt lat="44.14996" lon="6.34921">
        <ele>942.70524599372</ele>
        <time>2021-10-12T19:33:46.933Z</time>
      </trkpt>
      <trkpt lat="44.15007" lon="6.34924">
        <ele>942.08500851762</ele>
        <time>2021-10-12T19:33:50.055Z</time>
      </trkpt>
      <trkpt lat="44.15013" lon="6.34925">
        <ele>941.45132239765</ele>
        <time>2021-10-12T19:33:53.179Z</time>
      </trkpt>
      <trkpt lat="44.15018" lon="6.34927">
        <ele>940.79334422839</ele>
        <time>2021-10-12T19:33:56.305Z</time>
      </trkpt>
      <trkpt lat="44.15022" lon="6.3493">
        <ele>940.11162882563</ele>
        <time>2021-10-12T19:33:59.433Z</time>
      </trkpt>
      <trkpt lat="44.15024" lon="6.34933">
        <ele>939.396854836</ele>
        <time>2021-10-12T19:34:02.562Z</time>
      </trkpt>
      <trkpt lat="44.15024" lon="6.34936">
        <ele>938.65257012187</ele>
        <time>2021-10-12T19:34:05.692Z</time>
      </trkpt>
      <trkpt lat="44.1502" lon="6.34942">
        <ele>937.85252615034</ele>
        <time>2021-10-12T19:34:08.824Z</time>
      </trkpt>
      <trkpt lat="44.15012" lon="6.34947">
        <ele>937.01543361466</ele>
        <time>2021-10-12T19:34:11.958Z</time>
      </trkpt>
      <trkpt lat="44.15005" lon="6.34949">
        <ele>936.16633745798</ele>
        <time>2021-10-12T19:34:15.095Z</time>
      </trkpt>
      <trkpt lat="44.15001" lon="6.3495">
        <ele>935.31092977094</ele>
        <time>2021-10-12T19:34:18.233Z</time>
      </trkpt>
      <trkpt lat="44.14997" lon="6.34951">
        <ele>934.41571540364</ele>
        <time>2021-10-12T19:34:21.373Z</time>
      </trkpt>
      <trkpt lat="44.14994" lon="6.34954">
        <ele>933.48067157579</ele>
        <time>2021-10-12T19:34:24.514Z</time>
      </trkpt>
      <trkpt lat="44.14992" lon="6.34958">
        <ele>932.50489982671</ele>
        <time>2021-10-12T19:34:27.656Z</time>
      </trkpt>
      <trkpt lat="44.14989" lon="6.34963">
        <ele>931.49041251983</ele>
        <time>2021-10-12T19:34:30.799Z</time>
      </trkpt>
      <trkpt lat="44.14982" lon="6.34969">
        <ele>930.40521809883</ele>
        <time>2021-10-12T19:34:33.945Z</time>
      </trkpt>
      <trkpt lat="44.14978" lon="6.34968">
        <ele>929.36564631989</ele>
        <time>2021-10-12T19:34:37.093Z</time>
      </trkpt>
      <trkpt lat="44.1497" lon="6.34967">
        <ele>928.28675321907</ele>
        <time>2021-10-12T19:34:40.243Z</time>
      </trkpt>
      <trkpt lat="44.14969" lon="6.3497">
        <ele>927.18701331933</ele>
        <time>2021-10-12T19:34:43.394Z</time>
      </trkpt>
      <trkpt lat="44.14968" lon="6.34979">
        <ele>926.03705515326</ele>
        <time>2021-10-12T19:34:46.547Z</time>
      </trkpt>
      <trkpt lat="44.14964" lon="6.34986">
        <ele>924.86384582673</ele>
        <time>2021-10-12T19:34:49.702Z</time>
      </trkpt>
      <trkpt lat="44.14956" lon="6.34985">
        <ele>923.6330117601</ele>
        <time>2021-10-12T19:34:52.860Z</time>
      </trkpt>
      <trkpt lat="44.14951" lon="6.34983">
        <ele>922.41291519464</ele>
        <time>2021-10-12T19:34:56.020Z</time>
      </trkpt>
      <trkpt lat="44.14943" lon="6.34983">
        <ele>921.1496420655</ele>
        <time>2021-10-12T19:34:59.182Z</time>
      </trkpt>
      <trkpt lat="44.1494" lon="6.34981">
        <ele>919.92356001514</ele>
        <time>2021-10-12T19:35:02.346Z</time>
      </trkpt>
      <trkpt lat="44.14936" lon="6.34979">
        <ele>918.68238008612</ele>
        <time>2021-10-12T19:35:05.511Z</time>
      </trkpt>
      <trkpt lat="44.1493" lon="6.34979">
        <ele>917.39398601127</ele>
        <time>2021-10-12T19:35:08.678Z</time>
      </trkpt>
      <trkpt lat="44.14926" lon="6.3498">
        <ele>916.1206232118</ele>
        <time>2021-10-12T19:35:11.846Z</time>
      </trkpt>
      <trkpt lat="44.14921" lon="6.3498">
        <ele>914.83626171523</ele>
        <time>2021-10-12T19:35:15.016Z</time>
      </trkpt>
      <trkpt lat="44.14912" lon="6.34983">
        <ele>913.5080457043</ele>
        <time>2021-10-12T19:35:18.189Z</time>
      </trkpt>
      <trkpt lat="44.14907" lon="6.34984">
        <ele>912.21845375931</ele>
        <time>2021-10-12T19:35:21.364Z</time>
      </trkpt>
      <trkpt lat="44.14897" lon="6.34983">
        <ele>910.92866565345</ele>
        <time>2021-10-12T19:35:24.542Z</time>
      </trkpt>
      <trkpt lat="44.14888" lon="6.34985">
        <ele>909.64618049339</ele>
        <time>2021-10-12T19:35:27.723Z</time>
      </trkpt>
      <trkpt lat="44.14883" lon="6.34986">
        <ele>908.38793453671</ele>
        <time>2021-10-12T19:35:30.906Z</time>
      </trkpt>
      <trkpt lat="44.14873" lon="6.34987">
        <ele>907.0947618417</ele>
        <time>2021-10-12T19:35:34.092Z</time>
      </trkpt>
      <trkpt lat="44.14864" lon="6.34987">
        <ele>905.78947054934</ele>
        <time>2021-10-12T19:35:37.281Z</time>
      </trkpt>
      <trkpt lat="44.14859" lon="6.34988">
        <ele>904.53826925097</ele>
        <time>2021-10-12T19:35:40.472Z</time>
      </trkpt>
      <trkpt lat="44.14855" lon="6.34989">
        <ele>903.29979632101</ele>
        <time>2021-10-12T19:35:43.664Z</time>
      </trkpt>
      <trkpt lat="44.14851" lon="6.34991">
        <ele>902.07828048303</ele>
        <time>2021-10-12T19:35:46.857Z</time>
      </trkpt>
      <trkpt lat="44.14847" lon="6.34991">
        <ele>900.87226566449</ele>
        <time>2021-10-12T19:35:50.052Z</time>
      </trkpt>
      <trkpt lat="44.14843" lon="6.34992">
        <ele>899.67259637294</ele>
        <time>2021-10-12T19:35:53.248Z</time>
      </trkpt>
      <trkpt lat="44.14838" lon="6.34992">
        <ele>898.49088878975</ele>
        <time>2021-10-12T19:35:56.446Z</time>
      </trkpt>
      <trkpt lat="44.14833" lon="6.34992">
        <ele>897.32804752729</ele>
        <time>2021-10-12T19:35:59.646Z</time>
      </trkpt>
      <trkpt lat="44.14822" lon="6.3499">
        <ele>896.12912104662</ele>
        <time>2021-10-12T19:36:02.849Z</time>
      </trkpt>
      <trkpt lat="44.14815" lon="6.34988">
        <ele>895.0135303372</ele>
        <time>2021-10-12T19:36:06.054Z</time>
      </trkpt>
      <trkpt lat="44.14804" lon="6.34987">
        <ele>893.87515530903</ele>
        <time>2021-10-12T19:36:09.263Z</time>
      </trkpt>
      <trkpt lat="44.14799" lon="6.34986">
        <ele>892.82704914874</ele>
        <time>2021-10-12T19:36:12.474Z</time>
      </trkpt>
      <trkpt lat="44.14794" lon="6.34984">
        <ele>891.81380745736</ele>
        <time>2021-10-12T19:36:15.687Z</time>
      </trkpt>
      <trkpt lat="44.14789" lon="6.34983">
        <ele>890.83820139032</ele>
        <time>2021-10-12T19:36:18.901Z</time>
      </trkpt>
      <trkpt lat="44.14784" lon="6.34981">
        <ele>889.89236173535</ele>
        <time>2021-10-12T19:36:22.117Z</time>
      </trkpt>
      <trkpt lat="44.1478" lon="6.34981">
        <ele>888.97838018409</ele>
        <time>2021-10-12T19:36:25.334Z</time>
      </trkpt>
      <trkpt lat="44.14777" lon="6.34983">
        <ele>888.10210532323</ele>
        <time>2021-10-12T19:36:28.553Z</time>
      </trkpt>
      <trkpt lat="44.14774" lon="6.34985">
        <ele>887.25601541672</ele>
        <time>2021-10-12T19:36:31.773Z</time>
      </trkpt>
      <trkpt lat="44.1477" lon="6.34987">
        <ele>886.42928474929</ele>
        <time>2021-10-12T19:36:34.994Z</time>
      </trkpt>
      <trkpt lat="44.14768" lon="6.34988">
        <ele>885.63804013303</ele>
        <time>2021-10-12T19:36:38.216Z</time>
      </trkpt>
      <trkpt lat="44.14766" lon="6.34988">
        <ele>884.87402543135</ele>
        <time>2021-10-12T19:36:41.438Z</time>
      </trkpt>
      <trkpt lat="44.14764" lon="6.34987">
        <ele>884.13219694207</ele>
        <time>2021-10-12T19:36:44.661Z</time>
      </trkpt>
      <trkpt lat="44.1476" lon="6.34986">
        <ele>883.40305665181</ele>
        <time>2021-10-12T19:36:47.885Z</time>
      </trkpt>
      <trkpt lat="44.14757" lon="6.34985">
        <ele>882.69284054826</ele>
        <time>2021-10-12T19:36:51.111Z</time>
      </trkpt>
      <trkpt lat="44.14752" lon="6.34985">
        <ele>881.98951422483</ele>
        <time>2021-10-12T19:36:54.338Z</time>
      </trkpt>
      <trkpt lat="44.14747" lon="6.34983">
        <ele>881.29905508208</ele>
        <time>2021-10-12T19:36:57.567Z</time>
      </trkpt>
      <trkpt lat="44.14737" lon="6.34981">
        <ele>880.6042577256</ele>
        <time>2021-10-12T19:37:00.799Z</time>
      </trkpt>
      <trkpt lat="44.14729" lon="6.34983">
        <ele>879.94167551174</ele>
        <time>2021-10-12T19:37:04.034Z</time>
      </trkpt>
      <trkpt lat="44.14716" lon="6.34986">
        <ele>879.24922642123</ele>
        <time>2021-10-12T19:37:07.273Z</time>
      </trkpt>
      <trkpt lat="44.14708" lon="6.3499">
        <ele>878.59553223854</ele>
        <time>2021-10-12T19:37:10.515Z</time>
      </trkpt>
      <trkpt lat="44.147" lon="6.34996">
        <ele>877.97079578847</ele>
        <time>2021-10-12T19:37:13.760Z</time>
      </trkpt>
      <trkpt lat="44.14696" lon="6.34999">
        <ele>877.37921836839</ele>
        <time>2021-10-12T19:37:17.007Z</time>
      </trkpt>
      <trkpt lat="44.14687" lon="6.35003">
        <ele>876.77398763642</ele>
        <time>2021-10-12T19:37:20.257Z</time>
      </trkpt>
      <trkpt lat="44.14684" lon="6.35006">
        <ele>876.18439668</ele>
        <time>2021-10-12T19:37:23.508Z</time>
      </trkpt>
      <trkpt lat="44.14677" lon="6.35009">
        <ele>875.57640964106</ele>
        <time>2021-10-12T19:37:26.762Z</time>
      </trkpt>
      <trkpt lat="44.14673" lon="6.35011">
        <ele>875.01020213532</ele>
        <time>2021-10-12T19:37:30.017Z</time>
      </trkpt>
      <trkpt lat="44.1467" lon="6.35011">
        <ele>874.45998294048</ele>
        <time>2021-10-12T19:37:33.273Z</time>
      </trkpt>
      <trkpt lat="44.14668" lon="6.35011">
        <ele>873.92318710805</ele>
        <time>2021-10-12T19:37:36.530Z</time>
      </trkpt>
      <trkpt lat="44.14663" lon="6.35003">
        <ele>873.42154039186</ele>
        <time>2021-10-12T19:37:39.789Z</time>
      </trkpt>
      <trkpt lat="44.14653" lon="6.34993">
        <ele>872.87486248973</ele>
        <time>2021-10-12T19:37:43.052Z</time>
      </trkpt>
      <trkpt lat="44.1465" lon="6.3499">
        <ele>872.34054153443</ele>
        <time>2021-10-12T19:37:46.316Z</time>
      </trkpt>
      <trkpt lat="44.14645" lon="6.34979">
        <ele>871.83426301477</ele>
        <time>2021-10-12T19:37:49.584Z</time>
      </trkpt>
      <trkpt lat="44.14642" lon="6.3497">
        <ele>871.35216977285</ele>
        <time>2021-10-12T19:37:52.854Z</time>
      </trkpt>
      <trkpt lat="44.14639" lon="6.34967">
        <ele>870.84112418954</ele>
        <time>2021-10-12T19:37:56.125Z</time>
      </trkpt>
      <trkpt lat="44.14635" lon="6.34963">
        <ele>870.33802849319</ele>
        <time>2021-10-12T19:37:59.398Z</time>
      </trkpt>
      <trkpt lat="44.14627" lon="6.34953">
        <ele>869.79952559692</ele>
        <time>2021-10-12T19:38:02.674Z</time>
      </trkpt>
      <trkpt lat="44.14615" lon="6.34937">
        <ele>869.22242308382</ele>
        <time>2021-10-12T19:38:05.956Z</time>
      </trkpt>
      <trkpt lat="44.14603" lon="6.34922">
        <ele>868.61668193454</ele>
        <time>2021-10-12T19:38:09.243Z</time>
      </trkpt>
      <trkpt lat="44.14596" lon="6.34901">
        <ele>868.10185478149</ele>
        <time>2021-10-12T19:38:12.536Z</time>
      </trkpt>
      <trkpt lat="44.14594" lon="6.34895">
        <ele>867.6363816267</ele>
        <time>2021-10-12T19:38:15.831Z</time>
      </trkpt>
      <trkpt lat="44.14597" lon="6.34889">
        <ele>867.22940520625</ele>
        <time>2021-10-12T19:38:19.127Z</time>
      </trkpt>
      <trkpt lat="44.14606" lon="6.34886">
        <ele>866.88635720989</ele>
        <time>2021-10-12T19:38:22.426Z</time>
      </trkpt>
      <trkpt lat="44.14611" lon="6.34885">
        <ele>866.50166662957</ele>
        <time>2021-10-12T19:38:25.727Z</time>
      </trkpt>
      <trkpt lat="44.14615" lon="6.34882">
        <ele>866.11735611728</ele>
        <time>2021-10-12T19:38:29.030Z</time>
      </trkpt>
      <trkpt lat="44.14624" lon="6.34876">
        <ele>865.78398252135</ele>
        <time>2021-10-12T19:38:32.336Z</time>
      </trkpt>
      <trkpt lat="44.14626" lon="6.34873">
        <ele>865.33993564667</ele>
        <time>2021-10-12T19:38:35.643Z</time>
      </trkpt>
      <trkpt lat="44.14621" lon="6.34865">
        <ele>864.82287154088</ele>
        <time>2021-10-12T19:38:38.952Z</time>
      </trkpt>
      <trkpt lat="44.14613" lon="6.3486">
        <ele>864.26551595776</ele>
        <time>2021-10-12T19:38:42.264Z</time>
      </trkpt>
      <trkpt lat="44.14606" lon="6.34859">
        <ele>863.68452174511</ele>
        <time>2021-10-12T19:38:45.578Z</time>
      </trkpt>
      <trkpt lat="44.146" lon="6.34846">
        <ele>863.19802563293</ele>
        <time>2021-10-12T19:38:48.896Z</time>
      </trkpt>
      <trkpt lat="44.14591" lon="6.34841">
        <ele>862.6135205731</ele>
        <time>2021-10-12T19:38:52.217Z</time>
      </trkpt>
      <trkpt lat="44.14582" lon="6.34838">
        <ele>862.01019813844</ele>
        <time>2021-10-12T19:38:55.542Z</time>
      </trkpt>
      <trkpt lat="44.1457" lon="6.34837">
        <ele>861.34396739141</ele>
        <time>2021-10-12T19:38:58.871Z</time>
      </trkpt>
      <trkpt lat="44.14561" lon="6.34825">
        <ele>860.8434662652</ele>
        <time>2021-10-12T19:39:02.204Z</time>
      </trkpt>
      <trkpt lat="44.14545" lon="6.34819">
        <ele>860.23447443384</ele>
        <time>2021-10-12T19:39:05.542Z</time>
      </trkpt>
      <trkpt lat="44.14534" lon="6.34815">
        <ele>859.61510554133</ele>
        <time>2021-10-12T19:39:08.884Z</time>
      </trkpt>
      <trkpt lat="44.14531" lon="6.34813">
        <ele>859.04087927743</ele>
        <time>2021-10-12T19:39:12.227Z</time>
      </trkpt>
      <trkpt lat="44.14524" lon="6.34804">
        <ele>858.48357497817</ele>
        <time>2021-10-12T19:39:15.573Z</time>
      </trkpt>
      <trkpt lat="44.14514" lon="6.34801">
        <ele>857.84934820499</ele>
        <time>2021-10-12T19:39:18.923Z</time>
      </trkpt>
      <trkpt lat="44.1451" lon="6.34804">
        <ele>857.19811056513</ele>
        <time>2021-10-12T19:39:22.274Z</time>
      </trkpt>
      <trkpt lat="44.14504" lon="6.34806">
        <ele>856.54999348586</ele>
        <time>2021-10-12T19:39:25.627Z</time>
      </trkpt>
      <trkpt lat="44.14501" lon="6.34802">
        <ele>855.97968025814</ele>
        <time>2021-10-12T19:39:28.982Z</time>
      </trkpt>
      <trkpt lat="44.14486" lon="6.34795">
        <ele>855.33287393002</ele>
        <time>2021-10-12T19:39:32.342Z</time>
      </trkpt>
      <trkpt lat="44.14483" lon="6.34796">
        <ele>854.75960875856</ele>
        <time>2021-10-12T19:39:35.703Z</time>
      </trkpt>
      <trkpt lat="44.14474" lon="6.34795">
        <ele>854.16825345226</ele>
        <time>2021-10-12T19:39:39.067Z</time>
      </trkpt>
      <trkpt lat="44.14465" lon="6.34795">
        <ele>853.5875996652</ele>
        <time>2021-10-12T19:39:42.434Z</time>
      </trkpt>
      <trkpt lat="44.14465" lon="6.34795">
        <ele>853.08383323626</ele>
        <time>2021-10-12T19:39:45.801Z</time>
      </trkpt>
      <trkpt lat="44.14461" lon="6.3479">
        <ele>852.61350654194</ele>
        <time>2021-10-12T19:39:49.170Z</time>
      </trkpt>
      <trkpt lat="44.14461" lon="6.34787">
        <ele>852.16088821661</ele>
        <time>2021-10-12T19:39:52.539Z</time>
      </trkpt>
      <trkpt lat="44.14461" lon="6.34784">
        <ele>851.72864562977</ele>
        <time>2021-10-12T19:39:55.909Z</time>
      </trkpt>
      <trkpt lat="44.1446" lon="6.34778">
        <ele>851.32669399167</ele>
        <time>2021-10-12T19:39:59.281Z</time>
      </trkpt>
      <trkpt lat="44.14459" lon="6.34777">
        <ele>850.88818661522</ele>
        <time>2021-10-12T19:40:02.653Z</time>
      </trkpt>
      <trkpt lat="44.14451" lon="6.34771">
        <ele>850.45868544082</ele>
        <time>2021-10-12T19:40:06.028Z</time>
      </trkpt>
      <trkpt lat="44.1444" lon="6.34761">
        <ele>850.06474625501</ele>
        <time>2021-10-12T19:40:09.408Z</time>
      </trkpt>
      <trkpt lat="44.14434" lon="6.34748">
        <ele>849.74703110654</ele>
        <time>2021-10-12T19:40:12.791Z</time>
      </trkpt>
      <trkpt lat="44.14429" lon="6.34735">
        <ele>849.40326433646</ele>
        <time>2021-10-12T19:40:16.178Z</time>
      </trkpt>
      <trkpt lat="44.14427" lon="6.34733">
        <ele>848.99977412147</ele>
        <time>2021-10-12T19:40:19.566Z</time>
      </trkpt>
      <trkpt lat="44.14412" lon="6.34724">
        <ele>848.49521378661</ele>
        <time>2021-10-12T19:40:22.959Z</time>
      </trkpt>
      <trkpt lat="44.144" lon="6.34716">
        <ele>848.00023284238</ele>
        <time>2021-10-12T19:40:26.356Z</time>
      </trkpt>
      <trkpt lat="44.14395" lon="6.3471">
        <ele>847.56871245992</ele>
        <time>2021-10-12T19:40:29.756Z</time>
      </trkpt>
      <trkpt lat="44.14389" lon="6.34704">
        <ele>847.14059405271</ele>
        <time>2021-10-12T19:40:33.158Z</time>
      </trkpt>
      <trkpt lat="44.14386" lon="6.34699">
        <ele>846.741886206</ele>
        <time>2021-10-12T19:40:36.562Z</time>
      </trkpt>
      <trkpt lat="44.14384" lon="6.34695">
        <ele>846.35095514226</ele>
        <time>2021-10-12T19:40:39.967Z</time>
      </trkpt>
      <trkpt lat="44.14383" lon="6.34692">
        <ele>845.98639248106</ele>
        <time>2021-10-12T19:40:43.373Z</time>
      </trkpt>
      <trkpt lat="44.14382" lon="6.34687">
        <ele>845.62457393647</ele>
        <time>2021-10-12T19:40:46.780Z</time>
      </trkpt>
      <trkpt lat="44.14381" lon="6.34682">
        <ele>845.25655630864</ele>
        <time>2021-10-12T19:40:50.188Z</time>
      </trkpt>
      <trkpt lat="44.14379" lon="6.34677">
        <ele>844.88119099259</ele>
        <time>2021-10-12T19:40:53.598Z</time>
      </trkpt>
      <trkpt lat="44.14372" lon="6.34667">
        <ele>844.48042949665</ele>
        <time>2021-10-12T19:40:57.011Z</time>
      </trkpt>
      <trkpt lat="44.1437" lon="6.34656">
        <ele>844.10505005229</ele>
        <time>2021-10-12T19:41:00.427Z</time>
      </trkpt>
      <trkpt lat="44.1437" lon="6.34649">
        <ele>843.74226629922</ele>
        <time>2021-10-12T19:41:03.844Z</time>
      </trkpt>
      <trkpt lat="44.14371" lon="6.34644">
        <ele>843.39736974158</ele>
        <time>2021-10-12T19:41:07.263Z</time>
      </trkpt>
      <trkpt lat="44.14373" lon="6.3463">
        <ele>843.05250768138</ele>
        <time>2021-10-12T19:41:10.685Z</time>
      </trkpt>
      <trkpt lat="44.14373" lon="6.34624">
        <ele>842.68564248807</ele>
        <time>2021-10-12T19:41:14.108Z</time>
      </trkpt>
      <trkpt lat="44.14372" lon="6.34612">
        <ele>842.26939878857</ele>
        <time>2021-10-12T19:41:17.534Z</time>
      </trkpt>
      <trkpt lat="44.14373" lon="6.34606">
        <ele>841.93774627211</ele>
        <time>2021-10-12T19:41:20.962Z</time>
      </trkpt>
      <trkpt lat="44.14374" lon="6.34598">
        <ele>841.64679382939</ele>
        <time>2021-10-12T19:41:24.392Z</time>
      </trkpt>
      <trkpt lat="44.14374" lon="6.34591">
        <ele>841.36681251312</ele>
        <time>2021-10-12T19:41:27.823Z</time>
      </trkpt>
      <trkpt lat="44.14374" lon="6.3459">
        <ele>841.12780373739</ele>
        <time>2021-10-12T19:41:31.255Z</time>
      </trkpt>
      <trkpt lat="44.14375" lon="6.34586">
        <ele>840.90609669365</ele>
        <time>2021-10-12T19:41:34.688Z</time>
      </trkpt>
      <trkpt lat="44.14377" lon="6.34579">
        <ele>840.69841867806</ele>
        <time>2021-10-12T19:41:38.122Z</time>
      </trkpt>
      <trkpt lat="44.14377" lon="6.34576">
        <ele>840.53886526442</ele>
        <time>2021-10-12T19:41:41.557Z</time>
      </trkpt>
      <trkpt lat="44.14379" lon="6.34572">
        <ele>840.40168730871</ele>
        <time>2021-10-12T19:41:44.993Z</time>
      </trkpt>
      <trkpt lat="44.1438" lon="6.34568">
        <ele>840.28219119845</ele>
        <time>2021-10-12T19:41:48.430Z</time>
      </trkpt>
      <trkpt lat="44.1438" lon="6.34561">
        <ele>840.17884926947</ele>
        <time>2021-10-12T19:41:51.869Z</time>
      </trkpt>
      <trkpt lat="44.1438" lon="6.34559">
        <ele>840.08865766873</ele>
        <time>2021-10-12T19:41:55.308Z</time>
      </trkpt>
      <trkpt lat="44.14379" lon="6.34558">
        <ele>840.01254747614</ele>
        <time>2021-10-12T19:41:58.748Z</time>
      </trkpt>
      <trkpt lat="44.14373" lon="6.34556">
        <ele>839.93488880558</ele>
        <time>2021-10-12T19:42:02.190Z</time>
      </trkpt>
      <trkpt lat="44.14366" lon="6.34558">
        <ele>839.86918085258</ele>
        <time>2021-10-12T19:42:05.634Z</time>
      </trkpt>
      <trkpt lat="44.14365" lon="6.34559">
        <ele>839.8387684159</ele>
        <time>2021-10-12T19:42:09.079Z</time>
      </trkpt>
      <trkpt lat="44.14362" lon="6.34559">
        <ele>839.81911906958</ele>
        <time>2021-10-12T19:42:12.525Z</time>
      </trkpt>
      <trkpt lat="44.1436" lon="6.34558">
        <ele>839.80933557915</ele>
        <time>2021-10-12T19:42:15.971Z</time>
      </trkpt>
      <trkpt lat="44.14353" lon="6.34551">
        <ele>839.78794752157</ele>
        <time>2021-10-12T19:42:19.420Z</time>
      </trkpt>
      <trkpt lat="44.14351" lon="6.34548">
        <ele>839.81063891386</ele>
        <time>2021-10-12T19:42:22.870Z</time>
      </trkpt>
      <trkpt lat="44.14348" lon="6.34541">
        <ele>839.8594151531</ele>
        <time>2021-10-12T19:42:26.322Z</time>
      </trkpt>
      <trkpt lat="44.14348" lon="6.34536">
        <ele>839.90158745442</ele>
        <time>2021-10-12T19:42:29.775Z</time>
      </trkpt>
      <trkpt lat="44.14355" lon="6.34519">
        <ele>840.06756122206</ele>
        <time>2021-10-12T19:42:33.233Z</time>
      </trkpt>
      <trkpt lat="44.14351" lon="6.34514">
        <ele>840.10114630941</ele>
        <time>2021-10-12T19:42:36.693Z</time>
      </trkpt>
      <trkpt lat="44.14345" lon="6.34514">
        <ele>840.06973939257</ele>
        <time>2021-10-12T19:42:40.155Z</time>
      </trkpt>
      <trkpt lat="44.14339" lon="6.34513">
        <ele>840.03739412248</ele>
        <time>2021-10-12T19:42:43.619Z</time>
      </trkpt>
      <trkpt lat="44.14329" lon="6.34515">
        <ele>839.93800704917</ele>
        <time>2021-10-12T19:42:47.086Z</time>
      </trkpt>
      <trkpt lat="44.14326" lon="6.34514">
        <ele>839.87127929014</ele>
        <time>2021-10-12T19:42:50.554Z</time>
      </trkpt>
      <trkpt lat="44.14319" lon="6.34508">
        <ele>839.81444073742</ele>
        <time>2021-10-12T19:42:54.025Z</time>
      </trkpt>
      <trkpt lat="44.14317" lon="6.34506">
        <ele>839.7163717483</ele>
        <time>2021-10-12T19:42:57.497Z</time>
      </trkpt>
      <trkpt lat="44.14315" lon="6.34503">
        <ele>839.59179161885</ele>
        <time>2021-10-12T19:43:00.970Z</time>
      </trkpt>
      <trkpt lat="44.14313" lon="6.345">
        <ele>839.44244693841</ele>
        <time>2021-10-12T19:43:04.444Z</time>
      </trkpt>
      <trkpt lat="44.14311" lon="6.34497">
        <ele>839.2585032407</ele>
        <time>2021-10-12T19:43:07.919Z</time>
      </trkpt>
      <trkpt lat="44.14303" lon="6.34493">
        <ele>839.01113572768</ele>
        <time>2021-10-12T19:43:11.397Z</time>
      </trkpt>
      <trkpt lat="44.14292" lon="6.34487">
        <ele>838.70710942662</ele>
        <time>2021-10-12T19:43:14.879Z</time>
      </trkpt>
      <trkpt lat="44.14289" lon="6.34485">
        <ele>838.40280275969</ele>
        <time>2021-10-12T19:43:18.362Z</time>
      </trkpt>
      <trkpt lat="44.14281" lon="6.34477">
        <ele>838.0470797159</ele>
        <time>2021-10-12T19:43:21.848Z</time>
      </trkpt>
      <trkpt lat="44.1427" lon="6.34473">
        <ele>837.60953812128</ele>
        <time>2021-10-12T19:43:25.338Z</time>
      </trkpt>
      <trkpt lat="44.14263" lon="6.34464">
        <ele>837.20531794161</ele>
        <time>2021-10-12T19:43:28.831Z</time>
      </trkpt>
      <trkpt lat="44.14259" lon="6.34459">
        <ele>836.78687324462</ele>
        <time>2021-10-12T19:43:32.326Z</time>
      </trkpt>
      <trkpt lat="44.14256" lon="6.34454">
        <ele>836.34844010015</ele>
        <time>2021-10-12T19:43:35.822Z</time>
      </trkpt>
      <trkpt lat="44.14253" lon="6.3445">
        <ele>835.88213262001</ele>
        <time>2021-10-12T19:43:39.320Z</time>
      </trkpt>
      <trkpt lat="44.14246" lon="6.34447">
        <ele>835.33746982834</ele>
        <time>2021-10-12T19:43:42.820Z</time>
      </trkpt>
      <trkpt lat="44.14242" lon="6.34445">
        <ele>834.8129184994</ele>
        <time>2021-10-12T19:43:46.322Z</time>
      </trkpt>
      <trkpt lat="44.1423" lon="6.34439">
        <ele>834.20030328732</ele>
        <time>2021-10-12T19:43:49.828Z</time>
      </trkpt>
      <trkpt lat="44.14226" lon="6.34432">
        <ele>833.67258029942</ele>
        <time>2021-10-12T19:43:53.336Z</time>
      </trkpt>
      <trkpt lat="44.1422" lon="6.34428">
        <ele>833.10506355529</ele>
        <time>2021-10-12T19:43:56.846Z</time>
      </trkpt>
      <trkpt lat="44.14211" lon="6.34431">
        <ele>832.4518784412</ele>
        <time>2021-10-12T19:44:00.359Z</time>
      </trkpt>
      <trkpt lat="44.14208" lon="6.3443">
        <ele>831.91205161505</ele>
        <time>2021-10-12T19:44:03.873Z</time>
      </trkpt>
      <trkpt lat="44.14197" lon="6.34433">
        <ele>831.30915378688</ele>
        <time>2021-10-12T19:44:07.391Z</time>
      </trkpt>
      <trkpt lat="44.14193" lon="6.3442">
        <ele>830.82921038628</ele>
        <time>2021-10-12T19:44:10.912Z</time>
      </trkpt>
      <trkpt lat="44.14192" lon="6.34415">
        <ele>830.34767618127</ele>
        <time>2021-10-12T19:44:14.435Z</time>
      </trkpt>
      <trkpt lat="44.14186" lon="6.34403">
        <ele>829.87600889815</ele>
        <time>2021-10-12T19:44:17.961Z</time>
      </trkpt>
      <trkpt lat="44.14184" lon="6.34399">
        <ele>829.3902497855</ele>
        <time>2021-10-12T19:44:21.488Z</time>
      </trkpt>
      <trkpt lat="44.1418" lon="6.34393">
        <ele>828.92894720514</ele>
        <time>2021-10-12T19:44:25.017Z</time>
      </trkpt>
      <trkpt lat="44.14178" lon="6.34392">
        <ele>828.44615302329</ele>
        <time>2021-10-12T19:44:28.547Z</time>
      </trkpt>
      <trkpt lat="44.14176" lon="6.34392">
        <ele>827.96686104616</ele>
        <time>2021-10-12T19:44:32.077Z</time>
      </trkpt>
      <trkpt lat="44.14175" lon="6.34392">
        <ele>827.49257504621</ele>
        <time>2021-10-12T19:44:35.608Z</time>
      </trkpt>
      <trkpt lat="44.14173" lon="6.34398">
        <ele>826.98645440293</ele>
        <time>2021-10-12T19:44:39.140Z</time>
      </trkpt>
      <trkpt lat="44.14169" lon="6.34404">
        <ele>826.47618884718</ele>
        <time>2021-10-12T19:44:42.674Z</time>
      </trkpt>
      <trkpt lat="44.14169" lon="6.3441">
        <ele>825.98381045604</ele>
        <time>2021-10-12T19:44:46.210Z</time>
      </trkpt>
      <trkpt lat="44.14168" lon="6.34415">
        <ele>825.50627044363</ele>
        <time>2021-10-12T19:44:49.747Z</time>
      </trkpt>
      <trkpt lat="44.14164" lon="6.34418">
        <ele>825.03509203682</ele>
        <time>2021-10-12T19:44:53.285Z</time>
      </trkpt>
      <trkpt lat="44.14161" lon="6.34422">
        <ele>824.56440368167</ele>
        <time>2021-10-12T19:44:56.825Z</time>
      </trkpt>
      <trkpt lat="44.14158" lon="6.34424">
        <ele>824.10707394173</ele>
        <time>2021-10-12T19:45:00.366Z</time>
      </trkpt>
      <trkpt lat="44.14151" lon="6.34426">
        <ele>823.62936432839</ele>
        <time>2021-10-12T19:45:03.909Z</time>
      </trkpt>
      <trkpt lat="44.14143" lon="6.34423">
        <ele>823.17324673494</ele>
        <time>2021-10-12T19:45:07.455Z</time>
      </trkpt>
      <trkpt lat="44.14134" lon="6.3442">
        <ele>822.71204909258</ele>
        <time>2021-10-12T19:45:11.004Z</time>
      </trkpt>
      <trkpt lat="44.14127" lon="6.34415">
        <ele>822.26261073105</ele>
        <time>2021-10-12T19:45:14.556Z</time>
      </trkpt>
      <trkpt lat="44.1412" lon="6.34408">
        <ele>821.81146014343</ele>
        <time>2021-10-12T19:45:18.111Z</time>
      </trkpt>
      <trkpt lat="44.14115" lon="6.34401">
        <ele>821.36830014301</ele>
        <time>2021-10-12T19:45:21.668Z</time>
      </trkpt>
      <trkpt lat="44.14111" lon="6.34387">
        <ele>820.95874768319</ele>
        <time>2021-10-12T19:45:25.229Z</time>
      </trkpt>
      <trkpt lat="44.14101" lon="6.34363">
        <ele>820.64049044456</ele>
        <time>2021-10-12T19:45:28.796Z</time>
      </trkpt>
      <trkpt lat="44.14098" lon="6.34352">
        <ele>820.18870371007</ele>
        <time>2021-10-12T19:45:32.366Z</time>
      </trkpt>
      <trkpt lat="44.14088" lon="6.3434">
        <ele>819.62214353393</ele>
        <time>2021-10-12T19:45:35.941Z</time>
      </trkpt>
      <trkpt lat="44.14086" lon="6.34335">
        <ele>819.09817966546</ele>
        <time>2021-10-12T19:45:39.517Z</time>
      </trkpt>
      <trkpt lat="44.14083" lon="6.34328">
        <ele>818.55289133184</ele>
        <time>2021-10-12T19:45:43.095Z</time>
      </trkpt>
      <trkpt lat="44.14081" lon="6.34327">
        <ele>817.97634448951</ele>
        <time>2021-10-12T19:45:46.673Z</time>
      </trkpt>
      <trkpt lat="44.14072" lon="6.34325">
        <ele>817.29522740586</ele>
        <time>2021-10-12T19:45:50.255Z</time>
      </trkpt>
      <trkpt lat="44.14062" lon="6.34313">
        <ele>816.64786432473</ele>
        <time>2021-10-12T19:45:53.841Z</time>
      </trkpt>
      <trkpt lat="44.14062" lon="6.34302">
        <ele>816.10698258223</ele>
        <time>2021-10-12T19:45:57.430Z</time>
      </trkpt>
      <trkpt lat="44.14062" lon="6.34297">
        <ele>815.49726128168</ele>
        <time>2021-10-12T19:46:01.020Z</time>
      </trkpt>
      <trkpt lat="44.14055" lon="6.3429">
        <ele>814.80336190508</ele>
        <time>2021-10-12T19:46:04.613Z</time>
      </trkpt>
      <trkpt lat="44.14046" lon="6.34278">
        <ele>814.08794317967</ele>
        <time>2021-10-12T19:46:08.210Z</time>
      </trkpt>
      <trkpt lat="44.14038" lon="6.34272">
        <ele>813.33806337631</ele>
        <time>2021-10-12T19:46:11.810Z</time>
      </trkpt>
      <trkpt lat="44.14038" lon="6.34272">
        <ele>812.66408958265</ele>
        <time>2021-10-12T19:46:15.410Z</time>
      </trkpt>
      <trkpt lat="44.14034" lon="6.34271">
        <ele>811.94244047151</ele>
        <time>2021-10-12T19:46:19.011Z</time>
      </trkpt>
      <trkpt lat="44.14027" lon="6.34267">
        <ele>811.17647223544</ele>
        <time>2021-10-12T19:46:22.615Z</time>
      </trkpt>
      <trkpt lat="44.14025" lon="6.34264">
        <ele>810.49953067271</ele>
        <time>2021-10-12T19:46:26.220Z</time>
      </trkpt>
      <trkpt lat="44.14024" lon="6.34261">
        <ele>809.84410903981</ele>
        <time>2021-10-12T19:46:29.825Z</time>
      </trkpt>
      <trkpt lat="44.14021" lon="6.34255">
        <ele>809.18145949335</ele>
        <time>2021-10-12T19:46:33.432Z</time>
      </trkpt>
      <trkpt lat="44.14019" lon="6.34251">
        <ele>808.55620208679</ele>
        <time>2021-10-12T19:46:37.040Z</time>
      </trkpt>
      <trkpt lat="44.14017" lon="6.34247">
        <ele>807.95707153398</ele>
        <time>2021-10-12T19:46:40.650Z</time>
      </trkpt>
      <trkpt lat="44.14014" lon="6.34242">
        <ele>807.38970786556</ele>
        <time>2021-10-12T19:46:44.261Z</time>
      </trkpt>
      <trkpt lat="44.14009" lon="6.34233">
        <ele>806.83453668893</ele>
        <time>2021-10-12T19:46:47.875Z</time>
      </trkpt>
      <trkpt lat="44.14006" lon="6.34231">
        <ele>806.33825243131</ele>
        <time>2021-10-12T19:46:51.490Z</time>
      </trkpt>
      <trkpt lat="44.14004" lon="6.3423">
        <ele>805.88723375658</ele>
        <time>2021-10-12T19:46:55.106Z</time>
      </trkpt>
      <trkpt lat="44.13998" lon="6.34229">
        <ele>805.45119210301</ele>
        <time>2021-10-12T19:46:58.724Z</time>
      </trkpt>
      <trkpt lat="44.13996" lon="6.34228">
        <ele>805.10965946905</ele>
        <time>2021-10-12T19:47:02.342Z</time>
      </trkpt>
      <trkpt lat="44.13988" lon="6.34225">
        <ele>804.78557994167</ele>
        <time>2021-10-12T19:47:05.963Z</time>
      </trkpt>
      <trkpt lat="44.13986" lon="6.34225">
        <ele>804.57703298563</ele>
        <time>2021-10-12T19:47:09.585Z</time>
      </trkpt>
      <trkpt lat="44.13982" lon="6.34225">
        <ele>804.43542767702</ele>
        <time>2021-10-12T19:47:13.208Z</time>
      </trkpt>
      <trkpt lat="44.1398" lon="6.34225">
        <ele>804.35432310457</ele>
        <time>2021-10-12T19:47:16.832Z</time>
      </trkpt>
      <trkpt lat="44.13975" lon="6.34228">
        <ele>804.34452792908</ele>
        <time>2021-10-12T19:47:20.458Z</time>
      </trkpt>
      <trkpt lat="44.13975" lon="6.34228">
        <ele>804.39530708179</ele>
        <time>2021-10-12T19:47:24.084Z</time>
      </trkpt>
      <trkpt lat="44.13972" lon="6.34231">
        <ele>804.51934241853</ele>
        <time>2021-10-12T19:47:27.711Z</time>
      </trkpt>
      <trkpt lat="44.13971" lon="6.34235">
        <ele>804.71060730456</ele>
        <time>2021-10-12T19:47:31.339Z</time>
      </trkpt>
      <trkpt lat="44.13967" lon="6.34248">
        <ele>804.97677287958</ele>
        <time>2021-10-12T19:47:34.970Z</time>
      </trkpt>
      <trkpt lat="44.13967" lon="6.34251">
        <ele>805.30681137403</ele>
        <time>2021-10-12T19:47:38.602Z</time>
      </trkpt>
      <trkpt lat="44.13966" lon="6.3426">
        <ele>805.70725751976</ele>
        <time>2021-10-12T19:47:42.236Z</time>
      </trkpt>
      <trkpt lat="44.13964" lon="6.3427">
        <ele>806.17881114347</ele>
        <time>2021-10-12T19:47:45.873Z</time>
      </trkpt>
      <trkpt lat="44.13963" lon="6.34273">
        <ele>806.7152130333</ele>
        <time>2021-10-12T19:47:49.510Z</time>
      </trkpt>
      <trkpt lat="44.13958" lon="6.34281">
        <ele>807.36889960467</ele>
        <time>2021-10-12T19:47:53.150Z</time>
      </trkpt>
      <trkpt lat="44.13956" lon="6.34282">
        <ele>808.05383435802</ele>
        <time>2021-10-12T19:47:56.791Z</time>
      </trkpt>
      <trkpt lat="44.13949" lon="6.34286">
        <ele>808.86581116733</ele>
        <time>2021-10-12T19:48:00.434Z</time>
      </trkpt>
      <trkpt lat="44.13941" lon="6.3429">
        <ele>809.71803057971</ele>
        <time>2021-10-12T19:48:04.080Z</time>
      </trkpt>
      <trkpt lat="44.13936" lon="6.34293">
        <ele>810.60142831183</ele>
        <time>2021-10-12T19:48:07.728Z</time>
      </trkpt>
      <trkpt lat="44.1393" lon="6.34295">
        <ele>811.5534023948</ele>
        <time>2021-10-12T19:48:11.378Z</time>
      </trkpt>
      <trkpt lat="44.13922" lon="6.34294">
        <ele>812.56220029707</ele>
        <time>2021-10-12T19:48:15.031Z</time>
      </trkpt>
      <trkpt lat="44.1392" lon="6.34294">
        <ele>813.53612111907</ele>
        <time>2021-10-12T19:48:18.684Z</time>
      </trkpt>
      <trkpt lat="44.13913" lon="6.34294">
        <ele>814.60425686438</ele>
        <time>2021-10-12T19:48:22.340Z</time>
      </trkpt>
      <trkpt lat="44.13906" lon="6.34293">
        <ele>815.69498977761</ele>
        <time>2021-10-12T19:48:25.998Z</time>
      </trkpt>
      <trkpt lat="44.13904" lon="6.34293">
        <ele>816.74273852388</ele>
        <time>2021-10-12T19:48:29.657Z</time>
      </trkpt>
      <trkpt lat="44.139" lon="6.34293">
        <ele>817.82022372728</ele>
        <time>2021-10-12T19:48:33.317Z</time>
      </trkpt>
      <trkpt lat="44.13893" lon="6.34291">
        <ele>818.95612026481</ele>
        <time>2021-10-12T19:48:36.979Z</time>
      </trkpt>
      <trkpt lat="44.13888" lon="6.34289">
        <ele>820.09502392907</ele>
        <time>2021-10-12T19:48:40.643Z</time>
      </trkpt>
      <trkpt lat="44.13885" lon="6.34288">
        <ele>821.22294113514</ele>
        <time>2021-10-12T19:48:44.308Z</time>
      </trkpt>
      <trkpt lat="44.13878" lon="6.34286">
        <ele>822.38600185774</ele>
        <time>2021-10-12T19:48:47.976Z</time>
      </trkpt>
      <trkpt lat="44.13875" lon="6.34286">
        <ele>823.50793810686</ele>
        <time>2021-10-12T19:48:51.645Z</time>
      </trkpt>
      <trkpt lat="44.13871" lon="6.34285">
        <ele>824.62885777914</ele>
        <time>2021-10-12T19:48:55.315Z</time>
      </trkpt>
      <trkpt lat="44.13866" lon="6.34285">
        <ele>825.75699862718</ele>
        <time>2021-10-12T19:48:58.986Z</time>
      </trkpt>
      <trkpt lat="44.13863" lon="6.34285">
        <ele>826.87184751746</ele>
        <time>2021-10-12T19:49:02.659Z</time>
      </trkpt>
      <trkpt lat="44.13859" lon="6.34285">
        <ele>827.98234330982</ele>
        <time>2021-10-12T19:49:06.333Z</time>
      </trkpt>
      <trkpt lat="44.1385" lon="6.34286">
        <ele>829.11001662346</ele>
        <time>2021-10-12T19:49:10.010Z</time>
      </trkpt>
      <trkpt lat="44.13846" lon="6.34287">
        <ele>830.18881012009</ele>
        <time>2021-10-12T19:49:13.688Z</time>
      </trkpt>
      <trkpt lat="44.13842" lon="6.34287">
        <ele>831.2587921321</ele>
        <time>2021-10-12T19:49:17.368Z</time>
      </trkpt>
      <trkpt lat="44.13833" lon="6.34286">
        <ele>832.34371003292</ele>
        <time>2021-10-12T19:49:21.051Z</time>
      </trkpt>
      <trkpt lat="44.13822" lon="6.34285">
        <ele>833.42806459578</ele>
        <time>2021-10-12T19:49:24.737Z</time>
      </trkpt>
      <trkpt lat="44.13814" lon="6.34284">
        <ele>834.49172777084</ele>
        <time>2021-10-12T19:49:28.426Z</time>
      </trkpt>
      <trkpt lat="44.13809" lon="6.34284">
        <ele>835.52157957816</ele>
        <time>2021-10-12T19:49:32.117Z</time>
      </trkpt>
      <trkpt lat="44.13802" lon="6.34283">
        <ele>836.54828759653</ele>
        <time>2021-10-12T19:49:35.810Z</time>
      </trkpt>
      <trkpt lat="44.138" lon="6.34282">
        <ele>837.53496486757</ele>
        <time>2021-10-12T19:49:39.504Z</time>
      </trkpt>
      <trkpt lat="44.13788" lon="6.34283">
        <ele>838.57080318206</ele>
        <time>2021-10-12T19:49:43.202Z</time>
      </trkpt>
      <trkpt lat="44.13784" lon="6.34282">
        <ele>839.55385682251</ele>
        <time>2021-10-12T19:49:46.901Z</time>
      </trkpt>
      <trkpt lat="44.13777" lon="6.3428">
        <ele>840.5397806633</ele>
        <time>2021-10-12T19:49:50.602Z</time>
      </trkpt>
      <trkpt lat="44.13767" lon="6.34275">
        <ele>841.5515881301</ele>
        <time>2021-10-12T19:49:54.307Z</time>
      </trkpt>
      <trkpt lat="44.13765" lon="6.34274">
        <ele>842.46469258663</ele>
        <time>2021-10-12T19:49:58.013Z</time>
      </trkpt>
      <trkpt lat="44.13758" lon="6.34271">
        <ele>843.39726947268</ele>
        <time>2021-10-12T19:50:01.721Z</time>
      </trkpt>
      <trkpt lat="44.13748" lon="6.34266">
        <ele>844.31769884484</ele>
        <time>2021-10-12T19:50:05.433Z</time>
      </trkpt>
      <trkpt lat="44.13746" lon="6.34265">
        <ele>845.17382897941</ele>
        <time>2021-10-12T19:50:09.145Z</time>
      </trkpt>
      <trkpt lat="44.13738" lon="6.34261">
        <ele>846.03938907877</ele>
        <time>2021-10-12T19:50:12.860Z</time>
      </trkpt>
      <trkpt lat="44.1373" lon="6.34258">
        <ele>846.85243724229</ele>
        <time>2021-10-12T19:50:16.578Z</time>
      </trkpt>
      <trkpt lat="44.13728" lon="6.34258">
        <ele>847.64719698243</ele>
        <time>2021-10-12T19:50:20.297Z</time>
      </trkpt>
      <trkpt lat="44.1372" lon="6.34256">
        <ele>848.43708235984</ele>
        <time>2021-10-12T19:50:24.018Z</time>
      </trkpt>
      <trkpt lat="44.13712" lon="6.34255">
        <ele>849.22255911437</ele>
        <time>2021-10-12T19:50:27.742Z</time>
      </trkpt>
      <trkpt lat="44.13704" lon="6.34256">
        <ele>850.01112503162</ele>
        <time>2021-10-12T19:50:31.469Z</time>
      </trkpt>
      <trkpt lat="44.13698" lon="6.34257">
        <ele>850.78000151459</ele>
        <time>2021-10-12T19:50:35.198Z</time>
      </trkpt>
      <trkpt lat="44.13694" lon="6.34258">
        <ele>851.52166590808</ele>
        <time>2021-10-12T19:50:38.928Z</time>
      </trkpt>
      <trkpt lat="44.1369" lon="6.34259">
        <ele>852.24846945295</ele>
        <time>2021-10-12T19:50:42.659Z</time>
      </trkpt>
      <trkpt lat="44.13687" lon="6.3426">
        <ele>852.96304036804</ele>
        <time>2021-10-12T19:50:46.392Z</time>
      </trkpt>
      <trkpt lat="44.13681" lon="6.34262">
        <ele>853.67994144339</ele>
        <time>2021-10-12T19:50:50.126Z</time>
      </trkpt>
      <trkpt lat="44.13679" lon="6.34263">
        <ele>854.36988390245</ele>
        <time>2021-10-12T19:50:53.861Z</time>
      </trkpt>
      <trkpt lat="44.13675" lon="6.34265">
        <ele>855.05844104371</ele>
        <time>2021-10-12T19:50:57.597Z</time>
      </trkpt>
      <trkpt lat="44.1367" lon="6.34267">
        <ele>855.74654992082</ele>
        <time>2021-10-12T19:51:01.335Z</time>
      </trkpt>
      <trkpt lat="44.13665" lon="6.3427">
        <ele>856.42704511344</ele>
        <time>2021-10-12T19:51:05.075Z</time>
      </trkpt>
      <trkpt lat="44.13663" lon="6.34272">
        <ele>857.07348304346</ele>
        <time>2021-10-12T19:51:08.816Z</time>
      </trkpt>
      <trkpt lat="44.13658" lon="6.34275">
        <ele>857.72987926216</ele>
        <time>2021-10-12T19:51:12.559Z</time>
      </trkpt>
      <trkpt lat="44.13651" lon="6.3428">
        <ele>858.37855136239</ele>
        <time>2021-10-12T19:51:16.304Z</time>
      </trkpt>
      <trkpt lat="44.1364" lon="6.34289">
        <ele>859.03608074454</ele>
        <time>2021-10-12T19:51:20.053Z</time>
      </trkpt>
      <trkpt lat="44.13632" lon="6.34296">
        <ele>859.66658316984</ele>
        <time>2021-10-12T19:51:23.806Z</time>
      </trkpt>
      <trkpt lat="44.13626" lon="6.34302">
        <ele>860.2567977249</ele>
        <time>2021-10-12T19:51:27.561Z</time>
      </trkpt>
      <trkpt lat="44.1362" lon="6.3431">
        <ele>860.80596723271</ele>
        <time>2021-10-12T19:51:31.319Z</time>
      </trkpt>
      <trkpt lat="44.13618" lon="6.34312">
        <ele>861.33710995962</ele>
        <time>2021-10-12T19:51:35.078Z</time>
      </trkpt>
      <trkpt lat="44.13608" lon="6.34325">
        <ele>861.89952126701</ele>
        <time>2021-10-12T19:51:38.841Z</time>
      </trkpt>
      <trkpt lat="44.13604" lon="6.34329">
        <ele>862.41465548272</ele>
        <time>2021-10-12T19:51:42.606Z</time>
      </trkpt>
      <trkpt lat="44.13592" lon="6.3434">
        <ele>862.89727644832</ele>
        <time>2021-10-12T19:51:46.376Z</time>
      </trkpt>
      <trkpt lat="44.13574" lon="6.34344">
        <ele>863.34528452811</ele>
        <time>2021-10-12T19:51:50.152Z</time>
      </trkpt>
      <trkpt lat="44.13557" lon="6.34335">
        <ele>863.7635636952</ele>
        <time>2021-10-12T19:51:53.934Z</time>
      </trkpt>
      <trkpt lat="44.13543" lon="6.34316">
        <ele>864.14152071942</ele>
        <time>2021-10-12T19:51:57.722Z</time>
      </trkpt>
      <trkpt lat="44.1353" lon="6.34307">
        <ele>864.60815160761</ele>
        <time>2021-10-12T19:52:01.515Z</time>
      </trkpt>
      <trkpt lat="44.13527" lon="6.34306">
        <ele>864.96720478228</ele>
        <time>2021-10-12T19:52:05.309Z</time>
      </trkpt>
      <trkpt lat="44.1352" lon="6.34303">
        <ele>865.33624519047</ele>
        <time>2021-10-12T19:52:09.106Z</time>
      </trkpt>
      <trkpt lat="44.13512" lon="6.34299">
        <ele>865.69236990731</ele>
        <time>2021-10-12T19:52:12.906Z</time>
      </trkpt>
      <trkpt lat="44.1351" lon="6.34298">
        <ele>865.95858478478</ele>
        <time>2021-10-12T19:52:16.706Z</time>
      </trkpt>
      <trkpt lat="44.13501" lon="6.34291">
        <ele>866.24661764476</ele>
        <time>2021-10-12T19:52:20.510Z</time>
      </trkpt>
      <trkpt lat="44.13496" lon="6.34285">
        <ele>866.46544913453</ele>
        <time>2021-10-12T19:52:24.316Z</time>
      </trkpt>
      <trkpt lat="44.13489" lon="6.34279">
        <ele>866.66289377686</ele>
        <time>2021-10-12T19:52:28.125Z</time>
      </trkpt>
      <trkpt lat="44.13487" lon="6.34278">
        <ele>866.76935275574</ele>
        <time>2021-10-12T19:52:31.934Z</time>
      </trkpt>
      <trkpt lat="44.13483" lon="6.34275">
        <ele>866.84591443331</ele>
        <time>2021-10-12T19:52:35.745Z</time>
      </trkpt>
      <trkpt lat="44.13468" lon="6.3427">
        <ele>866.91786468307</ele>
        <time>2021-10-12T19:52:39.561Z</time>
      </trkpt>
      <trkpt lat="44.13465" lon="6.3427">
        <ele>866.92033974402</ele>
        <time>2021-10-12T19:52:43.378Z</time>
      </trkpt>
      <trkpt lat="44.13451" lon="6.34262">
        <ele>866.83811588481</ele>
        <time>2021-10-12T19:52:47.200Z</time>
      </trkpt>
      <trkpt lat="44.1344" lon="6.34253">
        <ele>866.70482040727</ele>
        <time>2021-10-12T19:52:51.026Z</time>
      </trkpt>
      <trkpt lat="44.13427" lon="6.34241">
        <ele>866.51401551814</ele>
        <time>2021-10-12T19:52:54.857Z</time>
      </trkpt>
      <trkpt lat="44.13418" lon="6.34234">
        <ele>866.32452428312</ele>
        <time>2021-10-12T19:52:58.692Z</time>
      </trkpt>
      <trkpt lat="44.13412" lon="6.34231">
        <ele>866.14781854388</ele>
        <time>2021-10-12T19:53:02.529Z</time>
      </trkpt>
      <trkpt lat="44.13401" lon="6.34224">
        <ele>865.94459835305</ele>
        <time>2021-10-12T19:53:06.370Z</time>
      </trkpt>
      <trkpt lat="44.13381" lon="6.34215">
        <ele>865.75230691862</ele>
        <time>2021-10-12T19:53:10.218Z</time>
      </trkpt>
      <trkpt lat="44.13368" lon="6.34209">
        <ele>865.61040210314</ele>
        <time>2021-10-12T19:53:14.071Z</time>
      </trkpt>
      <trkpt lat="44.13362" lon="6.34204">
        <ele>865.4506605456</ele>
        <time>2021-10-12T19:53:17.926Z</time>
      </trkpt>
      <trkpt lat="44.13352" lon="6.34189">
        <ele>865.28356040056</ele>
        <time>2021-10-12T19:53:21.786Z</time>
      </trkpt>
      <trkpt lat="44.1335" lon="6.34179">
        <ele>865.12082933671</ele>
        <time>2021-10-12T19:53:25.648Z</time>
      </trkpt>
      <trkpt lat="44.13348" lon="6.3417">
        <ele>864.96662859164</ele>
        <time>2021-10-12T19:53:29.513Z</time>
      </trkpt>
      <trkpt lat="44.13348" lon="6.34156">
        <ele>864.81868384489</ele>
        <time>2021-10-12T19:53:33.381Z</time>
      </trkpt>
      <trkpt lat="44.13352" lon="6.34146">
        <ele>864.66550302936</ele>
        <time>2021-10-12T19:53:37.252Z</time>
      </trkpt>
      <trkpt lat="44.13356" lon="6.34137">
        <ele>864.53413592077</ele>
        <time>2021-10-12T19:53:41.125Z</time>
      </trkpt>
      <trkpt lat="44.13366" lon="6.34118">
        <ele>864.41115629379</ele>
        <time>2021-10-12T19:53:45.004Z</time>
      </trkpt>
      <trkpt lat="44.13369" lon="6.34111">
        <ele>864.36697991212</ele>
        <time>2021-10-12T19:53:48.885Z</time>
      </trkpt>
      <trkpt lat="44.13368" lon="6.34109">
        <ele>864.35681426472</ele>
        <time>2021-10-12T19:53:52.766Z</time>
      </trkpt>
      <trkpt lat="44.13365" lon="6.34114">
        <ele>864.37324598065</ele>
        <time>2021-10-12T19:53:56.649Z</time>
      </trkpt>
      <trkpt lat="44.13364" lon="6.34118">
        <ele>864.41580117737</ele>
        <time>2021-10-12T19:54:00.533Z</time>
      </trkpt>
      <trkpt lat="44.13357" lon="6.34133">
        <ele>864.52276237983</ele>
        <time>2021-10-12T19:54:04.421Z</time>
      </trkpt>
      <trkpt lat="44.13346" lon="6.34156">
        <ele>864.73066916548</ele>
        <time>2021-10-12T19:54:08.316Z</time>
      </trkpt>
      <trkpt lat="44.13344" lon="6.3416">
        <ele>864.89905989787</ele>
        <time>2021-10-12T19:54:12.212Z</time>
      </trkpt>
      <trkpt lat="44.13341" lon="6.34161">
        <ele>865.11115425959</ele>
        <time>2021-10-12T19:54:16.109Z</time>
      </trkpt>
      <trkpt lat="44.13333" lon="6.3416">
        <ele>865.40444754026</ele>
        <time>2021-10-12T19:54:20.009Z</time>
      </trkpt>
      <trkpt lat="44.13321" lon="6.34159">
        <ele>865.75776243211</ele>
        <time>2021-10-12T19:54:23.913Z</time>
      </trkpt>
      <trkpt lat="44.13319" lon="6.34158">
        <ele>866.06617761144</ele>
        <time>2021-10-12T19:54:27.817Z</time>
      </trkpt>
      <trkpt lat="44.13311" lon="6.34155">
        <ele>866.43243610519</ele>
        <time>2021-10-12T19:54:31.724Z</time>
      </trkpt>
      <trkpt lat="44.13305" lon="6.34152">
        <ele>866.82606523507</ele>
        <time>2021-10-12T19:54:35.633Z</time>
      </trkpt>
      <trkpt lat="44.13297" lon="6.3415">
        <ele>867.26179148795</ele>
        <time>2021-10-12T19:54:39.545Z</time>
      </trkpt>
      <trkpt lat="44.13289" lon="6.34152">
        <ele>867.72814994796</ele>
        <time>2021-10-12T19:54:43.460Z</time>
      </trkpt>
      <trkpt lat="44.13286" lon="6.34153">
        <ele>868.20947374901</ele>
        <time>2021-10-12T19:54:47.376Z</time>
      </trkpt>
      <trkpt lat="44.1328" lon="6.34155">
        <ele>868.72261458043</ele>
        <time>2021-10-12T19:54:51.294Z</time>
      </trkpt>
      <trkpt lat="44.13273" lon="6.34156">
        <ele>869.27423078505</ele>
        <time>2021-10-12T19:54:55.214Z</time>
      </trkpt>
      <trkpt lat="44.13264" lon="6.34159">
        <ele>869.87965394543</ele>
        <time>2021-10-12T19:54:59.137Z</time>
      </trkpt>
      <trkpt lat="44.13258" lon="6.34162">
        <ele>870.49010533968</ele>
        <time>2021-10-12T19:55:03.062Z</time>
      </trkpt>
      <trkpt lat="44.13252" lon="6.34161">
        <ele>871.15515100134</ele>
        <time>2021-10-12T19:55:06.989Z</time>
      </trkpt>
      <trkpt lat="44.1325" lon="6.3416">
        <ele>871.8497347777</ele>
        <time>2021-10-12T19:55:10.917Z</time>
      </trkpt>
      <trkpt lat="44.1325" lon="6.34157">
        <ele>872.58120085188</ele>
        <time>2021-10-12T19:55:14.846Z</time>
      </trkpt>
      <trkpt lat="44.1325" lon="6.34152">
        <ele>873.36159039616</ele>
        <time>2021-10-12T19:55:18.776Z</time>
      </trkpt>
      <trkpt lat="44.13251" lon="6.34148">
        <ele>874.1675787117</ele>
        <time>2021-10-12T19:55:22.707Z</time>
      </trkpt>
      <trkpt lat="44.13252" lon="6.34145">
        <ele>874.98263092979</ele>
        <time>2021-10-12T19:55:26.639Z</time>
      </trkpt>
      <trkpt lat="44.13253" lon="6.3414">
        <ele>875.82343493266</ele>
        <time>2021-10-12T19:55:30.572Z</time>
      </trkpt>
      <trkpt lat="44.13255" lon="6.34133">
        <ele>876.70129562712</ele>
        <time>2021-10-12T19:55:34.507Z</time>
      </trkpt>
      <trkpt lat="44.13256" lon="6.34128">
        <ele>877.62879676782</ele>
        <time>2021-10-12T19:55:38.443Z</time>
      </trkpt>
      <trkpt lat="44.1326" lon="6.34121">
        <ele>878.57626077468</ele>
        <time>2021-10-12T19:55:42.381Z</time>
      </trkpt>
      <trkpt lat="44.13262" lon="6.34114">
        <ele>879.54686421803</ele>
        <time>2021-10-12T19:55:46.321Z</time>
      </trkpt>
      <trkpt lat="44.13263" lon="6.34111">
        <ele>880.52077726206</ele>
        <time>2021-10-12T19:55:50.262Z</time>
      </trkpt>
      <trkpt lat="44.13264" lon="6.34106">
        <ele>881.52044320215</ele>
        <time>2021-10-12T19:55:54.204Z</time>
      </trkpt>
      <trkpt lat="44.13266" lon="6.34098">
        <ele>882.57738000059</ele>
        <time>2021-10-12T19:55:58.148Z</time>
      </trkpt>
      <trkpt lat="44.13266" lon="6.34089">
        <ele>883.66326426296</ele>
        <time>2021-10-12T19:56:02.094Z</time>
      </trkpt>
      <trkpt lat="44.13266" lon="6.34086">
        <ele>884.71587095456</ele>
        <time>2021-10-12T19:56:06.041Z</time>
      </trkpt>
      <trkpt lat="44.13267" lon="6.34077">
        <ele>885.82695693539</ele>
        <time>2021-10-12T19:56:09.990Z</time>
      </trkpt>
      <trkpt lat="44.13267" lon="6.34069">
        <ele>886.92475507258</ele>
        <time>2021-10-12T19:56:13.941Z</time>
      </trkpt>
      <trkpt lat="44.13268" lon="6.3406">
        <ele>888.01304080218</ele>
        <time>2021-10-12T19:56:17.894Z</time>
      </trkpt>
      <trkpt lat="44.13269" lon="6.34055">
        <ele>889.08303693929</ele>
        <time>2021-10-12T19:56:21.848Z</time>
      </trkpt>
      <trkpt lat="44.1327" lon="6.34052">
        <ele>890.13846176064</ele>
        <time>2021-10-12T19:56:25.803Z</time>
      </trkpt>
      <trkpt lat="44.13271" lon="6.34044">
        <ele>891.25891536846</ele>
        <time>2021-10-12T19:56:29.760Z</time>
      </trkpt>
      <trkpt lat="44.13272" lon="6.34036">
        <ele>892.37371890597</ele>
        <time>2021-10-12T19:56:33.719Z</time>
      </trkpt>
      <trkpt lat="44.13273" lon="6.34027">
        <ele>893.48033730988</ele>
        <time>2021-10-12T19:56:37.680Z</time>
      </trkpt>
      <trkpt lat="44.13276" lon="6.34017">
        <ele>894.57449822412</ele>
        <time>2021-10-12T19:56:41.644Z</time>
      </trkpt>
      <trkpt lat="44.13277" lon="6.34015">
        <ele>895.57011322782</ele>
        <time>2021-10-12T19:56:45.608Z</time>
      </trkpt>
      <trkpt lat="44.13281" lon="6.34005">
        <ele>896.604296381</ele>
        <time>2021-10-12T19:56:49.575Z</time>
      </trkpt>
      <trkpt lat="44.13284" lon="6.33998">
        <ele>897.59995594519</ele>
        <time>2021-10-12T19:56:53.544Z</time>
      </trkpt>
      <trkpt lat="44.13285" lon="6.33996">
        <ele>898.52628559476</ele>
        <time>2021-10-12T19:56:57.514Z</time>
      </trkpt>
      <trkpt lat="44.13288" lon="6.3399">
        <ele>899.44051231082</ele>
        <time>2021-10-12T19:57:01.485Z</time>
      </trkpt>
      <trkpt lat="44.13291" lon="6.33985">
        <ele>900.32076816042</ele>
        <time>2021-10-12T19:57:05.458Z</time>
      </trkpt>
      <trkpt lat="44.13292" lon="6.33984">
        <ele>901.15102923429</ele>
        <time>2021-10-12T19:57:09.431Z</time>
      </trkpt>
      <trkpt lat="44.13297" lon="6.33979">
        <ele>901.96628814698</ele>
        <time>2021-10-12T19:57:13.406Z</time>
      </trkpt>
      <trkpt lat="44.13298" lon="6.33977">
        <ele>902.7387963417</ele>
        <time>2021-10-12T19:57:17.382Z</time>
      </trkpt>
      <trkpt lat="44.13301" lon="6.33973">
        <ele>903.49130849259</ele>
        <time>2021-10-12T19:57:21.359Z</time>
      </trkpt>
      <trkpt lat="44.13304" lon="6.33968">
        <ele>904.22440375631</ele>
        <time>2021-10-12T19:57:25.338Z</time>
      </trkpt>
      <trkpt lat="44.13307" lon="6.33964">
        <ele>904.9279873941</ele>
        <time>2021-10-12T19:57:29.318Z</time>
      </trkpt>
      <trkpt lat="44.13308" lon="6.33962">
        <ele>905.61567635947</ele>
        <time>2021-10-12T19:57:33.299Z</time>
      </trkpt>
      <trkpt lat="44.13311" lon="6.33956">
        <ele>906.3015861974</ele>
        <time>2021-10-12T19:57:37.282Z</time>
      </trkpt>
      <trkpt lat="44.13314" lon="6.33951">
        <ele>906.98803627006</ele>
        <time>2021-10-12T19:57:41.266Z</time>
      </trkpt>
      <trkpt lat="44.13318" lon="6.33946">
        <ele>907.64845357913</ele>
        <time>2021-10-12T19:57:45.252Z</time>
      </trkpt>
      <trkpt lat="44.13323" lon="6.3394">
        <ele>908.30005226175</ele>
        <time>2021-10-12T19:57:49.240Z</time>
      </trkpt>
      <trkpt lat="44.13327" lon="6.33933">
        <ele>908.96432063084</ele>
        <time>2021-10-12T19:57:53.230Z</time>
      </trkpt>
      <trkpt lat="44.13328" lon="6.33932">
        <ele>909.58597436467</ele>
        <time>2021-10-12T19:57:57.221Z</time>
      </trkpt>
      <trkpt lat="44.13331" lon="6.3393">
        <ele>910.19543108848</ele>
        <time>2021-10-12T19:58:01.213Z</time>
      </trkpt>
      <trkpt lat="44.13338" lon="6.33924">
        <ele>910.79344153837</ele>
        <time>2021-10-12T19:58:05.208Z</time>
      </trkpt>
      <trkpt lat="44.13339" lon="6.33923">
        <ele>911.40801968554</ele>
        <time>2021-10-12T19:58:09.203Z</time>
      </trkpt>
      <trkpt lat="44.13348" lon="6.33916">
        <ele>912.00639976449</ele>
        <time>2021-10-12T19:58:13.202Z</time>
      </trkpt>
      <trkpt lat="44.1335" lon="6.33915">
        <ele>912.62394787307</ele>
        <time>2021-10-12T19:58:17.201Z</time>
      </trkpt>
      <trkpt lat="44.13356" lon="6.33907">
        <ele>913.29391101254</ele>
        <time>2021-10-12T19:58:21.203Z</time>
      </trkpt>
      <trkpt lat="44.13359" lon="6.33896">
        <ele>914.05658231299</ele>
        <time>2021-10-12T19:58:25.208Z</time>
      </trkpt>
      <trkpt lat="44.1336" lon="6.33891">
        <ele>914.74917921218</ele>
        <time>2021-10-12T19:58:29.214Z</time>
      </trkpt>
      <trkpt lat="44.1336" lon="6.33885">
        <ele>915.46688145718</ele>
        <time>2021-10-12T19:58:33.222Z</time>
      </trkpt>
      <trkpt lat="44.13362" lon="6.33881">
        <ele>916.16496464792</ele>
        <time>2021-10-12T19:58:37.231Z</time>
      </trkpt>
      <trkpt lat="44.13363" lon="6.33879">
        <ele>916.83632061975</ele>
        <time>2021-10-12T19:58:41.240Z</time>
      </trkpt>
      <trkpt lat="44.13369" lon="6.33871">
        <ele>917.56987093412</ele>
        <time>2021-10-12T19:58:45.252Z</time>
      </trkpt>
      <trkpt lat="44.13373" lon="6.33865">
        <ele>918.28456768639</ele>
        <time>2021-10-12T19:58:49.266Z</time>
      </trkpt>
      <trkpt lat="44.13376" lon="6.33857">
        <ele>919.05981511199</ele>
        <time>2021-10-12T19:58:53.282Z</time>
      </trkpt>
      <trkpt lat="44.13377" lon="6.33851">
        <ele>919.79683490363</ele>
        <time>2021-10-12T19:58:57.300Z</time>
      </trkpt>
      <trkpt lat="44.13379" lon="6.33849">
        <ele>920.4702844927</ele>
        <time>2021-10-12T19:59:01.319Z</time>
      </trkpt>
      <trkpt lat="44.1338" lon="6.33847">
        <ele>921.14131622438</ele>
        <time>2021-10-12T19:59:05.338Z</time>
      </trkpt>
      <trkpt lat="44.13386" lon="6.33842">
        <ele>921.84235431295</ele>
        <time>2021-10-12T19:59:09.360Z</time>
      </trkpt>
      <trkpt lat="44.13388" lon="6.3384">
        <ele>922.51019809905</ele>
        <time>2021-10-12T19:59:13.382Z</time>
      </trkpt>
      <trkpt lat="44.13389" lon="6.33838">
        <ele>923.16346805548</ele>
        <time>2021-10-12T19:59:17.405Z</time>
      </trkpt>
      <trkpt lat="44.13391" lon="6.33836">
        <ele>923.79000498117</ele>
        <time>2021-10-12T19:59:21.429Z</time>
      </trkpt>
      <trkpt lat="44.13394" lon="6.33835">
        <ele>924.4020535032</ele>
        <time>2021-10-12T19:59:25.454Z</time>
      </trkpt>
      <trkpt lat="44.13398" lon="6.33832">
        <ele>925.01097007248</ele>
        <time>2021-10-12T19:59:29.480Z</time>
      </trkpt>
      <trkpt lat="44.13401" lon="6.33828">
        <ele>925.6442248372</ele>
        <time>2021-10-12T19:59:33.508Z</time>
      </trkpt>
      <trkpt lat="44.13406" lon="6.3382">
        <ele>926.31017310868</ele>
        <time>2021-10-12T19:59:37.538Z</time>
      </trkpt>
      <trkpt lat="44.13411" lon="6.33814">
        <ele>926.93651524412</ele>
        <time>2021-10-12T19:59:41.570Z</time>
      </trkpt>
      <trkpt lat="44.13414" lon="6.33807">
        <ele>927.58021172506</ele>
        <time>2021-10-12T19:59:45.604Z</time>
      </trkpt>
      <trkpt lat="44.13417" lon="6.33802">
        <ele>928.20795291394</ele>
        <time>2021-10-12T19:59:49.640Z</time>
      </trkpt>
      <trkpt lat="44.1342" lon="6.33798">
        <ele>928.80793678537</ele>
        <time>2021-10-12T19:59:53.677Z</time>
      </trkpt>
      <trkpt lat="44.13421" lon="6.33796">
        <ele>929.40917035238</ele>
        <time>2021-10-12T19:59:57.715Z</time>
      </trkpt>
      <trkpt lat="44.13424" lon="6.33788">
        <ele>930.02129045076</ele>
        <time>2021-10-12T20:00:01.755Z</time>
      </trkpt>
      <trkpt lat="44.13426" lon="6.33783">
        <ele>930.6689675236</ele>
        <time>2021-10-12T20:00:05.796Z</time>
      </trkpt>
      <trkpt lat="44.13427" lon="6.33775">
        <ele>931.34504066702</ele>
        <time>2021-10-12T20:00:09.839Z</time>
      </trkpt>
      <trkpt lat="44.13428" lon="6.33766">
        <ele>932.02191603324</ele>
        <time>2021-10-12T20:00:13.884Z</time>
      </trkpt>
      <trkpt lat="44.13429" lon="6.33763">
        <ele>932.66423767876</ele>
        <time>2021-10-12T20:00:17.930Z</time>
      </trkpt>
      <trkpt lat="44.13429" lon="6.33758">
        <ele>933.33467115181</ele>
        <time>2021-10-12T20:00:21.978Z</time>
      </trkpt>
      <trkpt lat="44.13426" lon="6.33746">
        <ele>934.07862950056</ele>
        <time>2021-10-12T20:00:26.028Z</time>
      </trkpt>
      <trkpt lat="44.13426" lon="6.33743">
        <ele>934.71973713981</ele>
        <time>2021-10-12T20:00:30.079Z</time>
      </trkpt>
      <trkpt lat="44.13425" lon="6.33725">
        <ele>935.44307521918</ele>
        <time>2021-10-12T20:00:34.135Z</time>
      </trkpt>
      <trkpt lat="44.13424" lon="6.33718">
        <ele>936.1100791107</ele>
        <time>2021-10-12T20:00:38.192Z</time>
      </trkpt>
      <trkpt lat="44.13422" lon="6.33697">
        <ele>936.72945879897</ele>
        <time>2021-10-12T20:00:42.254Z</time>
      </trkpt>
      <trkpt lat="44.1342" lon="6.33692">
        <ele>937.36279486899</ele>
        <time>2021-10-12T20:00:46.318Z</time>
      </trkpt>
      <trkpt lat="44.13419" lon="6.33692">
        <ele>937.99636821683</ele>
        <time>2021-10-12T20:00:50.382Z</time>
      </trkpt>
      <trkpt lat="44.13419" lon="6.33692">
        <ele>938.6316641454</ele>
        <time>2021-10-12T20:00:54.446Z</time>
      </trkpt>
      <trkpt lat="44.13415" lon="6.33691">
        <ele>939.28521042855</ele>
        <time>2021-10-12T20:00:58.511Z</time>
      </trkpt>
      <trkpt lat="44.13411" lon="6.3369">
        <ele>939.9438208181</ele>
        <time>2021-10-12T20:01:02.578Z</time>
      </trkpt>
      <trkpt lat="44.13403" lon="6.33689">
        <ele>940.61925675126</ele>
        <time>2021-10-12T20:01:06.647Z</time>
      </trkpt>
      <trkpt lat="44.13395" lon="6.3369">
        <ele>941.31216891686</ele>
        <time>2021-10-12T20:01:10.719Z</time>
      </trkpt>
      <trkpt lat="44.13391" lon="6.33689">
        <ele>942.00048690402</ele>
        <time>2021-10-12T20:01:14.792Z</time>
      </trkpt>
      <trkpt lat="44.13381" lon="6.33689">
        <ele>942.72352795722</ele>
        <time>2021-10-12T20:01:18.869Z</time>
      </trkpt>
      <trkpt lat="44.13376" lon="6.3369">
        <ele>943.44046271118</ele>
        <time>2021-10-12T20:01:22.947Z</time>
      </trkpt>
      <trkpt lat="44.13372" lon="6.33689">
        <ele>944.16938483088</ele>
        <time>2021-10-12T20:01:27.027Z</time>
      </trkpt>
      <trkpt lat="44.13364" lon="6.33688">
        <ele>945.66679650471</ele>
        <time>2021-10-12T20:01:31.109Z</time>
      </trkpt>
      <trkpt lat="44.1336" lon="6.33688">
        <ele>946.44281425551</ele>
        <time>2021-10-12T20:01:35.193Z</time>
      </trkpt>
      <trkpt lat="44.13347" lon="6.33689">
        <ele>947.28303065109</ele>
        <time>2021-10-12T20:01:39.281Z</time>
      </trkpt>
      <trkpt lat="44.13345" lon="6.33689">
        <ele>948.0977171474</ele>
        <time>2021-10-12T20:01:43.370Z</time>
      </trkpt>
      <trkpt lat="44.13334" lon="6.33687">
        <ele>948.97243262488</ele>
        <time>2021-10-12T20:01:47.462Z</time>
      </trkpt>
      <trkpt lat="44.13326" lon="6.33686">
        <ele>949.85960901788</ele>
        <time>2021-10-12T20:01:51.557Z</time>
      </trkpt>
      <trkpt lat="44.13313" lon="6.33684">
        <ele>950.78654725447</ele>
        <time>2021-10-12T20:01:55.657Z</time>
      </trkpt>
      <trkpt lat="44.13307" lon="6.33683">
        <ele>951.69298923884</ele>
        <time>2021-10-12T20:01:59.759Z</time>
      </trkpt>
      <trkpt lat="44.13298" lon="6.33682">
        <ele>952.62198069715</ele>
        <time>2021-10-12T20:02:03.864Z</time>
      </trkpt>
      <trkpt lat="44.13285" lon="6.33684">
        <ele>953.55662833535</ele>
        <time>2021-10-12T20:02:07.973Z</time>
      </trkpt>
      <trkpt lat="44.13279" lon="6.33685">
        <ele>954.46235304956</ele>
        <time>2021-10-12T20:02:12.084Z</time>
      </trkpt>
      <trkpt lat="44.13263" lon="6.3369">
        <ele>955.42212257647</ele>
        <time>2021-10-12T20:02:16.200Z</time>
      </trkpt>
      <trkpt lat="44.13261" lon="6.33691">
        <ele>956.34272804141</ele>
        <time>2021-10-12T20:02:20.317Z</time>
      </trkpt>
      <trkpt lat="44.13248" lon="6.33693">
        <ele>957.33012474812</ele>
        <time>2021-10-12T20:02:24.438Z</time>
      </trkpt>
      <trkpt lat="44.13242" lon="6.33695">
        <ele>958.28010730218</ele>
        <time>2021-10-12T20:02:28.562Z</time>
      </trkpt>
      <trkpt lat="44.13237" lon="6.33696">
        <ele>959.21241719857</ele>
        <time>2021-10-12T20:02:32.687Z</time>
      </trkpt>
      <trkpt lat="44.13227" lon="6.33699">
        <ele>960.17448549595</ele>
        <time>2021-10-12T20:02:36.816Z</time>
      </trkpt>
      <trkpt lat="44.1322" lon="6.33702">
        <ele>961.11803752546</ele>
        <time>2021-10-12T20:02:40.947Z</time>
      </trkpt>
      <trkpt lat="44.13218" lon="6.33702">
        <ele>962.03696176263</ele>
        <time>2021-10-12T20:02:45.079Z</time>
      </trkpt>
      <trkpt lat="44.13207" lon="6.33701">
        <ele>962.97888954201</ele>
        <time>2021-10-12T20:02:49.214Z</time>
      </trkpt>
      <trkpt lat="44.13203" lon="6.337">
        <ele>963.89195256271</ele>
        <time>2021-10-12T20:02:53.351Z</time>
      </trkpt>
      <trkpt lat="44.13192" lon="6.33696">
        <ele>964.81727054482</ele>
        <time>2021-10-12T20:02:57.492Z</time>
      </trkpt>
      <trkpt lat="44.13185" lon="6.33693">
        <ele>965.71753568764</ele>
        <time>2021-10-12T20:03:01.635Z</time>
      </trkpt>
      <trkpt lat="44.13166" lon="6.33681">
        <ele>966.65629068496</ele>
        <time>2021-10-12T20:03:05.785Z</time>
      </trkpt>
      <trkpt lat="44.13151" lon="6.33667">
        <ele>967.57088778909</ele>
        <time>2021-10-12T20:03:09.941Z</time>
      </trkpt>
      <trkpt lat="44.13147" lon="6.33664">
        <ele>968.4282951845</ele>
        <time>2021-10-12T20:03:14.098Z</time>
      </trkpt>
      <trkpt lat="44.13142" lon="6.33659">
        <ele>969.27661765088</ele>
        <time>2021-10-12T20:03:18.258Z</time>
      </trkpt>
      <trkpt lat="44.13133" lon="6.3365">
        <ele>970.12407963952</ele>
        <time>2021-10-12T20:03:22.421Z</time>
      </trkpt>
      <trkpt lat="44.13121" lon="6.33645">
        <ele>970.93175056496</ele>
        <time>2021-10-12T20:03:26.588Z</time>
      </trkpt>
      <trkpt lat="44.13116" lon="6.33645">
        <ele>971.69524329258</ele>
        <time>2021-10-12T20:03:30.757Z</time>
      </trkpt>
      <trkpt lat="44.13098" lon="6.33649">
        <ele>972.49304482621</ele>
        <time>2021-10-12T20:03:34.932Z</time>
      </trkpt>
      <trkpt lat="44.13078" lon="6.33651">
        <ele>973.21922422615</ele>
        <time>2021-10-12T20:03:39.114Z</time>
      </trkpt>
      <trkpt lat="44.13058" lon="6.33635">
        <ele>973.89251510401</ele>
        <time>2021-10-12T20:03:43.303Z</time>
      </trkpt>
      <trkpt lat="44.13054" lon="6.3363">
        <ele>974.55766284457</ele>
        <time>2021-10-12T20:03:47.494Z</time>
      </trkpt>
      <trkpt lat="44.13046" lon="6.33624">
        <ele>975.20693529689</ele>
        <time>2021-10-12T20:03:51.688Z</time>
      </trkpt>
      <trkpt lat="44.13044" lon="6.33622">
        <ele>975.80113357512</ele>
        <time>2021-10-12T20:03:55.883Z</time>
      </trkpt>
      <trkpt lat="44.13041" lon="6.33618">
        <ele>976.37979896075</ele>
        <time>2021-10-12T20:04:00.080Z</time>
      </trkpt>
      <trkpt lat="44.13033" lon="6.33613">
        <ele>976.94746937355</ele>
        <time>2021-10-12T20:04:04.279Z</time>
      </trkpt>
      <trkpt lat="44.13029" lon="6.33611">
        <ele>977.45142496257</ele>
        <time>2021-10-12T20:04:08.480Z</time>
      </trkpt>
      <trkpt lat="44.13023" lon="6.33609">
        <ele>977.92389614333</ele>
        <time>2021-10-12T20:04:12.683Z</time>
      </trkpt>
      <trkpt lat="44.13019" lon="6.33607">
        <ele>978.34892991969</ele>
        <time>2021-10-12T20:04:16.887Z</time>
      </trkpt>
      <trkpt lat="44.13016" lon="6.33608">
        <ele>978.71741671011</ele>
        <time>2021-10-12T20:04:21.092Z</time>
      </trkpt>
      <trkpt lat="44.13007" lon="6.33607">
        <ele>979.04418775406</ele>
        <time>2021-10-12T20:04:25.300Z</time>
      </trkpt>
      <trkpt lat="44.12998" lon="6.33606">
        <ele>979.32541121616</ele>
        <time>2021-10-12T20:04:29.511Z</time>
      </trkpt>
      <trkpt lat="44.12981" lon="6.33604">
        <ele>979.46387925958</ele>
        <time>2021-10-12T20:04:33.728Z</time>
      </trkpt>
      <trkpt lat="44.1297" lon="6.33608">
        <ele>979.58427844654</ele>
        <time>2021-10-12T20:04:37.949Z</time>
      </trkpt>
      <trkpt lat="44.12969" lon="6.33611">
        <ele>979.72408463815</ele>
        <time>2021-10-12T20:04:42.170Z</time>
      </trkpt>
      <trkpt lat="44.12964" lon="6.33618">
        <ele>979.86094225802</ele>
        <time>2021-10-12T20:04:46.394Z</time>
      </trkpt>
      <trkpt lat="44.12959" lon="6.33626">
        <ele>979.97512802824</ele>
        <time>2021-10-12T20:04:50.620Z</time>
      </trkpt>
      <trkpt lat="44.12956" lon="6.33632">
        <ele>980.02281375277</ele>
        <time>2021-10-12T20:04:54.848Z</time>
      </trkpt>
      <trkpt lat="44.12951" lon="6.33637">
        <ele>979.99461046895</ele>
        <time>2021-10-12T20:04:59.078Z</time>
      </trkpt>
      <trkpt lat="44.12942" lon="6.33645">
        <ele>979.93467900689</ele>
        <time>2021-10-12T20:05:03.312Z</time>
      </trkpt>
      <trkpt lat="44.12937" lon="6.33653">
        <ele>979.87206212482</ele>
        <time>2021-10-12T20:05:07.548Z</time>
      </trkpt>
      <trkpt lat="44.12929" lon="6.33655">
        <ele>979.73632207595</ele>
        <time>2021-10-12T20:05:11.787Z</time>
      </trkpt>
      <trkpt lat="44.12926" lon="6.33653">
        <ele>979.5131794738</ele>
        <time>2021-10-12T20:05:16.027Z</time>
      </trkpt>
      <trkpt lat="44.12916" lon="6.33641">
        <ele>979.17480222296</ele>
        <time>2021-10-12T20:05:20.271Z</time>
      </trkpt>
      <trkpt lat="44.12905" lon="6.33632">
        <ele>978.81486700991</ele>
        <time>2021-10-12T20:05:24.520Z</time>
      </trkpt>
      <trkpt lat="44.12901" lon="6.3363">
        <ele>978.46757918733</ele>
        <time>2021-10-12T20:05:28.770Z</time>
      </trkpt>
      <trkpt lat="44.12897" lon="6.3363">
        <ele>978.09274439335</ele>
        <time>2021-10-12T20:05:33.021Z</time>
      </trkpt>
      <trkpt lat="44.12883" lon="6.33637">
        <ele>977.72467766325</ele>
        <time>2021-10-12T20:05:37.278Z</time>
      </trkpt>
      <trkpt lat="44.12865" lon="6.33652">
        <ele>977.2993303683</ele>
        <time>2021-10-12T20:05:41.541Z</time>
      </trkpt>
      <trkpt lat="44.1286" lon="6.33657">
        <ele>976.86999259615</ele>
        <time>2021-10-12T20:05:45.807Z</time>
      </trkpt>
      <trkpt lat="44.12855" lon="6.33663">
        <ele>976.40216629376</ele>
        <time>2021-10-12T20:05:50.075Z</time>
      </trkpt>
      <trkpt lat="44.12849" lon="6.33669">
        <ele>975.86033585538</ele>
        <time>2021-10-12T20:05:54.345Z</time>
      </trkpt>
      <trkpt lat="44.12843" lon="6.33674">
        <ele>975.23804697731</ele>
        <time>2021-10-12T20:05:58.617Z</time>
      </trkpt>
      <trkpt lat="44.12836" lon="6.33678">
        <ele>974.56803952774</ele>
        <time>2021-10-12T20:06:02.892Z</time>
      </trkpt>
      <trkpt lat="44.12829" lon="6.33682">
        <ele>973.86193140852</ele>
        <time>2021-10-12T20:06:07.169Z</time>
      </trkpt>
      <trkpt lat="44.12823" lon="6.33686">
        <ele>973.14637642957</ele>
        <time>2021-10-12T20:06:11.449Z</time>
      </trkpt>
      <trkpt lat="44.12818" lon="6.33691">
        <ele>972.42427161269</ele>
        <time>2021-10-12T20:06:15.731Z</time>
      </trkpt>
      <trkpt lat="44.12812" lon="6.33696">
        <ele>971.66962029208</ele>
        <time>2021-10-12T20:06:20.015Z</time>
      </trkpt>
      <trkpt lat="44.12805" lon="6.337">
        <ele>970.88147350229</ele>
        <time>2021-10-12T20:06:24.302Z</time>
      </trkpt>
      <trkpt lat="44.1279" lon="6.33708">
        <ele>970.04405066649</ele>
        <time>2021-10-12T20:06:28.594Z</time>
      </trkpt>
      <trkpt lat="44.12775" lon="6.33717">
        <ele>969.27541445396</ele>
        <time>2021-10-12T20:06:32.891Z</time>
      </trkpt>
      <trkpt lat="44.12766" lon="6.33719">
        <ele>968.46945333183</ele>
        <time>2021-10-12T20:06:37.191Z</time>
      </trkpt>
      <trkpt lat="44.12758" lon="6.33721">
        <ele>967.64316137551</ele>
        <time>2021-10-12T20:06:41.494Z</time>
      </trkpt>
      <trkpt lat="44.1275" lon="6.33722">
        <ele>966.81735492126</ele>
        <time>2021-10-12T20:06:45.800Z</time>
      </trkpt>
      <trkpt lat="44.12743" lon="6.33724">
        <ele>966.00692566138</ele>
        <time>2021-10-12T20:06:50.108Z</time>
      </trkpt>
      <trkpt lat="44.12736" lon="6.33727">
        <ele>965.23669140198</ele>
        <time>2021-10-12T20:06:54.419Z</time>
      </trkpt>
      <trkpt lat="44.12723" lon="6.33733">
        <ele>964.48705779761</ele>
        <time>2021-10-12T20:06:58.734Z</time>
      </trkpt>
      <trkpt lat="44.12712" lon="6.3374">
        <ele>963.70597339403</ele>
        <time>2021-10-12T20:07:03.053Z</time>
      </trkpt>
      <trkpt lat="44.12708" lon="6.33743">
        <ele>963.02683297967</ele>
        <time>2021-10-12T20:07:07.374Z</time>
      </trkpt>
      <trkpt lat="44.12705" lon="6.33745">
        <ele>962.37096507983</ele>
        <time>2021-10-12T20:07:11.696Z</time>
      </trkpt>
      <trkpt lat="44.12702" lon="6.33744">
        <ele>961.73324019386</ele>
        <time>2021-10-12T20:07:16.019Z</time>
      </trkpt>
      <trkpt lat="44.12701" lon="6.33742">
        <ele>961.12038827887</ele>
        <time>2021-10-12T20:07:20.343Z</time>
      </trkpt>
      <trkpt lat="44.127" lon="6.33735">
        <ele>960.52207521391</ele>
        <time>2021-10-12T20:07:24.668Z</time>
      </trkpt>
      <trkpt lat="44.12701" lon="6.33717">
        <ele>959.91029814684</ele>
        <time>2021-10-12T20:07:28.998Z</time>
      </trkpt>
      <trkpt lat="44.127" lon="6.33713">
        <ele>959.40812603443</ele>
        <time>2021-10-12T20:07:33.329Z</time>
      </trkpt>
      <trkpt lat="44.12701" lon="6.33709">
        <ele>958.94787405315</ele>
        <time>2021-10-12T20:07:37.660Z</time>
      </trkpt>
      <trkpt lat="44.12699" lon="6.337">
        <ele>958.5035455442</ele>
        <time>2021-10-12T20:07:41.994Z</time>
      </trkpt>
      <trkpt lat="44.12694" lon="6.33688">
        <ele>958.08474647896</ele>
        <time>2021-10-12T20:07:46.331Z</time>
      </trkpt>
      <trkpt lat="44.12692" lon="6.33684">
        <ele>957.75260051516</ele>
        <time>2021-10-12T20:07:50.669Z</time>
      </trkpt>
      <trkpt lat="44.12683" lon="6.33671">
        <ele>957.44489297204</ele>
        <time>2021-10-12T20:07:55.011Z</time>
      </trkpt>
      <trkpt lat="44.12678" lon="6.33667">
        <ele>957.2622258901</ele>
        <time>2021-10-12T20:07:59.355Z</time>
      </trkpt>
      <trkpt lat="44.12672" lon="6.33662">
        <ele>957.13072607412</ele>
        <time>2021-10-12T20:08:03.702Z</time>
      </trkpt>
      <trkpt lat="44.12667" lon="6.33658">
        <ele>957.03572906903</ele>
        <time>2021-10-12T20:08:08.051Z</time>
      </trkpt>
      <trkpt lat="44.12663" lon="6.33656">
        <ele>956.99432696912</ele>
        <time>2021-10-12T20:08:12.401Z</time>
      </trkpt>
      <trkpt lat="44.12659" lon="6.33653">
        <ele>956.9871730771</ele>
        <time>2021-10-12T20:08:16.753Z</time>
      </trkpt>
      <trkpt lat="44.12656" lon="6.33648">
        <ele>956.99609388437</ele>
        <time>2021-10-12T20:08:21.106Z</time>
      </trkpt>
      <trkpt lat="44.1265" lon="6.33636">
        <ele>957.03130168265</ele>
        <time>2021-10-12T20:08:25.463Z</time>
      </trkpt>
      <trkpt lat="44.12648" lon="6.33634">
        <ele>957.12576603383</ele>
        <time>2021-10-12T20:08:29.821Z</time>
      </trkpt>
      <trkpt lat="44.12645" lon="6.33632">
        <ele>957.25152348961</ele>
        <time>2021-10-12T20:08:34.180Z</time>
      </trkpt>
      <trkpt lat="44.12638" lon="6.33623">
        <ele>957.39446946822</ele>
        <time>2021-10-12T20:08:38.542Z</time>
      </trkpt>
      <trkpt lat="44.12636" lon="6.33621">
        <ele>957.59343284462</ele>
        <time>2021-10-12T20:08:42.905Z</time>
      </trkpt>
      <trkpt lat="44.1262" lon="6.33606">
        <ele>957.80272089949</ele>
        <time>2021-10-12T20:08:47.274Z</time>
      </trkpt>
      <trkpt lat="44.12607" lon="6.33597">
        <ele>958.09791144345</ele>
        <time>2021-10-12T20:08:51.648Z</time>
      </trkpt>
      <trkpt lat="44.12596" lon="6.33591">
        <ele>958.42358137159</ele>
        <time>2021-10-12T20:08:56.026Z</time>
      </trkpt>
      <trkpt lat="44.12583" lon="6.33585">
        <ele>958.77889746519</ele>
        <time>2021-10-12T20:09:00.408Z</time>
      </trkpt>
      <trkpt lat="44.12574" lon="6.33581">
        <ele>959.14719047718</ele>
        <time>2021-10-12T20:09:04.794Z</time>
      </trkpt>
      <trkpt lat="44.12554" lon="6.33573">
        <ele>959.54712258355</ele>
        <time>2021-10-12T20:09:09.186Z</time>
      </trkpt>
      <trkpt lat="44.1255" lon="6.33572">
        <ele>959.91821654821</ele>
        <time>2021-10-12T20:09:13.580Z</time>
      </trkpt>
      <trkpt lat="44.12542" lon="6.33572">
        <ele>960.31537603511</ele>
        <time>2021-10-12T20:09:17.976Z</time>
      </trkpt>
      <trkpt lat="44.1254" lon="6.33573">
        <ele>960.69058144411</ele>
        <time>2021-10-12T20:09:22.373Z</time>
      </trkpt>
      <trkpt lat="44.12534" lon="6.33575">
        <ele>961.07487362529</ele>
        <time>2021-10-12T20:09:26.772Z</time>
      </trkpt>
      <trkpt lat="44.12532" lon="6.33573">
        <ele>961.43243340368</ele>
        <time>2021-10-12T20:09:31.172Z</time>
      </trkpt>
      <trkpt lat="44.12529" lon="6.3357">
        <ele>961.77581801239</ele>
        <time>2021-10-12T20:09:35.573Z</time>
      </trkpt>
      <trkpt lat="44.12523" lon="6.33563">
        <ele>962.09442723134</ele>
        <time>2021-10-12T20:09:39.977Z</time>
      </trkpt>
      <trkpt lat="44.12513" lon="6.33553">
        <ele>962.40117128951</ele>
        <time>2021-10-12T20:09:44.385Z</time>
      </trkpt>
      <trkpt lat="44.12511" lon="6.33551">
        <ele>962.7318478789</ele>
        <time>2021-10-12T20:09:48.794Z</time>
      </trkpt>
      <trkpt lat="44.12498" lon="6.33538">
        <ele>963.0585110036</ele>
        <time>2021-10-12T20:09:53.208Z</time>
      </trkpt>
      <trkpt lat="44.1249" lon="6.33529">
        <ele>963.36962256053</ele>
        <time>2021-10-12T20:09:57.626Z</time>
      </trkpt>
      <trkpt lat="44.12483" lon="6.3352">
        <ele>963.67767985188</ele>
        <time>2021-10-12T20:10:02.047Z</time>
      </trkpt>
      <trkpt lat="44.12473" lon="6.33507">
        <ele>963.99593368918</ele>
        <time>2021-10-12T20:10:06.472Z</time>
      </trkpt>
      <trkpt lat="44.12471" lon="6.33503">
        <ele>964.27507333805</ele>
        <time>2021-10-12T20:10:10.899Z</time>
      </trkpt>
      <trkpt lat="44.12464" lon="6.33483">
        <ele>964.56832880044</ele>
        <time>2021-10-12T20:10:15.331Z</time>
      </trkpt>
      <trkpt lat="44.12463" lon="6.3348">
        <ele>964.80994041267</ele>
        <time>2021-10-12T20:10:19.764Z</time>
      </trkpt>
      <trkpt lat="44.12459" lon="6.33468">
        <ele>965.04782297088</ele>
        <time>2021-10-12T20:10:24.200Z</time>
      </trkpt>
      <trkpt lat="44.12455" lon="6.33457">
        <ele>965.2581850241</ele>
        <time>2021-10-12T20:10:28.639Z</time>
      </trkpt>
      <trkpt lat="44.12454" lon="6.33453">
        <ele>965.43641824259</ele>
        <time>2021-10-12T20:10:33.079Z</time>
      </trkpt>
      <trkpt lat="44.12451" lon="6.33444">
        <ele>965.60251084594</ele>
        <time>2021-10-12T20:10:37.521Z</time>
      </trkpt>
      <trkpt lat="44.1245" lon="6.33443">
        <ele>965.72678376164</ele>
        <time>2021-10-12T20:10:41.964Z</time>
      </trkpt>
      <trkpt lat="44.12446" lon="6.33437">
        <ele>965.82017257105</ele>
        <time>2021-10-12T20:10:46.409Z</time>
      </trkpt>
      <trkpt lat="44.12444" lon="6.33435">
        <ele>965.88438413649</ele>
        <time>2021-10-12T20:10:50.854Z</time>
      </trkpt>
      <trkpt lat="44.12443" lon="6.33435">
        <ele>965.9282494008</ele>
        <time>2021-10-12T20:10:55.300Z</time>
      </trkpt>
      <trkpt lat="44.12438" lon="6.33439">
        <ele>965.94766725078</ele>
        <time>2021-10-12T20:10:59.748Z</time>
      </trkpt>
      <trkpt lat="44.12436" lon="6.33438">
        <ele>965.94110754477</ele>
        <time>2021-10-12T20:11:04.196Z</time>
      </trkpt>
      <trkpt lat="44.12424" lon="6.3343">
        <ele>965.85590844266</ele>
        <time>2021-10-12T20:11:08.649Z</time>
      </trkpt>
      <trkpt lat="44.12411" lon="6.33423">
        <ele>965.77304882523</ele>
        <time>2021-10-12T20:11:13.106Z</time>
      </trkpt>
      <trkpt lat="44.124" lon="6.33419">
        <ele>965.67575839682</ele>
        <time>2021-10-12T20:11:17.567Z</time>
      </trkpt>
      <trkpt lat="44.12395" lon="6.33416">
        <ele>965.56504419851</ele>
        <time>2021-10-12T20:11:22.030Z</time>
      </trkpt>
      <trkpt lat="44.12382" lon="6.33406">
        <ele>965.3640113893</ele>
        <time>2021-10-12T20:11:26.498Z</time>
      </trkpt>
      <trkpt lat="44.12369" lon="6.334">
        <ele>965.15941773451</ele>
        <time>2021-10-12T20:11:30.970Z</time>
      </trkpt>
      <trkpt lat="44.12359" lon="6.33403">
        <ele>965.04133344367</ele>
        <time>2021-10-12T20:11:35.446Z</time>
      </trkpt>
      <trkpt lat="44.12352" lon="6.33406">
        <ele>964.90166068722</ele>
        <time>2021-10-12T20:11:39.924Z</time>
      </trkpt>
      <trkpt lat="44.1234" lon="6.33409">
        <ele>964.77927641647</ele>
        <time>2021-10-12T20:11:44.407Z</time>
      </trkpt>
      <trkpt lat="44.12333" lon="6.33413">
        <ele>964.63521870314</ele>
        <time>2021-10-12T20:11:48.892Z</time>
      </trkpt>
      <trkpt lat="44.12318" lon="6.33421">
        <ele>964.49646556686</ele>
        <time>2021-10-12T20:11:53.382Z</time>
      </trkpt>
      <trkpt lat="44.123" lon="6.33422">
        <ele>964.31769880131</ele>
        <time>2021-10-12T20:11:57.878Z</time>
      </trkpt>
      <trkpt lat="44.12275" lon="6.33425">
        <ele>964.03609430744</ele>
        <time>2021-10-12T20:12:02.383Z</time>
      </trkpt>
      <trkpt lat="44.12269" lon="6.33427">
        <ele>963.77825770849</ele>
        <time>2021-10-12T20:12:06.890Z</time>
      </trkpt>
      <trkpt lat="44.12262" lon="6.33429">
        <ele>963.52078421651</ele>
        <time>2021-10-12T20:12:11.399Z</time>
      </trkpt>
      <trkpt lat="44.12251" lon="6.33427">
        <ele>963.20864643859</ele>
        <time>2021-10-12T20:12:15.912Z</time>
      </trkpt>
      <trkpt lat="44.12246" lon="6.33426">
        <ele>962.87490953469</ele>
        <time>2021-10-12T20:12:20.426Z</time>
      </trkpt>
      <trkpt lat="44.12232" lon="6.3342">
        <ele>962.4777932882</ele>
        <time>2021-10-12T20:12:24.945Z</time>
      </trkpt>
      <trkpt lat="44.1221" lon="6.33411">
        <ele>962.02143380017</ele>
        <time>2021-10-12T20:12:29.472Z</time>
      </trkpt>
      <trkpt lat="44.12205" lon="6.33409">
        <ele>961.64095581292</ele>
        <time>2021-10-12T20:12:34.001Z</time>
      </trkpt>
      <trkpt lat="44.12195" lon="6.33406">
        <ele>961.24617413112</ele>
        <time>2021-10-12T20:12:38.533Z</time>
      </trkpt>
      <trkpt lat="44.12186" lon="6.33404">
        <ele>960.84742508572</ele>
        <time>2021-10-12T20:12:43.068Z</time>
      </trkpt>
      <trkpt lat="44.12181" lon="6.33403">
        <ele>960.43451264372</ele>
        <time>2021-10-12T20:12:47.605Z</time>
      </trkpt>
      <trkpt lat="44.1217" lon="6.334">
        <ele>959.9924314565</ele>
        <time>2021-10-12T20:12:52.146Z</time>
      </trkpt>
      <trkpt lat="44.12161" lon="6.33397">
        <ele>959.52220410904</ele>
        <time>2021-10-12T20:12:56.690Z</time>
      </trkpt>
      <trkpt lat="44.12153" lon="6.33395">
        <ele>959.04072169217</ele>
        <time>2021-10-12T20:13:01.237Z</time>
      </trkpt>
      <trkpt lat="44.12146" lon="6.33391">
        <ele>958.54144185774</ele>
        <time>2021-10-12T20:13:05.786Z</time>
      </trkpt>
      <trkpt lat="44.12145" lon="6.33389">
        <ele>958.05196219095</ele>
        <time>2021-10-12T20:13:10.336Z</time>
      </trkpt>
      <trkpt lat="44.12145" lon="6.33386">
        <ele>957.55401037151</ele>
        <time>2021-10-12T20:13:14.886Z</time>
      </trkpt>
      <trkpt lat="44.12148" lon="6.33379">
        <ele>957.02156609518</ele>
        <time>2021-10-12T20:13:19.438Z</time>
      </trkpt>
      <trkpt lat="44.12151" lon="6.33376">
        <ele>956.51075658595</ele>
        <time>2021-10-12T20:13:23.991Z</time>
      </trkpt>
      <trkpt lat="44.12158" lon="6.33372">
        <ele>955.99154439238</ele>
        <time>2021-10-12T20:13:28.547Z</time>
      </trkpt>
      <trkpt lat="44.12162" lon="6.33371">
        <ele>955.46556654409</ele>
        <time>2021-10-12T20:13:33.104Z</time>
      </trkpt>
      <trkpt lat="44.12166" lon="6.3337">
        <ele>954.93589045582</ele>
        <time>2021-10-12T20:13:37.663Z</time>
      </trkpt>
      <trkpt lat="44.12184" lon="6.3337">
        <ele>954.38437109425</ele>
        <time>2021-10-12T20:13:42.228Z</time>
      </trkpt>
      <trkpt lat="44.12189" lon="6.33371">
        <ele>953.85003975101</ele>
        <time>2021-10-12T20:13:46.795Z</time>
      </trkpt>
      <trkpt lat="44.12204" lon="6.33374">
        <ele>953.28522455561</ele>
        <time>2021-10-12T20:13:51.367Z</time>
      </trkpt>
      <trkpt lat="44.12229" lon="6.3338">
        <ele>952.71553377231</ele>
        <time>2021-10-12T20:13:55.947Z</time>
      </trkpt>
      <trkpt lat="44.12239" lon="6.33381">
        <ele>952.16214849492</ele>
        <time>2021-10-12T20:14:00.530Z</time>
      </trkpt>
      <trkpt lat="44.12249" lon="6.3338">
        <ele>951.61869067864</ele>
        <time>2021-10-12T20:14:05.117Z</time>
      </trkpt>
      <trkpt lat="44.12254" lon="6.33378">
        <ele>951.05857610956</ele>
        <time>2021-10-12T20:14:09.706Z</time>
      </trkpt>
      <trkpt lat="44.12259" lon="6.33375">
        <ele>950.48601132499</ele>
        <time>2021-10-12T20:14:14.296Z</time>
      </trkpt>
      <trkpt lat="44.12265" lon="6.33372">
        <ele>949.90392030077</ele>
        <time>2021-10-12T20:14:18.888Z</time>
      </trkpt>
      <trkpt lat="44.12282" lon="6.33365">
        <ele>949.31801262068</ele>
        <time>2021-10-12T20:14:23.486Z</time>
      </trkpt>
      <trkpt lat="44.12301" lon="6.33359">
        <ele>948.69783198129</ele>
        <time>2021-10-12T20:14:28.091Z</time>
      </trkpt>
      <trkpt lat="44.12321" lon="6.33351">
        <ele>948.09584622888</ele>
        <time>2021-10-12T20:14:32.703Z</time>
      </trkpt>
      <trkpt lat="44.1234" lon="6.33343">
        <ele>947.42124477522</ele>
        <time>2021-10-12T20:14:37.321Z</time>
      </trkpt>
      <trkpt lat="44.12354" lon="6.33343">
        <ele>946.9002472133</ele>
        <time>2021-10-12T20:14:41.944Z</time>
      </trkpt>
      <trkpt lat="44.12361" lon="6.33344">
        <ele>946.38625913853</ele>
        <time>2021-10-12T20:14:46.569Z</time>
      </trkpt>
      <trkpt lat="44.12367" lon="6.33345">
        <ele>945.87267331692</ele>
        <time>2021-10-12T20:14:51.196Z</time>
      </trkpt>
      <trkpt lat="44.12374" lon="6.33345">
        <ele>945.3492878337</ele>
        <time>2021-10-12T20:14:55.825Z</time>
      </trkpt>
      <trkpt lat="44.1238" lon="6.33343">
        <ele>944.81576213317</ele>
        <time>2021-10-12T20:15:00.457Z</time>
      </trkpt>
      <trkpt lat="44.12385" lon="6.3334">
        <ele>944.29565677102</ele>
        <time>2021-10-12T20:15:05.091Z</time>
      </trkpt>
      <trkpt lat="44.12401" lon="6.33324">
        <ele>943.82459788586</ele>
        <time>2021-10-12T20:15:09.731Z</time>
      </trkpt>
      <trkpt lat="44.12407" lon="6.33309">
        <ele>943.22478921034</ele>
        <time>2021-10-12T20:15:14.375Z</time>
      </trkpt>
      <trkpt lat="44.12409" lon="6.33301">
        <ele>942.62851243825</ele>
        <time>2021-10-12T20:15:19.021Z</time>
      </trkpt>
      <trkpt lat="44.12411" lon="6.33292">
        <ele>942.01414411894</ele>
        <time>2021-10-12T20:15:23.669Z</time>
      </trkpt>
      <trkpt lat="44.12413" lon="6.33284">
        <ele>941.38341384892</ele>
        <time>2021-10-12T20:15:28.320Z</time>
      </trkpt>
      <trkpt lat="44.1242" lon="6.33249">
        <ele>940.61497812366</ele>
        <time>2021-10-12T20:15:32.979Z</time>
      </trkpt>
      <trkpt lat="44.12423" lon="6.33231">
        <ele>939.95165680704</ele>
        <time>2021-10-12T20:15:37.643Z</time>
      </trkpt>
      <trkpt lat="44.12424" lon="6.33222">
        <ele>939.27893712041</ele>
        <time>2021-10-12T20:15:42.309Z</time>
      </trkpt>
      <trkpt lat="44.12424" lon="6.33213">
        <ele>938.5992791846</ele>
        <time>2021-10-12T20:15:46.977Z</time>
      </trkpt>
      <trkpt lat="44.12424" lon="6.33194">
        <ele>937.84503240496</ele>
        <time>2021-10-12T20:15:51.649Z</time>
      </trkpt>
      <trkpt lat="44.12424" lon="6.33186">
        <ele>937.15194664787</ele>
        <time>2021-10-12T20:15:56.324Z</time>
      </trkpt>
      <trkpt lat="44.12429" lon="6.33171">
        <ele>936.46224348993</ele>
        <time>2021-10-12T20:16:01.003Z</time>
      </trkpt>
      <trkpt lat="44.12446" lon="6.33156">
        <ele>935.85734044755</ele>
        <time>2021-10-12T20:16:05.688Z</time>
      </trkpt>
      <trkpt lat="44.12452" lon="6.33152">
        <ele>935.21598904483</ele>
        <time>2021-10-12T20:16:10.376Z</time>
      </trkpt>
      <trkpt lat="44.12457" lon="6.33146">
        <ele>934.5711143218</ele>
        <time>2021-10-12T20:16:15.066Z</time>
      </trkpt>
      <trkpt lat="44.1246" lon="6.33132">
        <ele>933.83749971787</ele>
        <time>2021-10-12T20:16:19.759Z</time>
      </trkpt>
      <trkpt lat="44.1246" lon="6.33116">
        <ele>933.04746126221</ele>
        <time>2021-10-12T20:16:24.456Z</time>
      </trkpt>
      <trkpt lat="44.12463" lon="6.3311">
        <ele>932.34957975293</ele>
        <time>2021-10-12T20:16:29.155Z</time>
      </trkpt>
      <trkpt lat="44.12468" lon="6.33104">
        <ele>931.64951956276</ele>
        <time>2021-10-12T20:16:33.856Z</time>
      </trkpt>
      <trkpt lat="44.12473" lon="6.33098">
        <ele>930.95519019492</ele>
        <time>2021-10-12T20:16:38.559Z</time>
      </trkpt>
      <trkpt lat="44.12484" lon="6.33087">
        <ele>930.23260645105</ele>
        <time>2021-10-12T20:16:43.267Z</time>
      </trkpt>
      <trkpt lat="44.1249" lon="6.33082">
        <ele>929.51678704741</ele>
        <time>2021-10-12T20:16:47.977Z</time>
      </trkpt>
      <trkpt lat="44.12501" lon="6.33069">
        <ele>928.71040070135</ele>
        <time>2021-10-12T20:16:52.692Z</time>
      </trkpt>
      <trkpt lat="44.12513" lon="6.33056">
        <ele>927.86866990534</ele>
        <time>2021-10-12T20:16:57.412Z</time>
      </trkpt>
      <trkpt lat="44.12526" lon="6.33046">
        <ele>927.09973865653</ele>
        <time>2021-10-12T20:17:02.137Z</time>
      </trkpt>
      <trkpt lat="44.12541" lon="6.33047">
        <ele>926.45562591143</ele>
        <time>2021-10-12T20:17:06.867Z</time>
      </trkpt>
      <trkpt lat="44.12549" lon="6.33047">
        <ele>925.79582152455</ele>
        <time>2021-10-12T20:17:11.599Z</time>
      </trkpt>
      <trkpt lat="44.12555" lon="6.33043">
        <ele>925.12119981564</ele>
        <time>2021-10-12T20:17:16.334Z</time>
      </trkpt>
      <trkpt lat="44.12561" lon="6.33037">
        <ele>924.41712690091</ele>
        <time>2021-10-12T20:17:21.071Z</time>
      </trkpt>
      <trkpt lat="44.12579" lon="6.33018">
        <ele>923.66540767691</ele>
        <time>2021-10-12T20:17:25.816Z</time>
      </trkpt>
      <trkpt lat="44.12585" lon="6.33012">
        <ele>922.88679717634</ele>
        <time>2021-10-12T20:17:30.563Z</time>
      </trkpt>
      <trkpt lat="44.12604" lon="6.32993">
        <ele>922.05546798058</ele>
        <time>2021-10-12T20:17:35.318Z</time>
      </trkpt>
      <trkpt lat="44.1261" lon="6.32988">
        <ele>921.30364404398</ele>
        <time>2021-10-12T20:17:40.075Z</time>
      </trkpt>
      <trkpt lat="44.12619" lon="6.32983">
        <ele>920.54874976932</ele>
        <time>2021-10-12T20:17:44.836Z</time>
      </trkpt>
      <trkpt lat="44.12622" lon="6.32981">
        <ele>919.76788191261</ele>
        <time>2021-10-12T20:17:49.598Z</time>
      </trkpt>
      <trkpt lat="44.12623" lon="6.32979">
        <ele>918.96377434889</ele>
        <time>2021-10-12T20:17:54.360Z</time>
      </trkpt>
      <trkpt lat="44.1262" lon="6.3298">
        <ele>918.1403594509</ele>
        <time>2021-10-12T20:17:59.123Z</time>
      </trkpt>
      <trkpt lat="44.12608" lon="6.32989">
        <ele>917.30457777351</ele>
        <time>2021-10-12T20:18:03.891Z</time>
      </trkpt>
      <trkpt lat="44.12591" lon="6.32999">
        <ele>916.45554658098</ele>
        <time>2021-10-12T20:18:08.665Z</time>
      </trkpt>
      <trkpt lat="44.12576" lon="6.33002">
        <ele>915.55972648628</ele>
        <time>2021-10-12T20:18:13.444Z</time>
      </trkpt>
      <trkpt lat="44.12573" lon="6.33">
        <ele>914.64361764535</ele>
        <time>2021-10-12T20:18:18.224Z</time>
      </trkpt>
      <trkpt lat="44.12565" lon="6.32997">
        <ele>913.66948657772</ele>
        <time>2021-10-12T20:18:23.007Z</time>
      </trkpt>
      <trkpt lat="44.1256" lon="6.32994">
        <ele>912.69583297967</ele>
        <time>2021-10-12T20:18:27.791Z</time>
      </trkpt>
      <trkpt lat="44.1255" lon="6.32988">
        <ele>911.67869242151</ele>
        <time>2021-10-12T20:18:32.579Z</time>
      </trkpt>
      <trkpt lat="44.12545" lon="6.32978">
        <ele>910.65928951003</ele>
        <time>2021-10-12T20:18:37.370Z</time>
      </trkpt>
      <trkpt lat="44.12543" lon="6.32973">
        <ele>909.65902061469</ele>
        <time>2021-10-12T20:18:42.162Z</time>
      </trkpt>
      <trkpt lat="44.12539" lon="6.32964">
        <ele>908.62959659131</ele>
        <time>2021-10-12T20:18:46.957Z</time>
      </trkpt>
      <trkpt lat="44.12535" lon="6.32958">
        <ele>907.59878484041</ele>
        <time>2021-10-12T20:18:51.754Z</time>
      </trkpt>
      <trkpt lat="44.12522" lon="6.32937">
        <ele>906.46941047292</ele>
        <time>2021-10-12T20:18:56.557Z</time>
      </trkpt>
      <trkpt lat="44.12513" lon="6.32916">
        <ele>905.33661548528</ele>
        <time>2021-10-12T20:19:01.366Z</time>
      </trkpt>
      <trkpt lat="44.12501" lon="6.32901">
        <ele>904.23790770659</ele>
        <time>2021-10-12T20:19:06.181Z</time>
      </trkpt>
      <trkpt lat="44.12498" lon="6.32891">
        <ele>903.17928459284</ele>
        <time>2021-10-12T20:19:10.998Z</time>
      </trkpt>
      <trkpt lat="44.12499" lon="6.32888">
        <ele>902.16732978359</ele>
        <time>2021-10-12T20:19:15.816Z</time>
      </trkpt>
      <trkpt lat="44.12499" lon="6.32885">
        <ele>901.16812496367</ele>
        <time>2021-10-12T20:19:20.635Z</time>
      </trkpt>
      <trkpt lat="44.12494" lon="6.32879">
        <ele>900.17856732943</ele>
        <time>2021-10-12T20:19:25.456Z</time>
      </trkpt>
      <trkpt lat="44.12485" lon="6.32874">
        <ele>899.20528883239</ele>
        <time>2021-10-12T20:19:30.280Z</time>
      </trkpt>
      <trkpt lat="44.12481" lon="6.32871">
        <ele>898.26098630942</ele>
        <time>2021-10-12T20:19:35.106Z</time>
      </trkpt>
      <trkpt lat="44.12476" lon="6.32868">
        <ele>897.33421125793</ele>
        <time>2021-10-12T20:19:39.933Z</time>
      </trkpt>
      <trkpt lat="44.12472" lon="6.32863">
        <ele>896.42810344561</ele>
        <time>2021-10-12T20:19:44.762Z</time>
      </trkpt>
      <trkpt lat="44.12467" lon="6.32859">
        <ele>895.5519566839</ele>
        <time>2021-10-12T20:19:49.593Z</time>
      </trkpt>
      <trkpt lat="44.12463" lon="6.32855">
        <ele>894.71370873556</ele>
        <time>2021-10-12T20:19:54.426Z</time>
      </trkpt>
      <trkpt lat="44.12459" lon="6.32852">
        <ele>893.90513943683</ele>
        <time>2021-10-12T20:19:59.260Z</time>
      </trkpt>
      <trkpt lat="44.12457" lon="6.32848">
        <ele>893.12895674839</ele>
        <time>2021-10-12T20:20:04.095Z</time>
      </trkpt>
      <trkpt lat="44.12459" lon="6.32841">
        <ele>892.38137494354</ele>
        <time>2021-10-12T20:20:08.932Z</time>
      </trkpt>
      <trkpt lat="44.1246" lon="6.32837">
        <ele>891.68391839211</ele>
        <time>2021-10-12T20:20:13.770Z</time>
      </trkpt>
      <trkpt lat="44.12459" lon="6.32832">
        <ele>891.01919680972</ele>
        <time>2021-10-12T20:20:18.609Z</time>
      </trkpt>
      <trkpt lat="44.12456" lon="6.3283">
        <ele>890.39986688308</ele>
        <time>2021-10-12T20:20:23.449Z</time>
      </trkpt>
      <trkpt lat="44.12447" lon="6.32828">
        <ele>889.81183299218</ele>
        <time>2021-10-12T20:20:28.292Z</time>
      </trkpt>
      <trkpt lat="44.12444" lon="6.32828">
        <ele>889.29266524451</ele>
        <time>2021-10-12T20:20:33.136Z</time>
      </trkpt>
      <trkpt lat="44.12441" lon="6.32828">
        <ele>888.81343346769</ele>
        <time>2021-10-12T20:20:37.981Z</time>
      </trkpt>
      <trkpt lat="44.12437" lon="6.32825">
        <ele>888.3651994864</ele>
        <time>2021-10-12T20:20:42.828Z</time>
      </trkpt>
      <trkpt lat="44.12435" lon="6.32824">
        <ele>887.97221058325</ele>
        <time>2021-10-12T20:20:47.676Z</time>
      </trkpt>
      <trkpt lat="44.12435" lon="6.32822">
        <ele>887.62163943079</ele>
        <time>2021-10-12T20:20:52.524Z</time>
      </trkpt>
      <trkpt lat="44.12434" lon="6.32821">
        <ele>887.31616313564</ele>
        <time>2021-10-12T20:20:57.372Z</time>
      </trkpt>
      <trkpt lat="44.12435" lon="6.32821">
        <ele>887.05597631346</ele>
        <time>2021-10-12T20:21:02.220Z</time>
      </trkpt>
      <trkpt lat="44.12429" lon="6.32816">
        <ele>886.8185110348</ele>
        <time>2021-10-12T20:21:07.071Z</time>
      </trkpt>
      <trkpt lat="44.12428" lon="6.32818">
        <ele>886.64487091594</ele>
        <time>2021-10-12T20:21:11.922Z</time>
      </trkpt>
      <trkpt lat="44.12426" lon="6.32818">
        <ele>886.50460086103</ele>
        <time>2021-10-12T20:21:16.774Z</time>
      </trkpt>
      <trkpt lat="44.12427" lon="6.32816">
        <ele>886.39385274424</ele>
        <time>2021-10-12T20:21:21.627Z</time>
      </trkpt>
      <trkpt lat="44.12426" lon="6.32812">
        <ele>886.315480172</ele>
        <time>2021-10-12T20:21:26.480Z</time>
      </trkpt>
      <trkpt lat="44.12421" lon="6.32811">
        <ele>886.27754227745</ele>
        <time>2021-10-12T20:21:31.335Z</time>
      </trkpt>
      <trkpt lat="44.1242" lon="6.3281">
        <ele>886.27702373491</ele>
        <time>2021-10-12T20:21:36.191Z</time>
      </trkpt>
      <trkpt lat="44.12418" lon="6.3281">
        <ele>886.3095332356</ele>
        <time>2021-10-12T20:21:41.047Z</time>
      </trkpt>
      <trkpt lat="44.12414" lon="6.32809">
        <ele>886.37173346621</ele>
        <time>2021-10-12T20:21:45.904Z</time>
      </trkpt>
      <trkpt lat="44.12411" lon="6.32812">
        <ele>886.46659800514</ele>
        <time>2021-10-12T20:21:50.763Z</time>
      </trkpt>
      <trkpt lat="44.12411" lon="6.32813">
        <ele>886.58970568639</ele>
        <time>2021-10-12T20:21:55.622Z</time>
      </trkpt>
      <trkpt lat="44.12411" lon="6.32814">
        <ele>886.73820143218</ele>
        <time>2021-10-12T20:22:00.481Z</time>
      </trkpt>
      <trkpt lat="44.12405" lon="6.32819">
        <ele>886.91239430913</ele>
        <time>2021-10-12T20:22:05.342Z</time>
      </trkpt>
      <trkpt lat="44.12403" lon="6.32821">
        <ele>887.10989609041</ele>
        <time>2021-10-12T20:22:10.204Z</time>
      </trkpt>
      <trkpt lat="44.12397" lon="6.32827">
        <ele>887.34592115768</ele>
        <time>2021-10-12T20:22:15.069Z</time>
      </trkpt>
      <trkpt lat="44.12389" lon="6.32834">
        <ele>887.61685240014</ele>
        <time>2021-10-12T20:22:19.937Z</time>
      </trkpt>
      <trkpt lat="44.12381" lon="6.32841">
        <ele>887.90045428986</ele>
        <time>2021-10-12T20:22:24.808Z</time>
      </trkpt>
      <trkpt lat="44.12375" lon="6.32845">
        <ele>888.18662755022</ele>
        <time>2021-10-12T20:22:29.681Z</time>
      </trkpt>
      <trkpt lat="44.12367" lon="6.32854">
        <ele>888.51918096367</ele>
        <time>2021-10-12T20:22:34.558Z</time>
      </trkpt>
      <trkpt lat="44.12363" lon="6.3285">
        <ele>888.80477232448</ele>
        <time>2021-10-12T20:22:39.436Z</time>
      </trkpt>
      <trkpt lat="44.12355" lon="6.32839">
        <ele>889.07686514158</ele>
        <time>2021-10-12T20:22:44.318Z</time>
      </trkpt>
      <trkpt lat="44.12348" lon="6.3283">
        <ele>889.36585107099</ele>
        <time>2021-10-12T20:22:49.203Z</time>
      </trkpt>
      <trkpt lat="44.12346" lon="6.32827">
        <ele>889.67838997091</ele>
        <time>2021-10-12T20:22:54.089Z</time>
      </trkpt>
      <trkpt lat="44.12338" lon="6.32817">
        <ele>890.01943384321</ele>
        <time>2021-10-12T20:22:58.979Z</time>
      </trkpt>
      <trkpt lat="44.12336" lon="6.32813">
        <ele>890.34658579661</ele>
        <time>2021-10-12T20:23:03.870Z</time>
      </trkpt>
      <trkpt lat="44.12335" lon="6.3281">
        <ele>890.6709642243</ele>
        <time>2021-10-12T20:23:08.762Z</time>
      </trkpt>
      <trkpt lat="44.12335" lon="6.32809">
        <ele>891.00437026774</ele>
        <time>2021-10-12T20:23:13.654Z</time>
      </trkpt>
      <trkpt lat="44.12335" lon="6.32809">
        <ele>891.34009149325</ele>
        <time>2021-10-12T20:23:18.546Z</time>
      </trkpt>
      <trkpt lat="44.12337" lon="6.32773">
        <ele>891.61995174773</ele>
        <time>2021-10-12T20:23:23.447Z</time>
      </trkpt>
      <trkpt lat="44.12336" lon="6.32765">
        <ele>891.96330283283</ele>
        <time>2021-10-12T20:23:28.350Z</time>
      </trkpt>
      <trkpt lat="44.12334" lon="6.32757">
        <ele>892.31376477362</ele>
        <time>2021-10-12T20:23:33.255Z</time>
      </trkpt>
      <trkpt lat="44.1233" lon="6.32748">
        <ele>892.67857030199</ele>
        <time>2021-10-12T20:23:38.162Z</time>
      </trkpt>
      <trkpt lat="44.12325" lon="6.32735">
        <ele>893.06596721246</ele>
        <time>2021-10-12T20:23:43.073Z</time>
      </trkpt>
      <trkpt lat="44.12325" lon="6.32728">
        <ele>893.42737175725</ele>
        <time>2021-10-12T20:23:47.985Z</time>
      </trkpt>
      <trkpt lat="44.12324" lon="6.32725">
        <ele>893.7712358629</ele>
        <time>2021-10-12T20:23:52.898Z</time>
      </trkpt>
      <trkpt lat="44.1232" lon="6.3271">
        <ele>894.17257591964</ele>
        <time>2021-10-12T20:23:57.815Z</time>
      </trkpt>
      <trkpt lat="44.12316" lon="6.32703">
        <ele>894.53675251508</ele>
        <time>2021-10-12T20:24:02.734Z</time>
      </trkpt>
      <trkpt lat="44.1231" lon="6.32699">
        <ele>894.87613804575</ele>
        <time>2021-10-12T20:24:07.655Z</time>
      </trkpt>
      <trkpt lat="44.12304" lon="6.32697">
        <ele>895.19558618245</ele>
        <time>2021-10-12T20:24:12.578Z</time>
      </trkpt>
      <trkpt lat="44.12302" lon="6.32697">
        <ele>895.49330337447</ele>
        <time>2021-10-12T20:24:17.502Z</time>
      </trkpt>
      <trkpt lat="44.123" lon="6.327">
        <ele>895.78681339821</ele>
        <time>2021-10-12T20:24:22.427Z</time>
      </trkpt>
      <trkpt lat="44.12298" lon="6.32702">
        <ele>896.06797247871</ele>
        <time>2021-10-12T20:24:27.353Z</time>
      </trkpt>
      <trkpt lat="44.12292" lon="6.32699">
        <ele>896.35920114349</ele>
        <time>2021-10-12T20:24:32.281Z</time>
      </trkpt>
      <trkpt lat="44.12291" lon="6.32694">
        <ele>896.62421110978</ele>
        <time>2021-10-12T20:24:37.210Z</time>
      </trkpt>
      <trkpt lat="44.12291" lon="6.32692">
        <ele>896.87406475572</ele>
        <time>2021-10-12T20:24:42.140Z</time>
      </trkpt>
      <trkpt lat="44.1229" lon="6.32692">
        <ele>897.11295242382</ele>
        <time>2021-10-12T20:24:47.070Z</time>
      </trkpt>
      <trkpt lat="44.12288" lon="6.32691">
        <ele>897.34497630042</ele>
        <time>2021-10-12T20:24:52.001Z</time>
      </trkpt>
      <trkpt lat="44.12285" lon="6.32689">
        <ele>897.57210691566</ele>
        <time>2021-10-12T20:24:56.933Z</time>
      </trkpt>
      <trkpt lat="44.12282" lon="6.32687">
        <ele>897.78819516851</ele>
        <time>2021-10-12T20:25:01.866Z</time>
      </trkpt>
      <trkpt lat="44.12276" lon="6.32679">
        <ele>898.01459001347</ele>
        <time>2021-10-12T20:25:06.802Z</time>
      </trkpt>
      <trkpt lat="44.12271" lon="6.32673">
        <ele>898.22794021583</ele>
        <time>2021-10-12T20:25:11.740Z</time>
      </trkpt>
      <trkpt lat="44.12269" lon="6.32671">
        <ele>898.42778101109</ele>
        <time>2021-10-12T20:25:16.679Z</time>
      </trkpt>
      <trkpt lat="44.12268" lon="6.3267">
        <ele>898.61917369994</ele>
        <time>2021-10-12T20:25:21.618Z</time>
      </trkpt>
      <trkpt lat="44.12266" lon="6.32667">
        <ele>898.81066339096</ele>
        <time>2021-10-12T20:25:26.558Z</time>
      </trkpt>
      <trkpt lat="44.1226" lon="6.32661">
        <ele>899.00525448544</ele>
        <time>2021-10-12T20:25:31.500Z</time>
      </trkpt>
      <trkpt lat="44.12254" lon="6.3266">
        <ele>899.19424948535</ele>
        <time>2021-10-12T20:25:36.444Z</time>
      </trkpt>
      <trkpt lat="44.12253" lon="6.32659">
        <ele>899.38164485916</ele>
        <time>2021-10-12T20:25:41.389Z</time>
      </trkpt>
      <trkpt lat="44.12252" lon="6.32659">
        <ele>899.57152828564</ele>
        <time>2021-10-12T20:25:46.334Z</time>
      </trkpt>
      <trkpt lat="44.12248" lon="6.32661">
        <ele>899.7598800186</ele>
        <time>2021-10-12T20:25:51.281Z</time>
      </trkpt>
      <trkpt lat="44.12246" lon="6.32661">
        <ele>899.95981956627</ele>
        <time>2021-10-12T20:25:56.228Z</time>
      </trkpt>
      <trkpt lat="44.12244" lon="6.32659">
        <ele>900.17480382309</ele>
        <time>2021-10-12T20:26:01.176Z</time>
      </trkpt>
      <trkpt lat="44.12245" lon="6.32656">
        <ele>900.40226334622</ele>
        <time>2021-10-12T20:26:06.125Z</time>
      </trkpt>
      <trkpt lat="44.12246" lon="6.32649">
        <ele>900.65082630074</ele>
        <time>2021-10-12T20:26:11.075Z</time>
      </trkpt>
      <trkpt lat="44.12247" lon="6.32644">
        <ele>900.90841554041</ele>
        <time>2021-10-12T20:26:16.027Z</time>
      </trkpt>
      <trkpt lat="44.12245" lon="6.32636">
        <ele>901.1880056905</ele>
        <time>2021-10-12T20:26:20.980Z</time>
      </trkpt>
      <trkpt lat="44.12244" lon="6.32634">
        <ele>901.46664049827</ele>
        <time>2021-10-12T20:26:25.934Z</time>
      </trkpt>
      <trkpt lat="44.12242" lon="6.32622">
        <ele>901.78809101232</ele>
        <time>2021-10-12T20:26:30.891Z</time>
      </trkpt>
      <trkpt lat="44.12242" lon="6.32614">
        <ele>902.11724836279</ele>
        <time>2021-10-12T20:26:35.850Z</time>
      </trkpt>
      <trkpt lat="44.12243" lon="6.32608">
        <ele>902.45526447669</ele>
        <time>2021-10-12T20:26:40.810Z</time>
      </trkpt>
      <trkpt lat="44.12244" lon="6.32602">
        <ele>902.8192034719</ele>
        <time>2021-10-12T20:26:45.772Z</time>
      </trkpt>
      <trkpt lat="44.12243" lon="6.32597">
        <ele>903.2057710254</ele>
        <time>2021-10-12T20:26:50.735Z</time>
      </trkpt>
      <trkpt lat="44.12242" lon="6.32591">
        <ele>903.61176414862</ele>
        <time>2021-10-12T20:26:55.700Z</time>
      </trkpt>
      <trkpt lat="44.12241" lon="6.32586">
        <ele>904.03715865366</ele>
        <time>2021-10-12T20:27:00.666Z</time>
      </trkpt>
      <trkpt lat="44.12239" lon="6.32579">
        <ele>904.49238232002</ele>
        <time>2021-10-12T20:27:05.634Z</time>
      </trkpt>
      <trkpt lat="44.12238" lon="6.32576">
        <ele>904.94186649266</ele>
        <time>2021-10-12T20:27:10.603Z</time>
      </trkpt>
      <trkpt lat="44.12237" lon="6.32571">
        <ele>905.41779947658</ele>
        <time>2021-10-12T20:27:15.573Z</time>
      </trkpt>
      <trkpt lat="44.12235" lon="6.32564">
        <ele>905.91953895045</ele>
        <time>2021-10-12T20:27:20.545Z</time>
      </trkpt>
      <trkpt lat="44.12234" lon="6.32559">
        <ele>906.44543154677</ele>
        <time>2021-10-12T20:27:25.518Z</time>
      </trkpt>
      <trkpt lat="44.12232" lon="6.32554">
        <ele>906.99610309533</ele>
        <time>2021-10-12T20:27:30.492Z</time>
      </trkpt>
      <trkpt lat="44.12229" lon="6.32546">
        <ele>907.58386279983</ele>
        <time>2021-10-12T20:27:35.468Z</time>
      </trkpt>
      <trkpt lat="44.12229" lon="6.32541">
        <ele>908.19822123423</ele>
        <time>2021-10-12T20:27:40.445Z</time>
      </trkpt>
      <trkpt lat="44.12228" lon="6.32531">
        <ele>908.85610018556</ele>
        <time>2021-10-12T20:27:45.425Z</time>
      </trkpt>
      <trkpt lat="44.12229" lon="6.32529">
        <ele>909.51994317382</ele>
        <time>2021-10-12T20:27:50.406Z</time>
      </trkpt>
      <trkpt lat="44.12232" lon="6.32521">
        <ele>910.22675578895</ele>
        <time>2021-10-12T20:27:55.389Z</time>
      </trkpt>
      <trkpt lat="44.12235" lon="6.32514">
        <ele>910.95898879396</ele>
        <time>2021-10-12T20:28:00.374Z</time>
      </trkpt>
      <trkpt lat="44.1224" lon="6.32509">
        <ele>911.7230004978</ele>
        <time>2021-10-12T20:28:05.361Z</time>
      </trkpt>
      <trkpt lat="44.12245" lon="6.32505">
        <ele>912.50516906845</ele>
        <time>2021-10-12T20:28:10.350Z</time>
      </trkpt>
      <trkpt lat="44.12249" lon="6.32502">
        <ele>913.30771540666</ele>
        <time>2021-10-12T20:28:15.340Z</time>
      </trkpt>
      <trkpt lat="44.12253" lon="6.32499">
        <ele>914.14483519915</ele>
        <time>2021-10-12T20:28:20.332Z</time>
      </trkpt>
      <trkpt lat="44.12258" lon="6.32494">
        <ele>915.01438543884</ele>
        <time>2021-10-12T20:28:25.326Z</time>
      </trkpt>
      <trkpt lat="44.1226" lon="6.32492">
        <ele>915.87776013591</ele>
        <time>2021-10-12T20:28:30.320Z</time>
      </trkpt>
      <trkpt lat="44.12264" lon="6.32487">
        <ele>916.78166575522</ele>
        <time>2021-10-12T20:28:35.316Z</time>
      </trkpt>
      <trkpt lat="44.12267" lon="6.3248">
        <ele>917.70560014017</ele>
        <time>2021-10-12T20:28:40.314Z</time>
      </trkpt>
      <trkpt lat="44.12269" lon="6.32478">
        <ele>918.61248952917</ele>
        <time>2021-10-12T20:28:45.313Z</time>
      </trkpt>
      <trkpt lat="44.12273" lon="6.32468">
        <ele>919.56619135164</ele>
        <time>2021-10-12T20:28:50.315Z</time>
      </trkpt>
      <trkpt lat="44.12273" lon="6.32463">
        <ele>920.51912940979</ele>
        <time>2021-10-12T20:28:55.318Z</time>
      </trkpt>
      <trkpt lat="44.12274" lon="6.32457">
        <ele>921.47843770113</ele>
        <time>2021-10-12T20:29:00.322Z</time>
      </trkpt>
      <trkpt lat="44.12273" lon="6.32452">
        <ele>922.42934185489</ele>
        <time>2021-10-12T20:29:05.328Z</time>
      </trkpt>
      <trkpt lat="44.12271" lon="6.32449">
        <ele>923.35399133919</ele>
        <time>2021-10-12T20:29:10.334Z</time>
      </trkpt>
      <trkpt lat="44.12269" lon="6.32442">
        <ele>924.31151156847</ele>
        <time>2021-10-12T20:29:15.342Z</time>
      </trkpt>
      <trkpt lat="44.12267" lon="6.32436">
        <ele>925.24100790187</ele>
        <time>2021-10-12T20:29:20.352Z</time>
      </trkpt>
      <trkpt lat="44.12265" lon="6.32431">
        <ele>926.1545748673</ele>
        <time>2021-10-12T20:29:25.363Z</time>
      </trkpt>
      <trkpt lat="44.12265" lon="6.32428">
        <ele>927.03324385328</ele>
        <time>2021-10-12T20:29:30.375Z</time>
      </trkpt>
      <trkpt lat="44.12265" lon="6.32423">
        <ele>927.91594437858</ele>
        <time>2021-10-12T20:29:35.388Z</time>
      </trkpt>
      <trkpt lat="44.12265" lon="6.32408">
        <ele>928.8476924748</ele>
        <time>2021-10-12T20:29:40.405Z</time>
      </trkpt>
      <trkpt lat="44.12264" lon="6.32402">
        <ele>929.66359610859</ele>
        <time>2021-10-12T20:29:45.423Z</time>
      </trkpt>
      <trkpt lat="44.12262" lon="6.32392">
        <ele>930.48820820503</ele>
        <time>2021-10-12T20:29:50.444Z</time>
      </trkpt>
      <trkpt lat="44.12261" lon="6.32384">
        <ele>931.24869881241</ele>
        <time>2021-10-12T20:29:55.467Z</time>
      </trkpt>
      <trkpt lat="44.1226" lon="6.32382">
        <ele>931.90697694242</ele>
        <time>2021-10-12T20:30:00.490Z</time>
      </trkpt>
      <trkpt lat="44.1226" lon="6.32379">
        <ele>932.51776628655</ele>
        <time>2021-10-12T20:30:05.514Z</time>
      </trkpt>
      <trkpt lat="44.12259" lon="6.32372">
        <ele>933.11015867152</ele>
        <time>2021-10-12T20:30:10.540Z</time>
      </trkpt>
      <trkpt lat="44.12261" lon="6.32365">
        <ele>933.65740289466</ele>
        <time>2021-10-12T20:30:15.567Z</time>
      </trkpt>
      <trkpt lat="44.12262" lon="6.32363">
        <ele>934.11702174942</ele>
        <time>2021-10-12T20:30:20.595Z</time>
      </trkpt>
      <trkpt lat="44.12266" lon="6.32358">
        <ele>934.56599476077</ele>
        <time>2021-10-12T20:30:25.625Z</time>
      </trkpt>
      <trkpt lat="44.12268" lon="6.32356">
        <ele>934.92925818142</ele>
        <time>2021-10-12T20:30:30.656Z</time>
      </trkpt>
      <trkpt lat="44.1227" lon="6.32355">
        <ele>935.23246033336</ele>
        <time>2021-10-12T20:30:35.687Z</time>
      </trkpt>
      <trkpt lat="44.12271" lon="6.32354">
        <ele>935.46887891973</ele>
        <time>2021-10-12T20:30:40.719Z</time>
      </trkpt>
      <trkpt lat="44.12271" lon="6.32353">
        <ele>935.64538783428</ele>
        <time>2021-10-12T20:30:45.751Z</time>
      </trkpt>
      <trkpt lat="44.12268" lon="6.32349">
        <ele>935.77780854868</ele>
        <time>2021-10-12T20:30:50.784Z</time>
      </trkpt>
      <trkpt lat="44.12269" lon="6.32346">
        <ele>935.87769848993</ele>
        <time>2021-10-12T20:30:55.818Z</time>
      </trkpt>
      <trkpt lat="44.1227" lon="6.32346">
        <ele>935.92570245159</ele>
        <time>2021-10-12T20:31:00.852Z</time>
      </trkpt>
      <trkpt lat="44.1226" lon="6.3235">
        <ele>935.84060878645</ele>
        <time>2021-10-12T20:31:05.889Z</time>
      </trkpt>
      <trkpt lat="44.12247" lon="6.32353">
        <ele>935.70476599911</ele>
        <time>2021-10-12T20:31:10.931Z</time>
      </trkpt>
      <trkpt lat="44.12244" lon="6.32354">
        <ele>935.62806994471</ele>
        <time>2021-10-12T20:31:15.974Z</time>
      </trkpt>
      <trkpt lat="44.12242" lon="6.32356">
        <ele>935.53415442757</ele>
        <time>2021-10-12T20:31:21.018Z</time>
      </trkpt>
      <trkpt lat="44.12237" lon="6.32359">
        <ele>935.40768754693</ele>
        <time>2021-10-12T20:31:26.064Z</time>
      </trkpt>
      <trkpt lat="44.12235" lon="6.3236">
        <ele>935.30234572379</ele>
        <time>2021-10-12T20:31:31.110Z</time>
      </trkpt>
      <trkpt lat="44.12234" lon="6.32362">
        <ele>935.19729271193</ele>
        <time>2021-10-12T20:31:36.157Z</time>
      </trkpt>
      <trkpt lat="44.12232" lon="6.32363">
        <ele>935.09456429894</ele>
        <time>2021-10-12T20:31:41.204Z</time>
      </trkpt>
      <trkpt lat="44.12231" lon="6.32365">
        <ele>935.00108376303</ele>
        <time>2021-10-12T20:31:46.252Z</time>
      </trkpt>
      <trkpt lat="44.12229" lon="6.32365">
        <ele>934.93859376285</ele>
        <time>2021-10-12T20:31:51.301Z</time>
      </trkpt>
      <trkpt lat="44.12229" lon="6.32365">
        <ele>934.90360844724</ele>
        <time>2021-10-12T20:31:56.350Z</time>
      </trkpt>
      <trkpt lat="44.12229" lon="6.32357">
        <ele>934.95189553729</ele>
        <time>2021-10-12T20:32:01.401Z</time>
      </trkpt>
      <trkpt lat="44.12229" lon="6.32351">
        <ele>935.00649845657</ele>
        <time>2021-10-12T20:32:06.453Z</time>
      </trkpt>
      <trkpt lat="44.12229" lon="6.32345">
        <ele>935.08906425801</ele>
        <time>2021-10-12T20:32:11.507Z</time>
      </trkpt>
      <trkpt lat="44.12228" lon="6.3234">
        <ele>935.19004197269</ele>
        <time>2021-10-12T20:32:16.562Z</time>
      </trkpt>
      <trkpt lat="44.12227" lon="6.32337">
        <ele>935.31365770711</ele>
        <time>2021-10-12T20:32:21.618Z</time>
      </trkpt>
      <trkpt lat="44.12224" lon="6.32334">
        <ele>935.48007915615</ele>
        <time>2021-10-12T20:32:26.675Z</time>
      </trkpt>
      <trkpt lat="44.1222" lon="6.32328">
        <ele>935.69128786142</ele>
        <time>2021-10-12T20:32:31.734Z</time>
      </trkpt>
      <trkpt lat="44.12217" lon="6.32327">
        <ele>935.92964212518</ele>
        <time>2021-10-12T20:32:36.794Z</time>
      </trkpt>
      <trkpt lat="44.12211" lon="6.32333">
        <ele>936.15593328118</ele>
        <time>2021-10-12T20:32:41.856Z</time>
      </trkpt>
      <trkpt lat="44.12207" lon="6.3233">
        <ele>936.4877032027</ele>
        <time>2021-10-12T20:32:46.920Z</time>
      </trkpt>
      <trkpt lat="44.12208" lon="6.32326">
        <ele>936.89809546685</ele>
        <time>2021-10-12T20:32:51.985Z</time>
      </trkpt>
      <trkpt lat="44.12209" lon="6.32322">
        <ele>937.35441435831</ele>
        <time>2021-10-12T20:32:57.051Z</time>
      </trkpt>
      <trkpt lat="44.12209" lon="6.3232">
        <ele>937.84315207263</ele>
        <time>2021-10-12T20:33:02.117Z</time>
      </trkpt>
      <trkpt lat="44.12209" lon="6.32318">
        <ele>938.37858054989</ele>
        <time>2021-10-12T20:33:07.184Z</time>
      </trkpt>
      <trkpt lat="44.12209" lon="6.32312">
        <ele>938.98558360462</ele>
        <time>2021-10-12T20:33:12.252Z</time>
      </trkpt>
      <trkpt lat="44.12209" lon="6.32306">
        <ele>939.63559884248</ele>
        <time>2021-10-12T20:33:17.322Z</time>
      </trkpt>
      <trkpt lat="44.12208" lon="6.32302">
        <ele>940.31432465213</ele>
        <time>2021-10-12T20:33:22.393Z</time>
      </trkpt>
      <trkpt lat="44.12207" lon="6.32294">
        <ele>941.06647756506</ele>
        <time>2021-10-12T20:33:27.466Z</time>
      </trkpt>
      <trkpt lat="44.12206" lon="6.32289">
        <ele>941.84553741802</ele>
        <time>2021-10-12T20:33:32.540Z</time>
      </trkpt>
      <trkpt lat="44.12206" lon="6.32281">
        <ele>942.68116890901</ele>
        <time>2021-10-12T20:33:37.616Z</time>
      </trkpt>
      <trkpt lat="44.12205" lon="6.32278">
        <ele>943.50591066695</ele>
        <time>2021-10-12T20:33:42.693Z</time>
      </trkpt>
      <trkpt lat="44.12203" lon="6.32272">
        <ele>944.36686808698</ele>
        <time>2021-10-12T20:33:47.771Z</time>
      </trkpt>
      <trkpt lat="44.12202" lon="6.32272">
        <ele>945.21206670888</ele>
        <time>2021-10-12T20:33:52.850Z</time>
      </trkpt>
      <trkpt lat="44.122" lon="6.32272">
        <ele>946.0639449121</ele>
        <time>2021-10-12T20:33:57.929Z</time>
      </trkpt>
      <trkpt lat="44.12191" lon="6.32271">
        <ele>946.91144323139</ele>
        <time>2021-10-12T20:34:03.011Z</time>
      </trkpt>
      <trkpt lat="44.1219" lon="6.32268">
        <ele>947.82124176039</ele>
        <time>2021-10-12T20:34:08.094Z</time>
      </trkpt>
      <trkpt lat="44.12188" lon="6.32254">
        <ele>948.87836555581</ele>
        <time>2021-10-12T20:34:13.180Z</time>
      </trkpt>
      <trkpt lat="44.12188" lon="6.32248">
        <ele>949.83093075762</ele>
        <time>2021-10-12T20:34:18.268Z</time>
      </trkpt>
      <trkpt lat="44.12188" lon="6.32246">
        <ele>950.7344426945</ele>
        <time>2021-10-12T20:34:23.356Z</time>
      </trkpt>
      <trkpt lat="44.12189" lon="6.32242">
        <ele>951.64441780561</ele>
        <time>2021-10-12T20:34:28.445Z</time>
      </trkpt>
      <trkpt lat="44.1219" lon="6.32234">
        <ele>952.56671099314</ele>
        <time>2021-10-12T20:34:33.536Z</time>
      </trkpt>
      <trkpt lat="44.12193" lon="6.32228">
        <ele>953.45988831703</ele>
        <time>2021-10-12T20:34:38.629Z</time>
      </trkpt>
      <trkpt lat="44.12193" lon="6.32222">
        <ele>954.33799193795</ele>
        <time>2021-10-12T20:34:43.723Z</time>
      </trkpt>
      <trkpt lat="44.12193" lon="6.32218">
        <ele>955.14875910139</ele>
        <time>2021-10-12T20:34:48.818Z</time>
      </trkpt>
      <trkpt lat="44.12193" lon="6.32216">
        <ele>955.90600154571</ele>
        <time>2021-10-12T20:34:53.914Z</time>
      </trkpt>
      <trkpt lat="44.12191" lon="6.32212">
        <ele>956.62631771883</ele>
        <time>2021-10-12T20:34:59.011Z</time>
      </trkpt>
      <trkpt lat="44.1219" lon="6.32211">
        <ele>957.27912148896</ele>
        <time>2021-10-12T20:35:04.108Z</time>
      </trkpt>
      <trkpt lat="44.1219" lon="6.32211">
        <ele>957.88353258577</ele>
        <time>2021-10-12T20:35:09.205Z</time>
      </trkpt>
      <trkpt lat="44.12188" lon="6.32205">
        <ele>958.46817892799</ele>
        <time>2021-10-12T20:35:14.304Z</time>
      </trkpt>
      <trkpt lat="44.12186" lon="6.32204">
        <ele>958.97565515204</ele>
        <time>2021-10-12T20:35:19.403Z</time>
      </trkpt>
      <trkpt lat="44.12183" lon="6.32198">
        <ele>959.44916822722</ele>
        <time>2021-10-12T20:35:24.504Z</time>
      </trkpt>
      <trkpt lat="44.12182" lon="6.32193">
        <ele>959.8735640485</ele>
        <time>2021-10-12T20:35:29.606Z</time>
      </trkpt>
      <trkpt lat="44.12182" lon="6.32191">
        <ele>960.22798250255</ele>
        <time>2021-10-12T20:35:34.709Z</time>
      </trkpt>
      <trkpt lat="44.12182" lon="6.32191">
        <ele>960.50236941411</ele>
        <time>2021-10-12T20:35:39.812Z</time>
      </trkpt>
      <trkpt lat="44.1218" lon="6.32184">
        <ele>960.72614247715</ele>
        <time>2021-10-12T20:35:44.917Z</time>
      </trkpt>
      <trkpt lat="44.12172" lon="6.32175">
        <ele>960.8605521717</ele>
        <time>2021-10-12T20:35:50.025Z</time>
      </trkpt>
      <trkpt lat="44.12169" lon="6.32172">
        <ele>960.95115519463</ele>
        <time>2021-10-12T20:35:55.135Z</time>
      </trkpt>
      <trkpt lat="44.12166" lon="6.32167">
        <ele>960.98737208851</ele>
        <time>2021-10-12T20:36:00.246Z</time>
      </trkpt>
      <trkpt lat="44.12166" lon="6.32166">
        <ele>960.97334469211</ele>
        <time>2021-10-12T20:36:05.357Z</time>
      </trkpt>
      <trkpt lat="44.12165" lon="6.32163">
        <ele>960.90578508315</ele>
        <time>2021-10-12T20:36:10.469Z</time>
      </trkpt>
      <trkpt lat="44.12165" lon="6.32163">
        <ele>960.78643254052</ele>
        <time>2021-10-12T20:36:15.581Z</time>
      </trkpt>
      <trkpt lat="44.12163" lon="6.3216">
        <ele>960.61197324001</ele>
        <time>2021-10-12T20:36:20.694Z</time>
      </trkpt>
      <trkpt lat="44.12161" lon="6.32153">
        <ele>960.3869609648</ele>
        <time>2021-10-12T20:36:25.809Z</time>
      </trkpt>
      <trkpt lat="44.12156" lon="6.32138">
        <ele>960.10111650337</ele>
        <time>2021-10-12T20:36:30.928Z</time>
      </trkpt>
      <trkpt lat="44.12155" lon="6.32133">
        <ele>959.7939340425</ele>
        <time>2021-10-12T20:36:36.048Z</time>
      </trkpt>
      <trkpt lat="44.12153" lon="6.32128">
        <ele>959.42738230572</ele>
        <time>2021-10-12T20:36:41.169Z</time>
      </trkpt>
      <trkpt lat="44.12151" lon="6.32123">
        <ele>959.02475686074</ele>
        <time>2021-10-12T20:36:46.292Z</time>
      </trkpt>
      <trkpt lat="44.12147" lon="6.32115">
        <ele>958.5721207944</ele>
        <time>2021-10-12T20:36:51.417Z</time>
      </trkpt>
      <trkpt lat="44.12146" lon="6.3211">
        <ele>958.11571722114</ele>
        <time>2021-10-12T20:36:56.543Z</time>
      </trkpt>
      <trkpt lat="44.12144" lon="6.32106">
        <ele>957.63844967545</ele>
        <time>2021-10-12T20:37:01.671Z</time>
      </trkpt>
      <trkpt lat="44.12139" lon="6.321">
        <ele>957.12849404227</ele>
        <time>2021-10-12T20:37:06.801Z</time>
      </trkpt>
      <trkpt lat="44.12134" lon="6.32092">
        <ele>956.59649771631</ele>
        <time>2021-10-12T20:37:11.933Z</time>
      </trkpt>
      <trkpt lat="44.12126" lon="6.32079">
        <ele>956.03188801302</ele>
        <time>2021-10-12T20:37:17.069Z</time>
      </trkpt>
      <trkpt lat="44.12123" lon="6.32075">
        <ele>955.51750861649</ele>
        <time>2021-10-12T20:37:22.207Z</time>
      </trkpt>
      <trkpt lat="44.12114" lon="6.32062">
        <ele>954.98181468273</ele>
        <time>2021-10-12T20:37:27.349Z</time>
      </trkpt>
      <trkpt lat="44.12108" lon="6.32054">
        <ele>954.45981173433</ele>
        <time>2021-10-12T20:37:32.494Z</time>
      </trkpt>
      <trkpt lat="44.12101" lon="6.32041">
        <ele>953.92585147075</ele>
        <time>2021-10-12T20:37:37.643Z</time>
      </trkpt>
      <trkpt lat="44.121" lon="6.32036">
        <ele>953.41480524015</ele>
        <time>2021-10-12T20:37:42.793Z</time>
      </trkpt>
      <trkpt lat="44.12096" lon="6.32019">
        <ele>952.9058271254</ele>
        <time>2021-10-12T20:37:47.947Z</time>
      </trkpt>
      <trkpt lat="44.12095" lon="6.32014">
        <ele>952.42798038874</ele>
        <time>2021-10-12T20:37:53.103Z</time>
      </trkpt>
      <trkpt lat="44.12089" lon="6.31991">
        <ele>951.9584368268</ele>
        <time>2021-10-12T20:37:58.265Z</time>
      </trkpt>
      <trkpt lat="44.12086" lon="6.3198">
        <ele>951.49355133454</ele>
        <time>2021-10-12T20:38:03.429Z</time>
      </trkpt>
      <trkpt lat="44.12083" lon="6.3197">
        <ele>951.06984205464</ele>
        <time>2021-10-12T20:38:08.596Z</time>
      </trkpt>
      <trkpt lat="44.12081" lon="6.31967">
        <ele>950.65712715817</ele>
        <time>2021-10-12T20:38:13.764Z</time>
      </trkpt>
      <trkpt lat="44.12077" lon="6.31961">
        <ele>950.26064440406</ele>
        <time>2021-10-12T20:38:18.934Z</time>
      </trkpt>
      <trkpt lat="44.12071" lon="6.31949">
        <ele>949.87685327768</ele>
        <time>2021-10-12T20:38:24.107Z</time>
      </trkpt>
      <trkpt lat="44.12069" lon="6.31947">
        <ele>949.51399978869</ele>
        <time>2021-10-12T20:38:29.281Z</time>
      </trkpt>
      <trkpt lat="44.12061" lon="6.31938">
        <ele>949.16665744067</ele>
        <time>2021-10-12T20:38:34.459Z</time>
      </trkpt>
      <trkpt lat="44.12051" lon="6.31929">
        <ele>948.82991870867</ele>
        <time>2021-10-12T20:38:39.640Z</time>
      </trkpt>
      <trkpt lat="44.12048" lon="6.31928">
        <ele>948.52475152434</ele>
        <time>2021-10-12T20:38:44.823Z</time>
      </trkpt>
      <trkpt lat="44.12045" lon="6.31927">
        <ele>948.23926503634</ele>
        <time>2021-10-12T20:38:50.006Z</time>
      </trkpt>
      <trkpt lat="44.12036" lon="6.31925">
        <ele>947.96262337413</ele>
        <time>2021-10-12T20:38:55.192Z</time>
      </trkpt>
      <trkpt lat="44.12031" lon="6.31918">
        <ele>947.69017127704</ele>
        <time>2021-10-12T20:39:00.381Z</time>
      </trkpt>
      <trkpt lat="44.1203" lon="6.31914">
        <ele>947.4452848673</ele>
        <time>2021-10-12T20:39:05.571Z</time>
      </trkpt>
      <trkpt lat="44.12029" lon="6.31911">
        <ele>947.21932560634</ele>
        <time>2021-10-12T20:39:10.762Z</time>
      </trkpt>
      <trkpt lat="44.12017" lon="6.31892">
        <ele>946.96276473047</ele>
        <time>2021-10-12T20:39:15.959Z</time>
      </trkpt>
      <trkpt lat="44.12008" lon="6.31875">
        <ele>946.74273042646</ele>
        <time>2021-10-12T20:39:21.161Z</time>
      </trkpt>
      <trkpt lat="44.12002" lon="6.31866">
        <ele>946.55404129374</ele>
        <time>2021-10-12T20:39:26.366Z</time>
      </trkpt>
      <trkpt lat="44.1199" lon="6.31857">
        <ele>946.39854933024</ele>
        <time>2021-10-12T20:39:31.575Z</time>
      </trkpt>
      <trkpt lat="44.11989" lon="6.31856">
        <ele>946.26528575171</ele>
        <time>2021-10-12T20:39:36.785Z</time>
      </trkpt>
      <trkpt lat="44.11986" lon="6.31848">
        <ele>946.16839024238</ele>
        <time>2021-10-12T20:39:41.997Z</time>
      </trkpt>
      <trkpt lat="44.11982" lon="6.31831">
        <ele>946.09293285026</ele>
        <time>2021-10-12T20:39:47.213Z</time>
      </trkpt>
      <trkpt lat="44.11981" lon="6.31824">
        <ele>946.00036688506</ele>
        <time>2021-10-12T20:39:52.431Z</time>
      </trkpt>
      <trkpt lat="44.1198" lon="6.31815">
        <ele>945.9197632485</ele>
        <time>2021-10-12T20:39:57.651Z</time>
      </trkpt>
      <trkpt lat="44.11979" lon="6.31805">
        <ele>945.85621163391</ele>
        <time>2021-10-12T20:40:02.873Z</time>
      </trkpt>
      <trkpt lat="44.11978" lon="6.31798">
        <ele>945.78054917382</ele>
        <time>2021-10-12T20:40:08.097Z</time>
      </trkpt>
      <trkpt lat="44.11978" lon="6.31795">
        <ele>945.69510769014</ele>
        <time>2021-10-12T20:40:13.322Z</time>
      </trkpt>
      <trkpt lat="44.11977" lon="6.31782">
        <ele>945.61125483678</ele>
        <time>2021-10-12T20:40:18.550Z</time>
      </trkpt>
      <trkpt lat="44.11976" lon="6.31778">
        <ele>945.53230501191</ele>
        <time>2021-10-12T20:40:23.779Z</time>
      </trkpt>
      <trkpt lat="44.11976" lon="6.31776">
        <ele>945.45397186908</ele>
        <time>2021-10-12T20:40:29.009Z</time>
      </trkpt>
      <trkpt lat="44.11973" lon="6.31771">
        <ele>945.38035084469</ele>
        <time>2021-10-12T20:40:34.240Z</time>
      </trkpt>
      <trkpt lat="44.11969" lon="6.31768">
        <ele>945.31702403879</ele>
        <time>2021-10-12T20:40:39.473Z</time>
      </trkpt>
      <trkpt lat="44.11957" lon="6.31761">
        <ele>945.23593670716</ele>
        <time>2021-10-12T20:40:44.710Z</time>
      </trkpt>
      <trkpt lat="44.11951" lon="6.31756">
        <ele>945.10617278702</ele>
        <time>2021-10-12T20:40:49.949Z</time>
      </trkpt>
      <trkpt lat="44.11948" lon="6.31755">
        <ele>944.99273392385</ele>
        <time>2021-10-12T20:40:55.189Z</time>
      </trkpt>
      <trkpt lat="44.11943" lon="6.3175">
        <ele>944.86007921757</ele>
        <time>2021-10-12T20:41:00.431Z</time>
      </trkpt>
      <trkpt lat="44.11939" lon="6.31747">
        <ele>944.73215872447</ele>
        <time>2021-10-12T20:41:05.675Z</time>
      </trkpt>
      <trkpt lat="44.11933" lon="6.31743">
        <ele>944.59023527665</ele>
        <time>2021-10-12T20:41:10.921Z</time>
      </trkpt>
      <trkpt lat="44.1193" lon="6.31742">
        <ele>944.47615299381</ele>
        <time>2021-10-12T20:41:16.168Z</time>
      </trkpt>
      <trkpt lat="44.11928" lon="6.31741">
        <ele>944.3617940723</ele>
        <time>2021-10-12T20:41:21.416Z</time>
      </trkpt>
      <trkpt lat="44.11926" lon="6.31742">
        <ele>944.25314802259</ele>
        <time>2021-10-12T20:41:26.665Z</time>
      </trkpt>
      <trkpt lat="44.11925" lon="6.31747">
        <ele>944.16794362267</ele>
        <time>2021-10-12T20:41:31.915Z</time>
      </trkpt>
      <trkpt lat="44.11924" lon="6.31748">
        <ele>944.07579356107</ele>
        <time>2021-10-12T20:41:37.166Z</time>
      </trkpt>
      <trkpt lat="44.11918" lon="6.31748">
        <ele>943.96591125914</ele>
        <time>2021-10-12T20:41:42.418Z</time>
      </trkpt>
      <trkpt lat="44.11915" lon="6.31748">
        <ele>943.86784393317</ele>
        <time>2021-10-12T20:41:47.671Z</time>
      </trkpt>
      <trkpt lat="44.11912" lon="6.31747">
        <ele>943.77397698614</ele>
        <time>2021-10-12T20:41:52.925Z</time>
      </trkpt>
      <trkpt lat="44.11909" lon="6.31743">
        <ele>943.67393605909</ele>
        <time>2021-10-12T20:41:58.181Z</time>
      </trkpt>
      <trkpt lat="44.11898" lon="6.3174">
        <ele>943.63174376989</ele>
        <time>2021-10-12T20:42:03.441Z</time>
      </trkpt>
      <trkpt lat="44.11895" lon="6.31741">
        <ele>943.5979918898</ele>
        <time>2021-10-12T20:42:08.702Z</time>
      </trkpt>
      <trkpt lat="44.11893" lon="6.31737">
        <ele>943.54071262649</ele>
        <time>2021-10-12T20:42:13.964Z</time>
      </trkpt>
      <trkpt lat="44.11892" lon="6.3173">
        <ele>943.47729688983</ele>
        <time>2021-10-12T20:42:19.227Z</time>
      </trkpt>
      <trkpt lat="44.11892" lon="6.31728">
        <ele>943.45914728703</ele>
        <time>2021-10-12T20:42:24.491Z</time>
      </trkpt>
      <trkpt lat="44.11892" lon="6.31711">
        <ele>943.42106468715</ele>
        <time>2021-10-12T20:42:29.759Z</time>
      </trkpt>
      <trkpt lat="44.11892" lon="6.31702">
        <ele>943.43190123949</ele>
        <time>2021-10-12T20:42:35.029Z</time>
      </trkpt>
      <trkpt lat="44.11891" lon="6.31692">
        <ele>943.44088842526</ele>
        <time>2021-10-12T20:42:40.302Z</time>
      </trkpt>
      <trkpt lat="44.11892" lon="6.31689">
        <ele>943.49474458585</ele>
        <time>2021-10-12T20:42:45.575Z</time>
      </trkpt>
      <trkpt lat="44.11893" lon="6.31684">
        <ele>943.58263611616</ele>
        <time>2021-10-12T20:42:50.850Z</time>
      </trkpt>
      <trkpt lat="44.11892" lon="6.3168">
        <ele>943.70508960004</ele>
        <time>2021-10-12T20:42:56.126Z</time>
      </trkpt>
      <trkpt lat="44.11892" lon="6.31677">
        <ele>943.85228720683</ele>
        <time>2021-10-12T20:43:01.402Z</time>
      </trkpt>
      <trkpt lat="44.11892" lon="6.31671">
        <ele>944.02240187058</ele>
        <time>2021-10-12T20:43:06.680Z</time>
      </trkpt>
      <trkpt lat="44.11888" lon="6.31665">
        <ele>944.23955663831</ele>
        <time>2021-10-12T20:43:11.960Z</time>
      </trkpt>
      <trkpt lat="44.11883" lon="6.3166">
        <ele>944.5000267848</ele>
        <time>2021-10-12T20:43:17.242Z</time>
      </trkpt>
      <trkpt lat="44.11879" lon="6.31657">
        <ele>944.78748761743</ele>
        <time>2021-10-12T20:43:22.525Z</time>
      </trkpt>
      <trkpt lat="44.11879" lon="6.31657">
        <ele>945.06927618552</ele>
        <time>2021-10-12T20:43:27.808Z</time>
      </trkpt>
      <trkpt lat="44.11877" lon="6.31656">
        <ele>945.38280830463</ele>
        <time>2021-10-12T20:43:33.092Z</time>
      </trkpt>
      <trkpt lat="44.11872" lon="6.31657">
        <ele>945.78813768567</ele>
        <time>2021-10-12T20:43:38.377Z</time>
      </trkpt>
      <trkpt lat="44.11871" lon="6.31656">
        <ele>946.15048385593</ele>
        <time>2021-10-12T20:43:43.663Z</time>
      </trkpt>
      <trkpt lat="44.1187" lon="6.31656">
        <ele>946.52587133988</ele>
        <time>2021-10-12T20:43:48.949Z</time>
      </trkpt>
      <trkpt lat="44.11868" lon="6.31653">
        <ele>946.93300037576</ele>
        <time>2021-10-12T20:43:54.236Z</time>
      </trkpt>
      <trkpt lat="44.11867" lon="6.31651">
        <ele>947.3305407278</ele>
        <time>2021-10-12T20:43:59.524Z</time>
      </trkpt>
      <trkpt lat="44.11868" lon="6.31643">
        <ele>947.72574038357</ele>
        <time>2021-10-12T20:44:04.814Z</time>
      </trkpt>
      <trkpt lat="44.11869" lon="6.31642">
        <ele>948.12229443908</ele>
        <time>2021-10-12T20:44:10.104Z</time>
      </trkpt>
      <trkpt lat="44.1187" lon="6.31632">
        <ele>948.54996288083</ele>
        <time>2021-10-12T20:44:15.396Z</time>
      </trkpt>
      <trkpt lat="44.1187" lon="6.31629">
        <ele>948.96830722889</ele>
        <time>2021-10-12T20:44:20.689Z</time>
      </trkpt>
      <trkpt lat="44.1187" lon="6.31628">
        <ele>949.38700605033</ele>
        <time>2021-10-12T20:44:25.982Z</time>
      </trkpt>
      <trkpt lat="44.11871" lon="6.31628">
        <ele>949.80989576367</ele>
        <time>2021-10-12T20:44:31.276Z</time>
      </trkpt>
      <trkpt lat="44.11873" lon="6.31623">
        <ele>950.21155182537</ele>
        <time>2021-10-12T20:44:36.571Z</time>
      </trkpt>
      <trkpt lat="44.11875" lon="6.31618">
        <ele>950.60537967458</ele>
        <time>2021-10-12T20:44:41.867Z</time>
      </trkpt>
      <trkpt lat="44.11877" lon="6.31614">
        <ele>951.0157898956</ele>
        <time>2021-10-12T20:44:47.164Z</time>
      </trkpt>
      <trkpt lat="44.11877" lon="6.31611">
        <ele>951.44795407063</ele>
        <time>2021-10-12T20:44:52.462Z</time>
      </trkpt>
      <trkpt lat="44.11877" lon="6.31608">
        <ele>951.87895840593</ele>
        <time>2021-10-12T20:44:57.761Z</time>
      </trkpt>
      <trkpt lat="44.11877" lon="6.31598">
        <ele>952.30062954656</ele>
        <time>2021-10-12T20:45:03.062Z</time>
      </trkpt>
      <trkpt lat="44.11876" lon="6.31595">
        <ele>952.72486855363</ele>
        <time>2021-10-12T20:45:08.364Z</time>
      </trkpt>
      <trkpt lat="44.11875" lon="6.31593">
        <ele>953.14170093358</ele>
        <time>2021-10-12T20:45:13.667Z</time>
      </trkpt>
      <trkpt lat="44.11873" lon="6.31586">
        <ele>953.56206914853</ele>
        <time>2021-10-12T20:45:18.971Z</time>
      </trkpt>
      <trkpt lat="44.11871" lon="6.31584">
        <ele>953.95885055417</ele>
        <time>2021-10-12T20:45:24.276Z</time>
      </trkpt>
      <trkpt lat="44.11863" lon="6.31576">
        <ele>954.4493789435</ele>
        <time>2021-10-12T20:45:29.584Z</time>
      </trkpt>
      <trkpt lat="44.11851" lon="6.31572">
        <ele>954.99849079469</ele>
        <time>2021-10-12T20:45:34.897Z</time>
      </trkpt>
      <trkpt lat="44.11848" lon="6.31572">
        <ele>955.34139108748</ele>
        <time>2021-10-12T20:45:40.211Z</time>
      </trkpt>
      <trkpt lat="44.11846" lon="6.31571">
        <ele>955.64331766895</ele>
        <time>2021-10-12T20:45:45.525Z</time>
      </trkpt>
      <trkpt lat="44.11839" lon="6.31568">
        <ele>955.95074164293</ele>
        <time>2021-10-12T20:45:50.842Z</time>
      </trkpt>
      <trkpt lat="44.11822" lon="6.31565">
        <ele>956.3240959279</ele>
        <time>2021-10-12T20:45:56.164Z</time>
      </trkpt>
      <trkpt lat="44.11814" lon="6.31562">
        <ele>956.51674073042</ele>
        <time>2021-10-12T20:46:01.489Z</time>
      </trkpt>
      <trkpt lat="44.11812" lon="6.31551">
        <ele>956.62051485181</ele>
        <time>2021-10-12T20:46:06.817Z</time>
      </trkpt>
      <trkpt lat="44.11811" lon="6.31543">
        <ele>956.71076494967</ele>
        <time>2021-10-12T20:46:12.147Z</time>
      </trkpt>
      <trkpt lat="44.11811" lon="6.31536">
        <ele>956.76153540055</ele>
        <time>2021-10-12T20:46:17.478Z</time>
      </trkpt>
      <trkpt lat="44.11814" lon="6.3151">
        <ele>956.66839789493</ele>
        <time>2021-10-12T20:46:22.816Z</time>
      </trkpt>
      <trkpt lat="44.11815" lon="6.31492">
        <ele>956.6195014713</ele>
        <time>2021-10-12T20:46:28.158Z</time>
      </trkpt>
      <trkpt lat="44.11813" lon="6.31488">
        <ele>956.60165142928</ele>
        <time>2021-10-12T20:46:33.501Z</time>
      </trkpt>
      <trkpt lat="44.11807" lon="6.31481">
        <ele>956.56605853282</ele>
        <time>2021-10-12T20:46:38.847Z</time>
      </trkpt>
      <trkpt lat="44.11803" lon="6.31478">
        <ele>956.52875113342</ele>
        <time>2021-10-12T20:46:44.194Z</time>
      </trkpt>
      <trkpt lat="44.11794" lon="6.31472">
        <ele>956.48803605302</ele>
        <time>2021-10-12T20:46:49.545Z</time>
      </trkpt>
      <trkpt lat="44.11785" lon="6.31463">
        <ele>956.41623274208</ele>
        <time>2021-10-12T20:46:54.899Z</time>
      </trkpt>
      <trkpt lat="44.11776" lon="6.31453">
        <ele>956.34319450995</ele>
        <time>2021-10-12T20:47:00.257Z</time>
      </trkpt>
      <trkpt lat="44.11772" lon="6.31447">
        <ele>956.25850508843</ele>
        <time>2021-10-12T20:47:05.617Z</time>
      </trkpt>
      <trkpt lat="44.11771" lon="6.3144">
        <ele>956.16162662475</ele>
        <time>2021-10-12T20:47:10.979Z</time>
      </trkpt>
      <trkpt lat="44.11772" lon="6.31428">
        <ele>956.0342182493</ele>
        <time>2021-10-12T20:47:16.344Z</time>
      </trkpt>
      <trkpt lat="44.11771" lon="6.31408">
        <ele>955.91062673287</ele>
        <time>2021-10-12T20:47:21.714Z</time>
      </trkpt>
      <trkpt lat="44.11771" lon="6.31405">
        <ele>955.86956378589</ele>
        <time>2021-10-12T20:47:27.084Z</time>
      </trkpt>
      <trkpt lat="44.11769" lon="6.31402">
        <ele>955.85323894246</ele>
        <time>2021-10-12T20:47:32.455Z</time>
      </trkpt>
      <trkpt lat="44.11762" lon="6.31392">
        <ele>955.87150659453</ele>
        <time>2021-10-12T20:47:37.830Z</time>
      </trkpt>
      <trkpt lat="44.1175" lon="6.31376">
        <ele>955.92375211291</ele>
        <time>2021-10-12T20:47:43.210Z</time>
      </trkpt>
      <trkpt lat="44.11749" lon="6.31373">
        <ele>955.97813529483</ele>
        <time>2021-10-12T20:47:48.591Z</time>
      </trkpt>
      <trkpt lat="44.11754" lon="6.31357">
        <ele>956.04179222409</ele>
        <time>2021-10-12T20:47:53.976Z</time>
      </trkpt>
      <trkpt lat="44.11757" lon="6.31353">
        <ele>956.15791118428</ele>
        <time>2021-10-12T20:47:59.363Z</time>
      </trkpt>
      <trkpt lat="44.11766" lon="6.31335">
        <ele>956.33869142711</ele>
        <time>2021-10-12T20:48:04.755Z</time>
      </trkpt>
      <trkpt lat="44.11771" lon="6.31319">
        <ele>956.54982512383</ele>
        <time>2021-10-12T20:48:10.151Z</time>
      </trkpt>
      <trkpt lat="44.11773" lon="6.31304">
        <ele>956.79133666286</ele>
        <time>2021-10-12T20:48:15.551Z</time>
      </trkpt>
      <trkpt lat="44.11773" lon="6.31294">
        <ele>957.08872809777</ele>
        <time>2021-10-12T20:48:20.953Z</time>
      </trkpt>
      <trkpt lat="44.11774" lon="6.31287">
        <ele>957.41388574844</ele>
        <time>2021-10-12T20:48:26.357Z</time>
      </trkpt>
      <trkpt lat="44.11777" lon="6.31271">
        <ele>957.78195488761</ele>
        <time>2021-10-12T20:48:31.765Z</time>
      </trkpt>
      <trkpt lat="44.11777" lon="6.31266">
        <ele>958.17467815718</ele>
        <time>2021-10-12T20:48:37.174Z</time>
      </trkpt>
      <trkpt lat="44.11779" lon="6.31262">
        <ele>958.60706283291</ele>
        <time>2021-10-12T20:48:42.584Z</time>
      </trkpt>
      <trkpt lat="44.11784" lon="6.31257">
        <ele>959.08115186615</ele>
        <time>2021-10-12T20:48:47.996Z</time>
      </trkpt>
      <trkpt lat="44.11795" lon="6.31249">
        <ele>959.6281959149</ele>
        <time>2021-10-12T20:48:53.412Z</time>
      </trkpt>
      <trkpt lat="44.1181" lon="6.31248">
        <ele>960.22967547666</ele>
        <time>2021-10-12T20:48:58.833Z</time>
      </trkpt>
      <trkpt lat="44.11821" lon="6.31255">
        <ele>960.80557326613</ele>
        <time>2021-10-12T20:49:04.258Z</time>
      </trkpt>
      <trkpt lat="44.11823" lon="6.31254">
        <ele>961.3813063225</ele>
        <time>2021-10-12T20:49:09.684Z</time>
      </trkpt>
      <trkpt lat="44.11825" lon="6.31249">
        <ele>961.99268439425</ele>
        <time>2021-10-12T20:49:15.112Z</time>
      </trkpt>
      <trkpt lat="44.11824" lon="6.31247">
        <ele>962.58850657746</ele>
        <time>2021-10-12T20:49:20.540Z</time>
      </trkpt>
      <trkpt lat="44.11819" lon="6.31232">
        <ele>963.22576821568</ele>
        <time>2021-10-12T20:49:25.972Z</time>
      </trkpt>
      <trkpt lat="44.11818" lon="6.31229">
        <ele>963.84656435833</ele>
        <time>2021-10-12T20:49:31.405Z</time>
      </trkpt>
      <trkpt lat="44.11815" lon="6.31215">
        <ele>964.51194191069</ele>
        <time>2021-10-12T20:49:36.841Z</time>
      </trkpt>
      <trkpt lat="44.11812" lon="6.31206">
        <ele>965.19227066769</ele>
        <time>2021-10-12T20:49:42.280Z</time>
      </trkpt>
      <trkpt lat="44.11811" lon="6.31203">
        <ele>965.8195045619</ele>
        <time>2021-10-12T20:49:47.720Z</time>
      </trkpt>
      <trkpt lat="44.11807" lon="6.31194">
        <ele>966.4775744453</ele>
        <time>2021-10-12T20:49:53.162Z</time>
      </trkpt>
      <trkpt lat="44.11806" lon="6.31184">
        <ele>967.70470414741</ele>
        <time>2021-10-12T20:49:58.606Z</time>
      </trkpt>
      <trkpt lat="44.11806" lon="6.31181">
        <ele>968.28119199043</ele>
        <time>2021-10-12T20:50:04.051Z</time>
      </trkpt>
      <trkpt lat="44.11809" lon="6.31169">
        <ele>968.90551832191</ele>
        <time>2021-10-12T20:50:09.499Z</time>
      </trkpt>
      <trkpt lat="44.1181" lon="6.31163">
        <ele>969.44768053612</ele>
        <time>2021-10-12T20:50:14.949Z</time>
      </trkpt>
      <trkpt lat="44.1181" lon="6.31158">
        <ele>969.93989009137</ele>
        <time>2021-10-12T20:50:20.400Z</time>
      </trkpt>
      <trkpt lat="44.11808" lon="6.31156">
        <ele>970.38271374323</ele>
        <time>2021-10-12T20:50:25.852Z</time>
      </trkpt>
      <trkpt lat="44.118" lon="6.31153">
        <ele>970.76936871201</ele>
        <time>2021-10-12T20:50:31.306Z</time>
      </trkpt>
      <trkpt lat="44.11798" lon="6.31152">
        <ele>971.13867990738</ele>
        <time>2021-10-12T20:50:36.761Z</time>
      </trkpt>
      <trkpt lat="44.11792" lon="6.3115">
        <ele>971.47110594118</ele>
        <time>2021-10-12T20:50:42.218Z</time>
      </trkpt>
      <trkpt lat="44.11785" lon="6.31144">
        <ele>971.79594046356</ele>
        <time>2021-10-12T20:50:47.678Z</time>
      </trkpt>
      <trkpt lat="44.11783" lon="6.31143">
        <ele>972.07792806775</ele>
        <time>2021-10-12T20:50:53.139Z</time>
      </trkpt>
      <trkpt lat="44.11779" lon="6.31137">
        <ele>972.34077550459</ele>
        <time>2021-10-12T20:50:58.602Z</time>
      </trkpt>
      <trkpt lat="44.11778" lon="6.31137">
        <ele>972.55530092738</ele>
        <time>2021-10-12T20:51:04.065Z</time>
      </trkpt>
      <trkpt lat="44.11784" lon="6.31141">
        <ele>972.72684210309</ele>
        <time>2021-10-12T20:51:09.530Z</time>
      </trkpt>
      <trkpt lat="44.11788" lon="6.31146">
        <ele>972.8685777651</ele>
        <time>2021-10-12T20:51:14.997Z</time>
      </trkpt>
      <trkpt lat="44.11801" lon="6.31153">
        <ele>973.0031272638</ele>
        <time>2021-10-12T20:51:20.468Z</time>
      </trkpt>
      <trkpt lat="44.11805" lon="6.31154">
        <ele>973.12143454781</ele>
        <time>2021-10-12T20:51:25.941Z</time>
      </trkpt>
      <trkpt lat="44.11815" lon="6.31156">
        <ele>973.2443834685</ele>
        <time>2021-10-12T20:51:31.417Z</time>
      </trkpt>
      <trkpt lat="44.11816" lon="6.31157">
        <ele>973.30676487125</ele>
        <time>2021-10-12T20:51:36.893Z</time>
      </trkpt>
      <trkpt lat="44.11817" lon="6.31157">
        <ele>973.35654908852</ele>
        <time>2021-10-12T20:51:42.370Z</time>
      </trkpt>
      <trkpt lat="44.11818" lon="6.31162">
        <ele>973.36870267488</ele>
        <time>2021-10-12T20:51:47.848Z</time>
      </trkpt>
      <trkpt lat="44.11818" lon="6.31164">
        <ele>973.37813274365</ele>
        <time>2021-10-12T20:51:53.327Z</time>
      </trkpt>
      <trkpt lat="44.1182" lon="6.31178">
        <ele>973.32004619979</ele>
        <time>2021-10-12T20:51:58.809Z</time>
      </trkpt>
      <trkpt lat="44.1182" lon="6.31182">
        <ele>973.30468675997</ele>
        <time>2021-10-12T20:52:04.292Z</time>
      </trkpt>
      <trkpt lat="44.1182" lon="6.31187">
        <ele>973.29290068026</ele>
        <time>2021-10-12T20:52:09.776Z</time>
      </trkpt>
      <trkpt lat="44.11821" lon="6.31191">
        <ele>973.28602257548</ele>
        <time>2021-10-12T20:52:15.261Z</time>
      </trkpt>
      <trkpt lat="44.11822" lon="6.31194">
        <ele>973.28384550679</ele>
        <time>2021-10-12T20:52:20.747Z</time>
      </trkpt>
      <trkpt lat="44.11828" lon="6.31202">
        <ele>973.30043275084</ele>
        <time>2021-10-12T20:52:26.236Z</time>
      </trkpt>
      <trkpt lat="44.11832" lon="6.31206">
        <ele>973.35581533592</ele>
        <time>2021-10-12T20:52:31.726Z</time>
      </trkpt>
      <trkpt lat="44.11839" lon="6.31213">
        <ele>973.43682586045</ele>
        <time>2021-10-12T20:52:37.219Z</time>
      </trkpt>
      <trkpt lat="44.11846" lon="6.31221">
        <ele>973.52451644727</ele>
        <time>2021-10-12T20:52:42.715Z</time>
      </trkpt>
      <trkpt lat="44.11853" lon="6.31224">
        <ele>973.6675246881</ele>
        <time>2021-10-12T20:52:48.214Z</time>
      </trkpt>
      <trkpt lat="44.11859" lon="6.31229">
        <ele>973.80327175922</ele>
        <time>2021-10-12T20:52:53.715Z</time>
      </trkpt>
      <trkpt lat="44.11863" lon="6.3123">
        <ele>973.95976385435</ele>
        <time>2021-10-12T20:52:59.217Z</time>
      </trkpt>
      <trkpt lat="44.11874" lon="6.31238">
        <ele>974.14341439942</ele>
        <time>2021-10-12T20:53:04.723Z</time>
      </trkpt>
      <trkpt lat="44.11879" lon="6.31239">
        <ele>974.35313291079</ele>
        <time>2021-10-12T20:53:10.231Z</time>
      </trkpt>
      <trkpt lat="44.11885" lon="6.31244">
        <ele>974.57453500661</ele>
        <time>2021-10-12T20:53:15.741Z</time>
      </trkpt>
      <trkpt lat="44.11896" lon="6.3125">
        <ele>974.84603313563</ele>
        <time>2021-10-12T20:53:21.255Z</time>
      </trkpt>
      <trkpt lat="44.11897" lon="6.3125">
        <ele>975.09749023545</ele>
        <time>2021-10-12T20:53:26.770Z</time>
      </trkpt>
      <trkpt lat="44.11899" lon="6.3125">
        <ele>975.37506987988</ele>
        <time>2021-10-12T20:53:32.285Z</time>
      </trkpt>
      <trkpt lat="44.11904" lon="6.31249">
        <ele>975.70702265292</ele>
        <time>2021-10-12T20:53:37.802Z</time>
      </trkpt>
      <trkpt lat="44.11907" lon="6.31249">
        <ele>976.03048088933</ele>
        <time>2021-10-12T20:53:43.320Z</time>
      </trkpt>
      <trkpt lat="44.1191" lon="6.31249">
        <ele>976.36821747952</ele>
        <time>2021-10-12T20:53:48.839Z</time>
      </trkpt>
      <trkpt lat="44.11921" lon="6.31248">
        <ele>976.78896465575</ele>
        <time>2021-10-12T20:53:54.361Z</time>
      </trkpt>
      <trkpt lat="44.11924" lon="6.3125">
        <ele>977.13869730028</ele>
        <time>2021-10-12T20:53:59.885Z</time>
      </trkpt>
      <trkpt lat="44.11935" lon="6.3126">
        <ele>977.48841733937</ele>
        <time>2021-10-12T20:54:05.413Z</time>
      </trkpt>
      <trkpt lat="44.11937" lon="6.31262">
        <ele>977.8399816586</ele>
        <time>2021-10-12T20:54:10.942Z</time>
      </trkpt>
      <trkpt lat="44.11944" lon="6.31268">
        <ele>978.19971471603</ele>
        <time>2021-10-12T20:54:16.474Z</time>
      </trkpt>
      <trkpt lat="44.11952" lon="6.31273">
        <ele>978.58396237813</ele>
        <time>2021-10-12T20:54:22.009Z</time>
      </trkpt>
      <trkpt lat="44.11955" lon="6.31273">
        <ele>978.9847993476</ele>
        <time>2021-10-12T20:54:27.545Z</time>
      </trkpt>
      <trkpt lat="44.11966" lon="6.31275">
        <ele>979.44053695472</ele>
        <time>2021-10-12T20:54:33.084Z</time>
      </trkpt>
      <trkpt lat="44.11969" lon="6.31276">
        <ele>979.85066183152</ele>
        <time>2021-10-12T20:54:38.624Z</time>
      </trkpt>
      <trkpt lat="44.11979" lon="6.31283">
        <ele>980.26570649218</ele>
        <time>2021-10-12T20:54:44.168Z</time>
      </trkpt>
      <trkpt lat="44.11982" lon="6.31284">
        <ele>980.70058411608</ele>
        <time>2021-10-12T20:54:49.713Z</time>
      </trkpt>
      <trkpt lat="44.11989" lon="6.31286">
        <ele>981.17028941795</ele>
        <time>2021-10-12T20:54:55.261Z</time>
      </trkpt>
      <trkpt lat="44.11998" lon="6.31285">
        <ele>981.64276863388</ele>
        <time>2021-10-12T20:55:00.811Z</time>
      </trkpt>
      <trkpt lat="44.12002" lon="6.31287">
        <ele>982.10113394555</ele>
        <time>2021-10-12T20:55:06.363Z</time>
      </trkpt>
      <trkpt lat="44.12012" lon="6.31293">
        <ele>982.54159164163</ele>
        <time>2021-10-12T20:55:11.919Z</time>
      </trkpt>
      <trkpt lat="44.12026" lon="6.31303">
        <ele>982.91435440616</ele>
        <time>2021-10-12T20:55:17.480Z</time>
      </trkpt>
      <trkpt lat="44.1203" lon="6.31296">
        <ele>983.46800324537</ele>
        <time>2021-10-12T20:55:23.043Z</time>
      </trkpt>
      <trkpt lat="44.12029" lon="6.31288">
        <ele>984.03563304071</ele>
        <time>2021-10-12T20:55:28.608Z</time>
      </trkpt>
      <trkpt lat="44.12029" lon="6.31286">
        <ele>984.56598611435</ele>
        <time>2021-10-12T20:55:34.173Z</time>
      </trkpt>
      <trkpt lat="44.12028" lon="6.31282">
        <ele>985.12643058979</ele>
        <time>2021-10-12T20:55:39.739Z</time>
      </trkpt>
      <trkpt lat="44.12028" lon="6.31276">
        <ele>985.72575665809</ele>
        <time>2021-10-12T20:55:45.307Z</time>
      </trkpt>
      <trkpt lat="44.12031" lon="6.31276">
        <ele>986.26732533335</ele>
        <time>2021-10-12T20:55:50.876Z</time>
      </trkpt>
      <trkpt lat="44.12033" lon="6.31279">
        <ele>986.78736743844</ele>
        <time>2021-10-12T20:55:56.445Z</time>
      </trkpt>
      <trkpt lat="44.12039" lon="6.31282">
        <ele>987.30571361806</ele>
        <time>2021-10-12T20:56:02.017Z</time>
      </trkpt>
      <trkpt lat="44.12041" lon="6.31283">
        <ele>987.8635874978</ele>
        <time>2021-10-12T20:56:07.589Z</time>
      </trkpt>
      <trkpt lat="44.12042" lon="6.31283">
        <ele>988.44166480196</ele>
        <time>2021-10-12T20:56:13.162Z</time>
      </trkpt>
      <trkpt lat="44.12044" lon="6.31282">
        <ele>989.04204421955</ele>
        <time>2021-10-12T20:56:18.735Z</time>
      </trkpt>
      <trkpt lat="44.12043" lon="6.31278">
        <ele>989.68079278902</ele>
        <time>2021-10-12T20:56:24.309Z</time>
      </trkpt>
      <trkpt lat="44.12042" lon="6.31271">
        <ele>990.34915822654</ele>
        <time>2021-10-12T20:56:29.885Z</time>
      </trkpt>
      <trkpt lat="44.12039" lon="6.31264">
        <ele>991.01525909904</ele>
        <time>2021-10-12T20:56:35.463Z</time>
      </trkpt>
      <trkpt lat="44.12038" lon="6.31262">
        <ele>991.64320927489</ele>
        <time>2021-10-12T20:56:41.042Z</time>
      </trkpt>
      <trkpt lat="44.12029" lon="6.31251">
        <ele>992.33225585135</ele>
        <time>2021-10-12T20:56:46.625Z</time>
      </trkpt>
      <trkpt lat="44.12025" lon="6.31247">
        <ele>992.97947466203</ele>
        <time>2021-10-12T20:56:52.209Z</time>
      </trkpt>
      <trkpt lat="44.12019" lon="6.31239">
        <ele>993.62173757063</ele>
        <time>2021-10-12T20:56:57.796Z</time>
      </trkpt>
      <trkpt lat="44.12017" lon="6.31234">
        <ele>994.23706382121</ele>
        <time>2021-10-12T20:57:03.384Z</time>
      </trkpt>
      <trkpt lat="44.12016" lon="6.3123">
        <ele>994.86106970307</ele>
        <time>2021-10-12T20:57:08.974Z</time>
      </trkpt>
      <trkpt lat="44.12017" lon="6.31228">
        <ele>995.46406731951</ele>
        <time>2021-10-12T20:57:14.564Z</time>
      </trkpt>
      <trkpt lat="44.12019" lon="6.31228">
        <ele>996.05208763071</ele>
        <time>2021-10-12T20:57:20.155Z</time>
      </trkpt>
      <trkpt lat="44.12025" lon="6.3123">
        <ele>996.633972191</ele>
        <time>2021-10-12T20:57:25.748Z</time>
      </trkpt>
      <trkpt lat="44.12027" lon="6.31231">
        <ele>997.19603199537</ele>
        <time>2021-10-12T20:57:31.342Z</time>
      </trkpt>
      <trkpt lat="44.12032" lon="6.31234">
        <ele>997.74789081783</ele>
        <time>2021-10-12T20:57:36.937Z</time>
      </trkpt>
      <trkpt lat="44.1204" lon="6.31238">
        <ele>998.30671900294</ele>
        <time>2021-10-12T20:57:42.535Z</time>
      </trkpt>
      <trkpt lat="44.12048" lon="6.31243">
        <ele>998.8236736666</ele>
        <time>2021-10-12T20:57:48.136Z</time>
      </trkpt>
      <trkpt lat="44.12055" lon="6.31247">
        <ele>999.29582520037</ele>
        <time>2021-10-12T20:57:53.740Z</time>
      </trkpt>
      <trkpt lat="44.12057" lon="6.31247">
        <ele>999.81652273662</ele>
        <time>2021-10-12T20:57:59.344Z</time>
      </trkpt>
      <trkpt lat="44.12058" lon="6.31245">
        <ele>1000.3546229366</ele>
        <time>2021-10-12T20:58:04.949Z</time>
      </trkpt>
      <trkpt lat="44.12058" lon="6.31242">
        <ele>1000.8816408645</ele>
        <time>2021-10-12T20:58:10.555Z</time>
      </trkpt>
      <trkpt lat="44.12054" lon="6.31233">
        <ele>1001.4625847296</ele>
        <time>2021-10-12T20:58:16.163Z</time>
      </trkpt>
      <trkpt lat="44.12052" lon="6.31227">
        <ele>1001.9951113786</ele>
        <time>2021-10-12T20:58:21.773Z</time>
      </trkpt>
      <trkpt lat="44.12051" lon="6.31224">
        <ele>1002.4877920448</ele>
        <time>2021-10-12T20:58:27.383Z</time>
      </trkpt>
      <trkpt lat="44.12046" lon="6.31213">
        <ele>1003.0253689733</ele>
        <time>2021-10-12T20:58:32.997Z</time>
      </trkpt>
      <trkpt lat="44.12045" lon="6.31209">
        <ele>1003.4682695994</ele>
        <time>2021-10-12T20:58:38.611Z</time>
      </trkpt>
      <trkpt lat="44.12042" lon="6.31198">
        <ele>1003.9187661917</ele>
        <time>2021-10-12T20:58:44.228Z</time>
      </trkpt>
      <trkpt lat="44.12041" lon="6.31195">
        <ele>1004.3199502956</ele>
        <time>2021-10-12T20:58:49.846Z</time>
      </trkpt>
      <trkpt lat="44.12035" lon="6.31187">
        <ele>1004.7032062646</ele>
        <time>2021-10-12T20:58:55.467Z</time>
      </trkpt>
      <trkpt lat="44.12033" lon="6.31185">
        <ele>1005.0629826265</ele>
        <time>2021-10-12T20:59:01.089Z</time>
      </trkpt>
      <trkpt lat="44.1203" lon="6.31183">
        <ele>1005.4021037683</ele>
        <time>2021-10-12T20:59:06.712Z</time>
      </trkpt>
      <trkpt lat="44.12022" lon="6.3118">
        <ele>1005.7040932016</ele>
        <time>2021-10-12T20:59:12.338Z</time>
      </trkpt>
      <trkpt lat="44.12019" lon="6.31178">
        <ele>1006.010701102</ele>
        <time>2021-10-12T20:59:17.965Z</time>
      </trkpt>
      <trkpt lat="44.12012" lon="6.31172">
        <ele>1006.3089706218</ele>
        <time>2021-10-12T20:59:23.594Z</time>
      </trkpt>
      <trkpt lat="44.12001" lon="6.31158">
        <ele>1006.6211561796</ele>
        <time>2021-10-12T20:59:29.228Z</time>
      </trkpt>
      <trkpt lat="44.11991" lon="6.31152">
        <ele>1006.8871120705</ele>
        <time>2021-10-12T20:59:34.866Z</time>
      </trkpt>
      <trkpt lat="44.11981" lon="6.3114">
        <ele>1007.1465695921</ele>
        <time>2021-10-12T20:59:40.508Z</time>
      </trkpt>
      <trkpt lat="44.1198" lon="6.31138">
        <ele>1007.4024643844</ele>
        <time>2021-10-12T20:59:46.151Z</time>
      </trkpt>
      <trkpt lat="44.1198" lon="6.3113">
        <ele>1007.6885246355</ele>
        <time>2021-10-12T20:59:51.796Z</time>
      </trkpt>
      <trkpt lat="44.11979" lon="6.31125">
        <ele>1007.952609114</ele>
        <time>2021-10-12T20:59:57.442Z</time>
      </trkpt>
      <trkpt lat="44.11976" lon="6.31117">
        <ele>1008.2138282456</ele>
        <time>2021-10-12T21:00:03.090Z</time>
      </trkpt>
      <trkpt lat="44.11975" lon="6.31114">
        <ele>1008.4406804176</ele>
        <time>2021-10-12T21:00:08.739Z</time>
      </trkpt>
      <trkpt lat="44.11965" lon="6.31106">
        <ele>1008.6619591343</ele>
        <time>2021-10-12T21:00:14.392Z</time>
      </trkpt>
      <trkpt lat="44.11962" lon="6.31103">
        <ele>1008.8711379203</ele>
        <time>2021-10-12T21:00:20.046Z</time>
      </trkpt>
      <trkpt lat="44.11948" lon="6.31089">
        <ele>1009.0304728046</ele>
        <time>2021-10-12T21:00:25.706Z</time>
      </trkpt>
      <trkpt lat="44.11935" lon="6.31076">
        <ele>1009.1989529065</ele>
        <time>2021-10-12T21:00:31.371Z</time>
      </trkpt>
      <trkpt lat="44.11927" lon="6.31062">
        <ele>1009.3929912068</ele>
        <time>2021-10-12T21:00:37.041Z</time>
      </trkpt>
      <trkpt lat="44.11926" lon="6.31059">
        <ele>1009.6050379313</ele>
        <time>2021-10-12T21:00:42.711Z</time>
      </trkpt>
      <trkpt lat="44.11927" lon="6.31056">
        <ele>1009.8363614685</ele>
        <time>2021-10-12T21:00:48.382Z</time>
      </trkpt>
      <trkpt lat="44.1193" lon="6.31056">
        <ele>1010.0760211944</ele>
        <time>2021-10-12T21:00:54.054Z</time>
      </trkpt>
      <trkpt lat="44.11931" lon="6.31058">
        <ele>1010.2993718495</ele>
        <time>2021-10-12T21:00:59.726Z</time>
      </trkpt>
      <trkpt lat="44.1194" lon="6.31063">
        <ele>1010.5775875187</ele>
        <time>2021-10-12T21:01:05.402Z</time>
      </trkpt>
      <trkpt lat="44.11942" lon="6.31063">
        <ele>1010.8312770263</ele>
        <time>2021-10-12T21:01:11.078Z</time>
      </trkpt>
      <trkpt lat="44.11951" lon="6.31065">
        <ele>1011.1461979359</ele>
        <time>2021-10-12T21:01:16.757Z</time>
      </trkpt>
      <trkpt lat="44.11956" lon="6.31066">
        <ele>1011.4355451048</ele>
        <time>2021-10-12T21:01:22.438Z</time>
      </trkpt>
      <trkpt lat="44.11963" lon="6.31068">
        <ele>1011.7436327399</ele>
        <time>2021-10-12T21:01:28.122Z</time>
      </trkpt>
      <trkpt lat="44.11969" lon="6.31071">
        <ele>1012.0081063781</ele>
        <time>2021-10-12T21:01:33.807Z</time>
      </trkpt>
      <trkpt lat="44.11977" lon="6.31077">
        <ele>1012.2867633257</ele>
        <time>2021-10-12T21:01:39.496Z</time>
      </trkpt>
      <trkpt lat="44.11985" lon="6.31085">
        <ele>1012.5409366396</ele>
        <time>2021-10-12T21:01:45.188Z</time>
      </trkpt>
      <trkpt lat="44.11994" lon="6.31092">
        <ele>1012.8005163062</ele>
        <time>2021-10-12T21:01:50.883Z</time>
      </trkpt>
      <trkpt lat="44.12002" lon="6.31092">
        <ele>1013.1023538515</ele>
        <time>2021-10-12T21:01:56.581Z</time>
      </trkpt>
      <trkpt lat="44.12004" lon="6.31092">
        <ele>1013.4007394934</ele>
        <time>2021-10-12T21:02:02.280Z</time>
      </trkpt>
      <trkpt lat="44.12007" lon="6.31093">
        <ele>1013.7057282913</ele>
        <time>2021-10-12T21:02:07.980Z</time>
      </trkpt>
      <trkpt lat="44.12015" lon="6.31094">
        <ele>1014.0212857573</ele>
        <time>2021-10-12T21:02:13.682Z</time>
      </trkpt>
      <trkpt lat="44.12023" lon="6.31095">
        <ele>1014.3600709697</ele>
        <time>2021-10-12T21:02:19.387Z</time>
      </trkpt>
      <trkpt lat="44.12026" lon="6.31095">
        <ele>1014.7215397259</ele>
        <time>2021-10-12T21:02:25.093Z</time>
      </trkpt>
      <trkpt lat="44.12026" lon="6.3109">
        <ele>1015.1197506417</ele>
        <time>2021-10-12T21:02:30.800Z</time>
      </trkpt>
      <trkpt lat="44.12024" lon="6.31084">
        <ele>1015.5371262943</ele>
        <time>2021-10-12T21:02:36.509Z</time>
      </trkpt>
      <trkpt lat="44.12019" lon="6.31074">
        <ele>1015.9929586538</ele>
        <time>2021-10-12T21:02:42.221Z</time>
      </trkpt>
      <trkpt lat="44.12017" lon="6.31073">
        <ele>1016.4344741057</ele>
        <time>2021-10-12T21:02:47.934Z</time>
      </trkpt>
      <trkpt lat="44.12015" lon="6.31071">
        <ele>1016.888247919</ele>
        <time>2021-10-12T21:02:53.647Z</time>
      </trkpt>
      <trkpt lat="44.12012" lon="6.31065">
        <ele>1017.3965613423</ele>
        <time>2021-10-12T21:02:59.362Z</time>
      </trkpt>
      <trkpt lat="44.12014" lon="6.31059">
        <ele>1017.9246408316</ele>
        <time>2021-10-12T21:03:05.078Z</time>
      </trkpt>
      <trkpt lat="44.12016" lon="6.31058">
        <ele>1018.4378305517</ele>
        <time>2021-10-12T21:03:10.795Z</time>
      </trkpt>
      <trkpt lat="44.12018" lon="6.31058">
        <ele>1018.960446627</ele>
        <time>2021-10-12T21:03:16.513Z</time>
      </trkpt>
      <trkpt lat="44.12022" lon="6.31058">
        <ele>1019.4920005811</ele>
        <time>2021-10-12T21:03:22.232Z</time>
      </trkpt>
      <trkpt lat="44.12027" lon="6.31059">
        <ele>1020.029931715</ele>
        <time>2021-10-12T21:03:27.953Z</time>
      </trkpt>
      <trkpt lat="44.12032" lon="6.31057">
        <ele>1020.6086534527</ele>
        <time>2021-10-12T21:03:33.676Z</time>
      </trkpt>
      <trkpt lat="44.12033" lon="6.31054">
        <ele>1021.234176027</ele>
        <time>2021-10-12T21:03:39.399Z</time>
      </trkpt>
      <trkpt lat="44.12031" lon="6.31041">
        <ele>1021.9503362825</ele>
        <time>2021-10-12T21:03:45.126Z</time>
      </trkpt>
      <trkpt lat="44.1203" lon="6.31038">
        <ele>1022.6324257837</ele>
        <time>2021-10-12T21:03:50.853Z</time>
      </trkpt>
      <trkpt lat="44.12025" lon="6.31035">
        <ele>1023.3588174815</ele>
        <time>2021-10-12T21:03:56.582Z</time>
      </trkpt>
      <trkpt lat="44.12019" lon="6.31033">
        <ele>1024.1070339785</ele>
        <time>2021-10-12T21:04:02.313Z</time>
      </trkpt>
      <trkpt lat="44.12015" lon="6.31027">
        <ele>1024.8661963698</ele>
        <time>2021-10-12T21:04:08.046Z</time>
      </trkpt>
      <trkpt lat="44.12007" lon="6.31013">
        <ele>1025.6443447309</ele>
        <time>2021-10-12T21:04:13.783Z</time>
      </trkpt>
      <trkpt lat="44.12006" lon="6.31009">
        <ele>1026.4023230568</ele>
        <time>2021-10-12T21:04:19.521Z</time>
      </trkpt>
      <trkpt lat="44.12001" lon="6.30992">
        <ele>1027.1665371909</ele>
        <time>2021-10-12T21:04:25.264Z</time>
      </trkpt>
      <trkpt lat="44.12" lon="6.30988">
        <ele>1027.987471259</ele>
        <time>2021-10-12T21:04:31.008Z</time>
      </trkpt>
      <trkpt lat="44.11997" lon="6.30979">
        <ele>1028.848520143</ele>
        <time>2021-10-12T21:04:36.754Z</time>
      </trkpt>
      <trkpt lat="44.11995" lon="6.30966">
        <ele>1029.7153421596</ele>
        <time>2021-10-12T21:04:42.503Z</time>
      </trkpt>
      <trkpt lat="44.11997" lon="6.30953">
        <ele>1030.5891318937</ele>
        <time>2021-10-12T21:04:48.255Z</time>
      </trkpt>
      <trkpt lat="44.11996" lon="6.30949">
        <ele>1031.4468931192</ele>
        <time>2021-10-12T21:04:54.009Z</time>
      </trkpt>
      <trkpt lat="44.11993" lon="6.30945">
        <ele>1032.3111202955</ele>
        <time>2021-10-12T21:04:59.764Z</time>
      </trkpt>
      <trkpt lat="44.11991" lon="6.30932">
        <ele>1033.2253244634</ele>
        <time>2021-10-12T21:05:05.522Z</time>
      </trkpt>
      <trkpt lat="44.11991" lon="6.30927">
        <ele>1034.0712824264</ele>
        <time>2021-10-12T21:05:11.281Z</time>
      </trkpt>
      <trkpt lat="44.11987" lon="6.30918">
        <ele>1034.941772277</ele>
        <time>2021-10-12T21:05:17.042Z</time>
      </trkpt>
      <trkpt lat="44.11984" lon="6.30909">
        <ele>1035.7777364261</ele>
        <time>2021-10-12T21:05:22.806Z</time>
      </trkpt>
      <trkpt lat="44.11981" lon="6.30904">
        <ele>1036.5721398765</ele>
        <time>2021-10-12T21:05:28.571Z</time>
      </trkpt>
      <trkpt lat="44.11979" lon="6.309">
        <ele>1037.3480451733</ele>
        <time>2021-10-12T21:05:34.338Z</time>
      </trkpt>
      <trkpt lat="44.11971" lon="6.30884">
        <ele>1038.1112242796</ele>
        <time>2021-10-12T21:05:40.110Z</time>
      </trkpt>
      <trkpt lat="44.11969" lon="6.3088">
        <ele>1038.8572309879</ele>
        <time>2021-10-12T21:05:45.882Z</time>
      </trkpt>
      <trkpt lat="44.11961" lon="6.30861">
        <ele>1039.6414251009</ele>
        <time>2021-10-12T21:05:51.660Z</time>
      </trkpt>
      <trkpt lat="44.11949" lon="6.30843">
        <ele>1040.3716021786</ele>
        <time>2021-10-12T21:05:57.444Z</time>
      </trkpt>
      <trkpt lat="44.11944" lon="6.30836">
        <ele>1041.0591564039</ele>
        <time>2021-10-12T21:06:03.230Z</time>
      </trkpt>
      <trkpt lat="44.11933" lon="6.30825">
        <ele>1041.7339934992</ele>
        <time>2021-10-12T21:06:09.021Z</time>
      </trkpt>
      <trkpt lat="44.11919" lon="6.30812">
        <ele>1042.3824363637</ele>
        <time>2021-10-12T21:06:14.817Z</time>
      </trkpt>
      <trkpt lat="44.11915" lon="6.30804">
        <ele>1043.0129846076</ele>
        <time>2021-10-12T21:06:20.615Z</time>
      </trkpt>
      <trkpt lat="44.1191" lon="6.30793">
        <ele>1043.6645234089</ele>
        <time>2021-10-12T21:06:26.417Z</time>
      </trkpt>
      <trkpt lat="44.11909" lon="6.3079">
        <ele>1044.2458766046</ele>
        <time>2021-10-12T21:06:32.220Z</time>
      </trkpt>
      <trkpt lat="44.11905" lon="6.30783">
        <ele>1044.8225579278</ele>
        <time>2021-10-12T21:06:38.025Z</time>
      </trkpt>
      <trkpt lat="44.11899" lon="6.30777">
        <ele>1045.3228357846</ele>
        <time>2021-10-12T21:06:43.832Z</time>
      </trkpt>
      <trkpt lat="44.11893" lon="6.30771">
        <ele>1045.7903870195</ele>
        <time>2021-10-12T21:06:49.642Z</time>
      </trkpt>
      <trkpt lat="44.11889" lon="6.30763">
        <ele>1046.2599810796</ele>
        <time>2021-10-12T21:06:55.454Z</time>
      </trkpt>
      <trkpt lat="44.11885" lon="6.30753">
        <ele>1046.715304737</ele>
        <time>2021-10-12T21:07:01.269Z</time>
      </trkpt>
      <trkpt lat="44.1188" lon="6.30744">
        <ele>1047.1396739901</ele>
        <time>2021-10-12T21:07:07.086Z</time>
      </trkpt>
      <trkpt lat="44.11872" lon="6.30725">
        <ele>1047.5976637001</ele>
        <time>2021-10-12T21:07:12.909Z</time>
      </trkpt>
      <trkpt lat="44.11874" lon="6.30722">
        <ele>1048.0320262739</ele>
        <time>2021-10-12T21:07:18.733Z</time>
      </trkpt>
      <trkpt lat="44.11876" lon="6.30724">
        <ele>1048.4315203033</ele>
        <time>2021-10-12T21:07:24.557Z</time>
      </trkpt>
      <trkpt lat="44.11884" lon="6.30731">
        <ele>1048.8418807556</ele>
        <time>2021-10-12T21:07:30.385Z</time>
      </trkpt>
      <trkpt lat="44.11894" lon="6.30738">
        <ele>1049.2745198178</ele>
        <time>2021-10-12T21:07:36.216Z</time>
      </trkpt>
      <trkpt lat="44.11903" lon="6.30754">
        <ele>1049.6381181427</ele>
        <time>2021-10-12T21:07:42.052Z</time>
      </trkpt>
      <trkpt lat="44.11912" lon="6.30765">
        <ele>1050.0020897992</ele>
        <time>2021-10-12T21:07:47.892Z</time>
      </trkpt>
      <trkpt lat="44.11919" lon="6.3077">
        <ele>1050.3643094359</ele>
        <time>2021-10-12T21:07:53.735Z</time>
      </trkpt>
      <trkpt lat="44.11927" lon="6.30773">
        <ele>1050.7277734997</ele>
        <time>2021-10-12T21:07:59.581Z</time>
      </trkpt>
      <trkpt lat="44.11934" lon="6.3078">
        <ele>1051.0351184768</ele>
        <time>2021-10-12T21:08:05.429Z</time>
      </trkpt>
      <trkpt lat="44.11944" lon="6.30784">
        <ele>1051.3646668722</ele>
        <time>2021-10-12T21:08:11.281Z</time>
      </trkpt>
      <trkpt lat="44.11948" lon="6.30785">
        <ele>1051.7027480984</ele>
        <time>2021-10-12T21:08:17.134Z</time>
      </trkpt>
      <trkpt lat="44.11951" lon="6.30786">
        <ele>1052.0425494419</ele>
        <time>2021-10-12T21:08:22.988Z</time>
      </trkpt>
      <trkpt lat="44.11958" lon="6.30787">
        <ele>1052.4011119334</ele>
        <time>2021-10-12T21:08:28.845Z</time>
      </trkpt>
      <trkpt lat="44.11961" lon="6.30785">
        <ele>1052.7724758033</ele>
        <time>2021-10-12T21:08:34.703Z</time>
      </trkpt>
      <trkpt lat="44.11964" lon="6.30784">
        <ele>1053.1354378609</ele>
        <time>2021-10-12T21:08:40.562Z</time>
      </trkpt>
      <trkpt lat="44.11972" lon="6.3078">
        <ele>1053.4955028572</ele>
        <time>2021-10-12T21:08:46.424Z</time>
      </trkpt>
      <trkpt lat="44.11974" lon="6.30778">
        <ele>1053.877637159</ele>
        <time>2021-10-12T21:08:52.286Z</time>
      </trkpt>
      <trkpt lat="44.11976" lon="6.30775">
        <ele>1054.2779567449</ele>
        <time>2021-10-12T21:08:58.149Z</time>
      </trkpt>
      <trkpt lat="44.11977" lon="6.30772">
        <ele>1054.699391847</ele>
        <time>2021-10-12T21:09:04.013Z</time>
      </trkpt>
      <trkpt lat="44.11976" lon="6.30765">
        <ele>1055.1671853275</ele>
        <time>2021-10-12T21:09:09.879Z</time>
      </trkpt>
      <trkpt lat="44.11975" lon="6.30754">
        <ele>1055.6721574479</ele>
        <time>2021-10-12T21:09:15.747Z</time>
      </trkpt>
      <trkpt lat="44.11974" lon="6.30747">
        <ele>1056.1843559213</ele>
        <time>2021-10-12T21:09:21.617Z</time>
      </trkpt>
      <trkpt lat="44.11973" lon="6.3074">
        <ele>1056.7024583387</ele>
        <time>2021-10-12T21:09:27.489Z</time>
      </trkpt>
      <trkpt lat="44.11972" lon="6.30736">
        <ele>1057.2141244193</ele>
        <time>2021-10-12T21:09:33.362Z</time>
      </trkpt>
      <trkpt lat="44.11972" lon="6.30726">
        <ele>1057.7730878462</ele>
        <time>2021-10-12T21:09:39.237Z</time>
      </trkpt>
      <trkpt lat="44.11972" lon="6.30722">
        <ele>1058.3076755141</ele>
        <time>2021-10-12T21:09:45.113Z</time>
      </trkpt>
      <trkpt lat="44.11971" lon="6.30719">
        <ele>1058.8638449437</ele>
        <time>2021-10-12T21:09:50.990Z</time>
      </trkpt>
      <trkpt lat="44.11969" lon="6.30717">
        <ele>1059.4410072364</ele>
        <time>2021-10-12T21:09:56.868Z</time>
      </trkpt>
      <trkpt lat="44.11966" lon="6.30711">
        <ele>1060.0623622194</ele>
        <time>2021-10-12T21:10:02.748Z</time>
      </trkpt>
      <trkpt lat="44.11962" lon="6.30707">
        <ele>1060.6935685167</ele>
        <time>2021-10-12T21:10:08.629Z</time>
      </trkpt>
      <trkpt lat="44.11957" lon="6.30704">
        <ele>1061.2913462922</ele>
        <time>2021-10-12T21:10:14.512Z</time>
      </trkpt>
      <trkpt lat="44.11955" lon="6.30702">
        <ele>1061.903048229</ele>
        <time>2021-10-12T21:10:20.396Z</time>
      </trkpt>
      <trkpt lat="44.11953" lon="6.30699">
        <ele>1062.5319439452</ele>
        <time>2021-10-12T21:10:26.281Z</time>
      </trkpt>
      <trkpt lat="44.11945" lon="6.30685">
        <ele>1063.2100209356</ele>
        <time>2021-10-12T21:10:32.170Z</time>
      </trkpt>
      <trkpt lat="44.11929" lon="6.30666">
        <ele>1063.9030905218</ele>
        <time>2021-10-12T21:10:38.066Z</time>
      </trkpt>
      <trkpt lat="44.11918" lon="6.30647">
        <ele>1064.608890958</ele>
        <time>2021-10-12T21:10:43.968Z</time>
      </trkpt>
      <trkpt lat="44.11919" lon="6.30644">
        <ele>1065.3004945241</ele>
        <time>2021-10-12T21:10:49.871Z</time>
      </trkpt>
      <trkpt lat="44.11922" lon="6.30644">
        <ele>1066.0072161748</ele>
        <time>2021-10-12T21:10:55.775Z</time>
      </trkpt>
      <trkpt lat="44.11927" lon="6.30647">
        <ele>1066.6969192234</ele>
        <time>2021-10-12T21:11:01.681Z</time>
      </trkpt>
      <trkpt lat="44.11938" lon="6.30656">
        <ele>1067.3772143513</ele>
        <time>2021-10-12T21:11:07.591Z</time>
      </trkpt>
      <trkpt lat="44.11947" lon="6.30661">
        <ele>1068.0643141321</ele>
        <time>2021-10-12T21:11:13.504Z</time>
      </trkpt>
      <trkpt lat="44.11952" lon="6.30663">
        <ele>1068.763809797</ele>
        <time>2021-10-12T21:11:19.419Z</time>
      </trkpt>
      <trkpt lat="44.1196" lon="6.30658">
        <ele>1069.5309060007</ele>
        <time>2021-10-12T21:11:25.337Z</time>
      </trkpt>
      <trkpt lat="44.11962" lon="6.30652">
        <ele>1070.2659460079</ele>
        <time>2021-10-12T21:11:31.256Z</time>
      </trkpt>
      <trkpt lat="44.11961" lon="6.3065">
        <ele>1070.9757430018</ele>
        <time>2021-10-12T21:11:37.176Z</time>
      </trkpt>
      <trkpt lat="44.11957" lon="6.30641">
        <ele>1071.7248251554</ele>
        <time>2021-10-12T21:11:43.099Z</time>
      </trkpt>
      <trkpt lat="44.11958" lon="6.30638">
        <ele>1072.4431053957</ele>
        <time>2021-10-12T21:11:49.022Z</time>
      </trkpt>
      <trkpt lat="44.11965" lon="6.30634">
        <ele>1073.1640873297</ele>
        <time>2021-10-12T21:11:54.948Z</time>
      </trkpt>
      <trkpt lat="44.11967" lon="6.30631">
        <ele>1073.8687377931</ele>
        <time>2021-10-12T21:12:00.875Z</time>
      </trkpt>
      <trkpt lat="44.11972" lon="6.30622">
        <ele>1074.61699782</ele>
        <time>2021-10-12T21:12:06.805Z</time>
      </trkpt>
      <trkpt lat="44.11974" lon="6.30616">
        <ele>1075.3406341075</ele>
        <time>2021-10-12T21:12:12.736Z</time>
      </trkpt>
      <trkpt lat="44.11975" lon="6.30612">
        <ele>1076.0363448532</ele>
        <time>2021-10-12T21:12:18.668Z</time>
      </trkpt>
      <trkpt lat="44.11972" lon="6.30609">
        <ele>1076.7422570537</ele>
        <time>2021-10-12T21:12:24.601Z</time>
      </trkpt>
      <trkpt lat="44.1197" lon="6.30608">
        <ele>1077.423144237</ele>
        <time>2021-10-12T21:12:30.535Z</time>
      </trkpt>
      <trkpt lat="44.11965" lon="6.30605">
        <ele>1078.1166652103</ele>
        <time>2021-10-12T21:12:36.471Z</time>
      </trkpt>
      <trkpt lat="44.11961" lon="6.30601">
        <ele>1078.7955137644</ele>
        <time>2021-10-12T21:12:42.409Z</time>
      </trkpt>
      <trkpt lat="44.11951" lon="6.30586">
        <ele>1079.4951499539</ele>
        <time>2021-10-12T21:12:48.351Z</time>
      </trkpt>
      <trkpt lat="44.11949" lon="6.30583">
        <ele>1080.1282194839</ele>
        <time>2021-10-12T21:12:54.294Z</time>
      </trkpt>
      <trkpt lat="44.11946" lon="6.30575">
        <ele>1080.7705133333</ele>
        <time>2021-10-12T21:13:00.240Z</time>
      </trkpt>
      <trkpt lat="44.11947" lon="6.30573">
        <ele>1081.370275257</ele>
        <time>2021-10-12T21:13:06.186Z</time>
      </trkpt>
      <trkpt lat="44.11951" lon="6.30569">
        <ele>1081.9608256319</ele>
        <time>2021-10-12T21:13:12.134Z</time>
      </trkpt>
      <trkpt lat="44.11951" lon="6.30567">
        <ele>1082.5335777357</ele>
        <time>2021-10-12T21:13:18.082Z</time>
      </trkpt>
      <trkpt lat="44.11948" lon="6.30562">
        <ele>1083.1052365586</ele>
        <time>2021-10-12T21:13:24.032Z</time>
      </trkpt>
      <trkpt lat="44.11947" lon="6.30558">
        <ele>1083.655504249</ele>
        <time>2021-10-12T21:13:29.983Z</time>
      </trkpt>
      <trkpt lat="44.11945" lon="6.30555">
        <ele>1084.1903982005</ele>
        <time>2021-10-12T21:13:35.935Z</time>
      </trkpt>
      <trkpt lat="44.11943" lon="6.30547">
        <ele>1084.72225184</ele>
        <time>2021-10-12T21:13:41.889Z</time>
      </trkpt>
      <trkpt lat="44.11941" lon="6.30536">
        <ele>1085.245641877</ele>
        <time>2021-10-12T21:13:47.845Z</time>
      </trkpt>
      <trkpt lat="44.11939" lon="6.30525">
        <ele>1085.75140502</ele>
        <time>2021-10-12T21:13:53.804Z</time>
      </trkpt>
      <trkpt lat="44.11938" lon="6.30521">
        <ele>1086.2234590201</ele>
        <time>2021-10-12T21:13:59.764Z</time>
      </trkpt>
      <trkpt lat="44.11938" lon="6.30518">
        <ele>1086.6796627888</ele>
        <time>2021-10-12T21:14:05.725Z</time>
      </trkpt>
      <trkpt lat="44.11933" lon="6.30509">
        <ele>1087.1264203206</ele>
        <time>2021-10-12T21:14:11.689Z</time>
      </trkpt>
      <trkpt lat="44.11924" lon="6.30488">
        <ele>1087.5554863129</ele>
        <time>2021-10-12T21:14:17.659Z</time>
      </trkpt>
      <trkpt lat="44.11919" lon="6.30481">
        <ele>1087.9440311902</ele>
        <time>2021-10-12T21:14:23.631Z</time>
      </trkpt>
      <trkpt lat="44.11913" lon="6.30473">
        <ele>1088.3132809064</ele>
        <time>2021-10-12T21:14:29.606Z</time>
      </trkpt>
      <trkpt lat="44.11906" lon="6.30466">
        <ele>1088.6642886884</ele>
        <time>2021-10-12T21:14:35.584Z</time>
      </trkpt>
      <trkpt lat="44.11902" lon="6.30459">
        <ele>1088.9948428574</ele>
        <time>2021-10-12T21:14:41.564Z</time>
      </trkpt>
      <trkpt lat="44.11908" lon="6.30454">
        <ele>1089.356605773</ele>
        <time>2021-10-12T21:14:47.546Z</time>
      </trkpt>
      <trkpt lat="44.1191" lon="6.30454">
        <ele>1089.7000125145</ele>
        <time>2021-10-12T21:14:53.529Z</time>
      </trkpt>
      <trkpt lat="44.11918" lon="6.30457">
        <ele>1090.0537565434</ele>
        <time>2021-10-12T21:14:59.514Z</time>
      </trkpt>
      <trkpt lat="44.11923" lon="6.3046">
        <ele>1090.3846015888</ele>
        <time>2021-10-12T21:15:05.501Z</time>
      </trkpt>
      <trkpt lat="44.11929" lon="6.30461">
        <ele>1090.6982668749</ele>
        <time>2021-10-12T21:15:11.490Z</time>
      </trkpt>
      <trkpt lat="44.11932" lon="6.3046">
        <ele>1090.9837061295</ele>
        <time>2021-10-12T21:15:17.480Z</time>
      </trkpt>
      <trkpt lat="44.11935" lon="6.30461">
        <ele>1091.2452342654</ele>
        <time>2021-10-12T21:15:23.471Z</time>
      </trkpt>
      <trkpt lat="44.11944" lon="6.30464">
        <ele>1091.4871890819</ele>
        <time>2021-10-12T21:15:29.465Z</time>
      </trkpt>
      <trkpt lat="44.11951" lon="6.30467">
        <ele>1091.7045019411</ele>
        <time>2021-10-12T21:15:35.462Z</time>
      </trkpt>
      <trkpt lat="44.11954" lon="6.30468">
        <ele>1091.8905375977</ele>
        <time>2021-10-12T21:15:41.460Z</time>
      </trkpt>
      <trkpt lat="44.11959" lon="6.30469">
        <ele>1092.0568202977</ele>
        <time>2021-10-12T21:15:47.459Z</time>
      </trkpt>
      <trkpt lat="44.11962" lon="6.30468">
        <ele>1092.2006059864</ele>
        <time>2021-10-12T21:15:53.460Z</time>
      </trkpt>
      <trkpt lat="44.11968" lon="6.30466">
        <ele>1092.3216036271</ele>
        <time>2021-10-12T21:15:59.463Z</time>
      </trkpt>
      <trkpt lat="44.11977" lon="6.3046">
        <ele>1092.4155061116</ele>
        <time>2021-10-12T21:16:05.469Z</time>
      </trkpt>
      <trkpt lat="44.11986" lon="6.30454">
        <ele>1092.5213281642</ele>
        <time>2021-10-12T21:16:11.478Z</time>
      </trkpt>
      <trkpt lat="44.11995" lon="6.30445">
        <ele>1092.6228078144</ele>
        <time>2021-10-12T21:16:17.491Z</time>
      </trkpt>
      <trkpt lat="44.11997" lon="6.30441">
        <ele>1092.6236100588</ele>
        <time>2021-10-12T21:16:23.505Z</time>
      </trkpt>
      <trkpt lat="44.12" lon="6.30431">
        <ele>1092.5719384123</ele>
        <time>2021-10-12T21:16:29.522Z</time>
      </trkpt>
      <trkpt lat="44.11999" lon="6.30428">
        <ele>1092.4831047416</ele>
        <time>2021-10-12T21:16:35.539Z</time>
      </trkpt>
      <trkpt lat="44.11999" lon="6.30423">
        <ele>1092.3540510923</ele>
        <time>2021-10-12T21:16:41.558Z</time>
      </trkpt>
      <trkpt lat="44.12004" lon="6.30415">
        <ele>1092.2081401634</ele>
        <time>2021-10-12T21:16:47.579Z</time>
      </trkpt>
      <trkpt lat="44.12005" lon="6.30408">
        <ele>1092.0166075654</ele>
        <time>2021-10-12T21:16:53.602Z</time>
      </trkpt>
      <trkpt lat="44.12005" lon="6.30408">
        <ele>1091.788316538</ele>
        <time>2021-10-12T21:16:59.625Z</time>
      </trkpt>
      <trkpt lat="44.12003" lon="6.30399">
        <ele>1091.5056793933</ele>
        <time>2021-10-12T21:17:05.650Z</time>
      </trkpt>
      <trkpt lat="44.12002" lon="6.30396">
        <ele>1091.2011500658</ele>
        <time>2021-10-12T21:17:11.676Z</time>
      </trkpt>
      <trkpt lat="44.12" lon="6.30391">
        <ele>1090.8475020748</ele>
        <time>2021-10-12T21:17:17.703Z</time>
      </trkpt>
      <trkpt lat="44.11999" lon="6.30384">
        <ele>1090.4576546588</ele>
        <time>2021-10-12T21:17:23.732Z</time>
      </trkpt>
      <trkpt lat="44.11998" lon="6.3038">
        <ele>1090.0563281489</ele>
        <time>2021-10-12T21:17:29.762Z</time>
      </trkpt>
      <trkpt lat="44.11996" lon="6.30374">
        <ele>1089.6249214907</ele>
        <time>2021-10-12T21:17:35.793Z</time>
      </trkpt>
      <trkpt lat="44.11995" lon="6.3037">
        <ele>1089.1767025208</ele>
        <time>2021-10-12T21:17:41.825Z</time>
      </trkpt>
      <trkpt lat="44.11995" lon="6.30366">
        <ele>1088.7067262871</ele>
        <time>2021-10-12T21:17:47.858Z</time>
      </trkpt>
      <trkpt lat="44.11995" lon="6.30362">
        <ele>1088.2171832792</ele>
        <time>2021-10-12T21:17:53.892Z</time>
      </trkpt>
      <trkpt lat="44.11996" lon="6.30357">
        <ele>1087.7049506585</ele>
        <time>2021-10-12T21:17:59.928Z</time>
      </trkpt>
      <trkpt lat="44.11997" lon="6.30353">
        <ele>1087.1770313059</ele>
        <time>2021-10-12T21:18:05.965Z</time>
      </trkpt>
      <trkpt lat="44.11999" lon="6.30348">
        <ele>1086.6370999844</ele>
        <time>2021-10-12T21:18:12.003Z</time>
      </trkpt>
      <trkpt lat="44.12001" lon="6.3034">
        <ele>1086.0678437216</ele>
        <time>2021-10-12T21:18:18.043Z</time>
      </trkpt>
      <trkpt lat="44.12002" lon="6.30338">
        <ele>1085.5427626246</ele>
        <time>2021-10-12T21:18:24.084Z</time>
      </trkpt>
      <trkpt lat="44.12003" lon="6.30333">
        <ele>1085.011239542</ele>
        <time>2021-10-12T21:18:30.126Z</time>
      </trkpt>
      <trkpt lat="44.12004" lon="6.3033">
        <ele>1084.4937588647</ele>
        <time>2021-10-12T21:18:36.169Z</time>
      </trkpt>
      <trkpt lat="44.12006" lon="6.30327">
        <ele>1083.9816352558</ele>
        <time>2021-10-12T21:18:42.213Z</time>
      </trkpt>
      <trkpt lat="44.12009" lon="6.3032">
        <ele>1083.4504776709</ele>
        <time>2021-10-12T21:18:48.259Z</time>
      </trkpt>
      <trkpt lat="44.1201" lon="6.30314">
        <ele>1082.9580890825</ele>
        <time>2021-10-12T21:18:54.306Z</time>
      </trkpt>
      <trkpt lat="44.12011" lon="6.30307">
        <ele>1082.4798458311</ele>
        <time>2021-10-12T21:19:00.355Z</time>
      </trkpt>
      <trkpt lat="44.12011" lon="6.303">
        <ele>1082.0242153965</ele>
        <time>2021-10-12T21:19:06.406Z</time>
      </trkpt>
      <trkpt lat="44.12008" lon="6.30285">
        <ele>1081.5494266984</ele>
        <time>2021-10-12T21:19:12.460Z</time>
      </trkpt>
      <trkpt lat="44.12006" lon="6.30278">
        <ele>1081.1537825459</ele>
        <time>2021-10-12T21:19:18.516Z</time>
      </trkpt>
      <trkpt lat="44.12002" lon="6.30266">
        <ele>1080.7906183402</ele>
        <time>2021-10-12T21:19:24.575Z</time>
      </trkpt>
      <trkpt lat="44.12001" lon="6.30261">
        <ele>1080.5056046046</ele>
        <time>2021-10-12T21:19:30.635Z</time>
      </trkpt>
      <trkpt lat="44.12003" lon="6.30249">
        <ele>1080.2515742605</ele>
        <time>2021-10-12T21:19:36.698Z</time>
      </trkpt>
      <trkpt lat="44.12003" lon="6.30242">
        <ele>1080.0504538536</ele>
        <time>2021-10-12T21:19:42.763Z</time>
      </trkpt>
      <trkpt lat="44.12001" lon="6.30234">
        <ele>1079.9000407185</ele>
        <time>2021-10-12T21:19:48.830Z</time>
      </trkpt>
      <trkpt lat="44.12" lon="6.3023">
        <ele>1079.7843886045</ele>
        <time>2021-10-12T21:19:54.898Z</time>
      </trkpt>
      <trkpt lat="44.11997" lon="6.30221">
        <ele>1079.7057446259</ele>
        <time>2021-10-12T21:20:00.968Z</time>
      </trkpt>
      <trkpt lat="44.11996" lon="6.30212">
        <ele>1079.665688031</ele>
        <time>2021-10-12T21:20:07.041Z</time>
      </trkpt>
      <trkpt lat="44.1199" lon="6.30194">
        <ele>1079.681092836</ele>
        <time>2021-10-12T21:20:13.118Z</time>
      </trkpt>
      <trkpt lat="44.11985" lon="6.30177">
        <ele>1079.6990752688</ele>
        <time>2021-10-12T21:20:19.200Z</time>
      </trkpt>
      <trkpt lat="44.11981" lon="6.30159">
        <ele>1079.7602436719</ele>
        <time>2021-10-12T21:20:25.286Z</time>
      </trkpt>
      <trkpt lat="44.11983" lon="6.30144">
        <ele>1079.881449089</ele>
        <time>2021-10-12T21:20:31.376Z</time>
      </trkpt>
      <trkpt lat="44.11983" lon="6.30137">
        <ele>1079.9823887135</ele>
        <time>2021-10-12T21:20:37.468Z</time>
      </trkpt>
      <trkpt lat="44.11982" lon="6.30127">
        <ele>1080.1157075714</ele>
        <time>2021-10-12T21:20:43.562Z</time>
      </trkpt>
      <trkpt lat="44.11983" lon="6.30109">
        <ele>1080.2686320999</ele>
        <time>2021-10-12T21:20:49.661Z</time>
      </trkpt>
      <trkpt lat="44.11982" lon="6.30105">
        <ele>1080.4029932248</ele>
        <time>2021-10-12T21:20:55.761Z</time>
      </trkpt>
      <trkpt lat="44.11978" lon="6.30091">
        <ele>1080.5752537563</ele>
        <time>2021-10-12T21:21:01.864Z</time>
      </trkpt>
      <trkpt lat="44.11976" lon="6.30087">
        <ele>1080.7090337363</ele>
        <time>2021-10-12T21:21:07.968Z</time>
      </trkpt>
      <trkpt lat="44.11968" lon="6.3008">
        <ele>1080.8211346562</ele>
        <time>2021-10-12T21:21:14.075Z</time>
      </trkpt>
      <trkpt lat="44.11965" lon="6.30075">
        <ele>1080.9401694759</ele>
        <time>2021-10-12T21:21:20.184Z</time>
      </trkpt>
      <trkpt lat="44.11961" lon="6.30066">
        <ele>1081.0673670146</ele>
        <time>2021-10-12T21:21:26.296Z</time>
      </trkpt>
      <trkpt lat="44.11959" lon="6.30061">
        <ele>1081.1614752462</ele>
        <time>2021-10-12T21:21:32.409Z</time>
      </trkpt>
      <trkpt lat="44.11954" lon="6.30041">
        <ele>1081.2722372963</ele>
        <time>2021-10-12T21:21:38.527Z</time>
      </trkpt>
      <trkpt lat="44.11945" lon="6.30023">
        <ele>1081.2810616298</ele>
        <time>2021-10-12T21:21:44.650Z</time>
      </trkpt>
      <trkpt lat="44.11937" lon="6.30004">
        <ele>1081.2240150849</ele>
        <time>2021-10-12T21:21:50.778Z</time>
      </trkpt>
      <trkpt lat="44.11934" lon="6.29987">
        <ele>1081.1661259607</ele>
        <time>2021-10-12T21:21:56.911Z</time>
      </trkpt>
      <trkpt lat="44.11938" lon="6.29977">
        <ele>1081.1261742729</ele>
        <time>2021-10-12T21:22:03.047Z</time>
      </trkpt>
      <trkpt lat="44.11938" lon="6.29976">
        <ele>1081.014602865</ele>
        <time>2021-10-12T21:22:09.183Z</time>
      </trkpt>
      <trkpt lat="44.11939" lon="6.29972">
        <ele>1080.871274367</ele>
        <time>2021-10-12T21:22:15.320Z</time>
      </trkpt>
      <trkpt lat="44.11942" lon="6.29965">
        <ele>1080.6800626741</ele>
        <time>2021-10-12T21:22:21.459Z</time>
      </trkpt>
      <trkpt lat="44.11944" lon="6.29962">
        <ele>1080.4266429962</ele>
        <time>2021-10-12T21:22:27.599Z</time>
      </trkpt>
      <trkpt lat="44.1195" lon="6.29952">
        <ele>1080.1035541855</ele>
        <time>2021-10-12T21:22:33.742Z</time>
      </trkpt>
      <trkpt lat="44.11956" lon="6.29938">
        <ele>1079.7599268614</ele>
        <time>2021-10-12T21:22:39.889Z</time>
      </trkpt>
      <trkpt lat="44.11959" lon="6.29933">
        <ele>1079.3601142504</ele>
        <time>2021-10-12T21:22:46.037Z</time>
      </trkpt>
      <trkpt lat="44.11961" lon="6.29928">
        <ele>1078.9082387684</ele>
        <time>2021-10-12T21:22:52.187Z</time>
      </trkpt>
      <trkpt lat="44.11966" lon="6.29914">
        <ele>1078.3524308509</ele>
        <time>2021-10-12T21:22:58.340Z</time>
      </trkpt>
      <trkpt lat="44.11968" lon="6.2991">
        <ele>1077.8095033475</ele>
        <time>2021-10-12T21:23:04.495Z</time>
      </trkpt>
      <trkpt lat="44.1197" lon="6.29905">
        <ele>1077.2170731685</ele>
        <time>2021-10-12T21:23:10.651Z</time>
      </trkpt>
      <trkpt lat="44.11972" lon="6.29898">
        <ele>1076.5508061104</ele>
        <time>2021-10-12T21:23:16.809Z</time>
      </trkpt>
      <trkpt lat="44.11974" lon="6.2989">
        <ele>1075.8554333639</ele>
        <time>2021-10-12T21:23:22.969Z</time>
      </trkpt>
      <trkpt lat="44.11977" lon="6.29882">
        <ele>1075.1260017084</ele>
        <time>2021-10-12T21:23:29.131Z</time>
      </trkpt>
      <trkpt lat="44.1198" lon="6.29877">
        <ele>1074.3924245659</ele>
        <time>2021-10-12T21:23:35.294Z</time>
      </trkpt>
      <trkpt lat="44.11983" lon="6.29872">
        <ele>1073.6240197358</ele>
        <time>2021-10-12T21:23:41.459Z</time>
      </trkpt>
      <trkpt lat="44.11984" lon="6.29866">
        <ele>1072.8074562699</ele>
        <time>2021-10-12T21:23:47.625Z</time>
      </trkpt>
      <trkpt lat="44.11985" lon="6.29855">
        <ele>1071.9040151748</ele>
        <time>2021-10-12T21:23:53.794Z</time>
      </trkpt>
      <trkpt lat="44.11985" lon="6.29849">
        <ele>1071.0408165893</ele>
        <time>2021-10-12T21:23:59.965Z</time>
      </trkpt>
      <trkpt lat="44.11985" lon="6.29827">
        <ele>1070.0509135201</ele>
        <time>2021-10-12T21:24:06.141Z</time>
      </trkpt>
      <trkpt lat="44.11984" lon="6.2982">
        <ele>1069.1572695118</ele>
        <time>2021-10-12T21:24:12.319Z</time>
      </trkpt>
      <trkpt lat="44.11981" lon="6.29805">
        <ele>1068.1982117756</ele>
        <time>2021-10-12T21:24:18.500Z</time>
      </trkpt>
      <trkpt lat="44.1198" lon="6.29798">
        <ele>1067.2498209043</ele>
        <time>2021-10-12T21:24:24.683Z</time>
      </trkpt>
      <trkpt lat="44.11979" lon="6.29791">
        <ele>1066.2910873394</ele>
        <time>2021-10-12T21:24:30.868Z</time>
      </trkpt>
      <trkpt lat="44.11981" lon="6.2977">
        <ele>1065.2719981417</ele>
        <time>2021-10-12T21:24:37.058Z</time>
      </trkpt>
      <trkpt lat="44.1198" lon="6.29762">
        <ele>1064.2832987528</ele>
        <time>2021-10-12T21:24:43.250Z</time>
      </trkpt>
      <trkpt lat="44.11977" lon="6.29747">
        <ele>1063.2345521609</ele>
        <time>2021-10-12T21:24:49.445Z</time>
      </trkpt>
      <trkpt lat="44.11974" lon="6.29733">
        <ele>1062.1886280515</ele>
        <time>2021-10-12T21:24:55.644Z</time>
      </trkpt>
      <trkpt lat="44.11972" lon="6.29722">
        <ele>1061.1160927905</ele>
        <time>2021-10-12T21:25:01.846Z</time>
      </trkpt>
      <trkpt lat="44.11971" lon="6.29717">
        <ele>1060.033304505</ele>
        <time>2021-10-12T21:25:08.049Z</time>
      </trkpt>
      <trkpt lat="44.11969" lon="6.29712">
        <ele>1058.9449393074</ele>
        <time>2021-10-12T21:25:14.253Z</time>
      </trkpt>
      <trkpt lat="44.11968" lon="6.29707">
        <ele>1057.8342820343</ele>
        <time>2021-10-12T21:25:20.459Z</time>
      </trkpt>
      <trkpt lat="44.11966" lon="6.29696">
        <ele>1056.6921211028</ele>
        <time>2021-10-12T21:25:26.667Z</time>
      </trkpt>
      <trkpt lat="44.11963" lon="6.29682">
        <ele>1055.5167095449</ele>
        <time>2021-10-12T21:25:32.879Z</time>
      </trkpt>
      <trkpt lat="44.11961" lon="6.29676">
        <ele>1054.3304216472</ele>
        <time>2021-10-12T21:25:39.092Z</time>
      </trkpt>
      <trkpt lat="44.1196" lon="6.2967">
        <ele>1053.1084547666</ele>
        <time>2021-10-12T21:25:45.307Z</time>
      </trkpt>
      <trkpt lat="44.11959" lon="6.2966">
        <ele>1051.8470027212</ele>
        <time>2021-10-12T21:25:51.524Z</time>
      </trkpt>
      <trkpt lat="44.11961" lon="6.29657">
        <ele>1050.5712339465</ele>
        <time>2021-10-12T21:25:57.742Z</time>
      </trkpt>
      <trkpt lat="44.11964" lon="6.29655">
        <ele>1049.2523133123</ele>
        <time>2021-10-12T21:26:03.961Z</time>
      </trkpt>
      <trkpt lat="44.1197" lon="6.29653">
        <ele>1047.846965602</ele>
        <time>2021-10-12T21:26:10.183Z</time>
      </trkpt>
      <trkpt lat="44.11973" lon="6.2965">
        <ele>1046.4679472224</ele>
        <time>2021-10-12T21:26:16.406Z</time>
      </trkpt>
      <trkpt lat="44.11976" lon="6.29639">
        <ele>1045.0006387265</ele>
        <time>2021-10-12T21:26:22.631Z</time>
      </trkpt>
      <trkpt lat="44.11969" lon="6.29615">
        <ele>1043.5138508343</ele>
        <time>2021-10-12T21:26:28.863Z</time>
      </trkpt>
      <trkpt lat="44.11964" lon="6.29602">
        <ele>1042.0980781846</ele>
        <time>2021-10-12T21:26:35.098Z</time>
      </trkpt>
      <trkpt lat="44.11963" lon="6.29598">
        <ele>1040.7228345127</ele>
        <time>2021-10-12T21:26:41.334Z</time>
      </trkpt>
      <trkpt lat="44.11959" lon="6.29589">
        <ele>1039.2817136255</ele>
        <time>2021-10-12T21:26:47.573Z</time>
      </trkpt>
      <trkpt lat="44.11956" lon="6.29581">
        <ele>1037.8380913723</ele>
        <time>2021-10-12T21:26:53.814Z</time>
      </trkpt>
      <trkpt lat="44.11953" lon="6.29578">
        <ele>1036.4508443877</ele>
        <time>2021-10-12T21:27:00.056Z</time>
      </trkpt>
      <trkpt lat="44.11952" lon="6.29575">
        <ele>1035.0693853947</ele>
        <time>2021-10-12T21:27:06.299Z</time>
      </trkpt>
      <trkpt lat="44.11951" lon="6.29571">
        <ele>1033.6844848791</ele>
        <time>2021-10-12T21:27:12.543Z</time>
      </trkpt>
      <trkpt lat="44.1195" lon="6.29567">
        <ele>1032.2998608413</ele>
        <time>2021-10-12T21:27:18.788Z</time>
      </trkpt>
      <trkpt lat="44.11948" lon="6.29562">
        <ele>1030.9164083066</ele>
        <time>2021-10-12T21:27:25.034Z</time>
      </trkpt>
      <trkpt lat="44.11943" lon="6.29553">
        <ele>1029.5022038356</ele>
        <time>2021-10-12T21:27:31.283Z</time>
      </trkpt>
      <trkpt lat="44.11939" lon="6.29544">
        <ele>1028.1385785679</ele>
        <time>2021-10-12T21:27:37.535Z</time>
      </trkpt>
      <trkpt lat="44.11936" lon="6.29539">
        <ele>1026.8174983989</ele>
        <time>2021-10-12T21:27:43.788Z</time>
      </trkpt>
      <trkpt lat="44.11934" lon="6.29534">
        <ele>1025.5047975985</ele>
        <time>2021-10-12T21:27:50.043Z</time>
      </trkpt>
      <trkpt lat="44.11931" lon="6.29524">
        <ele>1024.1413083591</ele>
        <time>2021-10-12T21:27:56.300Z</time>
      </trkpt>
      <trkpt lat="44.11931" lon="6.29521">
        <ele>1022.8651020432</ele>
        <time>2021-10-12T21:28:02.558Z</time>
      </trkpt>
      <trkpt lat="44.11932" lon="6.29518">
        <ele>1021.5967067863</ele>
        <time>2021-10-12T21:28:08.817Z</time>
      </trkpt>
      <trkpt lat="44.11932" lon="6.29514">
        <ele>1020.3251742258</ele>
        <time>2021-10-12T21:28:15.077Z</time>
      </trkpt>
      <trkpt lat="44.11932" lon="6.2951">
        <ele>1019.0734448255</ele>
        <time>2021-10-12T21:28:21.338Z</time>
      </trkpt>
      <trkpt lat="44.11931" lon="6.29502">
        <ele>1017.8126599142</ele>
        <time>2021-10-12T21:28:27.600Z</time>
      </trkpt>
      <trkpt lat="44.1193" lon="6.29494">
        <ele>1016.5556118543</ele>
        <time>2021-10-12T21:28:33.865Z</time>
      </trkpt>
      <trkpt lat="44.11927" lon="6.29485">
        <ele>1015.3235976142</ele>
        <time>2021-10-12T21:28:40.132Z</time>
      </trkpt>
      <trkpt lat="44.11924" lon="6.29477">
        <ele>1014.1105132923</ele>
        <time>2021-10-12T21:28:46.401Z</time>
      </trkpt>
      <trkpt lat="44.11923" lon="6.29474">
        <ele>1012.9923425595</ele>
        <time>2021-10-12T21:28:52.671Z</time>
      </trkpt>
      <trkpt lat="44.1192" lon="6.29471">
        <ele>1011.9190193454</ele>
        <time>2021-10-12T21:28:58.942Z</time>
      </trkpt>
      <trkpt lat="44.11919" lon="6.29467">
        <ele>1010.8455760737</ele>
        <time>2021-10-12T21:29:05.214Z</time>
      </trkpt>
      <trkpt lat="44.1192" lon="6.29465">
        <ele>1009.8615433333</ele>
        <time>2021-10-12T21:29:11.487Z</time>
      </trkpt>
      <trkpt lat="44.11922" lon="6.29465">
        <ele>1008.9203312215</ele>
        <time>2021-10-12T21:29:17.760Z</time>
      </trkpt>
      <trkpt lat="44.11923" lon="6.29463">
        <ele>1008.0003748365</ele>
        <time>2021-10-12T21:29:24.034Z</time>
      </trkpt>
      <trkpt lat="44.11922" lon="6.29461">
        <ele>1007.1073785342</ele>
        <time>2021-10-12T21:29:30.308Z</time>
      </trkpt>
      <trkpt lat="44.11915" lon="6.29458">
        <ele>1006.2474293144</ele>
        <time>2021-10-12T21:29:36.585Z</time>
      </trkpt>
      <trkpt lat="44.11918" lon="6.29453">
        <ele>1005.3872817513</ele>
        <time>2021-10-12T21:29:42.863Z</time>
      </trkpt>
      <trkpt lat="44.11925" lon="6.29453">
        <ele>1004.6040079927</ele>
        <time>2021-10-12T21:29:49.144Z</time>
      </trkpt>
      <trkpt lat="44.11925" lon="6.29451">
        <ele>1003.8301281696</ele>
        <time>2021-10-12T21:29:55.425Z</time>
      </trkpt>
      <trkpt lat="44.11924" lon="6.29447">
        <ele>1003.0766303477</ele>
        <time>2021-10-12T21:30:01.707Z</time>
      </trkpt>
      <trkpt lat="44.11919" lon="6.2944">
        <ele>1002.3253038753</ele>
        <time>2021-10-12T21:30:07.991Z</time>
      </trkpt>
      <trkpt lat="44.11916" lon="6.29438">
        <ele>1001.6565266597</ele>
        <time>2021-10-12T21:30:14.277Z</time>
      </trkpt>
      <trkpt lat="44.11913" lon="6.29437">
        <ele>1001.036293774</ele>
        <time>2021-10-12T21:30:20.564Z</time>
      </trkpt>
      <trkpt lat="44.1191" lon="6.29436">
        <ele>1000.4530390901</ele>
        <time>2021-10-12T21:30:26.852Z</time>
      </trkpt>
      <trkpt lat="44.11908" lon="6.29437">
        <ele>999.89165091715</ele>
        <time>2021-10-12T21:30:33.140Z</time>
      </trkpt>
      <trkpt lat="44.11906" lon="6.29436">
        <ele>999.32422245128</ele>
        <time>2021-10-12T21:30:39.429Z</time>
      </trkpt>
      <trkpt lat="44.11903" lon="6.29432">
        <ele>998.68119676152</ele>
        <time>2021-10-12T21:30:45.720Z</time>
      </trkpt>
      <trkpt lat="44.11904" lon="6.2943">
        <ele>998.14250950026</ele>
        <time>2021-10-12T21:30:52.011Z</time>
      </trkpt>
      <trkpt lat="44.11908" lon="6.29425">
        <ele>997.61382806352</ele>
        <time>2021-10-12T21:30:58.304Z</time>
      </trkpt>
      <trkpt lat="44.1191" lon="6.29423">
        <ele>997.06318952652</ele>
        <time>2021-10-12T21:31:04.598Z</time>
      </trkpt>
      <trkpt lat="44.11912" lon="6.29421">
        <ele>996.52665703354</ele>
        <time>2021-10-12T21:31:10.893Z</time>
      </trkpt>
      <trkpt lat="44.11919" lon="6.29419">
        <ele>995.96697698633</ele>
        <time>2021-10-12T21:31:17.190Z</time>
      </trkpt>
      <trkpt lat="44.11924" lon="6.29421">
        <ele>995.46081467287</ele>
        <time>2021-10-12T21:31:23.488Z</time>
      </trkpt>
      <trkpt lat="44.11926" lon="6.29422">
        <ele>994.95357891612</ele>
        <time>2021-10-12T21:31:29.787Z</time>
      </trkpt>
      <trkpt lat="44.11929" lon="6.29421">
        <ele>994.42183255262</ele>
        <time>2021-10-12T21:31:36.087Z</time>
      </trkpt>
      <trkpt lat="44.11929" lon="6.29419">
        <ele>993.87517956959</ele>
        <time>2021-10-12T21:31:42.388Z</time>
      </trkpt>
      <trkpt lat="44.11927" lon="6.29417">
        <ele>993.32092970708</ele>
        <time>2021-10-12T21:31:48.689Z</time>
      </trkpt>
      <trkpt lat="44.11925" lon="6.29414">
        <ele>992.75861596489</ele>
        <time>2021-10-12T21:31:54.991Z</time>
      </trkpt>
      <trkpt lat="44.11922" lon="6.29411">
        <ele>992.17333191349</ele>
        <time>2021-10-12T21:32:01.295Z</time>
      </trkpt>
      <trkpt lat="44.11923" lon="6.2941">
        <ele>991.57837490551</ele>
        <time>2021-10-12T21:32:07.599Z</time>
      </trkpt>
      <trkpt lat="44.11924" lon="6.2941">
        <ele>990.96158875005</ele>
        <time>2021-10-12T21:32:13.903Z</time>
      </trkpt>
      <trkpt lat="44.11929" lon="6.29411">
        <ele>990.31167429947</ele>
        <time>2021-10-12T21:32:20.209Z</time>
      </trkpt>
      <trkpt lat="44.11932" lon="6.29411">
        <ele>989.646475911</ele>
        <time>2021-10-12T21:32:26.516Z</time>
      </trkpt>
      <trkpt lat="44.11934" lon="6.29411">
        <ele>988.94063072437</ele>
        <time>2021-10-12T21:32:32.824Z</time>
      </trkpt>
      <trkpt lat="44.11935" lon="6.29409">
        <ele>988.17884270861</ele>
        <time>2021-10-12T21:32:39.132Z</time>
      </trkpt>
      <trkpt lat="44.11934" lon="6.29407">
        <ele>987.42097980553</ele>
        <time>2021-10-12T21:32:45.441Z</time>
      </trkpt>
      <trkpt lat="44.1193" lon="6.29401">
        <ele>986.57274282359</ele>
        <time>2021-10-12T21:32:51.752Z</time>
      </trkpt>
      <trkpt lat="44.11925" lon="6.29397">
        <ele>985.71810428695</ele>
        <time>2021-10-12T21:32:58.064Z</time>
      </trkpt>
      <trkpt lat="44.11921" lon="6.29393">
        <ele>984.82637226106</ele>
        <time>2021-10-12T21:33:04.378Z</time>
      </trkpt>
      <trkpt lat="44.11917" lon="6.29389">
        <ele>983.89814819705</ele>
        <time>2021-10-12T21:33:10.694Z</time>
      </trkpt>
      <trkpt lat="44.11913" lon="6.29387">
        <ele>982.95711802682</ele>
        <time>2021-10-12T21:33:17.011Z</time>
      </trkpt>
      <trkpt lat="44.11914" lon="6.29383">
        <ele>981.94278217467</ele>
        <time>2021-10-12T21:33:23.329Z</time>
      </trkpt>
      <trkpt lat="44.11916" lon="6.29383">
        <ele>980.94445495825</ele>
        <time>2021-10-12T21:33:29.648Z</time>
      </trkpt>
      <trkpt lat="44.11918" lon="6.29383">
        <ele>979.91783321575</ele>
        <time>2021-10-12T21:33:35.968Z</time>
      </trkpt>
      <trkpt lat="44.11924" lon="6.29379">
        <ele>978.75315287562</ele>
        <time>2021-10-12T21:33:42.290Z</time>
      </trkpt>
      <trkpt lat="44.11929" lon="6.29377">
        <ele>977.59787792046</ele>
        <time>2021-10-12T21:33:48.614Z</time>
      </trkpt>
      <trkpt lat="44.11932" lon="6.29376">
        <ele>976.46228074296</ele>
        <time>2021-10-12T21:33:54.938Z</time>
      </trkpt>
      <trkpt lat="44.11936" lon="6.29377">
        <ele>975.2706673434</ele>
        <time>2021-10-12T21:34:01.264Z</time>
      </trkpt>
      <trkpt lat="44.11941" lon="6.29378">
        <ele>974.01387980634</ele>
        <time>2021-10-12T21:34:07.592Z</time>
      </trkpt>
      <trkpt lat="44.11945" lon="6.29377">
        <ele>972.69894638858</ele>
        <time>2021-10-12T21:34:13.921Z</time>
      </trkpt>
      <trkpt lat="44.11947" lon="6.29376">
        <ele>971.44254928013</ele>
        <time>2021-10-12T21:34:20.251Z</time>
      </trkpt>
      <trkpt lat="44.11948" lon="6.29375">
        <ele>970.17031911484</ele>
        <time>2021-10-12T21:34:26.581Z</time>
      </trkpt>
      <trkpt lat="44.11948" lon="6.29373">
        <ele>968.89551644132</ele>
        <time>2021-10-12T21:34:32.912Z</time>
      </trkpt>
      <trkpt lat="44.11945" lon="6.29369">
        <ele>967.64477377266</ele>
        <time>2021-10-12T21:34:39.244Z</time>
      </trkpt>
      <trkpt lat="44.11942" lon="6.29364">
        <ele>966.36844262058</ele>
        <time>2021-10-12T21:34:45.578Z</time>
      </trkpt>
      <trkpt lat="44.1194" lon="6.29359">
        <ele>965.09716656116</ele>
        <time>2021-10-12T21:34:51.913Z</time>
      </trkpt>
      <trkpt lat="44.11939" lon="6.29356">
        <ele>963.80953681483</ele>
        <time>2021-10-12T21:34:58.249Z</time>
      </trkpt>
      <trkpt lat="44.11939" lon="6.29355">
        <ele>962.49471081187</ele>
        <time>2021-10-12T21:35:04.585Z</time>
      </trkpt>
      <trkpt lat="44.11941" lon="6.29353">
        <ele>961.16953491857</ele>
        <time>2021-10-12T21:35:10.922Z</time>
      </trkpt>
      <trkpt lat="44.11943" lon="6.29352">
        <ele>959.8369580038</ele>
        <time>2021-10-12T21:35:17.260Z</time>
      </trkpt>
      <trkpt lat="44.11946" lon="6.29348">
        <ele>958.43830541207</ele>
        <time>2021-10-12T21:35:23.599Z</time>
      </trkpt>
      <trkpt lat="44.1195" lon="6.29345">
        <ele>957.03548695595</ele>
        <time>2021-10-12T21:35:29.940Z</time>
      </trkpt>
      <trkpt lat="44.11951" lon="6.29342">
        <ele>955.73148371833</ele>
        <time>2021-10-12T21:35:36.282Z</time>
      </trkpt>
      <trkpt lat="44.11951" lon="6.29338">
        <ele>954.4725686318</ele>
        <time>2021-10-12T21:35:42.624Z</time>
      </trkpt>
      <trkpt lat="44.11951" lon="6.29336">
        <ele>953.24814082256</ele>
        <time>2021-10-12T21:35:48.967Z</time>
      </trkpt>
      <trkpt lat="44.11952" lon="6.29333">
        <ele>952.04355526939</ele>
        <time>2021-10-12T21:35:55.311Z</time>
      </trkpt>
      <trkpt lat="44.11952" lon="6.29328">
        <ele>950.79932448974</ele>
        <time>2021-10-12T21:36:01.656Z</time>
      </trkpt>
      <trkpt lat="44.11952" lon="6.29325">
        <ele>949.65516812544</ele>
        <time>2021-10-12T21:36:08.002Z</time>
      </trkpt>
      <trkpt lat="44.11951" lon="6.29323">
        <ele>948.54473785748</ele>
        <time>2021-10-12T21:36:14.348Z</time>
      </trkpt>
      <trkpt lat="44.11949" lon="6.2932">
        <ele>947.46015647683</ele>
        <time>2021-10-12T21:36:20.695Z</time>
      </trkpt>
      <trkpt lat="44.11947" lon="6.29317">
        <ele>946.40386420776</ele>
        <time>2021-10-12T21:36:27.043Z</time>
      </trkpt>
      <trkpt lat="44.11945" lon="6.29314">
        <ele>945.38281609497</ele>
        <time>2021-10-12T21:36:33.392Z</time>
      </trkpt>
      <trkpt lat="44.11943" lon="6.29311">
        <ele>944.37434276693</ele>
        <time>2021-10-12T21:36:39.742Z</time>
      </trkpt>
      <trkpt lat="44.11942" lon="6.29307">
        <ele>943.38444542299</ele>
        <time>2021-10-12T21:36:46.093Z</time>
      </trkpt>
      <trkpt lat="44.1194" lon="6.29304">
        <ele>942.43848718792</ele>
        <time>2021-10-12T21:36:52.445Z</time>
      </trkpt>
      <trkpt lat="44.11938" lon="6.293">
        <ele>941.51028919964</ele>
        <time>2021-10-12T21:36:58.798Z</time>
      </trkpt>
      <trkpt lat="44.11937" lon="6.29297">
        <ele>940.59589903319</ele>
        <time>2021-10-12T21:37:05.152Z</time>
      </trkpt>
      <trkpt lat="44.11934" lon="6.2929">
        <ele>939.65327355486</ele>
        <time>2021-10-12T21:37:11.508Z</time>
      </trkpt>
      <trkpt lat="44.11932" lon="6.29288">
        <ele>938.79251502731</ele>
        <time>2021-10-12T21:37:17.865Z</time>
      </trkpt>
      <trkpt lat="44.11932" lon="6.29288">
        <ele>937.96026082251</ele>
        <time>2021-10-12T21:37:24.222Z</time>
      </trkpt>
      <trkpt lat="44.11932" lon="6.29288">
        <ele>937.13827988114</ele>
        <time>2021-10-12T21:37:30.579Z</time>
      </trkpt>
      <trkpt lat="44.11929" lon="6.29288">
        <ele>936.33240977643</ele>
        <time>2021-10-12T21:37:36.937Z</time>
      </trkpt>
      <trkpt lat="44.11926" lon="6.29289">
        <ele>935.53127640987</ele>
        <time>2021-10-12T21:37:43.296Z</time>
      </trkpt>
      <trkpt lat="44.11921" lon="6.2929">
        <ele>934.74987421588</ele>
        <time>2021-10-12T21:37:49.656Z</time>
      </trkpt>
      <trkpt lat="44.11921" lon="6.2929">
        <ele>933.92752198952</ele>
        <time>2021-10-12T21:37:56.016Z</time>
      </trkpt>
      <trkpt lat="44.11921" lon="6.2929">
        <ele>933.09141769644</ele>
        <time>2021-10-12T21:38:02.376Z</time>
      </trkpt>
      <trkpt lat="44.11917" lon="6.29288">
        <ele>932.22173404102</ele>
        <time>2021-10-12T21:38:08.738Z</time>
      </trkpt>
      <trkpt lat="44.11914" lon="6.29287">
        <ele>931.33307838559</ele>
        <time>2021-10-12T21:38:15.101Z</time>
      </trkpt>
      <trkpt lat="44.11909" lon="6.29282">
        <ele>930.38093070712</ele>
        <time>2021-10-12T21:38:21.466Z</time>
      </trkpt>
      <trkpt lat="44.11908" lon="6.29279">
        <ele>929.42456519567</ele>
        <time>2021-10-12T21:38:27.832Z</time>
      </trkpt>
      <trkpt lat="44.11906" lon="6.29276">
        <ele>928.44687421486</ele>
        <time>2021-10-12T21:38:34.199Z</time>
      </trkpt>
      <trkpt lat="44.11905" lon="6.29275">
        <ele>927.46053241298</ele>
        <time>2021-10-12T21:38:40.566Z</time>
      </trkpt>
      <trkpt lat="44.11905" lon="6.29274">
        <ele>926.45619791151</ele>
        <time>2021-10-12T21:38:46.933Z</time>
      </trkpt>
      <trkpt lat="44.11905" lon="6.29273">
        <ele>925.42840716508</ele>
        <time>2021-10-12T21:38:53.301Z</time>
      </trkpt>
      <trkpt lat="44.11905" lon="6.29266">
        <ele>924.2893522723</ele>
        <time>2021-10-12T21:38:59.670Z</time>
      </trkpt>
      <trkpt lat="44.11903" lon="6.29262">
        <ele>923.16536247429</ele>
        <time>2021-10-12T21:39:06.040Z</time>
      </trkpt>
      <trkpt lat="44.11896" lon="6.29256">
        <ele>921.94297476888</ele>
        <time>2021-10-12T21:39:12.413Z</time>
      </trkpt>
      <trkpt lat="44.1189" lon="6.29254">
        <ele>920.77684221669</ele>
        <time>2021-10-12T21:39:18.788Z</time>
      </trkpt>
      <trkpt lat="44.11884" lon="6.29252">
        <ele>919.59126097451</ele>
        <time>2021-10-12T21:39:25.165Z</time>
      </trkpt>
      <trkpt lat="44.11879" lon="6.2925">
        <ele>918.38234749085</ele>
        <time>2021-10-12T21:39:31.544Z</time>
      </trkpt>
      <trkpt lat="44.11874" lon="6.29247">
        <ele>917.16157914518</ele>
        <time>2021-10-12T21:39:37.925Z</time>
      </trkpt>
      <trkpt lat="44.1187" lon="6.29245">
        <ele>915.94036499721</ele>
        <time>2021-10-12T21:39:44.307Z</time>
      </trkpt>
      <trkpt lat="44.11865" lon="6.29243">
        <ele>914.71770113354</ele>
        <time>2021-10-12T21:39:50.691Z</time>
      </trkpt>
      <trkpt lat="44.11859" lon="6.29242">
        <ele>913.49350117974</ele>
        <time>2021-10-12T21:39:57.077Z</time>
      </trkpt>
      <trkpt lat="44.11854" lon="6.2924">
        <ele>912.27584079528</ele>
        <time>2021-10-12T21:40:03.465Z</time>
      </trkpt>
      <trkpt lat="44.1185" lon="6.29238">
        <ele>911.06875539101</ele>
        <time>2021-10-12T21:40:09.854Z</time>
      </trkpt>
      <trkpt lat="44.11847" lon="6.29235">
        <ele>909.87981090693</ele>
        <time>2021-10-12T21:40:16.244Z</time>
      </trkpt>
      <trkpt lat="44.11844" lon="6.29232">
        <ele>908.69360185815</ele>
        <time>2021-10-12T21:40:22.636Z</time>
      </trkpt>
      <trkpt lat="44.1184" lon="6.29228">
        <ele>907.50744057734</ele>
        <time>2021-10-12T21:40:29.029Z</time>
      </trkpt>
      <trkpt lat="44.11837" lon="6.29223">
        <ele>906.32379231532</ele>
        <time>2021-10-12T21:40:35.424Z</time>
      </trkpt>
      <trkpt lat="44.11834" lon="6.29218">
        <ele>905.14462313164</ele>
        <time>2021-10-12T21:40:41.820Z</time>
      </trkpt>
      <trkpt lat="44.1183" lon="6.29214">
        <ele>903.98465501402</ele>
        <time>2021-10-12T21:40:48.218Z</time>
      </trkpt>
      <trkpt lat="44.11825" lon="6.29212">
        <ele>902.83849519764</ele>
        <time>2021-10-12T21:40:54.618Z</time>
      </trkpt>
      <trkpt lat="44.1182" lon="6.2921">
        <ele>901.70786490936</ele>
        <time>2021-10-12T21:41:01.020Z</time>
      </trkpt>
      <trkpt lat="44.11815" lon="6.29208">
        <ele>900.59234735318</ele>
        <time>2021-10-12T21:41:07.423Z</time>
      </trkpt>
      <trkpt lat="44.11812" lon="6.29205">
        <ele>899.48812718657</ele>
        <time>2021-10-12T21:41:13.827Z</time>
      </trkpt>
      <trkpt lat="44.11811" lon="6.29202">
        <ele>898.38910040962</ele>
        <time>2021-10-12T21:41:20.232Z</time>
      </trkpt>
      <trkpt lat="44.11807" lon="6.29194">
        <ele>897.26497791238</ele>
        <time>2021-10-12T21:41:26.640Z</time>
      </trkpt>
      <trkpt lat="44.11805" lon="6.29191">
        <ele>896.18174176789</ele>
        <time>2021-10-12T21:41:33.049Z</time>
      </trkpt>
      <trkpt lat="44.11801" lon="6.29189">
        <ele>895.10761216162</ele>
        <time>2021-10-12T21:41:39.459Z</time>
      </trkpt>
      <trkpt lat="44.11799" lon="6.29188">
        <ele>894.04480787118</ele>
        <time>2021-10-12T21:41:45.870Z</time>
      </trkpt>
      <trkpt lat="44.11794" lon="6.29187">
        <ele>892.97942702005</ele>
        <time>2021-10-12T21:41:52.282Z</time>
      </trkpt>
      <trkpt lat="44.1179" lon="6.29187">
        <ele>891.90055449995</ele>
        <time>2021-10-12T21:41:58.696Z</time>
      </trkpt>
      <trkpt lat="44.11784" lon="6.29186">
        <ele>890.7929715028</ele>
        <time>2021-10-12T21:42:05.112Z</time>
      </trkpt>
      <trkpt lat="44.11779" lon="6.29182">
        <ele>889.70154713761</ele>
        <time>2021-10-12T21:42:11.529Z</time>
      </trkpt>
      <trkpt lat="44.11778" lon="6.2918">
        <ele>888.64508943451</ele>
        <time>2021-10-12T21:42:17.947Z</time>
      </trkpt>
      <trkpt lat="44.11776" lon="6.29178">
        <ele>887.58826551938</ele>
        <time>2021-10-12T21:42:24.366Z</time>
      </trkpt>
      <trkpt lat="44.11771" lon="6.29174">
        <ele>886.50091530287</ele>
        <time>2021-10-12T21:42:30.787Z</time>
      </trkpt>
      <trkpt lat="44.11768" lon="6.29172">
        <ele>885.43802512203</ele>
        <time>2021-10-12T21:42:37.209Z</time>
      </trkpt>
      <trkpt lat="44.11766" lon="6.29168">
        <ele>884.37421136191</ele>
        <time>2021-10-12T21:42:43.632Z</time>
      </trkpt>
      <trkpt lat="44.11765" lon="6.29166">
        <ele>883.33387558967</ele>
        <time>2021-10-12T21:42:50.056Z</time>
      </trkpt>
      <trkpt lat="44.11765" lon="6.29166">
        <ele>882.31322082347</ele>
        <time>2021-10-12T21:42:56.480Z</time>
      </trkpt>
      <trkpt lat="44.11765" lon="6.29165">
        <ele>881.29304019392</ele>
        <time>2021-10-12T21:43:02.904Z</time>
      </trkpt>
      <trkpt lat="44.11766" lon="6.2916">
        <ele>880.26933798521</ele>
        <time>2021-10-12T21:43:09.329Z</time>
      </trkpt>
      <trkpt lat="44.11766" lon="6.29158">
        <ele>879.23895482591</ele>
        <time>2021-10-12T21:43:15.755Z</time>
      </trkpt>
      <trkpt lat="44.11765" lon="6.29149">
        <ele>878.17705395547</ele>
        <time>2021-10-12T21:43:22.183Z</time>
      </trkpt>
      <trkpt lat="44.11763" lon="6.29146">
        <ele>877.13190354814</ele>
        <time>2021-10-12T21:43:28.612Z</time>
      </trkpt>
      <trkpt lat="44.11756" lon="6.2914">
        <ele>876.02931236787</ele>
        <time>2021-10-12T21:43:35.044Z</time>
      </trkpt>
      <trkpt lat="44.11748" lon="6.29135">
        <ele>874.93534218689</ele>
        <time>2021-10-12T21:43:41.479Z</time>
      </trkpt>
      <trkpt lat="44.1174" lon="6.29129">
        <ele>873.85939648526</ele>
        <time>2021-10-12T21:43:47.917Z</time>
      </trkpt>
      <trkpt lat="44.11735" lon="6.29122">
        <ele>872.81038886917</ele>
        <time>2021-10-12T21:43:54.357Z</time>
      </trkpt>
      <trkpt lat="44.11729" lon="6.29113">
        <ele>871.77494821585</ele>
        <time>2021-10-12T21:44:00.800Z</time>
      </trkpt>
      <trkpt lat="44.11723" lon="6.291">
        <ele>870.75922839796</ele>
        <time>2021-10-12T21:44:07.247Z</time>
      </trkpt>
      <trkpt lat="44.11717" lon="6.29088">
        <ele>869.77249529326</ele>
        <time>2021-10-12T21:44:13.697Z</time>
      </trkpt>
      <trkpt lat="44.11714" lon="6.29082">
        <ele>868.84484794604</ele>
        <time>2021-10-12T21:44:20.149Z</time>
      </trkpt>
      <trkpt lat="44.11706" lon="6.2907">
        <ele>867.93387081645</ele>
        <time>2021-10-12T21:44:26.605Z</time>
      </trkpt>
      <trkpt lat="44.117" lon="6.2906">
        <ele>867.07573645624</ele>
        <time>2021-10-12T21:44:33.064Z</time>
      </trkpt>
      <trkpt lat="44.11698" lon="6.29058">
        <ele>866.27234514675</ele>
        <time>2021-10-12T21:44:39.524Z</time>
      </trkpt>
      <trkpt lat="44.11697" lon="6.29057">
        <ele>865.51173063982</ele>
        <time>2021-10-12T21:44:45.984Z</time>
      </trkpt>
      <trkpt lat="44.11697" lon="6.29057">
        <ele>864.79019096228</ele>
        <time>2021-10-12T21:44:52.444Z</time>
      </trkpt>
      <trkpt lat="44.11694" lon="6.29057">
        <ele>864.09597468797</ele>
        <time>2021-10-12T21:44:58.906Z</time>
      </trkpt>
      <trkpt lat="44.11689" lon="6.29057">
        <ele>863.42908716205</ele>
        <time>2021-10-12T21:45:05.369Z</time>
      </trkpt>
      <trkpt lat="44.11682" lon="6.29058">
        <ele>862.78472765924</ele>
        <time>2021-10-12T21:45:11.834Z</time>
      </trkpt>
      <trkpt lat="44.11676" lon="6.29057">
        <ele>862.19875770452</ele>
        <time>2021-10-12T21:45:18.301Z</time>
      </trkpt>
      <trkpt lat="44.11674" lon="6.29047">
        <ele>861.67343642544</ele>
        <time>2021-10-12T21:45:24.771Z</time>
      </trkpt>
      <trkpt lat="44.11673" lon="6.29043">
        <ele>861.18399105551</ele>
        <time>2021-10-12T21:45:31.242Z</time>
      </trkpt>
      <trkpt lat="44.11673" lon="6.29038">
        <ele>860.73380372913</ele>
        <time>2021-10-12T21:45:37.714Z</time>
      </trkpt>
      <trkpt lat="44.11671" lon="6.29027">
        <ele>860.30535437536</ele>
        <time>2021-10-12T21:45:44.189Z</time>
      </trkpt>
      <trkpt lat="44.11667" lon="6.29017">
        <ele>859.90685750772</ele>
        <time>2021-10-12T21:45:50.667Z</time>
      </trkpt>
      <trkpt lat="44.1166" lon="6.29006">
        <ele>859.53648642313</ele>
        <time>2021-10-12T21:45:57.148Z</time>
      </trkpt>
      <trkpt lat="44.11653" lon="6.28995">
        <ele>859.20577400203</ele>
        <time>2021-10-12T21:46:03.633Z</time>
      </trkpt>
      <trkpt lat="44.11649" lon="6.2899">
        <ele>858.94554489176</ele>
        <time>2021-10-12T21:46:10.119Z</time>
      </trkpt>
      <trkpt lat="44.11645" lon="6.28985">
        <ele>858.72705733757</ele>
        <time>2021-10-12T21:46:16.607Z</time>
      </trkpt>
      <trkpt lat="44.11637" lon="6.28976">
        <ele>858.53607101135</ele>
        <time>2021-10-12T21:46:23.099Z</time>
      </trkpt>
      <trkpt lat="44.11634" lon="6.28972">
        <ele>858.39693626168</ele>
        <time>2021-10-12T21:46:29.592Z</time>
      </trkpt>
      <trkpt lat="44.11633" lon="6.28967">
        <ele>858.29590024499</ele>
        <time>2021-10-12T21:46:36.086Z</time>
      </trkpt>
      <trkpt lat="44.11627" lon="6.28953">
        <ele>858.22117979433</ele>
        <time>2021-10-12T21:46:42.584Z</time>
      </trkpt>
      <trkpt lat="44.11615" lon="6.28935">
        <ele>858.184551366</ele>
        <time>2021-10-12T21:46:49.088Z</time>
      </trkpt>
      <trkpt lat="44.11613" lon="6.28923">
        <ele>858.19896282025</ele>
        <time>2021-10-12T21:46:55.595Z</time>
      </trkpt>
      <trkpt lat="44.11607" lon="6.28906">
        <ele>858.22646506357</ele>
        <time>2021-10-12T21:47:02.107Z</time>
      </trkpt>
      <trkpt lat="44.11605" lon="6.28891">
        <ele>858.31704922091</ele>
        <time>2021-10-12T21:47:08.622Z</time>
      </trkpt>
      <trkpt lat="44.11601" lon="6.28874">
        <ele>858.45750415212</ele>
        <time>2021-10-12T21:47:15.142Z</time>
      </trkpt>
      <trkpt lat="44.116" lon="6.28868">
        <ele>858.60764538774</ele>
        <time>2021-10-12T21:47:21.663Z</time>
      </trkpt>
      <trkpt lat="44.11592" lon="6.28834">
        <ele>858.78401879786</ele>
        <time>2021-10-12T21:47:28.192Z</time>
      </trkpt>
      <trkpt lat="44.11586" lon="6.28809">
        <ele>858.9667538556</ele>
        <time>2021-10-12T21:47:34.728Z</time>
      </trkpt>
      <trkpt lat="44.11587" lon="6.288">
        <ele>859.17276326857</ele>
        <time>2021-10-12T21:47:41.266Z</time>
      </trkpt>
      <trkpt lat="44.11586" lon="6.28797">
        <ele>859.3817396343</ele>
        <time>2021-10-12T21:47:47.805Z</time>
      </trkpt>
      <trkpt lat="44.11589" lon="6.28788">
        <ele>859.61138286756</ele>
        <time>2021-10-12T21:47:54.346Z</time>
      </trkpt>
      <trkpt lat="44.11588" lon="6.2878">
        <ele>859.81969650925</ele>
        <time>2021-10-12T21:48:00.889Z</time>
      </trkpt>
      <trkpt lat="44.11588" lon="6.28772">
        <ele>860.02792388315</ele>
        <time>2021-10-12T21:48:07.434Z</time>
      </trkpt>
      <trkpt lat="44.11588" lon="6.28751">
        <ele>860.23414291998</ele>
        <time>2021-10-12T21:48:13.984Z</time>
      </trkpt>
      <trkpt lat="44.11587" lon="6.28746">
        <ele>860.44375630819</ele>
        <time>2021-10-12T21:48:20.535Z</time>
      </trkpt>
      <trkpt lat="44.11583" lon="6.28733">
        <ele>860.69459536423</ele>
        <time>2021-10-12T21:48:27.090Z</time>
      </trkpt>
      <trkpt lat="44.11584" lon="6.28728">
        <ele>860.90057040745</ele>
        <time>2021-10-12T21:48:33.646Z</time>
      </trkpt>
      <trkpt lat="44.11583" lon="6.2872">
        <ele>861.08404464779</ele>
        <time>2021-10-12T21:48:40.204Z</time>
      </trkpt>
      <trkpt lat="44.11581" lon="6.2871">
        <ele>861.26980244564</ele>
        <time>2021-10-12T21:48:46.764Z</time>
      </trkpt>
      <trkpt lat="44.11579" lon="6.28698">
        <ele>861.43610804332</ele>
        <time>2021-10-12T21:48:53.327Z</time>
      </trkpt>
      <trkpt lat="44.11577" lon="6.28693">
        <ele>861.56332933431</ele>
        <time>2021-10-12T21:48:59.891Z</time>
      </trkpt>
      <trkpt lat="44.11576" lon="6.28688">
        <ele>861.65122577294</ele>
        <time>2021-10-12T21:49:06.457Z</time>
      </trkpt>
      <trkpt lat="44.11571" lon="6.28668">
        <ele>861.76176992915</ele>
        <time>2021-10-12T21:49:13.028Z</time>
      </trkpt>
      <trkpt lat="44.11569" lon="6.28656">
        <ele>861.7930482777</ele>
        <time>2021-10-12T21:49:19.602Z</time>
      </trkpt>
      <trkpt lat="44.11562" lon="6.28652">
        <ele>861.76862879737</ele>
        <time>2021-10-12T21:49:26.178Z</time>
      </trkpt>
      <trkpt lat="44.11558" lon="6.2865">
        <ele>861.70498747908</ele>
        <time>2021-10-12T21:49:32.756Z</time>
      </trkpt>
      <trkpt lat="44.11553" lon="6.28647">
        <ele>861.60253180624</ele>
        <time>2021-10-12T21:49:39.335Z</time>
      </trkpt>
      <trkpt lat="44.11545" lon="6.28639">
        <ele>861.4624330803</ele>
        <time>2021-10-12T21:49:45.918Z</time>
      </trkpt>
      <trkpt lat="44.11541" lon="6.28633">
        <ele>861.27746597884</ele>
        <time>2021-10-12T21:49:52.503Z</time>
      </trkpt>
      <trkpt lat="44.11536" lon="6.28628">
        <ele>861.01942477821</ele>
        <time>2021-10-12T21:49:59.090Z</time>
      </trkpt>
      <trkpt lat="44.11523" lon="6.28617">
        <ele>860.66661895804</ele>
        <time>2021-10-12T21:50:05.682Z</time>
      </trkpt>
      <trkpt lat="44.11513" lon="6.28614">
        <ele>860.33630957274</ele>
        <time>2021-10-12T21:50:12.277Z</time>
      </trkpt>
      <trkpt lat="44.11507" lon="6.28607">
        <ele>859.96579995939</ele>
        <time>2021-10-12T21:50:18.875Z</time>
      </trkpt>
      <trkpt lat="44.11504" lon="6.28593">
        <ele>859.52677611938</ele>
        <time>2021-10-12T21:50:25.477Z</time>
      </trkpt>
      <trkpt lat="44.11502" lon="6.28588">
        <ele>859.09531873762</ele>
        <time>2021-10-12T21:50:32.080Z</time>
      </trkpt>
      <trkpt lat="44.11496" lon="6.28581">
        <ele>858.62236612516</ele>
        <time>2021-10-12T21:50:38.685Z</time>
      </trkpt>
      <trkpt lat="44.11494" lon="6.28578">
        <ele>858.14156151158</ele>
        <time>2021-10-12T21:50:45.291Z</time>
      </trkpt>
      <trkpt lat="44.11491" lon="6.28575">
        <ele>857.63259975622</ele>
        <time>2021-10-12T21:50:51.899Z</time>
      </trkpt>
      <trkpt lat="44.11485" lon="6.28568">
        <ele>857.06827221269</ele>
        <time>2021-10-12T21:50:58.509Z</time>
      </trkpt>
      <trkpt lat="44.11482" lon="6.28564">
        <ele>856.50307050343</ele>
        <time>2021-10-12T21:51:05.121Z</time>
      </trkpt>
      <trkpt lat="44.11478" lon="6.28561">
        <ele>855.9187261454</ele>
        <time>2021-10-12T21:51:11.734Z</time>
      </trkpt>
      <trkpt lat="44.11473" lon="6.28555">
        <ele>855.29854995606</ele>
        <time>2021-10-12T21:51:18.349Z</time>
      </trkpt>
      <trkpt lat="44.11473" lon="6.28551">
        <ele>854.67383267968</ele>
        <time>2021-10-12T21:51:24.965Z</time>
      </trkpt>
      <trkpt lat="44.11468" lon="6.28543">
        <ele>854.00557922647</ele>
        <time>2021-10-12T21:51:31.584Z</time>
      </trkpt>
      <trkpt lat="44.11461" lon="6.28538">
        <ele>853.34616241936</ele>
        <time>2021-10-12T21:51:38.206Z</time>
      </trkpt>
      <trkpt lat="44.11457" lon="6.28534">
        <ele>852.67587206331</ele>
        <time>2021-10-12T21:51:44.829Z</time>
      </trkpt>
      <trkpt lat="44.11454" lon="6.2853">
        <ele>851.99404039694</ele>
        <time>2021-10-12T21:51:51.454Z</time>
      </trkpt>
      <trkpt lat="44.1145" lon="6.28526">
        <ele>851.30370353444</ele>
        <time>2021-10-12T21:51:58.080Z</time>
      </trkpt>
      <trkpt lat="44.11439" lon="6.28517">
        <ele>850.56469961635</ele>
        <time>2021-10-12T21:52:04.710Z</time>
      </trkpt>
      <trkpt lat="44.11435" lon="6.28516">
        <ele>849.88655762692</ele>
        <time>2021-10-12T21:52:11.342Z</time>
      </trkpt>
      <trkpt lat="44.11427" lon="6.28513">
        <ele>849.2254465859</ele>
        <time>2021-10-12T21:52:17.977Z</time>
      </trkpt>
      <trkpt lat="44.11413" lon="6.28505">
        <ele>848.55500531647</ele>
        <time>2021-10-12T21:52:24.617Z</time>
      </trkpt>
      <trkpt lat="44.11403" lon="6.28498">
        <ele>847.88454641223</ele>
        <time>2021-10-12T21:52:31.260Z</time>
      </trkpt>
      <trkpt lat="44.11394" lon="6.28491">
        <ele>847.22469407341</ele>
        <time>2021-10-12T21:52:37.907Z</time>
      </trkpt>
      <trkpt lat="44.11385" lon="6.2848">
        <ele>846.5612486738</ele>
        <time>2021-10-12T21:52:44.558Z</time>
      </trkpt>
      <trkpt lat="44.11373" lon="6.28463">
        <ele>845.87683999265</ele>
        <time>2021-10-12T21:52:51.214Z</time>
      </trkpt>
      <trkpt lat="44.1137" lon="6.28457">
        <ele>845.17770334912</ele>
        <time>2021-10-12T21:52:57.872Z</time>
      </trkpt>
      <trkpt lat="44.11367" lon="6.28453">
        <ele>844.47830026886</ele>
        <time>2021-10-12T21:53:04.532Z</time>
      </trkpt>
      <trkpt lat="44.11359" lon="6.28445">
        <ele>843.77448041089</ele>
        <time>2021-10-12T21:53:11.195Z</time>
      </trkpt>
      <trkpt lat="44.11348" lon="6.28433">
        <ele>843.04523352158</ele>
        <time>2021-10-12T21:53:17.863Z</time>
      </trkpt>
      <trkpt lat="44.11341" lon="6.28427">
        <ele>842.31838123208</ele>
        <time>2021-10-12T21:53:24.533Z</time>
      </trkpt>
      <trkpt lat="44.11335" lon="6.28423">
        <ele>841.60459978468</ele>
        <time>2021-10-12T21:53:31.205Z</time>
      </trkpt>
      <trkpt lat="44.1133" lon="6.28425">
        <ele>840.90396308278</ele>
        <time>2021-10-12T21:53:37.879Z</time>
      </trkpt>
      <trkpt lat="44.11327" lon="6.28427">
        <ele>840.21084789999</ele>
        <time>2021-10-12T21:53:44.554Z</time>
      </trkpt>
      <trkpt lat="44.11324" lon="6.2843">
        <ele>839.51588552181</ele>
        <time>2021-10-12T21:53:51.230Z</time>
      </trkpt>
      <trkpt lat="44.11316" lon="6.28436">
        <ele>838.81582780822</ele>
        <time>2021-10-12T21:53:57.909Z</time>
      </trkpt>
      <trkpt lat="44.11308" lon="6.28429">
        <ele>838.06654617164</ele>
        <time>2021-10-12T21:54:04.592Z</time>
      </trkpt>
      <trkpt lat="44.11299" lon="6.28429">
        <ele>837.34007790797</ele>
        <time>2021-10-12T21:54:11.278Z</time>
      </trkpt>
      <trkpt lat="44.11294" lon="6.28428">
        <ele>836.63198216844</ele>
        <time>2021-10-12T21:54:17.965Z</time>
      </trkpt>
      <trkpt lat="44.1129" lon="6.28428">
        <ele>835.92782856569</ele>
        <time>2021-10-12T21:54:24.654Z</time>
      </trkpt>
      <trkpt lat="44.1128" lon="6.28429">
        <ele>835.20312050796</ele>
        <time>2021-10-12T21:54:31.346Z</time>
      </trkpt>
      <trkpt lat="44.1127" lon="6.28425">
        <ele>834.46434392333</ele>
        <time>2021-10-12T21:54:38.041Z</time>
      </trkpt>
      <trkpt lat="44.11265" lon="6.28417">
        <ele>833.74192397049</ele>
        <time>2021-10-12T21:54:44.739Z</time>
      </trkpt>
      <trkpt lat="44.11261" lon="6.28414">
        <ele>833.05387113964</ele>
        <time>2021-10-12T21:54:51.438Z</time>
      </trkpt>
      <trkpt lat="44.11253" lon="6.28413">
        <ele>832.36080770532</ele>
        <time>2021-10-12T21:54:58.140Z</time>
      </trkpt>
      <trkpt lat="44.11248" lon="6.28408">
        <ele>831.6779778566</ele>
        <time>2021-10-12T21:55:04.844Z</time>
      </trkpt>
      <trkpt lat="44.11247" lon="6.28404">
        <ele>831.02034177905</ele>
        <time>2021-10-12T21:55:11.549Z</time>
      </trkpt>
      <trkpt lat="44.11241" lon="6.28395">
        <ele>830.33552868005</ele>
        <time>2021-10-12T21:55:18.257Z</time>
      </trkpt>
      <trkpt lat="44.11236" lon="6.28393">
        <ele>829.71372533295</ele>
        <time>2021-10-12T21:55:24.967Z</time>
      </trkpt>
      <trkpt lat="44.11229" lon="6.28387">
        <ele>829.09550600985</ele>
        <time>2021-10-12T21:55:31.680Z</time>
      </trkpt>
      <trkpt lat="44.11226" lon="6.28383">
        <ele>828.50679355864</ele>
        <time>2021-10-12T21:55:38.394Z</time>
      </trkpt>
      <trkpt lat="44.11222" lon="6.28379">
        <ele>827.92950989341</ele>
        <time>2021-10-12T21:55:45.110Z</time>
      </trkpt>
      <trkpt lat="44.11219" lon="6.28374">
        <ele>827.37060574416</ele>
        <time>2021-10-12T21:55:51.827Z</time>
      </trkpt>
      <trkpt lat="44.11216" lon="6.28371">
        <ele>826.84345593042</ele>
        <time>2021-10-12T21:55:58.545Z</time>
      </trkpt>
      <trkpt lat="44.11212" lon="6.28372">
        <ele>826.36576260364</ele>
        <time>2021-10-12T21:56:05.265Z</time>
      </trkpt>
      <trkpt lat="44.11207" lon="6.28374">
        <ele>825.92122137554</ele>
        <time>2021-10-12T21:56:11.987Z</time>
      </trkpt>
      <trkpt lat="44.11192" lon="6.28375">
        <ele>825.44686244221</ele>
        <time>2021-10-12T21:56:18.713Z</time>
      </trkpt>
      <trkpt lat="44.11181" lon="6.28371">
        <ele>824.98911371663</ele>
        <time>2021-10-12T21:56:25.443Z</time>
      </trkpt>
      <trkpt lat="44.11173" lon="6.28368">
        <ele>824.58680666427</ele>
        <time>2021-10-12T21:56:32.176Z</time>
      </trkpt>
      <trkpt lat="44.11167" lon="6.28366">
        <ele>824.22346259689</ele>
        <time>2021-10-12T21:56:38.911Z</time>
      </trkpt>
      <trkpt lat="44.11156" lon="6.28361">
        <ele>823.85289751224</ele>
        <time>2021-10-12T21:56:45.650Z</time>
      </trkpt>
      <trkpt lat="44.11152" lon="6.28358">
        <ele>823.56262521909</ele>
        <time>2021-10-12T21:56:52.390Z</time>
      </trkpt>
      <trkpt lat="44.11149" lon="6.28354">
        <ele>823.30674000814</ele>
        <time>2021-10-12T21:56:59.132Z</time>
      </trkpt>
      <trkpt lat="44.11138" lon="6.28343">
        <ele>823.06113629976</ele>
        <time>2021-10-12T21:57:05.878Z</time>
      </trkpt>
      <trkpt lat="44.11132" lon="6.28337">
        <ele>822.86206434707</ele>
        <time>2021-10-12T21:57:12.627Z</time>
      </trkpt>
      <trkpt lat="44.11131" lon="6.28336">
        <ele>822.71520307732</ele>
        <time>2021-10-12T21:57:19.376Z</time>
      </trkpt>
      <trkpt lat="44.1113" lon="6.28332">
        <ele>822.60052427008</ele>
        <time>2021-10-12T21:57:26.126Z</time>
      </trkpt>
      <trkpt lat="44.11127" lon="6.28327">
        <ele>822.52092204615</ele>
        <time>2021-10-12T21:57:32.878Z</time>
      </trkpt>
      <trkpt lat="44.11123" lon="6.28319">
        <ele>822.47833947173</ele>
        <time>2021-10-12T21:57:39.632Z</time>
      </trkpt>
      <trkpt lat="44.11118" lon="6.2831">
        <ele>822.48064161439</ele>
        <time>2021-10-12T21:57:46.389Z</time>
      </trkpt>
      <trkpt lat="44.11112" lon="6.28303">
        <ele>822.50739792413</ele>
        <time>2021-10-12T21:57:53.149Z</time>
      </trkpt>
      <trkpt lat="44.11111" lon="6.28301">
        <ele>822.54137026373</ele>
        <time>2021-10-12T21:57:59.909Z</time>
      </trkpt>
      <trkpt lat="44.11106" lon="6.28289">
        <ele>822.59174818329</ele>
        <time>2021-10-12T21:58:06.672Z</time>
      </trkpt>
      <trkpt lat="44.11106" lon="6.28286">
        <ele>822.65476889789</ele>
        <time>2021-10-12T21:58:13.436Z</time>
      </trkpt>
      <trkpt lat="44.11104" lon="6.28278">
        <ele>822.73702938363</ele>
        <time>2021-10-12T21:58:20.202Z</time>
      </trkpt>
      <trkpt lat="44.11093" lon="6.28261">
        <ele>822.86940492529</ele>
        <time>2021-10-12T21:58:26.974Z</time>
      </trkpt>
      <trkpt lat="44.11086" lon="6.28251">
        <ele>823.00608352318</ele>
        <time>2021-10-12T21:58:33.749Z</time>
      </trkpt>
      <trkpt lat="44.11083" lon="6.28246">
        <ele>823.13711218407</ele>
        <time>2021-10-12T21:58:40.525Z</time>
      </trkpt>
      <trkpt lat="44.11079" lon="6.28239">
        <ele>823.29955228765</ele>
        <time>2021-10-12T21:58:47.304Z</time>
      </trkpt>
      <trkpt lat="44.1108" lon="6.28226">
        <ele>823.40949488806</ele>
        <time>2021-10-12T21:58:54.086Z</time>
      </trkpt>
      <trkpt lat="44.11086" lon="6.28219">
        <ele>823.5189405458</ele>
        <time>2021-10-12T21:59:00.870Z</time>
      </trkpt>
      <trkpt lat="44.11093" lon="6.28207">
        <ele>823.65369703214</ele>
        <time>2021-10-12T21:59:07.658Z</time>
      </trkpt>
      <trkpt lat="44.11096" lon="6.28203">
        <ele>823.82106236542</ele>
        <time>2021-10-12T21:59:14.448Z</time>
      </trkpt>
      <trkpt lat="44.11104" lon="6.28194">
        <ele>823.99105813285</ele>
        <time>2021-10-12T21:59:21.241Z</time>
      </trkpt>
      <trkpt lat="44.11113" lon="6.28184">
        <ele>824.14775230528</ele>
        <time>2021-10-12T21:59:28.038Z</time>
      </trkpt>
      <trkpt lat="44.11121" lon="6.28174">
        <ele>824.3057180134</ele>
        <time>2021-10-12T21:59:34.838Z</time>
      </trkpt>
      <trkpt lat="44.11124" lon="6.28171">
        <ele>824.4564359773</ele>
        <time>2021-10-12T21:59:41.640Z</time>
      </trkpt>
      <trkpt lat="44.1113" lon="6.2816">
        <ele>824.74360916217</ele>
        <time>2021-10-12T21:59:48.445Z</time>
      </trkpt>
      <trkpt lat="44.1113" lon="6.28156">
        <ele>824.84723385908</ele>
        <time>2021-10-12T21:59:55.251Z</time>
      </trkpt>
      <trkpt lat="44.1113" lon="6.2815">
        <ele>824.93733489957</ele>
        <time>2021-10-12T22:00:02.058Z</time>
      </trkpt>
      <trkpt lat="44.1113" lon="6.28141">
        <ele>825.01704608857</ele>
        <time>2021-10-12T22:00:08.867Z</time>
      </trkpt>
      <trkpt lat="44.11121" lon="6.28122">
        <ele>825.09329936364</ele>
        <time>2021-10-12T22:00:15.682Z</time>
      </trkpt>
      <trkpt lat="44.11118" lon="6.28118">
        <ele>825.14139199059</ele>
        <time>2021-10-12T22:00:22.498Z</time>
      </trkpt>
      <trkpt lat="44.1111" lon="6.28107">
        <ele>825.17773804152</ele>
        <time>2021-10-12T22:00:29.318Z</time>
      </trkpt>
      <trkpt lat="44.111" lon="6.28095">
        <ele>825.18273341399</ele>
        <time>2021-10-12T22:00:36.142Z</time>
      </trkpt>
      <trkpt lat="44.11093" lon="6.2808">
        <ele>825.08471349016</ele>
        <time>2021-10-12T22:00:42.971Z</time>
      </trkpt>
      <trkpt lat="44.11093" lon="6.28073">
        <ele>824.98539518798</ele>
        <time>2021-10-12T22:00:49.801Z</time>
      </trkpt>
      <trkpt lat="44.11094" lon="6.28065">
        <ele>824.872257098</ele>
        <time>2021-10-12T22:00:56.633Z</time>
      </trkpt>
      <trkpt lat="44.11096" lon="6.28058">
        <ele>824.74225341355</ele>
        <time>2021-10-12T22:01:03.467Z</time>
      </trkpt>
      <trkpt lat="44.11098" lon="6.28044">
        <ele>824.56338807658</ele>
        <time>2021-10-12T22:01:10.305Z</time>
      </trkpt>
      <trkpt lat="44.111" lon="6.28038">
        <ele>824.39537433185</ele>
        <time>2021-10-12T22:01:17.144Z</time>
      </trkpt>
      <trkpt lat="44.11111" lon="6.28016">
        <ele>824.1045592336</ele>
        <time>2021-10-12T22:01:23.989Z</time>
      </trkpt>
      <trkpt lat="44.11131" lon="6.27977">
        <ele>823.95973278562</ele>
        <time>2021-10-12T22:01:30.846Z</time>
      </trkpt>
      <trkpt lat="44.11142" lon="6.27954">
        <ele>823.7942907606</ele>
        <time>2021-10-12T22:01:37.710Z</time>
      </trkpt>
      <trkpt lat="44.11144" lon="6.27949">
        <ele>823.53452213123</ele>
        <time>2021-10-12T22:01:44.575Z</time>
      </trkpt>
      <trkpt lat="44.11151" lon="6.27929">
        <ele>823.32075023791</ele>
        <time>2021-10-12T22:01:51.445Z</time>
      </trkpt>
      <trkpt lat="44.11152" lon="6.27924">
        <ele>822.97229409479</ele>
        <time>2021-10-12T22:01:58.317Z</time>
      </trkpt>
      <trkpt lat="44.11152" lon="6.27918">
        <ele>822.57306187219</ele>
        <time>2021-10-12T22:02:05.190Z</time>
      </trkpt>
      <trkpt lat="44.1115" lon="6.27898">
        <ele>822.1993374183</ele>
        <time>2021-10-12T22:02:12.068Z</time>
      </trkpt>
      <trkpt lat="44.11143" lon="6.27879">
        <ele>821.70623495404</ele>
        <time>2021-10-12T22:02:18.951Z</time>
      </trkpt>
      <trkpt lat="44.11137" lon="6.2787">
        <ele>821.04411465794</ele>
        <time>2021-10-12T22:02:25.837Z</time>
      </trkpt>
      <trkpt lat="44.11132" lon="6.27867">
        <ele>820.36569058057</ele>
        <time>2021-10-12T22:02:32.725Z</time>
      </trkpt>
      <trkpt lat="44.11128" lon="6.27863">
        <ele>819.63650303793</ele>
        <time>2021-10-12T22:02:39.614Z</time>
      </trkpt>
      <trkpt lat="44.11123" lon="6.27858">
        <ele>818.84524854037</ele>
        <time>2021-10-12T22:02:46.505Z</time>
      </trkpt>
      <trkpt lat="44.11118" lon="6.27853">
        <ele>817.99785451475</ele>
        <time>2021-10-12T22:02:53.399Z</time>
      </trkpt>
      <trkpt lat="44.11107" lon="6.27843">
        <ele>817.02758829229</ele>
        <time>2021-10-12T22:03:00.297Z</time>
      </trkpt>
      <trkpt lat="44.11101" lon="6.27838">
        <ele>816.09871843929</ele>
        <time>2021-10-12T22:03:07.197Z</time>
      </trkpt>
      <trkpt lat="44.11096" lon="6.27832">
        <ele>815.16171832386</ele>
        <time>2021-10-12T22:03:14.099Z</time>
      </trkpt>
      <trkpt lat="44.11091" lon="6.27828">
        <ele>814.19539587007</ele>
        <time>2021-10-12T22:03:21.003Z</time>
      </trkpt>
      <trkpt lat="44.11085" lon="6.27825">
        <ele>813.19141968994</ele>
        <time>2021-10-12T22:03:27.910Z</time>
      </trkpt>
      <trkpt lat="44.1108" lon="6.2782">
        <ele>812.16268998175</ele>
        <time>2021-10-12T22:03:34.819Z</time>
      </trkpt>
      <trkpt lat="44.11075" lon="6.27813">
        <ele>811.11957396885</ele>
        <time>2021-10-12T22:03:41.730Z</time>
      </trkpt>
      <trkpt lat="44.11072" lon="6.27806">
        <ele>810.06683511013</ele>
        <time>2021-10-12T22:03:48.643Z</time>
      </trkpt>
      <trkpt lat="44.11068" lon="6.27798">
        <ele>809.0129737587</ele>
        <time>2021-10-12T22:03:55.558Z</time>
      </trkpt>
      <trkpt lat="44.11066" lon="6.27791">
        <ele>807.95007448427</ele>
        <time>2021-10-12T22:04:02.475Z</time>
      </trkpt>
      <trkpt lat="44.11062" lon="6.27776">
        <ele>806.84830975015</ele>
        <time>2021-10-12T22:04:09.396Z</time>
      </trkpt>
      <trkpt lat="44.11061" lon="6.27768">
        <ele>805.78001972464</ele>
        <time>2021-10-12T22:04:16.319Z</time>
      </trkpt>
      <trkpt lat="44.11061" lon="6.2776">
        <ele>804.71030039115</ele>
        <time>2021-10-12T22:04:23.244Z</time>
      </trkpt>
      <trkpt lat="44.11061" lon="6.27751">
        <ele>803.62777523359</ele>
        <time>2021-10-12T22:04:30.171Z</time>
      </trkpt>
      <trkpt lat="44.1106" lon="6.27742">
        <ele>802.5559019655</ele>
        <time>2021-10-12T22:04:37.100Z</time>
      </trkpt>
      <trkpt lat="44.11058" lon="6.27733">
        <ele>801.52396857169</ele>
        <time>2021-10-12T22:04:44.031Z</time>
      </trkpt>
      <trkpt lat="44.11057" lon="6.27717">
        <ele>800.45047575718</ele>
        <time>2021-10-12T22:04:50.966Z</time>
      </trkpt>
      <trkpt lat="44.11057" lon="6.2771">
        <ele>799.43031358097</ele>
        <time>2021-10-12T22:04:57.903Z</time>
      </trkpt>
      <trkpt lat="44.11055" lon="6.27704">
        <ele>798.43062287268</ele>
        <time>2021-10-12T22:05:04.841Z</time>
      </trkpt>
      <trkpt lat="44.11054" lon="6.27698">
        <ele>797.44594297023</ele>
        <time>2021-10-12T22:05:11.781Z</time>
      </trkpt>
      <trkpt lat="44.11055" lon="6.27686">
        <ele>796.44878960839</ele>
        <time>2021-10-12T22:05:18.724Z</time>
      </trkpt>
      <trkpt lat="44.11058" lon="6.27675">
        <ele>795.46764699775</ele>
        <time>2021-10-12T22:05:25.670Z</time>
      </trkpt>
      <trkpt lat="44.1106" lon="6.27654">
        <ele>794.44038659819</ele>
        <time>2021-10-12T22:05:32.621Z</time>
      </trkpt>
      <trkpt lat="44.11061" lon="6.27648">
        <ele>793.50664591415</ele>
        <time>2021-10-12T22:05:39.573Z</time>
      </trkpt>
      <trkpt lat="44.11061" lon="6.27642">
        <ele>792.60241622639</ele>
        <time>2021-10-12T22:05:46.527Z</time>
      </trkpt>
      <trkpt lat="44.1106" lon="6.27636">
        <ele>791.733704501</ele>
        <time>2021-10-12T22:05:53.482Z</time>
      </trkpt>
      <trkpt lat="44.11058" lon="6.2763">
        <ele>790.89649077379</ele>
        <time>2021-10-12T22:06:00.439Z</time>
      </trkpt>
      <trkpt lat="44.11056" lon="6.27626">
        <ele>790.09253762808</ele>
        <time>2021-10-12T22:06:07.397Z</time>
      </trkpt>
      <trkpt lat="44.1105" lon="6.27617">
        <ele>789.31126210604</ele>
        <time>2021-10-12T22:06:14.358Z</time>
      </trkpt>
      <trkpt lat="44.11046" lon="6.27613">
        <ele>788.58229869086</ele>
        <time>2021-10-12T22:06:21.320Z</time>
      </trkpt>
      <trkpt lat="44.11041" lon="6.27611">
        <ele>787.87049278338</ele>
        <time>2021-10-12T22:06:28.284Z</time>
      </trkpt>
      <trkpt lat="44.11036" lon="6.27607">
        <ele>787.18092828653</ele>
        <time>2021-10-12T22:06:35.250Z</time>
      </trkpt>
      <trkpt lat="44.11033" lon="6.27603">
        <ele>786.53431341975</ele>
        <time>2021-10-12T22:06:42.217Z</time>
      </trkpt>
      <trkpt lat="44.11033" lon="6.27594">
        <ele>785.9349079716</ele>
        <time>2021-10-12T22:06:49.186Z</time>
      </trkpt>
      <trkpt lat="44.11033" lon="6.2759">
        <ele>785.35539483595</ele>
        <time>2021-10-12T22:06:56.157Z</time>
      </trkpt>
      <trkpt lat="44.11034" lon="6.27585">
        <ele>784.80070793156</ele>
        <time>2021-10-12T22:07:03.129Z</time>
      </trkpt>
      <trkpt lat="44.11036" lon="6.27575">
        <ele>784.24809281584</ele>
        <time>2021-10-12T22:07:10.103Z</time>
      </trkpt>
      <trkpt lat="44.11034" lon="6.27563">
        <ele>783.80442028169</ele>
        <time>2021-10-12T22:07:17.080Z</time>
      </trkpt>
      <trkpt lat="44.11033" lon="6.27555">
        <ele>783.37015395699</ele>
        <time>2021-10-12T22:07:24.059Z</time>
      </trkpt>
      <trkpt lat="44.11035" lon="6.27554">
        <ele>782.96190287553</ele>
        <time>2021-10-12T22:07:31.039Z</time>
      </trkpt>
      <trkpt lat="44.11036" lon="6.27554">
        <ele>782.58085441445</ele>
        <time>2021-10-12T22:07:38.019Z</time>
      </trkpt>
      <trkpt lat="44.11039" lon="6.27556">
        <ele>782.22139602921</ele>
        <time>2021-10-12T22:07:45.000Z</time>
      </trkpt>
      <trkpt lat="44.1104" lon="6.27556">
        <ele>781.89629852633</ele>
        <time>2021-10-12T22:07:51.981Z</time>
      </trkpt>
      <trkpt lat="44.11042" lon="6.2756">
        <ele>781.58643985757</ele>
        <time>2021-10-12T22:07:58.963Z</time>
      </trkpt>
      <trkpt lat="44.11045" lon="6.27565">
        <ele>781.29324492749</ele>
        <time>2021-10-12T22:08:05.947Z</time>
      </trkpt>
      <trkpt lat="44.11051" lon="6.27578">
        <ele>781.00695724521</ele>
        <time>2021-10-12T22:08:12.935Z</time>
      </trkpt>
      <trkpt lat="44.11053" lon="6.27582">
        <ele>780.77434783856</ele>
        <time>2021-10-12T22:08:19.924Z</time>
      </trkpt>
      <trkpt lat="44.11056" lon="6.27583">
        <ele>780.5230270659</ele>
        <time>2021-10-12T22:08:26.914Z</time>
      </trkpt>
      <trkpt lat="44.1106" lon="6.27581">
        <ele>780.2552276116</ele>
        <time>2021-10-12T22:08:33.905Z</time>
      </trkpt>
      <trkpt lat="44.11066" lon="6.27576">
        <ele>779.96072666178</ele>
        <time>2021-10-12T22:08:40.899Z</time>
      </trkpt>
      <trkpt lat="44.11074" lon="6.27574">
        <ele>779.66454763147</ele>
        <time>2021-10-12T22:08:47.895Z</time>
      </trkpt>
      <trkpt lat="44.11078" lon="6.27574">
        <ele>779.42195489953</ele>
        <time>2021-10-12T22:08:54.893Z</time>
      </trkpt>
      <trkpt lat="44.11082" lon="6.27575">
        <ele>779.18748766176</ele>
        <time>2021-10-12T22:09:01.892Z</time>
      </trkpt>
      <trkpt lat="44.11089" lon="6.27579">
        <ele>778.94725324586</ele>
        <time>2021-10-12T22:09:08.894Z</time>
      </trkpt>
      <trkpt lat="44.11092" lon="6.27583">
        <ele>778.74611406561</ele>
        <time>2021-10-12T22:09:15.897Z</time>
      </trkpt>
      <trkpt lat="44.111" lon="6.27594">
        <ele>778.54670467905</ele>
        <time>2021-10-12T22:09:22.904Z</time>
      </trkpt>
      <trkpt lat="44.11105" lon="6.2761">
        <ele>778.46879666912</ele>
        <time>2021-10-12T22:09:29.915Z</time>
      </trkpt>
      <trkpt lat="44.11105" lon="6.27616">
        <ele>778.31285712098</ele>
        <time>2021-10-12T22:09:36.928Z</time>
      </trkpt>
      <trkpt lat="44.11104" lon="6.27623">
        <ele>778.14058365651</ele>
        <time>2021-10-12T22:09:43.942Z</time>
      </trkpt>
      <trkpt lat="44.11107" lon="6.27631">
        <ele>777.95231591015</ele>
        <time>2021-10-12T22:09:50.958Z</time>
      </trkpt>
      <trkpt lat="44.11109" lon="6.2763">
        <ele>777.64842478778</ele>
        <time>2021-10-12T22:09:57.975Z</time>
      </trkpt>
      <trkpt lat="44.11111" lon="6.27629">
        <ele>777.30565040636</ele>
        <time>2021-10-12T22:10:04.993Z</time>
      </trkpt>
      <trkpt lat="44.11116" lon="6.27623">
        <ele>776.88129373016</ele>
        <time>2021-10-12T22:10:12.013Z</time>
      </trkpt>
      <trkpt lat="44.11136" lon="6.276">
        <ele>776.34905318346</ele>
        <time>2021-10-12T22:10:19.042Z</time>
      </trkpt>
      <trkpt lat="44.11155" lon="6.27564">
        <ele>775.8784780533</ele>
        <time>2021-10-12T22:10:26.081Z</time>
      </trkpt>
      <trkpt lat="44.11158" lon="6.27559">
        <ele>775.3969006934</ele>
        <time>2021-10-12T22:10:33.122Z</time>
      </trkpt>
      <trkpt lat="44.11169" lon="6.27548">
        <ele>774.88654935769</ele>
        <time>2021-10-12T22:10:40.167Z</time>
      </trkpt>
      <trkpt lat="44.11176" lon="6.27541">
        <ele>774.36107895731</ele>
        <time>2021-10-12T22:10:47.215Z</time>
      </trkpt>
      <trkpt lat="44.11182" lon="6.27534">
        <ele>773.79614307414</ele>
        <time>2021-10-12T22:10:54.266Z</time>
      </trkpt>
      <trkpt lat="44.11191" lon="6.27524">
        <ele>773.16096567911</ele>
        <time>2021-10-12T22:11:01.321Z</time>
      </trkpt>
      <trkpt lat="44.11193" lon="6.27521">
        <ele>772.49241231288</ele>
        <time>2021-10-12T22:11:08.377Z</time>
      </trkpt>
      <trkpt lat="44.11196" lon="6.27517">
        <ele>771.79184556571</ele>
        <time>2021-10-12T22:11:15.434Z</time>
      </trkpt>
      <trkpt lat="44.112" lon="6.27511">
        <ele>771.03903886566</ele>
        <time>2021-10-12T22:11:22.493Z</time>
      </trkpt>
      <trkpt lat="44.11202" lon="6.27508">
        <ele>770.26436249486</ele>
        <time>2021-10-12T22:11:29.553Z</time>
      </trkpt>
      <trkpt lat="44.11204" lon="6.27505">
        <ele>769.46484624742</ele>
        <time>2021-10-12T22:11:36.614Z</time>
      </trkpt>
      <trkpt lat="44.11209" lon="6.27498">
        <ele>768.57980792437</ele>
        <time>2021-10-12T22:11:43.677Z</time>
      </trkpt>
      <trkpt lat="44.11212" lon="6.27495">
        <ele>767.71800622832</ele>
        <time>2021-10-12T22:11:50.742Z</time>
      </trkpt>
      <trkpt lat="44.11215" lon="6.27493">
        <ele>766.83963053307</ele>
        <time>2021-10-12T22:11:57.808Z</time>
      </trkpt>
      <trkpt lat="44.1122" lon="6.27489">
        <ele>765.91551638549</ele>
        <time>2021-10-12T22:12:04.876Z</time>
      </trkpt>
      <trkpt lat="44.11222" lon="6.27487">
        <ele>765.01221489511</ele>
        <time>2021-10-12T22:12:11.944Z</time>
      </trkpt>
      <trkpt lat="44.11224" lon="6.27485">
        <ele>764.09270620236</ele>
        <time>2021-10-12T22:12:19.013Z</time>
      </trkpt>
      <trkpt lat="44.11226" lon="6.27483">
        <ele>763.15114963512</ele>
        <time>2021-10-12T22:12:26.083Z</time>
      </trkpt>
      <trkpt lat="44.11231" lon="6.27479">
        <ele>762.14707959474</ele>
        <time>2021-10-12T22:12:33.155Z</time>
      </trkpt>
      <trkpt lat="44.11234" lon="6.27478">
        <ele>761.17904363014</ele>
        <time>2021-10-12T22:12:40.228Z</time>
      </trkpt>
      <trkpt lat="44.1124" lon="6.27473">
        <ele>760.11956294677</ele>
        <time>2021-10-12T22:12:47.303Z</time>
      </trkpt>
      <trkpt lat="44.11244" lon="6.27472">
        <ele>759.14866525504</ele>
        <time>2021-10-12T22:12:54.380Z</time>
      </trkpt>
      <trkpt lat="44.11248" lon="6.27471">
        <ele>758.18072502374</ele>
        <time>2021-10-12T22:13:01.458Z</time>
      </trkpt>
      <trkpt lat="44.11252" lon="6.2747">
        <ele>757.19648524769</ele>
        <time>2021-10-12T22:13:08.537Z</time>
      </trkpt>
      <trkpt lat="44.11258" lon="6.27471">
        <ele>756.23299732112</ele>
        <time>2021-10-12T22:13:15.618Z</time>
      </trkpt>
      <trkpt lat="44.11262" lon="6.27475">
        <ele>755.31079810885</ele>
        <time>2021-10-12T22:13:22.701Z</time>
      </trkpt>
      <trkpt lat="44.11264" lon="6.27476">
        <ele>754.34508793037</ele>
        <time>2021-10-12T22:13:29.785Z</time>
      </trkpt>
      <trkpt lat="44.11267" lon="6.27475">
        <ele>753.33760990145</ele>
        <time>2021-10-12T22:13:36.870Z</time>
      </trkpt>
      <trkpt lat="44.1127" lon="6.27473">
        <ele>752.2583244442</ele>
        <time>2021-10-12T22:13:43.956Z</time>
      </trkpt>
      <trkpt lat="44.11272" lon="6.2747">
        <ele>751.15606075131</ele>
        <time>2021-10-12T22:13:51.043Z</time>
      </trkpt>
      <trkpt lat="44.11274" lon="6.27467">
        <ele>750.0759270491</ele>
        <time>2021-10-12T22:13:58.131Z</time>
      </trkpt>
      <trkpt lat="44.11276" lon="6.27464">
        <ele>748.97251832631</ele>
        <time>2021-10-12T22:14:05.220Z</time>
      </trkpt>
      <trkpt lat="44.11277" lon="6.27462">
        <ele>747.88063551413</ele>
        <time>2021-10-12T22:14:12.309Z</time>
      </trkpt>
      <trkpt lat="44.11277" lon="6.27461">
        <ele>746.77034157677</ele>
        <time>2021-10-12T22:14:19.399Z</time>
      </trkpt>
      <trkpt lat="44.11279" lon="6.27453">
        <ele>745.50284167606</ele>
        <time>2021-10-12T22:14:26.491Z</time>
      </trkpt>
      <trkpt lat="44.1128" lon="6.27451">
        <ele>744.35742574669</ele>
        <time>2021-10-12T22:14:33.583Z</time>
      </trkpt>
      <trkpt lat="44.11282" lon="6.2745">
        <ele>743.19029470553</ele>
        <time>2021-10-12T22:14:40.676Z</time>
      </trkpt>
      <trkpt lat="44.11282" lon="6.27449">
        <ele>742.05095582868</ele>
        <time>2021-10-12T22:14:47.769Z</time>
      </trkpt>
      <trkpt lat="44.11288" lon="6.27445">
        <ele>740.72478969944</ele>
        <time>2021-10-12T22:14:54.864Z</time>
      </trkpt>
      <trkpt lat="44.1129" lon="6.27444">
        <ele>739.52291368795</ele>
        <time>2021-10-12T22:15:01.960Z</time>
      </trkpt>
      <trkpt lat="44.11292" lon="6.27445">
        <ele>738.33399040471</ele>
        <time>2021-10-12T22:15:09.056Z</time>
      </trkpt>
      <trkpt lat="44.11293" lon="6.27448">
        <ele>737.19749279902</ele>
        <time>2021-10-12T22:15:16.153Z</time>
      </trkpt>
      <trkpt lat="44.11294" lon="6.27453">
        <ele>736.05542701772</ele>
        <time>2021-10-12T22:15:23.252Z</time>
      </trkpt>
      <trkpt lat="44.11296" lon="6.27459">
        <ele>734.8841764124</ele>
        <time>2021-10-12T22:15:30.352Z</time>
      </trkpt>
      <trkpt lat="44.11298" lon="6.27467">
        <ele>733.67784588777</ele>
        <time>2021-10-12T22:15:37.454Z</time>
      </trkpt>
      <trkpt lat="44.11299" lon="6.27471">
        <ele>732.2890143458</ele>
        <time>2021-10-12T22:15:44.557Z</time>
      </trkpt>
      <trkpt lat="44.11304" lon="6.27477">
        <ele>730.79172017506</ele>
        <time>2021-10-12T22:15:51.662Z</time>
      </trkpt>
      <trkpt lat="44.1131" lon="6.27483">
        <ele>729.19912690168</ele>
        <time>2021-10-12T22:15:58.770Z</time>
      </trkpt>
      <trkpt lat="44.11317" lon="6.2749">
        <ele>727.56592717013</ele>
        <time>2021-10-12T22:16:05.881Z</time>
      </trkpt>
      <trkpt lat="44.11322" lon="6.27493">
        <ele>725.87742727567</ele>
        <time>2021-10-12T22:16:12.994Z</time>
      </trkpt>
      <trkpt lat="44.11326" lon="6.27495">
        <ele>724.12604313141</ele>
        <time>2021-10-12T22:16:20.108Z</time>
      </trkpt>
      <trkpt lat="44.1133" lon="6.27496">
        <ele>722.3182862053</ele>
        <time>2021-10-12T22:16:27.223Z</time>
      </trkpt>
      <trkpt lat="44.11336" lon="6.27499">
        <ele>720.43633043422</ele>
        <time>2021-10-12T22:16:34.340Z</time>
      </trkpt>
      <trkpt lat="44.1134" lon="6.27499">
        <ele>718.56922541621</ele>
        <time>2021-10-12T22:16:41.459Z</time>
      </trkpt>
      <trkpt lat="44.11343" lon="6.27499">
        <ele>716.7117185234</ele>
        <time>2021-10-12T22:16:48.579Z</time>
      </trkpt>
      <trkpt lat="44.11345" lon="6.275">
        <ele>714.86585574744</ele>
        <time>2021-10-12T22:16:55.699Z</time>
      </trkpt>
      <trkpt lat="44.11347" lon="6.27502">
        <ele>713.01346008053</ele>
        <time>2021-10-12T22:17:02.820Z</time>
      </trkpt>
      <trkpt lat="44.1135" lon="6.27503">
        <ele>711.11717447204</ele>
        <time>2021-10-12T22:17:09.942Z</time>
      </trkpt>
      <trkpt lat="44.11354" lon="6.27505">
        <ele>709.19461295072</ele>
        <time>2021-10-12T22:17:17.066Z</time>
      </trkpt>
      <trkpt lat="44.11357" lon="6.27507">
        <ele>707.2926899762</ele>
        <time>2021-10-12T22:17:24.191Z</time>
      </trkpt>
      <trkpt lat="44.1136" lon="6.27509">
        <ele>705.39970861228</ele>
        <time>2021-10-12T22:17:31.317Z</time>
      </trkpt>
      <trkpt lat="44.11362" lon="6.27514">
        <ele>703.57960111549</ele>
        <time>2021-10-12T22:17:38.444Z</time>
      </trkpt>
      <trkpt lat="44.11364" lon="6.27519">
        <ele>701.81156283556</ele>
        <time>2021-10-12T22:17:45.573Z</time>
      </trkpt>
      <trkpt lat="44.11367" lon="6.27531">
        <ele>700.04414537653</ele>
        <time>2021-10-12T22:17:52.705Z</time>
      </trkpt>
      <trkpt lat="44.1137" lon="6.27535">
        <ele>698.23317443567</ele>
        <time>2021-10-12T22:17:59.838Z</time>
      </trkpt>
      <trkpt lat="44.11373" lon="6.27539">
        <ele>696.4794750894</ele>
        <time>2021-10-12T22:18:06.972Z</time>
      </trkpt>
      <trkpt lat="44.11378" lon="6.27549">
        <ele>694.70454268023</ele>
        <time>2021-10-12T22:18:14.109Z</time>
      </trkpt>
      <trkpt lat="44.1138" lon="6.27554">
        <ele>693.03070277309</ele>
        <time>2021-10-12T22:18:21.248Z</time>
      </trkpt>
      <trkpt lat="44.11383" lon="6.2756">
        <ele>691.39802819396</ele>
        <time>2021-10-12T22:18:28.389Z</time>
      </trkpt>
      <trkpt lat="44.11387" lon="6.27565">
        <ele>689.80589460966</ele>
        <time>2021-10-12T22:18:35.531Z</time>
      </trkpt>
      <trkpt lat="44.1139" lon="6.2757">
        <ele>688.26717335073</ele>
        <time>2021-10-12T22:18:42.675Z</time>
      </trkpt>
      <trkpt lat="44.11393" lon="6.27575">
        <ele>686.79806606861</ele>
        <time>2021-10-12T22:18:49.820Z</time>
      </trkpt>
      <trkpt lat="44.11395" lon="6.2758">
        <ele>685.41324773274</ele>
        <time>2021-10-12T22:18:56.967Z</time>
      </trkpt>
      <trkpt lat="44.11397" lon="6.27585">
        <ele>684.10261265794</ele>
        <time>2021-10-12T22:19:04.115Z</time>
      </trkpt>
      <trkpt lat="44.11398" lon="6.2759">
        <ele>682.86464704834</ele>
        <time>2021-10-12T22:19:11.264Z</time>
      </trkpt>
      <trkpt lat="44.11399" lon="6.27596">
        <ele>681.70641909885</ele>
        <time>2021-10-12T22:19:18.415Z</time>
      </trkpt>
      <trkpt lat="44.11401" lon="6.27601">
        <ele>680.60408457962</ele>
        <time>2021-10-12T22:19:25.567Z</time>
      </trkpt>
      <trkpt lat="44.11402" lon="6.27609">
        <ele>679.58719465134</ele>
        <time>2021-10-12T22:19:32.721Z</time>
      </trkpt>
      <trkpt lat="44.11402" lon="6.27613">
        <ele>678.67088993554</ele>
        <time>2021-10-12T22:19:39.876Z</time>
      </trkpt>
      <trkpt lat="44.11402" lon="6.27617">
        <ele>677.8002785392</ele>
        <time>2021-10-12T22:19:47.032Z</time>
      </trkpt>
      <trkpt lat="44.11406" lon="6.27625">
        <ele>676.9289874304</ele>
        <time>2021-10-12T22:19:54.190Z</time>
      </trkpt>
      <trkpt lat="44.11407" lon="6.27629">
        <ele>676.17119711884</ele>
        <time>2021-10-12T22:20:01.349Z</time>
      </trkpt>
      <trkpt lat="44.1141" lon="6.27632">
        <ele>675.4681042102</ele>
        <time>2021-10-12T22:20:08.510Z</time>
      </trkpt>
      <trkpt lat="44.11414" lon="6.2764">
        <ele>674.84222006893</ele>
        <time>2021-10-12T22:20:15.673Z</time>
      </trkpt>
      <trkpt lat="44.11415" lon="6.27644">
        <ele>674.31834255973</ele>
        <time>2021-10-12T22:20:22.837Z</time>
      </trkpt>
      <trkpt lat="44.11416" lon="6.27645">
        <ele>673.84254515798</ele>
        <time>2021-10-12T22:20:30.001Z</time>
      </trkpt>
      <trkpt lat="44.11417" lon="6.27645">
        <ele>673.40371294847</ele>
        <time>2021-10-12T22:20:37.166Z</time>
      </trkpt>
      <trkpt lat="44.11418" lon="6.27645">
        <ele>673.00739421097</ele>
        <time>2021-10-12T22:20:44.331Z</time>
      </trkpt>
      <trkpt lat="44.11419" lon="6.27641">
        <ele>672.65376722532</ele>
        <time>2021-10-12T22:20:51.497Z</time>
      </trkpt>
      <trkpt lat="44.11422" lon="6.27637">
        <ele>672.33639956139</ele>
        <time>2021-10-12T22:20:58.664Z</time>
      </trkpt>
      <trkpt lat="44.11424" lon="6.27638">
        <ele>672.11959739551</ele>
        <time>2021-10-12T22:21:05.832Z</time>
      </trkpt>
      <trkpt lat="44.11429" lon="6.27642">
        <ele>671.93720288376</ele>
        <time>2021-10-12T22:21:13.002Z</time>
      </trkpt>
      <trkpt lat="44.1143" lon="6.27644">
        <ele>671.85265095642</ele>
        <time>2021-10-12T22:21:20.173Z</time>
      </trkpt>
      <trkpt lat="44.11431" lon="6.27646">
        <ele>671.82751645914</ele>
        <time>2021-10-12T22:21:27.344Z</time>
      </trkpt>
      <trkpt lat="44.11435" lon="6.2765">
        <ele>671.81882814137</ele>
        <time>2021-10-12T22:21:34.517Z</time>
      </trkpt>
      <trkpt lat="44.1144" lon="6.27654">
        <ele>671.84655022312</ele>
        <time>2021-10-12T22:21:41.692Z</time>
      </trkpt>
      <trkpt lat="44.11444" lon="6.2766">
        <ele>671.93799488923</ele>
        <time>2021-10-12T22:21:48.869Z</time>
      </trkpt>
      <trkpt lat="44.11446" lon="6.27667">
        <ele>672.15239414591</ele>
        <time>2021-10-12T22:21:56.047Z</time>
      </trkpt>
      <trkpt lat="44.11446" lon="6.27671">
        <ele>672.36454377455</ele>
        <time>2021-10-12T22:22:03.226Z</time>
      </trkpt>
      <trkpt lat="44.11449" lon="6.27679">
        <ele>672.61958287249</ele>
        <time>2021-10-12T22:22:10.407Z</time>
      </trkpt>
      <trkpt lat="44.11452" lon="6.27685">
        <ele>672.87858449957</ele>
        <time>2021-10-12T22:22:17.590Z</time>
      </trkpt>
      <trkpt lat="44.11454" lon="6.27695">
        <ele>673.19498617246</ele>
        <time>2021-10-12T22:22:24.776Z</time>
      </trkpt>
      <trkpt lat="44.11466" lon="6.27725">
        <ele>673.60107739749</ele>
        <time>2021-10-12T22:22:31.970Z</time>
      </trkpt>
      <trkpt lat="44.11469" lon="6.2773">
        <ele>673.86228935293</ele>
        <time>2021-10-12T22:22:39.165Z</time>
      </trkpt>
      <trkpt lat="44.11476" lon="6.27744">
        <ele>674.17315027524</ele>
        <time>2021-10-12T22:22:46.365Z</time>
      </trkpt>
      <trkpt lat="44.11483" lon="6.27757">
        <ele>674.36924879876</ele>
        <time>2021-10-12T22:22:53.569Z</time>
      </trkpt>
      <trkpt lat="44.11485" lon="6.27761">
        <ele>674.62513090457</ele>
        <time>2021-10-12T22:23:00.774Z</time>
      </trkpt>
      <trkpt lat="44.11494" lon="6.27783">
        <ele>674.87182210055</ele>
        <time>2021-10-12T22:23:07.985Z</time>
      </trkpt>
      <trkpt lat="44.11504" lon="6.27809">
        <ele>675.10869824274</ele>
        <time>2021-10-12T22:23:15.203Z</time>
      </trkpt>
      <trkpt lat="44.11511" lon="6.27825">
        <ele>675.32147410667</ele>
        <time>2021-10-12T22:23:22.425Z</time>
      </trkpt>
      <trkpt lat="44.11514" lon="6.27829">
        <ele>675.55475732084</ele>
        <time>2021-10-12T22:23:29.649Z</time>
      </trkpt>
      <trkpt lat="44.11518" lon="6.27833">
        <ele>675.79296465723</ele>
        <time>2021-10-12T22:23:36.874Z</time>
      </trkpt>
      <trkpt lat="44.11532" lon="6.27857">
        <ele>675.98076885689</ele>
        <time>2021-10-12T22:23:44.107Z</time>
      </trkpt>
      <trkpt lat="44.11534" lon="6.27862">
        <ele>676.25258834635</ele>
        <time>2021-10-12T22:23:51.341Z</time>
      </trkpt>
      <trkpt lat="44.11538" lon="6.27873">
        <ele>676.52169540689</ele>
        <time>2021-10-12T22:23:58.578Z</time>
      </trkpt>
      <trkpt lat="44.11545" lon="6.27891">
        <ele>676.79659558764</ele>
        <time>2021-10-12T22:24:05.820Z</time>
      </trkpt>
      <trkpt lat="44.11548" lon="6.27897">
        <ele>677.09758784483</ele>
        <time>2021-10-12T22:24:13.064Z</time>
      </trkpt>
      <trkpt lat="44.11556" lon="6.27913">
        <ele>677.39843774611</ele>
        <time>2021-10-12T22:24:20.313Z</time>
      </trkpt>
      <trkpt lat="44.11559" lon="6.27926">
        <ele>677.68495927</ele>
        <time>2021-10-12T22:24:27.565Z</time>
      </trkpt>
      <trkpt lat="44.1156" lon="6.27938">
        <ele>677.97717383496</ele>
        <time>2021-10-12T22:24:34.820Z</time>
      </trkpt>
      <trkpt lat="44.11562" lon="6.27954">
        <ele>678.31170823806</ele>
        <time>2021-10-12T22:24:42.079Z</time>
      </trkpt>
      <trkpt lat="44.11561" lon="6.27959">
        <ele>678.61314859229</ele>
        <time>2021-10-12T22:24:49.339Z</time>
      </trkpt>
      <trkpt lat="44.1156" lon="6.27972">
        <ele>678.931716087</ele>
        <time>2021-10-12T22:24:56.602Z</time>
      </trkpt>
      <trkpt lat="44.11555" lon="6.27989">
        <ele>679.24442991392</ele>
        <time>2021-10-12T22:25:03.869Z</time>
      </trkpt>
      <trkpt lat="44.11553" lon="6.27994">
        <ele>679.49457207756</ele>
        <time>2021-10-12T22:25:11.137Z</time>
      </trkpt>
      <trkpt lat="44.11552" lon="6.28008">
        <ele>679.75886723073</ele>
        <time>2021-10-12T22:25:18.409Z</time>
      </trkpt>
      <trkpt lat="44.11552" lon="6.28027">
        <ele>680.00066425131</ele>
        <time>2021-10-12T22:25:25.685Z</time>
      </trkpt>
      <trkpt lat="44.11552" lon="6.28031">
        <ele>680.17160726578</ele>
        <time>2021-10-12T22:25:32.962Z</time>
      </trkpt>
      <trkpt lat="44.1155" lon="6.28046">
        <ele>680.33633761132</ele>
        <time>2021-10-12T22:25:40.243Z</time>
      </trkpt>
      <trkpt lat="44.11547" lon="6.28051">
        <ele>680.45411841306</ele>
        <time>2021-10-12T22:25:47.526Z</time>
      </trkpt>
      <trkpt lat="44.11545" lon="6.28055">
        <ele>680.53024826182</ele>
        <time>2021-10-12T22:25:54.810Z</time>
      </trkpt>
      <trkpt lat="44.11544" lon="6.2806">
        <ele>680.57198185173</ele>
        <time>2021-10-12T22:26:02.095Z</time>
      </trkpt>
      <trkpt lat="44.11542" lon="6.28068">
        <ele>680.58485509757</ele>
        <time>2021-10-12T22:26:09.382Z</time>
      </trkpt>
      <trkpt lat="44.11541" lon="6.28077">
        <ele>680.56369146628</ele>
        <time>2021-10-12T22:26:16.671Z</time>
      </trkpt>
      <trkpt lat="44.11542" lon="6.28087">
        <ele>680.51099096019</ele>
        <time>2021-10-12T22:26:23.963Z</time>
      </trkpt>
      <trkpt lat="44.11547" lon="6.28092">
        <ele>680.37664171088</ele>
        <time>2021-10-12T22:26:31.257Z</time>
      </trkpt>
      <trkpt lat="44.11551" lon="6.28094">
        <ele>680.19299802038</ele>
        <time>2021-10-12T22:26:38.552Z</time>
      </trkpt>
      <trkpt lat="44.11561" lon="6.28095">
        <ele>679.94361935144</ele>
        <time>2021-10-12T22:26:45.850Z</time>
      </trkpt>
      <trkpt lat="44.11575" lon="6.28097">
        <ele>679.66081521694</ele>
        <time>2021-10-12T22:26:53.153Z</time>
      </trkpt>
      <trkpt lat="44.11584" lon="6.28099">
        <ele>679.3677112386</ele>
        <time>2021-10-12T22:27:00.459Z</time>
      </trkpt>
      <trkpt lat="44.11597" lon="6.28102">
        <ele>679.03631730056</ele>
        <time>2021-10-12T22:27:07.770Z</time>
      </trkpt>
      <trkpt lat="44.11602" lon="6.28104">
        <ele>678.69993013859</ele>
        <time>2021-10-12T22:27:15.082Z</time>
      </trkpt>
      <trkpt lat="44.11608" lon="6.28107">
        <ele>678.3484574811</ele>
        <time>2021-10-12T22:27:22.396Z</time>
      </trkpt>
      <trkpt lat="44.11608" lon="6.28107">
        <ele>677.9764920103</ele>
        <time>2021-10-12T22:27:29.710Z</time>
      </trkpt>
      <trkpt lat="44.11612" lon="6.28103">
        <ele>677.5469965645</ele>
        <time>2021-10-12T22:27:37.026Z</time>
      </trkpt>
      <trkpt lat="44.11615" lon="6.28101">
        <ele>677.12681772758</ele>
        <time>2021-10-12T22:27:44.343Z</time>
      </trkpt>
      <trkpt lat="44.11624" lon="6.28091">
        <ele>676.65999774847</ele>
        <time>2021-10-12T22:27:51.664Z</time>
      </trkpt>
      <trkpt lat="44.11629" lon="6.28082">
        <ele>676.21831004119</ele>
        <time>2021-10-12T22:27:58.988Z</time>
      </trkpt>
      <trkpt lat="44.11639" lon="6.28065">
        <ele>675.76758082213</ele>
        <time>2021-10-12T22:28:06.317Z</time>
      </trkpt>
      <trkpt lat="44.1165" lon="6.28046">
        <ele>675.29421609627</ele>
        <time>2021-10-12T22:28:13.652Z</time>
      </trkpt>
      <trkpt lat="44.11658" lon="6.28032">
        <ele>674.88360487987</ele>
        <time>2021-10-12T22:28:20.991Z</time>
      </trkpt>
      <trkpt lat="44.11671" lon="6.28009">
        <ele>674.44453243431</ele>
        <time>2021-10-12T22:28:28.337Z</time>
      </trkpt>
      <trkpt lat="44.1168" lon="6.27992">
        <ele>674.12960170254</ele>
        <time>2021-10-12T22:28:35.688Z</time>
      </trkpt>
      <trkpt lat="44.11687" lon="6.27977">
        <ele>673.83965498817</ele>
        <time>2021-10-12T22:28:43.043Z</time>
      </trkpt>
      <trkpt lat="44.11694" lon="6.27966">
        <ele>673.59178018386</ele>
        <time>2021-10-12T22:28:50.402Z</time>
      </trkpt>
      <trkpt lat="44.11698" lon="6.27966">
        <ele>673.35832505524</ele>
        <time>2021-10-12T22:28:57.762Z</time>
      </trkpt>
      <trkpt lat="44.11711" lon="6.27979">
        <ele>673.14971047614</ele>
        <time>2021-10-12T22:29:05.128Z</time>
      </trkpt>
      <trkpt lat="44.11735" lon="6.28004">
        <ele>672.9871463587</ele>
        <time>2021-10-12T22:29:12.504Z</time>
      </trkpt>
      <trkpt lat="44.11745" lon="6.28015">
        <ele>672.83449481378</ele>
        <time>2021-10-12T22:29:19.884Z</time>
      </trkpt>
      <trkpt lat="44.11752" lon="6.28023">
        <ele>672.71276745665</ele>
        <time>2021-10-12T22:29:27.267Z</time>
      </trkpt>
      <trkpt lat="44.11755" lon="6.28026">
        <ele>672.63100487078</ele>
        <time>2021-10-12T22:29:34.651Z</time>
      </trkpt>
      <trkpt lat="44.11788" lon="6.28062">
        <ele>672.64947239716</ele>
        <time>2021-10-12T22:29:42.049Z</time>
      </trkpt>
      <trkpt lat="44.11806" lon="6.28081">
        <ele>672.63635354947</ele>
        <time>2021-10-12T22:29:49.455Z</time>
      </trkpt>
      <trkpt lat="44.11816" lon="6.28093">
        <ele>672.63696435747</ele>
        <time>2021-10-12T22:29:56.865Z</time>
      </trkpt>
      <trkpt lat="44.11844" lon="6.28116">
        <ele>672.67079472937</ele>
        <time>2021-10-12T22:30:04.286Z</time>
      </trkpt>
      <trkpt lat="44.11847" lon="6.28112">
        <ele>672.71151442824</ele>
        <time>2021-10-12T22:30:11.708Z</time>
      </trkpt>
      <trkpt lat="44.11852" lon="6.28102">
        <ele>672.77496213702</ele>
        <time>2021-10-12T22:30:19.133Z</time>
      </trkpt>
      <trkpt lat="44.11863" lon="6.28072">
        <ele>672.8159283584</ele>
        <time>2021-10-12T22:30:26.566Z</time>
      </trkpt>
      <trkpt lat="44.11868" lon="6.2806">
        <ele>672.91260051667</ele>
        <time>2021-10-12T22:30:34.003Z</time>
      </trkpt>
      <trkpt lat="44.11883" lon="6.28019">
        <ele>673.06451517781</ele>
        <time>2021-10-12T22:30:41.451Z</time>
      </trkpt>
      <trkpt lat="44.11885" lon="6.28014">
        <ele>673.22470475988</ele>
        <time>2021-10-12T22:30:48.900Z</time>
      </trkpt>
      <trkpt lat="44.11897" lon="6.28005">
        <ele>673.41121634043</ele>
        <time>2021-10-12T22:30:56.354Z</time>
      </trkpt>
      <trkpt lat="44.11906" lon="6.28009">
        <ele>673.59173307661</ele>
        <time>2021-10-12T22:31:03.811Z</time>
      </trkpt>
      <trkpt lat="44.11919" lon="6.28015">
        <ele>673.80814204072</ele>
        <time>2021-10-12T22:31:11.272Z</time>
      </trkpt>
      <trkpt lat="44.11923" lon="6.28017">
        <ele>674.02294628233</ele>
        <time>2021-10-12T22:31:18.735Z</time>
      </trkpt>
      <trkpt lat="44.1194" lon="6.28024">
        <ele>674.28677382644</ele>
        <time>2021-10-12T22:31:26.204Z</time>
      </trkpt>
      <trkpt lat="44.11945" lon="6.28026">
        <ele>674.52825248279</ele>
        <time>2021-10-12T22:31:33.674Z</time>
      </trkpt>
      <trkpt lat="44.11968" lon="6.28035">
        <ele>674.83980071603</ele>
        <time>2021-10-12T22:31:41.152Z</time>
      </trkpt>
      <trkpt lat="44.11995" lon="6.28045">
        <ele>675.09144326976</ele>
        <time>2021-10-12T22:31:48.640Z</time>
      </trkpt>
      <trkpt lat="44.11999" lon="6.28047">
        <ele>675.30817312968</ele>
        <time>2021-10-12T22:31:56.129Z</time>
      </trkpt>
      <trkpt lat="44.12032" lon="6.28057">
        <ele>675.4582358765</ele>
        <time>2021-10-12T22:32:03.630Z</time>
      </trkpt>
      <trkpt lat="44.12061" lon="6.28067">
        <ele>675.68797507807</ele>
        <time>2021-10-12T22:32:11.140Z</time>
      </trkpt>
      <trkpt lat="44.12071" lon="6.28071">
        <ele>675.96835854318</ele>
        <time>2021-10-12T22:32:18.654Z</time>
      </trkpt>
      <trkpt lat="44.12111" lon="6.28085">
        <ele>676.2984002931</ele>
        <time>2021-10-12T22:32:26.182Z</time>
      </trkpt>
      <trkpt lat="44.1214" lon="6.28094">
        <ele>676.58654027222</ele>
        <time>2021-10-12T22:32:33.720Z</time>
      </trkpt>
      <trkpt lat="44.1215" lon="6.28097">
        <ele>676.88572193053</ele>
        <time>2021-10-12T22:32:41.261Z</time>
      </trkpt>
      <trkpt lat="44.12181" lon="6.28109">
        <ele>677.19018757709</ele>
        <time>2021-10-12T22:32:48.813Z</time>
      </trkpt>
      <trkpt lat="44.12191" lon="6.28115">
        <ele>677.50547862995</ele>
        <time>2021-10-12T22:32:56.368Z</time>
      </trkpt>
      <trkpt lat="44.1221" lon="6.28128">
        <ele>677.82006722607</ele>
        <time>2021-10-12T22:33:03.930Z</time>
      </trkpt>
      <trkpt lat="44.12263" lon="6.28165">
        <ele>678.2973705222</ele>
        <time>2021-10-12T22:33:11.512Z</time>
      </trkpt>
      <trkpt lat="44.12308" lon="6.28197">
        <ele>678.5876752694</ele>
        <time>2021-10-12T22:33:19.111Z</time>
      </trkpt>
      <trkpt lat="44.12318" lon="6.28204">
        <ele>678.94105132753</ele>
        <time>2021-10-12T22:33:26.714Z</time>
      </trkpt>
      <trkpt lat="44.12367" lon="6.28239">
        <ele>679.3364678376</ele>
        <time>2021-10-12T22:33:34.335Z</time>
      </trkpt>
      <trkpt lat="44.12372" lon="6.28242">
        <ele>679.72796619898</ele>
        <time>2021-10-12T22:33:41.958Z</time>
      </trkpt>
      <trkpt lat="44.12393" lon="6.28253">
        <ele>680.16433945868</ele>
        <time>2021-10-12T22:33:49.588Z</time>
      </trkpt>
      <trkpt lat="44.12435" lon="6.28274">
        <ele>680.61280933255</ele>
        <time>2021-10-12T22:33:57.233Z</time>
      </trkpt>
      <trkpt lat="44.1244" lon="6.28276">
        <ele>681.01385155459</ele>
        <time>2021-10-12T22:34:04.880Z</time>
      </trkpt>
      <trkpt lat="44.12483" lon="6.28291">
        <ele>681.53770871697</ele>
        <time>2021-10-12T22:34:12.542Z</time>
      </trkpt>
      <trkpt lat="44.12506" lon="6.28298">
        <ele>681.93567556837</ele>
        <time>2021-10-12T22:34:20.211Z</time>
      </trkpt>
      <trkpt lat="44.1256" lon="6.28317">
        <ele>682.23328267807</ele>
        <time>2021-10-12T22:34:27.899Z</time>
      </trkpt>
      <trkpt lat="44.12577" lon="6.28323">
        <ele>682.58152620689</ele>
        <time>2021-10-12T22:34:35.593Z</time>
      </trkpt>
      <trkpt lat="44.12615" lon="6.28336">
        <ele>682.97135764208</ele>
        <time>2021-10-12T22:34:43.300Z</time>
      </trkpt>
      <trkpt lat="44.12636" lon="6.28344">
        <ele>683.36891421273</ele>
        <time>2021-10-12T22:34:51.014Z</time>
      </trkpt>
      <trkpt lat="44.12663" lon="6.28355">
        <ele>683.738010644</ele>
        <time>2021-10-12T22:34:58.738Z</time>
      </trkpt>
      <trkpt lat="44.12667" lon="6.28359">
        <ele>684.14284291102</ele>
        <time>2021-10-12T22:35:06.463Z</time>
      </trkpt>
      <trkpt lat="44.12693" lon="6.28391">
        <ele>684.51715026808</ele>
        <time>2021-10-12T22:35:14.200Z</time>
      </trkpt>
      <trkpt lat="44.12697" lon="6.28396">
        <ele>684.99031000326</ele>
        <time>2021-10-12T22:35:21.939Z</time>
      </trkpt>
      <trkpt lat="44.12739" lon="6.28452">
        <ele>685.62416671445</ele>
        <time>2021-10-12T22:35:29.697Z</time>
      </trkpt>
      <trkpt lat="44.12743" lon="6.28458">
        <ele>686.07757597721</ele>
        <time>2021-10-12T22:35:37.457Z</time>
      </trkpt>
      <trkpt lat="44.12779" lon="6.28507">
        <ele>686.53966893304</ele>
        <time>2021-10-12T22:35:45.234Z</time>
      </trkpt>
      <trkpt lat="44.12803" lon="6.28541">
        <ele>687.02077357127</ele>
        <time>2021-10-12T22:35:53.022Z</time>
      </trkpt>
      <trkpt lat="44.12818" lon="6.28564">
        <ele>687.50361102501</ele>
        <time>2021-10-12T22:36:00.818Z</time>
      </trkpt>
      <trkpt lat="44.12851" lon="6.28617">
        <ele>688.03896231202</ele>
        <time>2021-10-12T22:36:08.631Z</time>
      </trkpt>
      <trkpt lat="44.12858" lon="6.28629">
        <ele>688.45695598809</ele>
        <time>2021-10-12T22:36:16.447Z</time>
      </trkpt>
      <trkpt lat="44.12883" lon="6.2867">
        <ele>688.86505413053</ele>
        <time>2021-10-12T22:36:24.276Z</time>
      </trkpt>
      <trkpt lat="44.12887" lon="6.28676">
        <ele>689.27180869965</ele>
        <time>2021-10-12T22:36:32.107Z</time>
      </trkpt>
      <trkpt lat="44.12889" lon="6.28682">
        <ele>689.68157191185</ele>
        <time>2021-10-12T22:36:39.940Z</time>
      </trkpt>
      <trkpt lat="44.12883" lon="6.28703">
        <ele>690.10423185212</ele>
        <time>2021-10-12T22:36:47.778Z</time>
      </trkpt>
      <trkpt lat="44.12879" lon="6.28709">
        <ele>690.48245362582</ele>
        <time>2021-10-12T22:36:55.618Z</time>
      </trkpt>
      <trkpt lat="44.12847" lon="6.28757">
        <ele>690.82032060202</ele>
        <time>2021-10-12T22:37:03.474Z</time>
      </trkpt>
      <trkpt lat="44.12841" lon="6.28769">
        <ele>691.22894869575</ele>
        <time>2021-10-12T22:37:11.333Z</time>
      </trkpt>
      <trkpt lat="44.12838" lon="6.28783">
        <ele>691.66182261854</ele>
        <time>2021-10-12T22:37:19.196Z</time>
      </trkpt>
      <trkpt lat="44.12845" lon="6.28803">
        <ele>692.13486666896</ele>
        <time>2021-10-12T22:37:27.064Z</time>
      </trkpt>
      <trkpt lat="44.1285" lon="6.28816">
        <ele>692.6386447233</ele>
        <time>2021-10-12T22:37:34.936Z</time>
      </trkpt>
      <trkpt lat="44.12859" lon="6.28835">
        <ele>693.10612920361</ele>
        <time>2021-10-12T22:37:42.813Z</time>
      </trkpt>
      <trkpt lat="44.12863" lon="6.28849">
        <ele>693.54670658725</ele>
        <time>2021-10-12T22:37:50.694Z</time>
      </trkpt>
      <trkpt lat="44.12865" lon="6.28864">
        <ele>693.9936310401</ele>
        <time>2021-10-12T22:37:58.578Z</time>
      </trkpt>
      <trkpt lat="44.12867" lon="6.28878">
        <ele>694.46375944957</ele>
        <time>2021-10-12T22:38:06.466Z</time>
      </trkpt>
      <trkpt lat="44.12872" lon="6.28891">
        <ele>694.95699141432</ele>
        <time>2021-10-12T22:38:14.357Z</time>
      </trkpt>
      <trkpt lat="44.12894" lon="6.28936">
        <ele>695.50345409271</ele>
        <time>2021-10-12T22:38:22.261Z</time>
      </trkpt>
      <trkpt lat="44.1291" lon="6.28968">
        <ele>696.08059366546</ele>
        <time>2021-10-12T22:38:30.175Z</time>
      </trkpt>
      <trkpt lat="44.12925" lon="6.28999">
        <ele>696.61097208541</ele>
        <time>2021-10-12T22:38:38.098Z</time>
      </trkpt>
      <trkpt lat="44.1294" lon="6.29031">
        <ele>697.08448909843</ele>
        <time>2021-10-12T22:38:46.030Z</time>
      </trkpt>
      <trkpt lat="44.12961" lon="6.29072">
        <ele>697.59361072721</ele>
        <time>2021-10-12T22:38:53.974Z</time>
      </trkpt>
      <trkpt lat="44.12983" lon="6.29117">
        <ele>698.13448691642</ele>
        <time>2021-10-12T22:39:01.931Z</time>
      </trkpt>
      <trkpt lat="44.12988" lon="6.29127">
        <ele>698.40821088577</ele>
        <time>2021-10-12T22:39:09.891Z</time>
      </trkpt>
      <trkpt lat="44.12993" lon="6.29136">
        <ele>698.59944482705</ele>
        <time>2021-10-12T22:39:17.854Z</time>
      </trkpt>
      <trkpt lat="44.13001" lon="6.2914">
        <ele>698.70424064656</ele>
        <time>2021-10-12T22:39:25.819Z</time>
      </trkpt>
      <trkpt lat="44.13014" lon="6.29131">
        <ele>698.73658725481</ele>
        <time>2021-10-12T22:39:33.789Z</time>
      </trkpt>
      <trkpt lat="44.13045" lon="6.291">
        <ele>698.74352962217</ele>
        <time>2021-10-12T22:39:41.772Z</time>
      </trkpt>
      <trkpt lat="44.13075" lon="6.29073">
        <ele>698.7712501798</ele>
        <time>2021-10-12T22:39:49.767Z</time>
      </trkpt>
      <trkpt lat="44.13079" lon="6.2907">
        <ele>698.76117857238</ele>
        <time>2021-10-12T22:39:57.763Z</time>
      </trkpt>
      <trkpt lat="44.13095" lon="6.29062">
        <ele>698.69251237722</ele>
        <time>2021-10-12T22:40:05.765Z</time>
      </trkpt>
      <trkpt lat="44.13097" lon="6.29051">
        <ele>698.62674443799</ele>
        <time>2021-10-12T22:40:13.770Z</time>
      </trkpt>
      <trkpt lat="44.13098" lon="6.29046">
        <ele>698.55622751874</ele>
        <time>2021-10-12T22:40:21.776Z</time>
      </trkpt>
      <trkpt lat="44.13102" lon="6.29026">
        <ele>698.44722944916</ele>
        <time>2021-10-12T22:40:29.787Z</time>
      </trkpt>
      <trkpt lat="44.13109" lon="6.28989">
        <ele>698.30520926988</ele>
        <time>2021-10-12T22:40:37.807Z</time>
      </trkpt>
      <trkpt lat="44.13111" lon="6.28975">
        <ele>698.12265906023</ele>
        <time>2021-10-12T22:40:45.831Z</time>
      </trkpt>
      <trkpt lat="44.13113" lon="6.2896">
        <ele>697.89102584794</ele>
        <time>2021-10-12T22:40:53.858Z</time>
      </trkpt>
      <trkpt lat="44.13116" lon="6.28923">
        <ele>697.62326438727</ele>
        <time>2021-10-12T22:41:01.894Z</time>
      </trkpt>
      <trkpt lat="44.13121" lon="6.28862">
        <ele>697.23340043137</ele>
        <time>2021-10-12T22:41:09.945Z</time>
      </trkpt>
      <trkpt lat="44.13131" lon="6.28787">
        <ele>697.09979787461</ele>
        <time>2021-10-12T22:41:18.014Z</time>
      </trkpt>
      <trkpt lat="44.13134" lon="6.28718">
        <ele>696.86653135815</ele>
        <time>2021-10-12T22:41:26.100Z</time>
      </trkpt>
      <trkpt lat="44.13135" lon="6.28686">
        <ele>696.50989643961</ele>
        <time>2021-10-12T22:41:34.194Z</time>
      </trkpt>
      <trkpt lat="44.13137" lon="6.28637">
        <ele>696.09958814146</ele>
        <time>2021-10-12T22:41:42.299Z</time>
      </trkpt>
      <trkpt lat="44.13138" lon="6.2862">
        <ele>695.65707658679</ele>
        <time>2021-10-12T22:41:50.408Z</time>
      </trkpt>
      <trkpt lat="44.13138" lon="6.28597">
        <ele>695.18826282818</ele>
        <time>2021-10-12T22:41:58.523Z</time>
      </trkpt>
      <trkpt lat="44.13138" lon="6.28574">
        <ele>694.80869633949</ele>
        <time>2021-10-12T22:42:06.643Z</time>
      </trkpt>
      <trkpt lat="44.13135" lon="6.28521">
        <ele>694.47520836883</ele>
        <time>2021-10-12T22:42:14.776Z</time>
      </trkpt>
      <trkpt lat="44.13136" lon="6.28504">
        <ele>694.32159197999</ele>
        <time>2021-10-12T22:42:22.913Z</time>
      </trkpt>
      <trkpt lat="44.13138" lon="6.28492">
        <ele>694.20388378562</ele>
        <time>2021-10-12T22:42:31.053Z</time>
      </trkpt>
      <trkpt lat="44.13141" lon="6.28489">
        <ele>694.08185913972</ele>
        <time>2021-10-12T22:42:39.195Z</time>
      </trkpt>
      <trkpt lat="44.13144" lon="6.28489">
        <ele>693.96830934647</ele>
        <time>2021-10-12T22:42:47.338Z</time>
      </trkpt>
      <trkpt lat="44.1315" lon="6.28494">
        <ele>693.86787163009</ele>
        <time>2021-10-12T22:42:55.483Z</time>
      </trkpt>
      <trkpt lat="44.13174" lon="6.28511">
        <ele>693.75357544997</ele>
        <time>2021-10-12T22:43:03.637Z</time>
      </trkpt>
      <trkpt lat="44.13185" lon="6.28523">
        <ele>693.61000809642</ele>
        <time>2021-10-12T22:43:11.795Z</time>
      </trkpt>
      <trkpt lat="44.13188" lon="6.28525">
        <ele>693.48051246534</ele>
        <time>2021-10-12T22:43:19.955Z</time>
      </trkpt>
    </trkseg>
  </trk>
</gpx>